# Wetter Temperatur Luftdruck Luftfeuchtigkeit Sichtweite Windgeschwindigkeit Windrichtung Zeit
1 Clear 6 1023 60 10000 0.5 0 00:47 05.04.2020
2 Clear 6 1023 67 10000 1 70 00:22 05.04.2020
3 Clear 6 1023 67 10000 1 70 23:56 04.04.2020
4 Clear 6 1023 60 10000 0.5 0 23:38 04.04.2020
5 Clear 7 1023 56 10000 1 0 23:19 04.04.2020
6 Clear 7 1023 67 10000 1 80 22:55 04.04.2020
7 Clear 7 1023 67 10000 1 80 22:37 04.04.2020
8 Clear 7 1023 52 10000 1 70 22:19 04.04.2020
9 Clear 8 1023 67 10000 2.1 70 21:54 04.04.2020
10 Clear 8 1023 67 10000 2.1 70 21:36 04.04.2020
11 Clouds 9 1023 64 10000 2.6 70 21:18 04.04.2020
12 Clouds 10 1022 64 10000 2.1 90 20:42 04.04.2020
13 Clouds 11 1022 50 10000 3.6 70 20:23 04.04.2020
14 Clouds 12 1022 43 10000 3.6 80 19:58 04.04.2020
15 Clouds 13 1022 43 10000 3.6 80 19:37 04.04.2020
16 Clouds 13 1022 41 10000 3.1 90 19:19 04.04.2020
17 Clouds 13 1022 41 10000 3.1 90 18:57 04.04.2020
18 Clouds 14 1022 38 10000 3.1 80 18:38 04.04.2020
19 Clouds 14 1022 47 10000 2.1 80 18:19 04.04.2020
20 Clouds 14 1022 47 10000 2.1 80 18:19 04.04.2020
21 Clouds 14 1022 38 10000 3.1 60 17:56 04.04.2020
22 Clouds 14 1022 38 10000 3.1 60 17:38 04.04.2020
23 Clouds 14 1022 33 10000 3.1 70 17:18 04.04.2020
24 Clouds 14 1022 33 10000 3.1 50 16:42 04.04.2020
25 Clouds 15 1022 41 10000 3.1 20 16:23 04.04.2020
26 Clouds 14 1022 41 10000 3.1 60 15:58 04.04.2020
27 Clouds 14 1022 41 10000 3.1 60 15:38 04.04.2020
28 Clear 14 1023 41 10000 2.6 0 15:19 04.04.2020
29 Clear 14 1023 41 10000 2.6 0 15:19 04.04.2020
30 Clear 14 1023 41 10000 2.6 0 14:46 04.04.2020
31 Clear 13 1023 46 10000 1.5 0 14:25 04.04.2020
32 Clear 14 1023 46 10000 1.5 0 13:58 04.04.2020
33 Clouds 13 1023 46 10000 2.6 30 13:40 04.04.2020
34 Clouds 12 1023 46 10000 2.1 20 13:20 04.04.2020
35 Clouds 12 1023 46 10000 2.1 20 12:57 04.04.2020
36 Clear 12 1023 50 10000 1.5 60 12:39 04.04.2020
37 Clear 11 1024 57 10000 1.5 0 12:19 04.04.2020
38 Clear 10 1024 61 10000 1.5 0 11:41 04.04.2020
39 Clear 10 1024 61 10000 1 0 11:23 04.04.2020
40 Clear 9 1024 61 10000 1 0 10:58 04.04.2020
41 Clear 8 1024 65 10000 1 0 10:40 04.04.2020
42 Clear 7 1023 65 10000 0.5 0 10:22 04.04.2020
43 Clear 6 1023 70 10000 0.5 0 09:56 04.04.2020
44 Clear 6 1023 70 10000 0.5 0 09:38 04.04.2020
45 Clear 4 1023 77 10000 0.5 0 09:20 04.04.2020
46 Clear 3 1023 80 10000 0.5 0 08:43 04.04.2020
47 Clear 2 1023 80 10000 0.5 0 08:23 04.04.2020
48 Clear 1 1022 77 10000 1 120 07:59 04.04.2020
49 Clear 0 1022 77 10000 0.5 0 07:39 04.04.2020
50 Clear 0 1022 86 10000 0.6 101 07:21 04.04.2020
51 Clear 0 1021 92 10000 0.5 0 06:38 04.04.2020
52 Clear 1 1021 78 10000 0.5 0 05:52 04.04.2020
53 Clear 1 1021 78 10000 0.5 0 05:52 04.04.2020
54 Clear 1 1021 78 10000 0.5 0 05:32 04.04.2020
55 Clear 1 1021 80 10000 0.5 0 04:34 04.04.2020
56 Clear 2 1021 80 10000 0.07 315 03:57 04.04.2020
57 Clear 2 1021 80 10000 0.5 0 03:36 04.04.2020
58 Clouds 3 1021 74 10000 1 0 02:46 04.04.2020
59 Clouds 3 1021 74 10000 1 0 02:25 04.04.2020
60 Clouds 4 1020 74 10000 1 0 01:46 04.04.2020
61 Clouds 4 1020 80 10000 0.5 80 01:20 04.04.2020
62 Clouds 4 1020 74 10000 1.5 240 00:43 04.04.2020
63 Clouds 5 1020 75 10000 1 0 00:23 04.04.2020
64 Clouds 5 1020 75 10000 1 0 23:38 03.04.2020
65 Clouds 6 1020 75 10000 1.5 0 23:19 03.04.2020
66 Clouds 6 1019 75 10000 2.1 270 22:55 03.04.2020
67 Clouds 6 1019 75 10000 2.1 270 22:36 03.04.2020
68 Clouds 7 1019 75 10000 2.1 270 22:18 03.04.2020
69 Clouds 7 1019 75 10000 1.5 320 21:42 03.04.2020
70 Rain 8 1019 70 10000 2.6 310 21:22 03.04.2020
71 Rain 8 1018 70 10000 3.6 300 20:56 03.04.2020
72 Rain 9 1018 70 10000 3.6 300 20:36 03.04.2020
73 Clouds 9 1018 70 10000 4.1 290 20:18 03.04.2020
74 Clouds 9 1018 70 10000 4.1 290 20:18 03.04.2020
75 Clouds 10 1018 70 10000 4.1 290 19:56 03.04.2020
76 Clouds 10 1018 46 10000 4.6 300 19:37 03.04.2020
77 Clouds 10 1017 70 10000 5.7 310 19:19 03.04.2020
78 Clouds 10 1017 53 10000 5.7 310 18:58 03.04.2020
79 Clouds 10 1017 53 10000 5.7 310 18:40 03.04.2020
80 Clouds 11 1017 70 10000 3.1 290 18:21 03.04.2020
81 Clouds 11 1017 43 10000 5.1 300 17:43 03.04.2020
82 Clouds 11 1017 53 10000 3.6 310 17:21 03.04.2020
83 Clouds 11 1017 53 10000 3.6 310 17:21 03.04.2020
84 Clouds 11 1017 53 10000 4.1 330 16:58 03.04.2020
85 Clouds 12 1017 53 10000 4.1 330 16:40 03.04.2020
86 Clouds 12 1016 50 10000 4.1 320 16:21 03.04.2020
87 Clouds 12 1016 50 10000 4.1 320 15:57 03.04.2020
88 Clouds 12 1016 50 10000 3.1 330 15:38 03.04.2020
89 Clouds 12 1016 49 10000 1.5 220 15:19 03.04.2020
90 Clouds 12 1016 49 10000 1.5 220 15:19 03.04.2020
91 Clouds 12 1016 49 10000 2.1 0 14:41 03.04.2020
92 Clouds 12 1016 49 10000 2.1 0 14:41 03.04.2020
93 Clouds 12 1016 50 10000 2.1 0 14:22 03.04.2020
94 Clouds 12 1016 50 10000 2.1 0 13:59 03.04.2020
95 Clouds 11 1016 50 10000 2.1 0 13:40 03.04.2020
96 Clouds 11 1016 50 10000 2.1 0 13:22 03.04.2020
97 Clouds 10 1016 43 10000 2.6 250 12:43 03.04.2020
98 Clouds 9 1016 57 10000 3.1 280 12:20 03.04.2020
99 Clouds 9 1016 57 10000 3.1 280 11:57 03.04.2020
100 Clear 9 1016 57 10000 1.5 0 11:38 03.04.2020
101 Clear 9 1016 57 10000 1.5 0 11:38 03.04.2020
102 Clear 9 1016 57 10000 3.1 260 11:20 03.04.2020
103 Clear 9 1016 57 10000 3.1 260 10:59 03.04.2020
104 Clear 8 1016 57 10000 3.1 260 10:38 03.04.2020
105 Clear 7 1016 56 10000 2.6 230 10:20 03.04.2020
106 Clear 6 1016 56 10000 2.6 230 09:59 03.04.2020
107 Clear 5 1016 60 10000 2.6 250 09:40 03.04.2020
108 Clear 4 1015 60 10000 0.5 0 09:21 03.04.2020
109 Clear 5 1016 60 10000 2.6 250 09:21 03.04.2020
110 Clouds 3 1015 60 10000 0.5 0 08:56 03.04.2020
111 Clouds 3 1015 69 10000 0.5 110 08:37 03.04.2020
112 Clouds 2 1015 69 10000 1 0 08:19 03.04.2020
113 Clouds 1 1015 74 10000 2.1 240 07:46 03.04.2020
114 Clouds 1 1015 74 10000 2.1 240 07:46 03.04.2020
115 Clouds 1 1014 74 10000 3.6 310 07:28 03.04.2020
116 Clouds 0 1014 77 10000 0.5 0 06:41 03.04.2020
117 Clouds 0 1014 77 10000 5.1 270 06:22 03.04.2020
118 Clear 0 1013 74 10000 1 0 05:39 03.04.2020
119 Clear 1 1013 74 10000 3.1 280 03:42 03.04.2020
120 Clear 2 1013 69 10000 2.6 250 02:56 03.04.2020
121 Clear 2 1013 56 10000 4.6 280 02:18 03.04.2020
122 Clear 3 1012 64 10000 4.1 260 01:22 03.04.2020
123 Clear 4 1012 52 10000 3.1 260 00:36 03.04.2020
124 Clear 4 1012 52 10000 3.1 270 00:18 03.04.2020
125 Clear 4 1011 55 10000 2.1 260 23:42 02.04.2020
126 Clear 4 1011 52 10000 2.1 240 23:23 02.04.2020
127 Clear 5 1011 52 10000 2.1 240 22:58 02.04.2020
128 Clear 5 1011 48 10000 1.5 240 22:38 02.04.2020
129 Clear 5 1011 42 10000 1.5 250 22:20 02.04.2020
130 Clear 6 1011 42 10000 1.5 250 21:39 02.04.2020
131 Clear 6 1011 42 10000 1.5 250 21:39 02.04.2020
132 Clear 6 1011 42 10000 2.1 280 21:20 02.04.2020
133 Clear 7 1011 42 10000 2.1 280 20:58 02.04.2020
134 Clear 8 1010 31 10000 3.1 310 20:40 02.04.2020
135 Clear 9 1010 29 10000 2.6 330 20:21 02.04.2020
136 Clear 10 1010 32 10000 4.1 330 19:44 02.04.2020
137 Clear 11 1010 32 10000 3.6 340 19:21 02.04.2020
138 Clear 11 1010 32 10000 3.6 340 19:21 02.04.2020
139 Clear 12 1010 34 10000 3.6 360 18:59 02.04.2020
140 Clear 12 1010 34 10000 3.6 360 18:41 02.04.2020
141 Clear 13 1010 34 10000 3.1 360 18:20 02.04.2020
142 Clear 13 1010 35 10000 3.6 340 17:57 02.04.2020
143 Clear 13 1010 35 10000 3.6 340 17:39 02.04.2020
144 Clear 13 1010 32 10000 3.1 360 17:20 02.04.2020
145 Clear 13 1010 32 10000 3.1 360 16:56 02.04.2020
146 Clear 13 1010 32 10000 3.6 0 16:38 02.04.2020
147 Clear 13 1010 32 10000 4.6 30 16:20 02.04.2020
148 Clear 13 1010 32 10000 4.6 30 15:55 02.04.2020
149 Clear 13 1011 32 10000 4.6 360 15:37 02.04.2020
150 Clear 13 1011 34 10000 4.1 340 15:18 02.04.2020
151 Clear 12 1011 35 10000 4.1 340 14:40 02.04.2020
152 Clear 12 1011 30 10000 2.1 0 14:21 02.04.2020
153 Clear 12 1012 34 10000 2.1 0 13:59 02.04.2020
154 Clear 12 1012 34 10000 2.1 0 13:39 02.04.2020
155 Clear 12 1012 34 10000 2.1 320 13:21 02.04.2020
156 Clear 11 1012 40 10000 1.5 0 12:57 02.04.2020
157 Clear 11 1012 40 10000 1.5 0 12:39 02.04.2020
158 Clear 10 1013 39 10000 1.5 0 12:19 02.04.2020
159 Clear 9 1013 39 10000 1.5 0 11:57 02.04.2020
160 Clear 9 1013 45 10000 1.5 110 11:38 02.04.2020
161 Clear 8 1013 49 10000 1.5 150 11:19 02.04.2020
162 Clear 8 1013 49 10000 1.5 150 11:19 02.04.2020
163 Clear 7 1013 49 10000 1.5 150 10:55 02.04.2020
164 Clear 7 1013 56 10000 1 0 10:37 02.04.2020
165 Clear 6 1013 60 10000 1 0 10:19 02.04.2020
166 Clear 4 1013 64 10000 1 0 09:56 02.04.2020
167 Clear 3 1013 64 10000 1 0 09:38 02.04.2020
168 Clear 1 1013 69 10000 1 0 09:19 02.04.2020
169 Clear 0 1014 72 10000 1 0 08:46 02.04.2020
170 Clear -1 1013 79 10000 0.5 0 08:26 02.04.2020
171 Clear -2 1013 86 10000 1 0 07:45 02.04.2020
172 Clear -3 1013 86 10000 0.5 110 07:21 02.04.2020
173 Clear -3 1013 79 10000 0.5 0 06:58 02.04.2020
174 Clear -2 1013 79 10000 1 70 06:22 02.04.2020
175 Clear -2 1013 79 10000 1 120 05:45 02.04.2020
176 Clear -2 1014 79 10000 0.5 260 04:35 02.04.2020
177 Clear 0 1015 64 10000 0.96 155 01:52 02.04.2020
178 Clear 0 1015 64 10000 2.6 280 00:50 02.04.2020
179 Clear 0 1015 64 10000 2.6 280 00:50 02.04.2020
180 Clear 0 1015 77 10000 1.5 240 00:28 02.04.2020
181 Clear 1 1015 55 10000 1.5 240 23:57 01.04.2020
182 Clear 1 1015 55 10000 1.5 240 23:37 01.04.2020
183 Clear 1 1015 55 10000 1.5 240 23:37 01.04.2020
184 Clear 2 1015 55 10000 1 230 23:18 01.04.2020
185 Clear 3 1015 41 10000 0.5 0 22:41 01.04.2020
186 Clear 3 1015 41 10000 0.5 0 22:22 01.04.2020
187 Clear 4 1015 44 10000 2.1 360 21:57 01.04.2020
188 Clear 4 1015 45 10000 3.1 360 21:39 01.04.2020
189 Clear 4 1015 45 10000 3.1 10 21:19 01.04.2020
190 Clear 5 1015 45 10000 3.1 10 20:55 01.04.2020
191 Clear 6 1015 39 10000 2.6 10 20:37 01.04.2020
192 Clear 7 1015 39 10000 2.1 360 20:18 01.04.2020
193 Clear 8 1015 29 10000 1.5 350 19:43 01.04.2020
194 Clear 8 1015 29 10000 1.5 350 19:43 01.04.2020
195 Clear 9 1016 25 10000 0.5 0 19:23 01.04.2020
196 Clear 10 1016 25 10000 0.5 0 18:59 01.04.2020
197 Clear 10 1016 27 10000 1 0 18:41 01.04.2020
198 Clear 10 1016 27 10000 1 0 18:21 01.04.2020
199 Clear 11 1016 27 10000 1 0 17:56 01.04.2020
200 Clear 11 1016 27 10000 1 0 17:37 01.04.2020
201 Clear 11 1016 29 10000 2.1 0 17:18 01.04.2020
202 Clear 11 1016 29 10000 2.1 0 16:56 01.04.2020
203 Clear 10 1017 29 10000 1.5 0 16:38 01.04.2020
204 Clear 10 1017 29 10000 1.5 0 16:20 01.04.2020
205 Clear 10 1017 31 10000 1.5 0 15:42 01.04.2020
206 Clear 10 1018 31 10000 2.6 110 15:22 01.04.2020
207 Clear 10 1018 29 10000 1.5 0 14:59 01.04.2020
208 Clear 10 1018 29 10000 1.5 0 14:40 01.04.2020
209 Clear 10 1018 29 10000 1.5 0 14:40 01.04.2020
210 Clouds 9 1019 36 10000 1.5 0 14:21 01.04.2020
211 Clouds 8 1019 33 10000 2.6 0 13:59 01.04.2020
212 Clouds 8 1019 33 10000 2.6 0 13:39 01.04.2020
213 Clouds 8 1020 39 10000 2.6 120 13:20 01.04.2020
214 Clouds 8 1020 39 10000 2.6 120 13:20 01.04.2020
215 Clouds 8 1020 39 10000 3.1 80 12:58 01.04.2020
216 Clouds 8 1020 39 10000 3.1 80 12:40 01.04.2020
217 Clouds 6 1020 41 10000 3.1 90 12:21 01.04.2020
218 Clouds 6 1020 41 10000 3.1 90 11:56 01.04.2020
219 Clouds 5 1021 48 10000 2.1 60 11:37 01.04.2020
220 Clouds 5 1021 48 10000 2.1 0 11:18 01.04.2020
221 Clouds 4 1021 51 10000 1 0 10:39 01.04.2020
222 Clouds 3 1021 55 10000 2.1 80 10:21 01.04.2020
223 Clouds 2 1021 59 10000 1.5 80 09:59 01.04.2020
224 Clouds 2 1021 59 10000 1.5 80 09:40 01.04.2020
225 Clear 0 1021 59 10000 0.5 0 09:20 01.04.2020
226 Clear 0 1021 59 10000 0.5 0 08:56 01.04.2020
227 Clear -2 1021 64 10000 0.5 0 08:37 01.04.2020
228 Clear -2 1021 74 10000 1.5 340 08:18 01.04.2020
229 Clear -3 1021 73 10000 1 330 07:41 01.04.2020
230 Clear -4 1021 73 10000 1 320 07:19 01.04.2020
231 Clear -3 1022 73 10000 0.5 0 06:43 01.04.2020
232 Clear -3 1022 73 10000 0.5 0 06:21 01.04.2020
233 Clear -3 1022 74 10000 0.5 0 05:41 01.04.2020
234 Clear -3 1022 74 10000 1 0 04:29 01.04.2020
235 Clear -2 1023 74 10000 0.5 0 03:20 01.04.2020
236 Clear -2 1023 74 10000 1 70 02:37 01.04.2020
237 Clear -1 1024 63 10000 0.5 0 01:53 01.04.2020
238 Clear -1 1024 63 10000 0.5 0 01:27 01.04.2020
239 Clear -1 1024 87 10000 0.5 0 00:47 01.04.2020
240 Clear 0 1024 81 10000 0.5 0 00:24 01.04.2020
241 Clear 0 1024 81 10000 0.5 0 23:59 31.03.2020
242 Clear 0 1025 81 10000 1 80 23:41 31.03.2020
243 Clear 0 1025 55 10000 1.5 60 23:22 31.03.2020
244 Clear 1 1025 59 10000 0.5 0 22:41 31.03.2020
245 Clear 2 1025 51 10000 1.5 30 22:22 31.03.2020
246 Clear 2 1025 55 10000 2.1 30 21:59 31.03.2020
247 Clear 2 1025 55 10000 2.1 30 21:40 31.03.2020
248 Clear 2 1025 55 10000 2.1 30 21:40 31.03.2020
249 Clouds 2 1025 51 10000 2.6 40 21:21 31.03.2020
250 Clouds 3 1025 51 10000 2.6 40 20:58 31.03.2020
251 Clouds 3 1025 47 10000 3.6 50 20:38 31.03.2020
252 Clouds 4 1025 47 10000 3.6 50 20:20 31.03.2020
253 Clouds 4 1025 47 10000 3.6 50 19:59 31.03.2020
254 Clouds 5 1025 41 10000 4.1 50 19:40 31.03.2020
255 Clouds 5 1025 44 10000 6.2 60 19:21 31.03.2020
256 Clouds 6 1025 38 10000 3.6 30 18:54 31.03.2020
257 Clouds 6 1025 38 10000 3.6 30 18:36 31.03.2020
258 Clouds 6 1024 39 10000 5.7 40 18:18 31.03.2020
259 Clouds 6 1024 38 10000 3.6 30 17:54 31.03.2020
260 Clouds 7 1024 38 10000 3.6 30 17:36 31.03.2020
261 Clouds 7 1025 38 10000 5.7 70 17:18 31.03.2020
262 Clouds 7 1025 38 10000 4.1 20 16:37 31.03.2020
263 Clouds 7 1025 35 10000 5.1 50 16:18 31.03.2020
264 Clouds 7 1025 35 10000 5.1 50 15:57 31.03.2020
265 Clouds 7 1025 41 10000 4.1 40 15:38 31.03.2020
266 Clouds 7 1025 39 10000 5.1 40 15:19 31.03.2020
267 Clouds 7 1025 39 10000 5.1 40 14:56 31.03.2020
268 Clouds 7 1025 39 10000 5.1 40 14:56 31.03.2020
269 Clouds 6 1025 38 10000 5.1 20 14:38 31.03.2020
270 Clouds 6 1025 41 10000 4.6 20 14:18 31.03.2020
271 Clouds 6 1025 48 10000 4.1 10 13:42 31.03.2020
272 Clouds 6 1025 48 10000 4.1 40 13:19 31.03.2020
273 Clouds 6 1025 52 10000 3.6 50 12:55 31.03.2020
274 Clouds 6 1025 52 10000 3.6 50 12:37 31.03.2020
275 Clouds 5 1026 52 10000 4.1 80 12:18 31.03.2020
276 Clouds 5 1026 52 10000 2.6 80 11:38 31.03.2020
277 Clouds 4 1026 55 10000 1.5 70 11:20 31.03.2020
278 Clouds 4 1026 51 10000 1 0 10:58 31.03.2020
279 Clouds 4 1026 51 10000 1 0 10:39 31.03.2020
280 Clouds 3 1026 61 10000 1 0 10:21 31.03.2020
281 Clouds 3 1026 61 10000 1 0 09:56 31.03.2020
282 Clouds 2 1025 68 10000 1 0 09:37 31.03.2020
283 Clouds 2 1025 68 10000 1 0 09:37 31.03.2020
284 Clouds 2 1025 68 10000 1 0 09:37 31.03.2020
285 Clouds 0 1025 68 10000 1 0 09:19 31.03.2020
286 Clouds 0 1025 68 10000 1 0 08:56 31.03.2020
287 Clouds -1 1025 79 10000 1 0 08:37 31.03.2020
288 Clouds -2 1025 79 10000 1 0 08:18 31.03.2020
289 Clouds -2 1024 73 10000 1.5 320 07:54 31.03.2020
290 Clouds -2 1024 73 10000 1.5 320 07:36 31.03.2020
291 Clouds -2 1024 79 10000 0.5 0 07:18 31.03.2020
292 Clear -2 1024 73 10000 0.5 0 06:42 31.03.2020
293 Clear -2 1024 73 10000 1 200 05:57 31.03.2020
294 Clear -2 1024 73 10000 1 200 05:38 31.03.2020
295 Clear -2 1024 74 10000 1 210 03:27 31.03.2020
296 Clear -2 1024 63 10000 2.6 300 01:52 31.03.2020
297 Clear -2 1024 63 10000 2.6 300 01:33 31.03.2020
298 Clear -1 1024 58 10000 1 300 00:46 31.03.2020
299 Clear -1 1024 58 10000 0.5 230 00:24 31.03.2020
300 Clear -1 1024 47 10000 1 0 23:41 30.03.2020
301 Clear -1 1024 78 10000 2.1 70 23:20 30.03.2020
302 Clear -1 1024 78 10000 2.1 70 22:58 30.03.2020
303 Clear 0 1024 47 10000 2.1 50 22:58 30.03.2020
304 Clear 0 1024 47 10000 2.1 50 22:39 30.03.2020
305 Clear 0 1024 43 10000 3.1 20 22:20 30.03.2020
306 Clear 1 1024 43 10000 3.1 20 21:58 30.03.2020
307 Clear 1 1024 43 10000 2.6 20 21:39 30.03.2020
308 Clear 1 1024 40 10000 3.1 20 21:20 30.03.2020
309 -273 0 0 0 0 0 20:59 30.03.2020
310 Clear 3 1024 37 10000 3.6 20 20:39 30.03.2020
311 Clear 3 1023 37 10000 3.6 20 20:20 30.03.2020
312 Clear 3 1023 37 10000 3.6 20 20:20 30.03.2020
313 Clear 3 1023 37 10000 3.6 20 20:20 30.03.2020
314 Clear 4 1023 35 10000 4.1 10 19:57 30.03.2020
315 Clear 5 1023 35 10000 4.1 10 19:39 30.03.2020
316 Clear 5 1023 30 10000 3.6 30 19:20 30.03.2020
317 Clouds 5 1023 30 10000 4.6 20 18:43 30.03.2020
318 Clouds 6 1023 33 10000 4.6 80 18:25 30.03.2020
319 Clouds 6 1023 30 10000 4.1 40 17:58 30.03.2020
320 Clouds 6 1023 30 10000 4.1 40 17:39 30.03.2020
321 Clouds 6 1023 30 10000 4.1 40 17:39 30.03.2020
322 Clouds 6 1023 30 10000 5.7 20 17:21 30.03.2020
323 Clouds 6 1023 30 10000 5.7 20 16:59 30.03.2020
324 Clouds 6 1023 30 10000 6.2 30 16:40 30.03.2020
325 -273 0 0 0 0 0 16:21 30.03.2020
326 Clouds 6 1024 38 10000 5.1 20 15:56 30.03.2020
327 Clouds 6 1024 33 10000 6.2 20 15:56 30.03.2020
328 Clouds 6 1024 38 10000 5.1 20 15:38 30.03.2020
329 Clouds 5 1024 44 10000 4.6 30 15:20 30.03.2020
330 Clouds 5 1024 48 10000 4.1 20 14:58 30.03.2020
331 Clouds 5 1024 48 10000 4.1 20 14:37 30.03.2020
332 Clouds 5 1024 48 10000 4.6 360 14:18 30.03.2020
333 Clouds 5 1024 48 10000 4.6 360 13:57 30.03.2020
334 Clouds 5 1024 48 10000 3.1 360 13:38 30.03.2020
335 Clouds 4 1025 51 10000 3.6 60 13:19 30.03.2020
336 Clouds 3 1025 51 10000 4.1 20 12:45 30.03.2020
337 Clouds 2 1025 51 10000 4.1 50 12:21 30.03.2020
338 Clouds 2 1025 51 10000 4.1 50 12:21 30.03.2020
339 Clouds 2 1025 51 10000 4.1 50 11:58 30.03.2020
340 Clouds 2 1026 59 10000 5.1 60 11:40 30.03.2020
341 Clouds 2 1026 59 10000 5.7 70 11:21 30.03.2020
342 Clouds 1 1026 64 10000 5.7 40 10:55 30.03.2020
343 Clouds 1 1026 64 10000 5.7 40 10:37 30.03.2020
344 Clouds 0 1026 69 10000 5.7 30 10:18 30.03.2020
345 Clouds -1 1026 68 10000 5.7 20 09:40 30.03.2020
346 Clouds -1 1026 68 10000 5.7 20 09:19 30.03.2020
347 Clouds -1 1026 68 10000 5.7 20 09:19 30.03.2020
348 Clouds -1 1026 68 10000 5.7 20 08:57 30.03.2020
349 Clouds -1 1026 68 10000 6.2 30 08:38 30.03.2020
350 Clouds -1 1025 74 10000 5.7 20 08:19 30.03.2020
351 Clouds -1 1025 91 10000 4.6 10 07:43 30.03.2020
352 Clouds -1 1025 91 10000 5.7 20 07:21 30.03.2020
353 Clouds -1 1025 91 10000 5.1 30 06:47 30.03.2020
354 Clouds -1 1025 92 10000 6.2 30 06:25 30.03.2020
355 Clouds 0 1025 92 10000 5.7 20 05:44 30.03.2020
356 Clouds 0 1025 74 10000 5.1 30 04:31 30.03.2020
357 Clouds 0 1025 74 10000 6.7 20 03:57 30.03.2020
358 Clouds 1 1025 80 10000 6.7 30 02:45 30.03.2020
359 Clouds 1 1025 80 10000 7.7 30 01:58 30.03.2020
360 Snow 1 1025 86 10000 6.2 20 01:18 30.03.2020
361 Snow 1 1024 77 9000 5.7 20 00:29 30.03.2020
362 Clouds 2 1024 77 10000 6.2 20 23:56 29.03.2020
363 Clouds 2 1024 77 10000 6.2 20 23:37 29.03.2020
364 Clouds 2 1024 77 10000 6.2 20 23:37 29.03.2020
365 Rain 2 1023 93 10000 5.7 20 23:19 29.03.2020
366 Rain 3 1023 93 10000 7.2 10 22:55 29.03.2020
367 Rain 3 1023 93 10000 7.2 10 22:37 29.03.2020
368 Rain 3 1023 93 10000 7.2 10 22:37 29.03.2020
369 Rain 3 1023 86 8000 4.6 10 22:18 29.03.2020
370 Rain 3 1023 93 9000 4.1 350 21:38 29.03.2020
371 Rain 3 1022 93 7000 3.1 40 21:20 29.03.2020
372 Rain 3 1022 93 7000 3.1 40 20:56 29.03.2020
373 Rain 3 1022 93 7000 3.6 50 20:37 29.03.2020
374 Rain 3 1022 86 7000 4.6 20 20:19 29.03.2020
375 Rain 3 1022 86 7000 4.6 20 19:58 29.03.2020
376 Rain 3 1021 93 9000 6.2 10 19:40 29.03.2020
377 Rain 3 1021 93 9000 5.1 10 19:22 29.03.2020
378 Rain 4 1021 93 10000 3.6 350 18:57 29.03.2020
379 Rain 3 1021 93 10000 3.6 350 18:38 29.03.2020
380 Rain 4 1020 93 10000 4.1 350 18:20 29.03.2020
381 Rain 3 1020 86 6000 3.1 330 17:56 29.03.2020
382 Rain 3 1020 86 6000 3.1 330 17:38 29.03.2020
383 Snow 4 1020 86 6000 3.1 330 17:19 29.03.2020
384 Snow 4 1020 86 6000 3.1 330 16:56 29.03.2020
385 Snow 3 1020 93 7000 3.1 330 16:38 29.03.2020
386 Snow 3 1020 93 8000 2.6 340 16:19 29.03.2020
387 Snow 3 1020 93 5000 4.6 350 15:43 29.03.2020
388 Snow 3 1020 93 5000 4.6 350 15:25 29.03.2020
389 Snow 4 1020 93 5000 5.1 320 14:59 29.03.2020
390 Snow 4 1020 93 5000 5.1 320 14:40 29.03.2020
391 Snow 4 1020 93 4700 3.6 340 14:20 29.03.2020
392 Snow 4 1020 93 2500 5.1 340 13:58 29.03.2020
393 Snow 4 1020 93 2500 5.1 340 13:40 29.03.2020
394 Rain 3 1020 69 10000 4.6 350 13:21 29.03.2020
395 Rain 4 1020 69 10000 5.1 350 12:57 29.03.2020
396 Rain 4 1020 69 10000 5.1 350 12:38 29.03.2020
397 Clouds 4 1020 77 10000 5.7 340 12:19 29.03.2020
398 Clouds 4 1020 77 10000 4.1 340 11:57 29.03.2020
399 Clouds 4 1020 77 10000 4.1 340 11:57 29.03.2020
400 Clouds 4 1020 77 10000 4.1 340 11:37 29.03.2020
401 Snow 4 1020 77 7000 4.1 350 11:19 29.03.2020
402 Rain 5 1020 69 10000 5.1 350 10:39 29.03.2020
403 Rain 5 1019 77 10000 5.7 350 10:20 29.03.2020
404 Rain 4 1019 77 10000 5.7 350 09:55 29.03.2020
405 Clouds 4 1019 77 10000 5.7 340 09:37 29.03.2020
406 Clouds 4 1019 76 10000 5.7 340 09:18 29.03.2020
407 Clouds 4 1019 76 10000 6.2 340 08:43 29.03.2020
408 Clouds 4 1019 69 10000 4.6 340 08:24 29.03.2020
409 Clouds 4 1018 69 10000 3.6 340 07:47 29.03.2020
410 Clouds 4 1018 69 10000 4.1 340 07:23 29.03.2020
411 Clouds 5 1018 60 10000 5.1 340 05:59 29.03.2020
412 Clouds 5 1018 56 10000 5.1 350 04:56 29.03.2020
413 Clouds 6 1018 52 10000 4.6 350 03:41 29.03.2020
414 Clouds 6 1018 52 10000 4.6 350 03:20 29.03.2020
415 Clouds 7 1018 70 10000 3.6 340 01:40 29.03.2020
416 Clouds 7 1018 69 10000 3.6 340 01:21 29.03.2020
417 Clouds 7 1018 69 10000 3.1 350 00:40 29.03.2020
418 Clouds 7 1017 69 10000 2.6 350 00:19 29.03.2020
419 Clouds 7 1017 69 10000 2.6 350 23:41 28.03.2020
420 Clouds 7 1017 57 10000 2.1 20 23:22 28.03.2020
421 Clear 8 1017 53 10000 3.6 360 22:46 28.03.2020
422 Clear 8 1017 57 10000 2.6 340 22:23 28.03.2020
423 Clear 8 1017 57 10000 2.6 340 21:59 28.03.2020
424 Clear 8 1016 57 10000 3.6 310 21:40 28.03.2020
425 Clear 9 1016 53 10000 2.6 310 21:21 28.03.2020
426 Clear 9 1016 53 10000 2.6 310 20:57 28.03.2020
427 Clear 10 1016 46 10000 2.1 340 20:38 28.03.2020
428 Clear 10 1016 43 10000 3.1 350 20:20 28.03.2020
429 Clear 11 1016 43 10000 3.1 350 19:55 28.03.2020
430 Clear 12 1016 43 10000 3.1 350 19:36 28.03.2020
431 Clear 11 1016 43 10000 3.1 350 19:36 28.03.2020
432 Clear 12 1016 43 10000 3.6 350 19:18 28.03.2020
433 Clear 14 1015 41 10000 4.6 350 18:42 28.03.2020
434 Clear 15 1015 38 10000 4.6 350 18:22 28.03.2020
435 Clear 15 1015 41 10000 5.1 340 17:58 28.03.2020
436 Clear 15 1015 41 10000 5.1 340 17:38 28.03.2020
437 Clear 16 1015 38 10000 3.6 330 17:18 28.03.2020
438 Clear 16 1015 38 10000 3.1 10 16:42 28.03.2020
439 Clear 16 1015 38 10000 3.1 350 16:20 28.03.2020
440 Clear 16 1015 38 10000 3.1 350 15:56 28.03.2020
441 Clear 16 1016 41 10000 3.1 360 15:37 28.03.2020
442 Clear 16 1016 38 10000 3.6 340 15:18 28.03.2020
443 Clear 16 1016 38 10000 2.6 360 14:42 28.03.2020
444 Clear 15 1016 41 10000 3.1 10 14:22 28.03.2020
445 Clear 15 1016 38 10000 3.1 360 13:56 28.03.2020
446 Clear 15 1016 38 10000 3.1 360 13:37 28.03.2020
447 Clear 15 1017 38 10000 2.1 0 13:18 28.03.2020
448 Clear 14 1017 41 10000 2.6 350 12:38 28.03.2020
449 Clear 14 1017 44 10000 2.1 40 12:19 28.03.2020
450 Clear 13 1017 50 10000 1 0 11:42 28.03.2020
451 Clear 13 1017 47 10000 1 0 11:21 28.03.2020
452 Clear 12 1017 57 10000 1 0 10:56 28.03.2020
453 Clear 12 1017 57 10000 1 0 10:37 28.03.2020
454 Clear 11 1017 57 10000 1.5 100 10:18 28.03.2020
455 Clear 10 1017 66 10000 1 0 09:41 28.03.2020
456 Clear 9 1017 75 10000 1 0 09:22 28.03.2020
457 Clear 7 1017 70 10000 0.5 220 08:45 28.03.2020
458 Clear 5 1017 70 10000 0.5 220 08:26 28.03.2020
459 Clouds 5 1017 75 10000 1 0 07:59 28.03.2020
460 Clouds 4 1017 80 10000 0.5 0 07:41 28.03.2020
461 Clouds 2 1016 79 10000 0.5 0 06:54 28.03.2020
462 Clouds 2 1016 79 10000 0.5 0 06:29 28.03.2020
463 Clouds 2 1016 79 10000 0.5 0 05:39 28.03.2020
464 Clouds 3 1016 79 10000 0.5 0 05:19 28.03.2020
465 Clouds 2 1016 80 10000 0.5 280 04:39 28.03.2020
466 Clouds 4 1016 80 10000 1 270 02:55 28.03.2020
467 Clouds 4 1016 80 10000 1 0 01:48 28.03.2020
468 Clouds 4 1016 80 10000 1 0 01:24 28.03.2020
469 Clouds 5 1015 75 10000 1 0 00:55 28.03.2020
470 Clouds 5 1015 75 10000 1.5 310 00:33 28.03.2020
471 Clouds 6 1015 80 10000 0.5 0 23:54 27.03.2020
472 Clouds 6 1015 80 10000 0.5 0 23:36 27.03.2020
473 Clouds 6 1015 70 10000 0.5 0 23:18 27.03.2020
474 Clouds 7 1016 61 10000 2.1 90 22:54 27.03.2020
475 Clouds 7 1016 61 10000 2.1 90 22:36 27.03.2020
476 Clouds 7 1015 61 10000 1 270 22:18 27.03.2020
477 Clouds 7 1015 57 10000 1.5 260 21:42 27.03.2020
478 Clouds 8 1015 57 10000 2.1 330 21:23 27.03.2020
479 Clouds 9 1015 57 10000 2.1 330 20:58 27.03.2020
480 Clouds 9 1015 57 10000 2.1 330 20:58 27.03.2020
481 Clouds 9 1015 57 10000 2.1 330 20:58 27.03.2020
482 Clouds 9 1015 61 10000 2.6 340 20:39 27.03.2020
483 Clouds 10 1015 57 10000 3.1 350 20:20 27.03.2020
484 Clouds 11 1014 54 10000 3.1 350 19:56 27.03.2020
485 Clouds 11 1014 54 10000 3.1 350 19:38 27.03.2020
486 Clouds 12 1014 50 10000 3.1 350 19:20 27.03.2020
487 Clouds 13 1014 47 10000 2.6 20 18:44 27.03.2020
488 Clouds 13 1014 47 10000 2.6 20 18:44 27.03.2020
489 Clouds 14 1014 44 10000 3.1 20 18:23 27.03.2020
490 Clouds 14 1014 44 10000 3.6 20 17:57 27.03.2020
491 Clouds 14 1014 44 10000 3.6 20 17:38 27.03.2020
492 Clear 15 1014 38 10000 4.1 30 17:19 27.03.2020
493 Clear 15 1013 38 10000 1 0 16:44 27.03.2020
494 Clear 15 1014 41 10000 2.6 0 16:25 27.03.2020
495 Clear 15 1014 41 10000 1 0 15:55 27.03.2020
496 Clear 15 1014 41 10000 1 0 15:37 27.03.2020
497 Clear 14 1014 44 10000 1.5 0 15:19 27.03.2020
498 Clear 14 1014 41 10000 1.5 0 14:43 27.03.2020
499 Clear 13 1014 43 10000 2.6 350 14:24 27.03.2020
500 Clear 13 1015 46 10000 2.6 360 13:55 27.03.2020
501 Clear 13 1015 46 10000 2.6 360 13:36 27.03.2020
502 Clear 12 1015 49 10000 3.6 10 13:18 27.03.2020
503 Clear 12 1015 49 10000 3.6 10 13:18 27.03.2020
504 Clear 11 1015 50 10000 2.6 0 12:43 27.03.2020
505 Clear 9 1015 49 10000 3.1 40 12:19 27.03.2020
506 Clear 9 1015 49 10000 1.5 0 11:55 27.03.2020
507 Clear 9 1015 49 10000 1.5 0 11:36 27.03.2020
508 Clear 8 1015 52 10000 2.1 0 11:18 27.03.2020
509 Clear 7 1015 56 10000 1 0 10:42 27.03.2020
510 Clear 7 1015 56 10000 1 0 10:42 27.03.2020
511 Clear 7 1015 56 10000 1 0 10:22 27.03.2020
512 Clear 7 1015 56 10000 1 0 10:22 27.03.2020
513 Clear 7 1015 56 10000 1 0 09:59 27.03.2020
514 Clear 6 1015 56 10000 1 0 09:41 27.03.2020
515 Clear 5 1015 60 10000 1.5 90 09:23 27.03.2020
516 Clear 5 1015 60 10000 1.5 90 08:59 27.03.2020
517 Clear 4 1014 60 10000 1 0 08:40 27.03.2020
518 Clouds 2 1014 64 10000 0.5 0 08:22 27.03.2020
519 Clouds 1 1014 74 10000 0.5 0 07:59 27.03.2020
520 Clouds 0 1014 74 10000 0.5 0 07:41 27.03.2020
521 Clouds 0 1014 74 10000 2.6 300 07:21 27.03.2020
522 Clouds 0 1014 69 10000 2.6 310 06:40 27.03.2020
523 Clouds -1 1014 84 10000 1 0 05:57 27.03.2020
524 Clouds 1 1014 74 10000 1.5 40 03:34 27.03.2020
525 Clouds 3 1015 69 10000 3.1 360 01:56 27.03.2020
526 Clouds 3 1015 64 10000 4.1 360 01:19 27.03.2020
527 Clouds 3 1015 69 10000 4.1 10 00:43 27.03.2020
528 Clouds 3 1015 64 10000 3.1 350 00:19 27.03.2020
529 Clouds 3 1015 64 10000 3.1 10 23:42 26.03.2020
530 Clouds 3 1015 64 10000 4.6 20 23:19 26.03.2020
531 Clouds 3 1016 60 10000 4.1 20 22:57 26.03.2020
532 Clouds 4 1016 60 10000 4.1 20 22:36 26.03.2020
533 Clouds 4 1016 60 10000 2.6 30 22:18 26.03.2020
534 Clouds 5 1016 56 10000 4.1 20 21:40 26.03.2020
535 Clouds 4 1016 56 10000 4.6 10 21:22 26.03.2020
536 Clouds 5 1016 56 10000 4.6 10 20:59 26.03.2020
537 Clouds 5 1016 56 10000 5.1 10 20:39 26.03.2020
538 Clouds 5 1016 52 10000 3.6 10 20:21 26.03.2020
539 Clouds 5 1016 52 10000 3.6 10 19:58 26.03.2020
540 Clouds 6 1016 52 10000 4.1 10 19:40 26.03.2020
541 Clouds 6 1016 52 10000 4.1 20 19:21 26.03.2020
542 Clouds 6 1016 48 10000 5.1 40 18:58 26.03.2020
543 Clouds 7 1016 48 10000 5.1 40 18:40 26.03.2020
544 Clouds 7 1016 48 10000 5.1 60 18:22 26.03.2020
545 Clouds 8 1016 45 10000 6.7 60 17:45 26.03.2020
546 Clouds 7 1016 49 10000 6.2 70 17:20 26.03.2020
547 Clouds 7 1016 45 10000 6.2 70 16:59 26.03.2020
548 Clouds 7 1016 45 10000 6.2 70 16:38 26.03.2020
549 Clouds 7 1017 48 10000 7.2 60 16:20 26.03.2020
550 Clouds 7 1017 48 10000 7.2 60 15:56 26.03.2020
551 Clouds 7 1017 48 10000 5.1 40 15:38 26.03.2020
552 Clouds 7 1017 45 10000 4.6 90 15:19 26.03.2020
553 Clouds 7 1017 48 10000 4.6 90 14:43 26.03.2020
554 Clear 7 1017 45 10000 4.6 90 14:25 26.03.2020
555 Clear 7 1017 45 10000 5.7 90 13:56 26.03.2020
556 Clear 7 1017 45 10000 5.7 90 13:38 26.03.2020
557 Clouds 7 1017 45 10000 5.7 80 13:20 26.03.2020
558 Clouds 7 1017 45 10000 5.7 80 12:39 26.03.2020
559 Clouds 7 1017 45 10000 6.2 90 12:21 26.03.2020
560 Clouds 6 1017 48 10000 5.1 90 11:56 26.03.2020
561 Clouds 6 1017 48 10000 5.1 90 11:56 26.03.2020
562 Clouds 6 1017 48 10000 5.1 70 11:37 26.03.2020
563 Clear 5 1017 48 10000 5.1 70 11:19 26.03.2020
564 Clear 5 1017 51 10000 5.1 90 10:42 26.03.2020
565 Clear 4 1017 55 10000 5.7 70 10:20 26.03.2020
566 Clear 3 1017 59 10000 6.7 70 09:55 26.03.2020
567 Clear 3 1017 59 10000 6.7 70 09:55 26.03.2020
568 Clear 3 1017 59 10000 6.7 70 09:37 26.03.2020
569 Clear 2 1017 59 10000 5.1 80 09:19 26.03.2020
570 Clouds 2 1017 59 10000 4.6 70 08:42 26.03.2020
571 Clouds 0 1017 87 10000 4.1 60 08:24 26.03.2020
572 Clear 0 1017 63 10000 4.6 50 07:57 26.03.2020
573 Clear -1 1017 63 10000 4.6 50 07:38 26.03.2020
574 Clear -1 1016 68 10000 3.1 30 07:19 26.03.2020
575 Clear -2 1016 68 10000 3.6 40 06:33 26.03.2020
576 Clear -2 1016 73 10000 3.6 40 05:51 26.03.2020
577 Clear -1 1016 68 10000 4.6 40 03:47 26.03.2020
578 Clear -1 1016 63 10000 4.1 40 03:18 26.03.2020
579 Clear 0 1016 63 10000 4.1 30 02:50 26.03.2020
580 Clear 0 1017 86 10000 4.1 50 01:19 26.03.2020
581 Clear 1 1018 50 10000 4.6 80 00:33 26.03.2020
582 Clear 2 1018 50 10000 5.7 70 23:44 25.03.2020
583 Clear 2 1019 50 10000 5.1 80 23:26 25.03.2020
584 Clear 2 1019 47 10000 6.7 80 22:56 25.03.2020
585 Clear 3 1019 47 10000 6.7 80 22:37 25.03.2020
586 Clear 3 1019 44 10000 7.2 70 22:19 25.03.2020
587 Clear 3 1019 44 10000 6.2 80 21:54 25.03.2020
588 Clear 3 1019 44 10000 6.2 80 21:36 25.03.2020
589 Clear 4 1019 41 10000 7.2 80 21:18 25.03.2020
590 Clear 4 1019 41 10000 7.7 80 20:39 25.03.2020
591 Clear 4 1019 41 10000 6.2 80 20:19 25.03.2020
592 Clear 4 1019 41 10000 6.2 80 19:57 25.03.2020
593 Clear 5 1019 35 10000 7.7 80 19:38 25.03.2020
594 Clear 5 1026 90 0 0.45 114 19:20 25.03.2020
595 Clear 5 1019 35 10000 7.7 90 18:54 25.03.2020
596 Clear 6 1019 35 10000 7.7 90 18:36 25.03.2020
597 Clear 6 1019 33 10000 6.2 90 18:18 25.03.2020
598 Clear 7 1019 30 10000 9.8 80 17:41 25.03.2020
599 Clear 7 1019 33 10000 7.7 80 17:22 25.03.2020
600 Clear 7 1019 33 0 8.7 90 16:58 25.03.2020
601 Clear 7 1019 33 0 8.7 90 16:39 25.03.2020
602 -273 0 0 0 0 0 16:21 25.03.2020
603 Clear 7 1019 31 10000 9.3 70 15:43 25.03.2020
604 Clear 7 1020 31 10000 9.8 70 15:21 25.03.2020
605 Clear 7 1020 31 10000 8.2 60 14:59 25.03.2020
606 Clear 7 1020 31 10000 8.2 60 14:40 25.03.2020
607 Clear 7 1020 33 10000 7.7 60 14:20 25.03.2020
608 Clear 7 1021 36 10000 6.7 60 13:46 25.03.2020
609 Clear 7 1021 35 10000 8.2 60 13:25 25.03.2020
610 Clear 7 1021 35 10000 7.2 60 12:54 25.03.2020
611 Clear 6 1021 35 10000 7.2 60 12:36 25.03.2020
612 Clear 6 1022 35 10000 6.2 70 12:18 25.03.2020
613 Clear 6 1022 38 10000 5.7 70 11:41 25.03.2020
614 Clear 5 1023 38 10000 5.7 70 11:21 25.03.2020
615 Clear 4 1023 40 10000 5.7 50 10:59 25.03.2020
616 Clear 4 1023 40 10000 5.7 50 10:40 25.03.2020
617 Clear 4 1023 40 10000 4.1 60 10:19 25.03.2020
618 Clear 3 1024 43 10000 6.2 70 09:59 25.03.2020
619 Clear 3 1024 43 10000 6.2 70 09:40 25.03.2020
620 Clear 2 1024 47 10000 6.2 70 09:21 25.03.2020
621 Clear 1 1024 47 10000 5.1 70 08:43 25.03.2020
622 Clear 1 1024 47 10000 5.1 70 08:25 25.03.2020
623 Clear -1 1024 54 10000 2.1 30 07:59 25.03.2020
624 Clear -1 1024 54 10000 2.1 30 07:39 25.03.2020
625 Clear -2 1024 58 10000 1.5 10 07:19 25.03.2020
626 Clear -2 1024 58 10000 3.1 10 06:45 25.03.2020
627 Clear -2 1025 63 10000 3.6 20 06:25 25.03.2020
628 Clear -2 1025 58 10000 1.5 10 05:48 25.03.2020
629 Clear -2 1025 54 10000 1.5 40 04:59 25.03.2020
630 Clear -2 1025 54 10000 1.5 40 04:36 25.03.2020
631 Clear -1 1025 58 10000 3.6 60 03:34 25.03.2020
632 Clear 0 1026 54 10000 3.1 80 01:55 25.03.2020
633 Clear 0 1026 54 10000 2.6 60 01:20 25.03.2020
634 Clear 0 1027 54 10000 3.1 50 00:43 25.03.2020
635 Clear 0 1027 54 10000 2.6 80 00:19 25.03.2020
636 Clear 1 1027 78 10000 1.5 90 23:44 24.03.2020
637 Clear 1 1027 47 10000 2.6 50 23:25 24.03.2020
638 Clear 2 1027 43 10000 1.5 50 22:55 24.03.2020
639 Clear 1 1027 43 10000 1.5 50 22:37 24.03.2020
640 Clear 2 1027 43 10000 1.5 40 22:19 24.03.2020
641 Clear 2 1027 43 10000 1 0 21:55 24.03.2020
642 Clear 3 1027 43 10000 1 0 21:36 24.03.2020
643 Clear 3 1027 43 10000 2.1 40 21:18 24.03.2020
644 Clear 3 1027 47 10000 1 0 20:42 24.03.2020
645 Clear 3 1027 44 10000 0.5 0 20:23 24.03.2020
646 Clear 3 1027 44 10000 2.1 80 19:57 24.03.2020
647 Clear 4 1027 44 10000 2.1 80 19:39 24.03.2020
648 Clear 4 1027 38 10000 5.7 80 19:18 24.03.2020
649 Clear 5 1027 38 10000 6.2 90 18:55 24.03.2020
650 Clear 5 1027 38 10000 6.2 90 18:36 24.03.2020
651 Clear 6 1026 35 10000 5.7 90 18:18 24.03.2020
652 Clear 6 1026 35 10000 7.7 90 17:42 24.03.2020
653 Clear 6 1026 33 10000 6.2 90 17:22 24.03.2020
654 Clear 6 1027 30 10000 7.2 90 16:58 24.03.2020
655 Clear 7 1027 30 10000 7.2 90 16:39 24.03.2020
656 Clear 7 1027 33 10000 6.2 90 16:21 24.03.2020
657 Clear 7 1027 30 10000 8.2 90 15:58 24.03.2020
658 Clear 7 1027 30 10000 8.2 90 15:37 24.03.2020
659 Clear 7 1028 28 10000 8.2 90 15:19 24.03.2020
660 Clear 7 1028 30 10000 6.7 90 14:43 24.03.2020
661 Clear 6 1028 33 10000 6.7 100 14:19 24.03.2020
662 Clear 6 1029 33 10000 6.2 90 13:44 24.03.2020
663 Clear 6 1029 33 10000 6.7 90 13:24 24.03.2020
664 Clear 6 1029 35 10000 6.7 90 12:58 24.03.2020
665 Clear 6 1029 35 10000 6.7 90 12:38 24.03.2020
666 Clear 6 1030 35 10000 6.7 80 12:20 24.03.2020
667 Clear 5 1030 38 10000 6.7 100 11:40 24.03.2020
668 Clear 4 1030 40 10000 7.7 90 11:20 24.03.2020
669 Clear 4 1030 40 10000 7.7 90 10:54 24.03.2020
670 Clear 3 1030 40 10000 7.7 90 10:36 24.03.2020
671 Clear 3 1030 43 10000 9.3 80 10:18 24.03.2020
672 Clear 2 1030 43 10000 7.2 80 09:42 24.03.2020
673 Clear 1 1030 47 10000 7.2 70 09:24 24.03.2020
674 Clear 1 1030 34 10000 6.2 70 08:40 24.03.2020
675 Clear -1 1030 58 10000 5.7 70 08:21 24.03.2020
676 Clear -2 1030 63 10000 4.6 70 07:51 24.03.2020
677 Clear -2 1030 63 10000 3.6 80 07:25 24.03.2020
678 Clear -3 1030 63 10000 3.6 80 06:59 24.03.2020
679 Clear -3 1030 58 10000 1 0 06:34 24.03.2020
680 Clear -3 1029 54 10000 1 0 05:30 24.03.2020
681 Clear -2 1030 58 10000 1.5 0 04:49 24.03.2020
682 Clear -2 1030 63 10000 4.1 70 03:19 24.03.2020
683 Clear -2 1030 63 10000 2.6 80 02:25 24.03.2020
684 Clear -2 1031 63 10000 2.6 90 00:53 24.03.2020
685 Clear -1 1031 58 10000 2.6 80 00:26 24.03.2020
686 Clear -1 1031 54 10000 1.5 90 23:55 23.03.2020
687 Clear -1 1031 54 10000 1.5 90 23:36 23.03.2020
688 Clear -1 1031 58 10000 1.5 100 23:18 23.03.2020
689 Clear -1 1031 58 10000 3.6 70 22:42 23.03.2020
690 Clear -1 1031 46 10000 2.6 70 22:22 23.03.2020
691 Clear 0 1031 54 10000 2.6 70 21:55 23.03.2020
692 Clear 0 1031 54 10000 2.6 70 21:37 23.03.2020
693 Clear 0 1031 46 10000 3.1 80 21:18 23.03.2020
694 Clear 1 1031 47 10000 3.6 80 20:42 23.03.2020
695 Clear 1 1031 47 10000 4.1 80 20:24 23.03.2020
696 Clear 1 1031 47 10000 4.1 80 19:56 23.03.2020
697 Clear 2 1031 47 10000 3.6 90 19:37 23.03.2020
698 Clear 2 1030 43 10000 4.6 90 19:19 23.03.2020
699 Clear 3 1030 44 10000 5.1 90 18:44 23.03.2020
700 Clear 3 1030 38 10000 5.7 80 18:25 23.03.2020
701 Clear 4 1030 35 10000 6.7 90 17:59 23.03.2020
702 Clear 5 1030 35 10000 6.7 90 17:41 23.03.2020
703 Clear 5 1030 35 10000 5.7 90 17:19 23.03.2020
704 Clear 5 1030 32 10000 6.7 80 16:44 23.03.2020
705 Clear 5 1030 33 10000 6.7 80 16:25 23.03.2020
706 Clear 6 1030 33 10000 6.7 80 15:59 23.03.2020
707 Clear 6 1030 33 10000 8.2 80 15:39 23.03.2020
708 Clear 6 1030 33 10000 7.2 90 15:19 23.03.2020
709 Clear 5 1030 32 10000 8.7 80 14:37 23.03.2020
710 Clear 6 1031 32 10000 8.7 80 14:19 23.03.2020
711 Clear 6 1031 32 10000 8.7 80 13:57 23.03.2020
712 Clear 6 1031 32 10000 8.7 80 13:38 23.03.2020
713 Clear 6 1031 32 10000 8.7 80 13:38 23.03.2020
714 Clear 6 1031 32 10000 8.7 80 13:38 23.03.2020
715 Clear 5 1031 35 10000 7.7 80 13:20 23.03.2020
716 Clear 5 1031 35 10000 7.2 80 12:44 23.03.2020
717 Clear 5 1031 35 10000 7.2 90 12:25 23.03.2020
718 Clear 4 1031 37 10000 8.7 80 11:57 23.03.2020
719 Clear 4 1031 37 10000 8.7 80 11:38 23.03.2020
720 Clear 3 1031 37 10000 9.3 80 11:19 23.03.2020
721 Clear 3 1031 40 10000 9.8 80 10:56 23.03.2020
722 Clear 3 1031 40 10000 9.8 80 10:37 23.03.2020
723 Clear 2 1031 43 10000 6.2 90 10:19 23.03.2020
724 Clear 1 1031 28 10000 7.2 80 09:44 23.03.2020
725 Clear 1 1031 28 10000 7.2 80 09:21 23.03.2020
726 Clear 0 1031 50 10000 7.7 80 08:56 23.03.2020
727 Clear -1 1031 50 10000 7.7 80 08:36 23.03.2020
728 Clear -2 1031 58 10000 6.7 80 08:18 23.03.2020
729 Clear -2 1031 54 10000 5.7 80 07:42 23.03.2020
730 Clear -2 1031 58 10000 4.6 80 07:21 23.03.2020
731 Clear -3 1031 58 10000 5.1 80 06:49 23.03.2020
732 Clear -3 1030 63 10000 4.6 80 05:51 23.03.2020
733 Clear -2 1030 68 10000 4.6 90 04:58 23.03.2020
734 Clear -2 1030 63 10000 5.1 80 03:26 23.03.2020
735 Clear -1 1031 63 10000 4.6 90 01:51 23.03.2020
736 Clear -1 1031 63 10000 4.6 90 01:32 23.03.2020
737 Clear -1 1030 52 10000 5.1 90 00:36 23.03.2020
738 Clear 0 1030 52 10000 6.2 90 23:47 22.03.2020
739 Clear 0 1030 53 10000 5.1 90 23:26 22.03.2020
740 Clear 0 1030 55 10000 6.7 90 22:45 22.03.2020
741 Clear 0 1030 59 10000 5.7 80 22:24 22.03.2020
742 Clear 1 1030 59 10000 5.7 80 21:56 22.03.2020
743 Clear 1 1030 55 10000 6.2 80 21:37 22.03.2020
744 Clear 1 1029 51 10000 6.2 80 21:19 22.03.2020
745 Clear 2 1029 55 10000 6.2 80 20:46 22.03.2020
746 Clear 2 1029 47 10000 6.2 80 20:25 22.03.2020
747 Clear 3 1028 51 10000 6.7 70 19:58 22.03.2020
748 Clear 3 1028 51 10000 6.7 70 19:40 22.03.2020
749 Clear 3 1028 48 10000 6.7 70 19:20 22.03.2020
750 Clear 3 1028 48 10000 6.7 70 19:20 22.03.2020
751 Clear 4 1027 48 10000 7.2 60 18:59 22.03.2020
752 Clear 4 1027 48 10000 7.2 60 18:41 22.03.2020
753 Clear 4 1027 48 10000 7.2 60 18:41 22.03.2020
754 Clear 5 1027 48 10000 7.2 60 18:22 22.03.2020
755 Clear 5 1027 48 10000 7.2 60 17:59 22.03.2020
756 Clear 5 1027 45 10000 7.7 60 17:39 22.03.2020
757 Clear 5 1027 45 10000 7.7 60 17:39 22.03.2020
758 Clear 6 1026 48 10000 7.2 70 17:21 22.03.2020
759 Clouds 6 1026 45 10000 8.7 70 16:59 22.03.2020
760 Clouds 6 1026 45 10000 8.7 70 16:41 22.03.2020
761 Clear 7 1026 48 10000 7.2 80 16:21 22.03.2020
762 Clear 7 1026 52 10000 6.7 90 15:58 22.03.2020
763 Clear 7 1026 52 10000 6.7 90 15:39 22.03.2020
764 Clouds 7 1026 56 10000 7.7 80 14:47 22.03.2020
765 Clouds 7 1026 56 10000 8.2 90 14:19 22.03.2020
766 Clouds 6 1026 56 10000 8.2 90 13:58 22.03.2020
767 Clouds 6 1026 52 10000 8.2 70 13:40 22.03.2020
768 Clouds 6 1026 60 10000 6.2 90 13:19 22.03.2020
769 Clouds 5 1026 60 10000 7.2 90 12:44 22.03.2020
770 Clouds 5 1026 60 10000 6.7 90 12:21 22.03.2020
771 Clouds 5 1026 60 10000 9.3 80 11:58 22.03.2020
772 Clouds 4 1026 60 10000 9.3 80 11:39 22.03.2020
773 Clouds 3 1026 64 10000 6.2 90 11:20 22.03.2020
774 Clouds 4 1026 64 10000 7.2 80 10:43 22.03.2020
775 Clouds 3 1026 69 10000 8.7 90 10:24 22.03.2020
776 Clouds 2 1026 69 10000 8.7 90 09:55 22.03.2020
777 Clouds 2 1026 69 10000 7.7 90 09:36 22.03.2020
778 Clouds 1 1025 69 10000 8.7 80 09:18 22.03.2020
779 Clouds 1 1025 69 10000 10.3 80 08:41 22.03.2020
780 Clouds 0 1025 76 10000 8.2 70 08:21 22.03.2020
781 Clouds 0 1025 76 10000 7.2 70 07:50 22.03.2020
782 Clouds -1 1024 76 10000 6.2 70 07:22 22.03.2020
783 Clouds 0 1023 76 10000 6.7 80 05:57 22.03.2020
784 Clouds 0 1023 74 10000 7.2 80 05:21 22.03.2020
785 Clouds 1 1023 80 10000 6.2 70 03:25 22.03.2020
786 Clouds 1 1023 78 10000 6.7 60 01:26 22.03.2020
787 Snow 2 1023 93 10000 6.7 60 00:41 22.03.2020
788 Snow 2 1023 93 10000 6.2 60 00:23 22.03.2020
789 Snow 2 1023 93 10000 6.7 60 23:42 21.03.2020
790 Snow 2 1023 93 10000 6.2 60 23:19 21.03.2020
791 Snow 2 1023 93 10000 6.7 60 22:55 21.03.2020
792 Snow 2 1023 93 10000 6.7 60 22:36 21.03.2020
793 Snow 2 1023 93 10000 6.7 60 22:18 21.03.2020
794 Snow 2 1022 93 10000 6.7 60 21:41 21.03.2020
795 Snow 2 1022 93 10000 6.2 50 21:23 21.03.2020
796 Snow 2 1022 93 10000 6.2 50 20:56 21.03.2020
797 Rain 2 1022 100 10000 6.2 50 20:38 21.03.2020
798 Rain 2 1022 93 10000 5.7 60 20:19 21.03.2020
799 Snow 2 1022 93 10000 4.6 50 19:43 21.03.2020
800 Snow 2 1022 93 10000 4.6 50 19:25 21.03.2020
801 Snow 2 1021 93 10000 5.1 60 19:25 21.03.2020
802 Snow 2 1021 93 8000 4.6 60 18:57 21.03.2020
803 Snow 3 1021 93 8000 4.6 60 18:38 21.03.2020
804 Rain 3 1021 93 9000 5.1 50 18:20 21.03.2020
805 Rain 3 1021 93 9000 5.1 50 18:20 21.03.2020
806 Rain 3 1021 93 10000 5.1 50 17:55 21.03.2020
807 Rain 3 1021 93 10000 5.1 50 17:37 21.03.2020
808 Rain 3 1021 93 7000 6.2 50 17:37 21.03.2020
809 Rain 3 1021 93 7000 6.2 50 17:18 21.03.2020
810 Rain 3 1021 93 7000 6.2 50 17:18 21.03.2020
811 Rain 3 1021 100 7000 5.1 40 16:41 21.03.2020
812 Rain 3 1020 93 8000 6.2 40 16:20 21.03.2020
813 Rain 3 1020 93 8000 6.2 40 16:20 21.03.2020
814 Rain 3 1020 93 10000 6.2 40 15:56 21.03.2020
815 Rain 3 1020 93 10000 6.2 40 15:37 21.03.2020
816 Rain 3 1020 93 10000 5.1 20 15:19 21.03.2020
817 Rain 3 1021 93 10000 3.6 360 14:54 21.03.2020
818 Rain 3 1021 93 10000 3.6 360 14:36 21.03.2020
819 Rain 3 1020 93 10000 3.1 30 14:18 21.03.2020
820 Drizzle 3 1021 93 10000 3.1 10 13:57 21.03.2020
821 Drizzle 3 1021 93 10000 3.1 10 13:38 21.03.2020
822 Drizzle 3 1021 93 10000 3.6 40 13:19 21.03.2020
823 Drizzle 3 1021 93 10000 4.6 30 12:40 21.03.2020
824 Drizzle 4 1021 93 10000 4.6 20 12:20 21.03.2020
825 Drizzle 4 1021 93 10000 4.6 20 12:20 21.03.2020
826 Drizzle 4 1021 93 9000 7.2 60 11:59 21.03.2020
827 Drizzle 4 1021 93 9000 7.2 60 11:39 21.03.2020
828 Drizzle 4 1021 93 9000 7.2 60 11:39 21.03.2020
829 Drizzle 4 1021 86 7000 5.7 70 11:20 21.03.2020
830 Drizzle 4 1021 86 4900 6.2 50 10:58 21.03.2020
831 Drizzle 4 1021 86 4900 6.2 50 10:39 21.03.2020
832 Drizzle 4 1021 86 6000 5.7 50 10:21 21.03.2020
833 Drizzle 4 1021 86 6000 5.7 50 09:58 21.03.2020
834 Drizzle 4 1021 86 7000 6.2 50 09:39 21.03.2020
835 Drizzle 4 1020 86 10000 5.7 50 09:20 21.03.2020
836 Rain 4 1020 80 10000 5.1 40 08:55 21.03.2020
837 Rain 4 1020 80 10000 5.1 40 08:37 21.03.2020
838 Rain 4 1020 86 10000 4.1 40 08:18 21.03.2020
839 Rain 5 1020 86 10000 6.2 50 07:37 21.03.2020
840 Rain 5 1020 86 10000 4.1 50 07:19 21.03.2020
841 Clouds 5 1020 86 10000 4.1 50 06:44 21.03.2020
842 Clouds 5 1020 80 10000 4.1 50 06:24 21.03.2020
843 Clouds 5 1020 86 10000 4.1 50 05:40 21.03.2020
844 Clouds 6 1020 81 10000 4.1 50 04:26 21.03.2020
845 Clouds 7 1020 87 10000 4.6 20 02:37 21.03.2020
846 Clouds 7 1020 87 10000 4.6 30 01:49 21.03.2020
847 Clouds 8 1020 81 10000 4.6 20 01:26 21.03.2020
848 Clouds 8 1020 81 10000 4.1 30 00:43 21.03.2020
849 Clouds 9 1020 81 10000 4.1 30 00:23 21.03.2020
850 Clouds 9 1020 81 10000 3.6 10 23:44 20.03.2020
851 Clouds 9 1020 81 10000 3.6 350 23:22 20.03.2020
852 Clouds 10 1020 81 10000 4.1 360 22:44 20.03.2020
853 Clouds 10 1020 81 10000 3.1 10 22:25 20.03.2020
854 Clouds 10 1019 71 10000 3.1 20 21:59 20.03.2020
855 Clouds 11 1019 71 10000 3.1 20 21:41 20.03.2020
856 Clouds 11 1019 76 10000 2.6 30 21:20 20.03.2020
857 Clouds 11 1019 76 10000 2.6 30 20:59 20.03.2020
858 Clouds 11 1019 71 10000 2.1 30 20:41 20.03.2020
859 Rain 12 1019 66 10000 3.1 20 20:20 20.03.2020
860 Rain 12 1019 66 10000 3.6 10 19:58 20.03.2020
861 Rain 12 1019 66 10000 3.6 10 19:39 20.03.2020
862 Clouds 13 1019 67 10000 3.6 360 19:18 20.03.2020
863 Clouds 14 1018 62 10000 4.1 360 18:39 20.03.2020
864 Clouds 14 1018 62 10000 4.1 360 18:39 20.03.2020
865 Clouds 15 1018 59 10000 4.1 360 18:20 20.03.2020
866 Clouds 15 1018 55 10000 4.6 350 17:57 20.03.2020
867 Clouds 16 1018 51 10000 3.6 350 17:39 20.03.2020
868 Clouds 16 1018 51 10000 3.6 350 17:20 20.03.2020
869 Clouds 16 1018 55 10000 5.1 360 16:43 20.03.2020
870 Clouds 17 1018 55 10000 5.1 360 16:22 20.03.2020
871 Clouds 16 1018 55 10000 5.1 360 15:59 20.03.2020
872 Clouds 17 1018 55 10000 5.1 330 15:41 20.03.2020
873 Clouds 17 1019 55 0 5.1 350 15:21 20.03.2020
874 Clouds 17 1019 55 10000 4.1 330 14:43 20.03.2020
875 Clouds 17 1019 55 10000 4.6 330 14:23 20.03.2020
876 Clouds 17 1019 55 10000 3.1 10 13:55 20.03.2020
877 Clouds 17 1019 55 10000 3.1 10 13:55 20.03.2020
878 Clouds 17 1019 55 10000 3.1 10 13:37 20.03.2020
879 Clouds 17 1020 55 10000 2.1 10 13:19 20.03.2020
880 Clouds 17 1020 55 10000 2.6 10 12:39 20.03.2020
881 Clouds 16 1020 63 10000 1 0 12:20 20.03.2020
882 Clouds 16 1020 63 10000 1 0 12:20 20.03.2020
883 Clouds 16 1020 62 10000 1 0 11:56 20.03.2020
884 Clouds 16 1021 67 10000 1 0 11:38 20.03.2020
885 Clouds 14 1021 67 10000 1 0 11:18 20.03.2020
886 Clouds 13 1021 71 10000 1.5 140 10:41 20.03.2020
887 Clouds 13 1021 71 10000 1 0 10:21 20.03.2020
888 Clouds 13 1021 71 10000 1 0 09:56 20.03.2020
889 Clouds 12 1021 71 10000 1 0 09:37 20.03.2020
890 Clouds 11 1021 76 10000 1.5 250 09:18 20.03.2020
891 Clouds 9 1021 81 10000 0.5 0 08:42 20.03.2020
892 Clouds 8 1020 87 10000 1 0 08:22 20.03.2020
893 Clouds 8 1020 87 10000 0.5 0 07:54 20.03.2020
894 Clouds 7 1020 87 10000 0.5 0 07:36 20.03.2020
895 Clouds 7 1020 93 10000 0.81 324 07:18 20.03.2020
896 Clouds 6 1020 86 10000 0.5 300 06:41 20.03.2020
897 Clouds 7 1020 87 10000 1 260 04:51 20.03.2020
898 Clouds 8 1020 87 10000 1.5 260 03:22 20.03.2020
899 Clouds 9 1021 87 10000 1.5 270 01:58 20.03.2020
900 Clouds 9 1021 76 10000 2.1 290 00:59 20.03.2020
901 Clouds 9 1021 76 10000 1 290 00:31 20.03.2020
902 Clouds 10 1021 76 10000 0.5 0 23:49 19.03.2020
903 Clouds 10 1022 71 10000 2.1 340 23:30 19.03.2020
904 Clouds 10 1022 66 10000 2.6 320 22:57 19.03.2020
905 Clouds 10 1022 66 10000 2.6 320 22:38 19.03.2020
906 Clouds 10 1022 71 10000 1.5 330 22:20 19.03.2020
907 Clouds 10 1022 66 10000 1.5 340 21:55 19.03.2020
908 Clouds 11 1022 66 10000 1.5 340 21:37 19.03.2020
909 Clouds 11 1022 71 10000 1 360 21:18 19.03.2020
910 Clouds 11 1022 62 10000 1.5 30 20:42 19.03.2020
911 Clear 12 1022 62 10000 1.5 350 20:23 19.03.2020
912 Clear 13 1022 62 10000 1.5 350 19:56 19.03.2020
913 Clear 13 1022 58 10000 3.1 350 19:38 19.03.2020
914 Clear 14 1022 62 10000 2.6 350 19:19 19.03.2020
915 Clear 15 1021 55 10000 3.6 20 18:56 19.03.2020
916 Clear 15 1021 55 10000 3.6 20 18:38 19.03.2020
917 Clear 15 1021 55 10000 3.6 20 18:38 19.03.2020
918 Clear 16 1021 51 10000 3.1 10 18:19 19.03.2020
919 Clouds 17 1021 55 10000 3.1 360 17:42 19.03.2020
920 Clouds 17 1022 48 10000 2.6 10 17:19 19.03.2020
921 Clouds 17 1022 48 10000 2.6 10 17:19 19.03.2020
922 Clouds 18 1022 48 10000 3.1 350 16:55 19.03.2020
923 Clouds 18 1022 48 10000 3.1 350 16:37 19.03.2020
924 Clouds 18 1022 45 10000 3.1 330 16:19 19.03.2020
925 Clouds 18 1022 45 10000 2.1 0 15:40 19.03.2020
926 Clouds 18 1022 45 10000 2.1 80 15:18 19.03.2020
927 Clouds 18 1023 45 10000 2.1 70 14:43 19.03.2020
928 Clouds 18 1023 52 10000 1.5 70 14:21 19.03.2020
929 Clouds 18 1023 48 10000 1.5 340 13:42 19.03.2020
930 Clouds 17 1024 55 10000 1 0 13:21 19.03.2020
931 Clouds 17 1024 51 10000 1.5 0 12:58 19.03.2020
932 Clouds 17 1024 51 10000 1.5 0 12:40 19.03.2020
933 Clouds 16 1024 59 10000 1 0 12:21 19.03.2020
934 Clouds 16 1025 62 10000 1.5 80 11:43 19.03.2020
935 Clouds 15 1025 67 10000 0.5 0 11:24 19.03.2020
936 Clouds 14 1025 71 10000 1 0 10:58 19.03.2020
937 Clouds 13 1025 71 10000 1 0 10:38 19.03.2020
938 Clouds 13 1025 76 10000 1 0 10:19 19.03.2020
939 Clouds 12 1025 76 10000 1 0 09:57 19.03.2020
940 Clouds 11 1025 76 10000 1 0 09:37 19.03.2020
941 Clouds 10 1025 81 10000 0.5 0 09:18 19.03.2020
942 Clouds 9 1025 87 9000 1 90 08:42 19.03.2020
943 Clouds 8 1025 87 8000 0.5 0 08:21 19.03.2020
944 Clouds 7 1025 93 8000 0.5 0 07:46 19.03.2020
945 Clouds 6 1025 93 8000 0.5 0 07:28 19.03.2020
946 Clouds 6 1025 93 10000 0.5 0 06:43 19.03.2020
947 Clouds 6 1025 93 10000 1 330 05:48 19.03.2020
948 Clouds 7 1025 87 10000 0.5 0 04:58 19.03.2020
949 Clouds 6 1025 87 10000 0.5 0 04:40 19.03.2020
950 Clouds 7 1025 86 10000 0.5 0 02:50 19.03.2020
951 Clouds 7 1025 87 10000 2.6 290 01:25 19.03.2020
952 Clouds 8 1025 87 10000 2.1 290 00:32 19.03.2020
953 Clouds 9 1025 76 10000 1 0 23:57 18.03.2020
954 Clouds 9 1026 81 10000 0.5 250 23:31 18.03.2020
955 Clouds 9 1026 76 10000 1 0 22:58 18.03.2020
956 Clouds 10 1026 76 10000 1 0 22:40 18.03.2020
957 Clouds 10 1026 71 10000 1 0 22:21 18.03.2020
958 Clouds 10 1026 71 10000 2.1 310 21:43 18.03.2020
959 Clouds 10 1026 71 10000 2.6 330 21:22 18.03.2020
960 Clouds 10 1026 71 10000 2.6 330 20:59 18.03.2020
961 Clouds 11 1026 66 10000 2.1 330 20:41 18.03.2020
962 Clouds 11 1026 66 10000 1 0 20:21 18.03.2020
963 Clouds 12 1025 62 10000 2.1 340 19:58 18.03.2020
964 Clouds 13 1025 62 10000 2.1 340 19:40 18.03.2020
965 Clouds 13 1025 67 10000 2.6 340 19:21 18.03.2020
966 Clouds 13 1025 67 10000 2.6 340 19:21 18.03.2020
967 Clouds 13 1025 67 10000 2.6 340 19:21 18.03.2020
968 Clouds 14 1025 58 10000 3.1 350 18:54 18.03.2020
969 Clouds 15 1025 58 10000 3.1 350 18:36 18.03.2020
970 Clouds 16 1025 59 10000 3.1 360 18:18 18.03.2020
971 Clouds 17 1025 55 10000 3.1 360 17:41 18.03.2020
972 Clear 17 1025 51 10000 3.6 350 17:22 18.03.2020
973 Clear 17 1025 55 10000 2.6 360 16:59 18.03.2020
974 Clear 17 1025 55 10000 2.6 360 16:59 18.03.2020
975 Clear 17 1025 55 10000 2.6 360 16:40 18.03.2020
976 Clear 17 1026 55 10000 3.6 360 16:20 18.03.2020
977 Clear 17 1026 45 10000 1.5 300 15:56 18.03.2020
978 Clear 17 1026 45 10000 1.5 300 15:37 18.03.2020
979 Clear 17 1026 45 10000 2.6 330 15:18 18.03.2020
980 Clouds 17 1026 45 10000 2.1 340 14:42 18.03.2020
981 Clouds 17 1027 45 10000 1.5 360 14:21 18.03.2020
982 Clouds 17 1027 48 10000 2.1 140 13:40 18.03.2020
983 Clouds 17 1028 51 10000 1.5 0 13:19 18.03.2020
984 Clouds 17 1028 51 10000 1.5 40 12:43 18.03.2020
985 Clouds 17 1028 59 10000 1.5 50 12:21 18.03.2020
986 Clouds 16 1029 58 10000 1.5 120 11:59 18.03.2020
987 Clouds 16 1029 58 10000 1.5 120 11:37 18.03.2020
988 Clouds 15 1029 67 10000 1.5 60 11:18 18.03.2020
989 Clouds 14 1029 71 10000 1 0 10:56 18.03.2020
990 Clouds 14 1029 71 10000 1 0 10:36 18.03.2020
991 Clear 12 1029 76 10000 1 0 10:18 18.03.2020
992 Clear 11 1029 76 10000 1.5 100 09:42 18.03.2020
993 Clear 10 1029 81 10000 1 0 09:23 18.03.2020
994 Clear 8 1029 81 10000 0.5 0 08:54 18.03.2020
995 Clear 8 1029 81 10000 0.5 0 08:36 18.03.2020
996 Clouds 7 1029 87 10000 0.5 0 08:18 18.03.2020
997 Fog 5 1029 93 10000 0.5 90 07:39 18.03.2020
998 Fog 4 1029 93 10000 0.5 100 07:21 18.03.2020
999 Fog 4 1029 100 7000 0.5 0 06:42 18.03.2020
1000 Clouds 4 1029 100 10000 0.5 0 05:47 18.03.2020
1001 Clouds 5 1029 100 10000 1 30 05:18 18.03.2020
1002 Clouds 5 1030 93 10000 0.63 162 03:21 18.03.2020
1003 Clouds 5 1030 86 10000 0.5 0 02:37 18.03.2020
1004 Clouds 5 1030 86 10000 0.5 0 02:37 18.03.2020
1005 Clouds 6 1030 87 10000 1 0 01:46 18.03.2020
1006 Clouds 6 1030 87 10000 1.5 290 01:20 18.03.2020
1007 Clouds 7 1030 87 10000 1 0 00:23 18.03.2020
1008 Clouds 7 1030 81 10000 2.6 290 23:43 17.03.2020
1009 Clouds 7 1030 81 10000 1.5 270 23:23 17.03.2020
1010 Clouds 8 1030 81 10000 1.5 250 22:47 17.03.2020
1011 Clear 8 1030 81 10000 1.5 270 22:28 17.03.2020
1012 Clear 9 1030 81 10000 1.5 270 21:59 17.03.2020
1013 Clouds 9 1030 81 10000 1.5 270 21:37 17.03.2020
1014 Clear 9 1030 81 10000 1 250 21:19 17.03.2020
1015 Clear 10 1030 71 10000 1.5 320 20:38 17.03.2020
1016 Clouds 10 1030 71 10000 1.5 320 20:20 17.03.2020
1017 Clouds 10 1030 71 10000 1.5 320 19:54 17.03.2020
1018 Clouds 11 1030 62 10000 0.5 0 19:36 17.03.2020
1019 Clouds 13 1029 58 10000 2.1 340 19:18 17.03.2020
1020 Clouds 13 1029 58 10000 2.1 360 18:54 17.03.2020
1021 Clouds 13 1029 58 10000 2.1 360 18:36 17.03.2020
1022 Clouds 15 1029 58 10000 3.1 330 18:18 17.03.2020
1023 Clouds 15 1029 58 10000 3.1 330 18:18 17.03.2020
1024 Clouds 15 1029 54 10000 2.1 340 17:40 17.03.2020
1025 Clouds 15 1029 58 10000 3.6 310 17:20 17.03.2020
1026 Clouds 15 1029 54 10000 3.1 340 16:44 17.03.2020
1027 Clouds 15 1029 54 10000 3.6 320 16:20 17.03.2020
1028 Clouds 16 1029 54 10000 3.6 320 15:56 17.03.2020
1029 Clouds 16 1029 55 10000 3.6 310 15:56 17.03.2020
1030 Clouds 16 1029 55 10000 3.6 310 15:38 17.03.2020
1031 Clouds 15 1029 51 0 2.6 270 15:18 17.03.2020
1032 Clouds 15 1029 55 10000 2.6 260 14:41 17.03.2020
1033 Clouds 15 1029 58 10000 4.6 280 14:21 17.03.2020
1034 Clouds 15 1030 54 10000 1.5 0 13:43 17.03.2020
1035 Clouds 15 1030 55 10000 1 0 13:25 17.03.2020
1036 Clouds 14 1030 54 10000 2.1 0 12:58 17.03.2020
1037 Clouds 14 1030 54 10000 2.1 0 12:39 17.03.2020
1038 Clouds 13 1030 58 10000 2.1 210 12:21 17.03.2020
1039 Clouds 13 1030 62 10000 2.1 190 11:45 17.03.2020
1040 Clouds 12 1030 71 10000 1.5 220 11:27 17.03.2020
1041 Rain 11 1030 71 10000 1.5 230 10:57 17.03.2020
1042 Rain 11 1030 71 10000 1.5 230 10:57 17.03.2020
1043 Rain 11 1030 71 10000 1.5 230 10:37 17.03.2020
1044 Rain 11 1030 71 10000 2.1 240 10:19 17.03.2020
1045 Rain 10 1030 71 10000 1.5 260 09:55 17.03.2020
1046 Rain 10 1030 71 10000 1.5 260 09:36 17.03.2020
1047 Rain 10 1030 66 10000 1 0 09:18 17.03.2020
1048 Rain 9 1029 76 10000 0.5 360 08:42 17.03.2020
1049 Rain 9 1029 81 10000 0.5 0 08:21 17.03.2020
1050 Rain 9 1029 81 10000 0.5 0 07:50 17.03.2020
1051 Rain 8 1028 76 10000 0.5 0 07:25 17.03.2020
1052 Rain 8 1028 81 10000 1 0 06:56 17.03.2020
1053 Rain 9 1028 81 10000 1 0 06:33 17.03.2020
1054 Rain 9 1028 76 10000 1.5 250 05:41 17.03.2020
1055 Clouds 8 1026 81 10000 0.5 70 03:36 17.03.2020
1056 Clouds 8 1026 70 10000 0.5 210 02:45 17.03.2020
1057 Clouds 8 1026 76 10000 0.5 0 01:41 17.03.2020
1058 Clouds 8 1026 71 10000 1 80 01:19 17.03.2020
1059 Clouds 8 1025 58 10000 3.1 290 00:25 17.03.2020
1060 Clouds 8 1025 62 10000 3.1 290 23:45 16.03.2020
1061 Clouds 8 1025 61 10000 2.1 290 23:23 16.03.2020
1062 Clouds 9 1025 61 10000 2.1 270 22:40 16.03.2020
1063 Clouds 9 1024 70 10000 2.6 270 22:22 16.03.2020
1064 Clouds 10 1024 57 10000 2.1 280 21:57 16.03.2020
1065 Clouds 10 1024 57 10000 2.1 280 21:57 16.03.2020
1066 Clouds 10 1024 57 10000 2.1 280 21:38 16.03.2020
1067 Clouds 10 1024 61 10000 1.5 220 21:20 16.03.2020
1068 Clouds 10 1023 57 10000 1.5 280 20:55 16.03.2020
1069 Clouds 11 1023 57 10000 1.5 280 20:37 16.03.2020
1070 Clouds 11 1023 50 10000 0.5 0 20:18 16.03.2020
1071 Clouds 12 1023 47 10000 1.5 360 19:41 16.03.2020
1072 Clouds 13 1022 38 10000 2.6 330 19:20 16.03.2020
1073 Clouds 13 1022 44 10000 3.1 340 18:43 16.03.2020
1074 Clouds 14 1022 41 10000 4.6 340 18:21 16.03.2020
1075 Clouds 15 1021 42 10000 3.6 280 17:56 16.03.2020
1076 Clouds 15 1021 42 10000 3.6 280 17:56 16.03.2020
1077 Clouds 16 1021 42 10000 3.6 280 17:37 16.03.2020
1078 Clouds 17 1021 37 10000 2.6 270 17:18 16.03.2020
1079 Clouds 17 1020 34 10000 3.1 270 16:45 16.03.2020
1080 Clouds 17 1020 34 10000 3.1 270 16:27 16.03.2020
1081 Clouds 17 1020 39 10000 2.1 170 15:56 16.03.2020
1082 Clouds 17 1020 39 10000 2.1 170 15:37 16.03.2020
1083 Clouds 17 1020 37 10000 3.6 160 15:18 16.03.2020
1084 Clouds 17 1020 37 10000 2.1 180 14:39 16.03.2020
1085 Clouds 16 1020 36 10000 2.6 220 14:19 16.03.2020
1086 Clouds 16 1020 36 10000 3.1 270 13:41 16.03.2020
1087 Clouds 16 1020 39 10000 3.6 250 13:22 16.03.2020
1088 Clouds 16 1020 42 10000 2.6 0 12:45 16.03.2020
1089 Clouds 16 1020 42 10000 2.6 0 12:26 16.03.2020
1090 Clouds 15 1020 48 10000 2.1 90 11:58 16.03.2020
1091 Clouds 15 1021 51 10000 1.5 100 11:39 16.03.2020
1092 Clouds 14 1020 54 10000 2.1 100 11:18 16.03.2020
1093 Clouds 12 1020 66 10000 1.5 90 10:41 16.03.2020
1094 Clouds 12 1020 66 10000 1.5 120 10:19 16.03.2020
1095 Clouds 10 1020 70 10000 0.5 0 09:44 16.03.2020
1096 Clouds 9 1020 70 10000 1 0 09:24 16.03.2020
1097 Clouds 7 1020 70 10000 1 0 08:56 16.03.2020
1098 Clouds 6 1019 75 10000 0.5 0 08:25 16.03.2020
1099 Clouds 4 1018 76 10000 1 0 07:50 16.03.2020
1100 Clouds 3 1018 76 10000 1 60 07:27 16.03.2020
1101 Clouds 3 1018 86 10000 1 70 06:54 16.03.2020
1102 Clouds 2 1017 86 10000 1 0 06:26 16.03.2020
1103 Clouds 3 1017 80 10000 1 0 05:50 16.03.2020
1104 Clouds 4 1016 80 10000 1 290 02:46 16.03.2020
1105 Clouds 4 1015 74 10000 1 300 01:20 16.03.2020
1106 Clouds 5 1015 69 10000 0.5 0 00:42 16.03.2020
1107 Clouds 5 1015 69 10000 1 0 23:49 15.03.2020
1108 Clouds 6 1015 72 10000 0.5 0 23:21 15.03.2020
1109 Clouds 6 1015 72 10000 0.5 0 22:56 15.03.2020
1110 Clouds 6 1015 72 10000 0.5 0 22:37 15.03.2020
1111 Clouds 6 1015 72 10000 0.5 0 22:19 15.03.2020
1112 Clouds 7 1015 72 10000 1 0 21:39 15.03.2020
1113 Clouds 7 1015 72 10000 1.5 210 21:19 15.03.2020
1114 Clouds 7 1015 61 10000 2.6 110 20:43 15.03.2020
1115 Clouds 8 1015 63 10000 1.5 190 20:22 15.03.2020
1116 Clouds 8 1015 63 10000 1.5 190 19:59 15.03.2020
1117 Clouds 9 1015 57 10000 1.5 170 19:40 15.03.2020
1118 Clouds 10 1015 50 10000 1.5 120 19:22 15.03.2020
1119 Clouds 11 1014 63 10000 1 60 18:58 15.03.2020
1120 Clouds 12 1014 63 10000 1 60 18:39 15.03.2020
1121 Clouds 13 1014 35 10000 1 0 18:21 15.03.2020
1122 Clouds 13 1014 63 10000 1 0 17:54 15.03.2020
1123 Clouds 13 1014 63 10000 1 0 17:36 15.03.2020
1124 Clouds 14 1015 33 10000 2.1 90 17:18 15.03.2020
1125 Clouds 14 1015 33 10000 2.1 110 16:42 15.03.2020
1126 Clouds 14 1015 46 10000 2.6 120 16:23 15.03.2020
1127 Clouds 14 1015 46 10000 2.6 120 15:57 15.03.2020
1128 Clouds 14 1015 46 10000 2.6 120 15:38 15.03.2020
1129 Clouds 14 1016 33 10000 2.6 130 15:19 15.03.2020
1130 Clouds 14 1016 33 10000 1.5 0 14:46 15.03.2020
1131 Clouds 13 1016 35 10000 2.6 0 14:24 15.03.2020
1132 Clouds 13 1016 35 10000 2.6 0 13:57 15.03.2020
1133 Clouds 13 1017 35 10000 2.6 0 13:38 15.03.2020
1134 Clouds 12 1017 37 10000 2.6 120 13:19 15.03.2020
1135 Clouds 12 1017 40 10000 3.6 150 12:44 15.03.2020
1136 Clouds 12 1018 40 10000 3.1 140 12:25 15.03.2020
1137 Clouds 11 1018 50 10000 1 0 11:56 15.03.2020
1138 Clouds 11 1018 50 10000 1 0 11:38 15.03.2020
1139 Clear 9 1019 53 10000 1.5 280 11:20 15.03.2020
1140 Clear 9 1019 61 10000 0.5 0 10:55 15.03.2020
1141 Clear 8 1019 61 10000 0.5 0 10:36 15.03.2020
1142 Clear 8 1019 65 10000 1.5 70 10:18 15.03.2020
1143 Clear 7 1019 70 10000 1.5 70 09:39 15.03.2020
1144 -273 0 0 0 0 0 09:20 15.03.2020
1145 Clear 4 1020 61 10000 0.5 0 08:42 15.03.2020
1146 Clouds 2 1020 81 10000 0.5 0 08:20 15.03.2020
1147 Clouds 1 1020 86 10000 1 300 07:51 15.03.2020
1148 Clouds 1 1020 86 10000 1 300 07:31 15.03.2020
1149 Clouds 0 1020 92 10000 0.5 0 06:53 15.03.2020
1150 Clouds 1 1020 100 10000 0.5 0 05:50 15.03.2020
1151 Clear 1 1021 92 10000 0.5 0 05:19 15.03.2020
1152 Clear 1 1021 81 10000 1 0 04:43 15.03.2020
1153 Clear 1 1021 81 10000 1 0 04:24 15.03.2020
1154 Clear 1 1021 92 10000 1 300 03:48 15.03.2020
1155 Clear 2 1022 81 10000 1 0 02:38 15.03.2020
1156 Clear 2 1022 86 10000 1 330 01:35 15.03.2020
1157 Clear 2 1022 86 10000 1.5 310 00:46 15.03.2020
1158 Clear 3 1022 80 10000 1 340 00:27 15.03.2020
1159 Clear 3 1022 80 10000 0.5 0 23:55 14.03.2020
1160 Clear 3 1022 80 10000 0.5 0 23:37 14.03.2020
1161 Clear 3 1022 80 10000 0.5 0 23:37 14.03.2020
1162 Clouds 3 1022 83 10000 1 0 23:18 14.03.2020
1163 Clouds 3 1022 83 10000 0.5 0 22:44 14.03.2020
1164 Clouds 3 1022 86 10000 0.5 0 22:26 14.03.2020
1165 Clouds 4 1022 86 10000 2.02 184 21:57 14.03.2020
1166 Clouds 4 1022 83 10000 0.5 260 21:36 14.03.2020
1167 Clouds 4 1022 86 10000 1 0 21:18 14.03.2020
1168 Clouds 4 1022 86 10000 1 0 20:59 14.03.2020
1169 Clouds 4 1022 80 10000 2.1 90 20:40 14.03.2020
1170 Clouds 5 1022 75 10000 2.1 80 20:19 14.03.2020
1171 Clouds 5 1022 75 10000 2.1 80 20:19 14.03.2020
1172 Clouds 5 1022 75 10000 2.6 70 19:56 14.03.2020
1173 Clouds 5 1022 75 10000 2.6 70 19:38 14.03.2020
1174 Clouds 6 1022 70 10000 1 0 19:19 14.03.2020
1175 Clouds 6 1021 70 10000 0.5 0 18:37 14.03.2020
1176 Clouds 7 1021 65 10000 0.5 80 18:19 14.03.2020
1177 Clouds 7 1021 70 10000 0.5 0 17:39 14.03.2020
1178 Clouds 7 1021 70 10000 1.5 280 17:21 14.03.2020
1179 Clouds 8 1021 70 10000 2.1 280 16:41 14.03.2020
1180 Rain 8 1021 65 10000 4.6 270 16:23 14.03.2020
1181 Rain 9 1021 48 10000 3.6 220 15:59 14.03.2020
1182 Rain 9 1021 48 10000 3.6 220 15:27 14.03.2020
1183 Rain 9 1021 49 10000 3.1 200 14:59 14.03.2020
1184 Rain 10 1020 39 10000 0.5 0 14:37 14.03.2020
1185 Rain 10 1021 42 10000 1 0 14:19 14.03.2020
1186 Rain 9 1021 42 10000 1 0 13:56 14.03.2020
1187 Rain 9 1021 43 10000 1 0 13:38 14.03.2020
1188 Rain 9 1021 46 10000 1 0 13:18 14.03.2020
1189 Rain 9 1021 57 10000 1.5 0 12:43 14.03.2020
1190 Clouds 9 1021 57 10000 1 0 12:24 14.03.2020
1191 Clouds 9 1021 61 10000 1.5 0 11:43 14.03.2020
1192 Clouds 9 1021 61 10000 1.5 0 11:43 14.03.2020
1193 Clouds 8 1021 70 10000 1 0 11:25 14.03.2020
1194 Clouds 7 1021 70 10000 0.5 0 10:47 14.03.2020
1195 Clouds 6 1021 71 10000 0.5 0 10:28 14.03.2020
1196 Clouds 5 1021 71 10000 0.5 0 09:59 14.03.2020
1197 Clouds 4 1021 71 10000 1.5 80 09:40 14.03.2020
1198 Clouds 3 1021 71 10000 0.5 0 09:21 14.03.2020
1199 Clouds 3 1021 86 10000 0.5 0 08:46 14.03.2020
1200 Clouds 2 1021 86 10000 0.5 0 08:27 14.03.2020
1201 Clouds 1 1021 88 10000 1 70 07:45 14.03.2020
1202 Clouds 1 1021 92 10000 1 70 07:22 14.03.2020
1203 Clouds 0 1021 92 10000 1 70 06:59 14.03.2020
1204 Clouds 0 1021 88 10000 1 0 06:39 14.03.2020
1205 Clouds 1 1020 87 10000 1 320 04:57 14.03.2020
1206 Clouds 1 1021 87 10000 1 0 03:41 14.03.2020
1207 Clouds 1 1021 87 10000 0.5 0 03:20 14.03.2020
1208 Clouds 1 1021 86 10000 1 0 02:19 14.03.2020
1209 Clouds 2 1021 80 10000 1 0 00:42 14.03.2020
1210 Clouds 3 1021 74 10000 2.6 300 23:45 13.03.2020
1211 Clouds 3 1021 74 10000 3.1 260 23:26 13.03.2020
1212 Clouds 3 1021 69 10000 2.6 250 22:47 13.03.2020
1213 Clouds 3 1021 74 10000 2.1 220 22:25 13.03.2020
1214 Clouds 4 1021 69 10000 3.1 250 21:43 13.03.2020
1215 Clouds 5 1022 69 10000 1.5 200 21:21 13.03.2020
1216 Clouds 5 1022 69 10000 1.5 200 20:57 13.03.2020
1217 Clouds 5 1021 65 10000 1 0 20:38 13.03.2020
1218 Clear 5 1021 65 10000 2.1 260 20:19 13.03.2020
1219 Clear 6 1021 60 10000 2.1 260 19:45 13.03.2020
1220 Clear 7 1021 52 10000 5.1 270 19:27 13.03.2020
1221 Clear 7 1021 49 10000 5.7 270 18:47 13.03.2020
1222 Clear 8 1021 45 10000 7.2 280 18:28 13.03.2020
1223 Clear 9 1020 45 10000 5.7 260 17:57 13.03.2020
1224 Clear 9 1020 45 10000 5.7 260 17:38 13.03.2020
1225 Clear 9 1020 49 10000 6.7 280 17:19 13.03.2020
1226 Clear 10 1020 46 10000 7.7 300 16:42 13.03.2020
1227 Clear 10 1020 43 10000 7.7 280 16:24 13.03.2020
1228 Clear 10 1020 43 10000 7.7 280 15:56 13.03.2020
1229 Clear 10 1020 43 10000 6.7 270 15:37 13.03.2020
1230 Clear 10 1020 46 10000 8.7 280 15:19 13.03.2020
1231 Clear 10 1020 45 10000 6.7 270 14:41 13.03.2020
1232 Clear 10 1020 45 10000 6.7 270 14:41 13.03.2020
1233 Clouds 10 1021 43 10000 7.7 260 14:22 13.03.2020
1234 Clouds 9 1021 43 10000 7.7 260 13:57 13.03.2020
1235 Clouds 9 1021 43 10000 8.2 260 13:38 13.03.2020
1236 Clouds 9 1021 45 10000 7.7 260 13:19 13.03.2020
1237 Clouds 9 1021 52 10000 8.7 270 12:54 13.03.2020
1238 Clouds 8 1021 52 10000 8.7 270 12:36 13.03.2020
1239 Clouds 8 1021 49 10000 8.2 270 12:18 13.03.2020
1240 Clouds 8 1021 52 10000 6.7 230 11:42 13.03.2020
1241 Clouds 7 1021 52 10000 6.7 240 11:24 13.03.2020
1242 Clouds 7 1021 52 10000 5.7 240 10:48 13.03.2020
1243 Clouds 7 1021 71 10000 7.2 250 10:28 13.03.2020
1244 Clouds 6 1020 70 10000 4.1 240 09:59 13.03.2020
1245 Clouds 6 1020 70 10000 4.1 240 09:41 13.03.2020
1246 Clouds 6 1020 70 10000 3.6 230 09:22 13.03.2020
1247 Clouds 5 1020 75 10000 4.1 240 08:46 13.03.2020
1248 Clouds 5 1019 75 10000 4.1 230 08:23 13.03.2020
1249 Clouds 4 1019 80 10000 5.7 250 07:52 13.03.2020
1250 Clouds 4 1019 80 10000 5.7 250 07:28 13.03.2020
1251 Rain 4 1019 86 10000 6.2 260 06:57 13.03.2020
1252 Rain 4 1018 93 10000 5.1 260 06:32 13.03.2020
1253 Rain 5 1018 86 10000 6.2 290 05:55 13.03.2020
1254 Rain 5 1018 86 10000 6.2 290 05:37 13.03.2020
1255 Rain 5 1017 86 10000 6.7 280 04:38 13.03.2020
1256 Clouds 6 1016 75 10000 3.6 200 03:43 13.03.2020
1257 Clouds 6 1016 75 10000 2.1 230 01:48 13.03.2020
1258 Clouds 6 1016 75 10000 2.1 220 01:19 13.03.2020
1259 Rain 7 1016 65 10000 3.1 230 00:56 13.03.2020
1260 Rain 7 1017 70 10000 3.1 250 00:29 13.03.2020
1261 Clouds 7 1017 70 10000 4.1 250 23:59 12.03.2020
1262 Rain 7 1016 75 10000 4.6 260 23:29 12.03.2020
1263 Clouds 7 1016 75 10000 7.2 280 22:58 12.03.2020
1264 Clouds 7 1016 75 10000 7.2 280 22:40 12.03.2020
1265 Clouds 8 1016 70 10000 5.7 280 22:22 12.03.2020
1266 Rain 8 1016 81 10000 6.7 280 21:54 12.03.2020
1267 Rain 8 1016 81 10000 6.7 280 21:36 12.03.2020
1268 Rain 9 1015 87 10000 7.7 290 21:18 12.03.2020
1269 Clouds 9 1015 87 10000 4.1 260 20:41 12.03.2020
1270 Clouds 9 1015 87 10000 4.1 260 20:41 12.03.2020
1271 Clouds 9 1015 93 10000 2.1 190 20:19 12.03.2020
1272 Clouds 9 1014 93 10000 1.5 150 19:42 12.03.2020
1273 Rain 9 1014 93 10000 1.5 190 19:21 12.03.2020
1274 Rain 9 1014 93 10000 1.5 190 19:21 12.03.2020
1275 Clouds 9 1014 93 10000 2.1 290 18:45 12.03.2020
1276 Rain 9 1014 81 10000 5.1 290 18:25 12.03.2020
1277 Rain 10 1014 81 8000 7.7 290 17:58 12.03.2020
1278 Rain 10 1014 81 8000 7.7 290 17:40 12.03.2020
1279 Drizzle 10 1014 87 10000 6.7 300 17:22 12.03.2020
1280 Drizzle 10 1014 93 10000 7.2 310 16:58 12.03.2020
1281 Drizzle 11 1014 93 10000 7.2 310 16:40 12.03.2020
1282 Rain 11 1014 87 10000 6.2 310 16:21 12.03.2020
1283 Rain 12 1014 87 10000 6.7 300 15:48 12.03.2020
1284 Rain 12 1014 81 10000 6.2 300 15:28 12.03.2020
1285 Rain 12 1014 81 10000 6.2 300 15:28 12.03.2020
1286 Rain 13 1014 58 10000 7.7 250 14:55 12.03.2020
1287 Rain 13 1014 58 10000 7.7 250 14:37 12.03.2020
1288 Rain 13 1014 58 10000 8.7 260 14:18 12.03.2020
1289 Rain 14 1014 51 10000 7.7 240 13:38 12.03.2020
1290 Clouds 15 1014 51 10000 7.2 240 13:20 12.03.2020
1291 Clouds 15 1014 51 10000 5.7 230 12:43 12.03.2020
1292 Clouds 15 1014 51 10000 7.7 250 12:24 12.03.2020
1293 Clouds 15 1014 51 10000 6.7 240 11:59 12.03.2020
1294 Clouds 15 1014 51 10000 6.7 240 11:59 12.03.2020
1295 Clouds 15 1014 51 10000 6.7 240 11:39 12.03.2020
1296 Clouds 14 1014 54 10000 6.2 240 11:21 12.03.2020
1297 Clouds 14 1014 54 10000 6.2 250 10:59 12.03.2020
1298 Clouds 14 1014 54 10000 6.2 250 10:41 12.03.2020
1299 Clouds 14 1014 58 10000 7.7 240 10:23 12.03.2020
1300 Clouds 13 1014 62 10000 6.2 240 09:55 12.03.2020
1301 Clouds 13 1014 62 10000 6.2 240 09:37 12.03.2020
1302 Clouds 13 1014 66 10000 6.7 240 09:19 12.03.2020
1303 Clouds 12 1014 66 10000 3.1 230 08:38 12.03.2020
1304 Clouds 11 1014 76 10000 2.1 220 08:18 12.03.2020
1305 Clouds 11 1014 76 10000 2.1 230 07:47 12.03.2020
1306 Clouds 11 1014 81 10000 2.1 240 07:22 12.03.2020
1307 Clouds 10 1014 76 10000 1 0 06:20 12.03.2020
1308 Rain 11 1014 71 10000 3.1 200 05:35 12.03.2020
1309 Clouds 10 1014 76 10000 1 0 03:44 12.03.2020
1310 Clouds 10 1016 81 10000 2.6 190 01:58 12.03.2020
1311 Clouds 10 1016 81 10000 2.1 200 01:23 12.03.2020
1312 Clouds 10 1016 76 10000 2.6 200 00:42 12.03.2020
1313 Clouds 11 1017 76 10000 3.1 200 23:58 11.03.2020
1314 Clouds 11 1017 76 10000 3.1 200 23:37 11.03.2020
1315 Clouds 11 1017 76 10000 2.6 210 23:18 11.03.2020
1316 Clouds 11 1017 76 10000 2.6 220 22:41 11.03.2020
1317 Clouds 11 1017 76 10000 2.6 210 22:23 11.03.2020
1318 Clouds 11 1017 76 10000 2.6 210 21:58 11.03.2020
1319 Clouds 11 1018 76 10000 4.1 210 21:40 11.03.2020
1320 Clouds 12 1018 76 10000 5.1 200 21:22 11.03.2020
1321 Clouds 12 1018 76 10000 4.6 190 20:57 11.03.2020
1322 Clouds 12 1018 76 10000 4.6 190 20:57 11.03.2020
1323 Clouds 12 1018 76 10000 4.6 190 20:37 11.03.2020
1324 Clouds 12 1018 71 10000 4.1 210 20:19 11.03.2020
1325 Clouds 12 1018 71 10000 4.1 190 19:42 11.03.2020
1326 Clouds 13 1018 66 10000 4.1 230 19:24 11.03.2020
1327 Clouds 13 1018 66 10000 4.1 230 18:57 11.03.2020
1328 Clouds 13 1018 62 10000 8.2 250 18:38 11.03.2020
1329 Clouds 14 1018 62 10000 8.2 250 18:19 11.03.2020
1330 Clouds 14 1018 58 10000 7.7 250 17:55 11.03.2020
1331 Clouds 14 1018 58 10000 7.7 250 17:37 11.03.2020
1332 Clouds 14 1018 58 10000 7.2 240 17:19 11.03.2020
1333 Clouds 14 1018 58 10000 6.7 240 16:44 11.03.2020
1334 Clouds 15 1018 55 10000 8.7 250 16:20 11.03.2020
1335 Clouds 15 1018 55 10000 7.7 240 15:44 11.03.2020
1336 Clouds 15 1018 58 10000 8.2 230 15:23 11.03.2020
1337 Clouds 15 1018 62 10000 6.7 230 14:56 11.03.2020
1338 Clouds 15 1018 62 10000 6.7 230 14:38 11.03.2020
1339 Clouds 15 1018 67 10000 7.7 230 14:19 11.03.2020
1340 Clouds 15 1018 58 10000 8.7 250 13:44 11.03.2020
1341 Clouds 15 1018 62 10000 7.2 240 13:25 11.03.2020
1342 Clouds 15 1018 62 10000 8.7 240 12:57 11.03.2020
1343 Clouds 15 1018 62 10000 8.7 240 12:39 11.03.2020
1344 Clouds 14 1018 71 10000 5.7 220 12:19 11.03.2020
1345 Clouds 14 1018 71 10000 6.2 240 11:41 11.03.2020
1346 Clouds 14 1018 76 10000 5.1 220 11:22 11.03.2020
1347 Rain 13 1018 76 10000 5.7 230 10:56 11.03.2020
1348 Rain 13 1018 76 10000 5.7 230 10:37 11.03.2020
1349 Clouds 13 1017 76 10000 4.6 230 10:18 11.03.2020
1350 Clouds 12 1017 81 10000 4.1 220 09:41 11.03.2020
1351 Clouds 11 1017 87 10000 4.1 200 09:23 11.03.2020
1352 Clouds 11 1017 87 10000 4.6 220 08:45 11.03.2020
1353 Clouds 11 1017 87 10000 4.6 220 08:26 11.03.2020
1354 Drizzle 11 1017 87 10000 3.6 220 07:56 11.03.2020
1355 Drizzle 11 1017 87 10000 4.1 220 07:37 11.03.2020
1356 Clouds 11 1016 81 10000 4.1 220 07:18 11.03.2020
1357 Clouds 11 1016 81 10000 4.1 230 06:37 11.03.2020
1358 Clouds 11 1015 81 10000 4.1 220 05:33 11.03.2020
1359 Clouds 11 1015 81 10000 5.7 220 03:39 11.03.2020
1360 Clouds 10 1015 81 10000 5.7 210 01:57 11.03.2020
1361 Clouds 10 1014 81 10000 6.2 220 01:25 11.03.2020
1362 Clouds 10 1015 87 10000 5.1 220 00:45 11.03.2020
1363 Clouds 10 1015 87 10000 5.7 220 23:56 10.03.2020
1364 Clouds 10 1015 87 10000 5.7 220 23:55 10.03.2020
1365 Clouds 10 1015 87 10000 5.7 220 23:55 10.03.2020
1366 Clouds 10 1015 87 10000 5.7 220 23:55 10.03.2020
1367 Clouds 10 1015 87 10000 5.7 220 23:37 10.03.2020
1368 Clouds 10 1014 87 10000 6.2 220 23:18 10.03.2020
1369 Clouds 10 1014 81 10000 6.7 230 22:38 10.03.2020
1370 Clouds 10 1014 87 10000 6.7 230 22:19 10.03.2020
1371 Clouds 9 1014 87 10000 6.7 220 21:56 10.03.2020
1372 Clouds 9 1014 87 10000 6.7 220 21:38 10.03.2020
1373 Clouds 9 1014 87 10000 5.7 220 21:20 10.03.2020
1374 Clouds 9 1014 87 10000 6.2 220 20:58 10.03.2020
1375 Clouds 9 1014 87 10000 6.2 220 20:40 10.03.2020
1376 Clouds 9 1014 87 10000 5.7 220 20:18 10.03.2020
1377 Clouds 9 1014 87 10000 5.7 220 19:56 10.03.2020
1378 Clouds 8 1013 87 10000 5.7 230 19:37 10.03.2020
1379 Clouds 8 1013 81 10000 5.1 230 19:18 10.03.2020
1380 Clouds 8 1013 81 10000 6.2 220 18:44 10.03.2020
1381 Clouds 8 1012 87 10000 6.7 230 18:25 10.03.2020
1382 Clouds 8 1012 87 10000 6.7 230 17:57 10.03.2020
1383 Clouds 8 1012 87 10000 5.7 230 17:39 10.03.2020
1384 -273 0 0 0 0 0 17:21 10.03.2020
1385 Rain 7 1012 87 8000 5.7 220 16:39 10.03.2020
1386 Rain 7 1012 87 10000 5.1 0 16:19 10.03.2020
1387 Rain 7 1012 87 10000 5.1 210 15:56 10.03.2020
1388 Rain 7 1012 87 10000 5.1 210 15:56 10.03.2020
1389 Rain 7 1012 87 10000 5.1 210 15:37 10.03.2020
1390 Rain 7 1012 93 10000 5.1 210 15:19 10.03.2020
1391 Rain 7 1012 93 8000 4.1 210 14:41 10.03.2020
1392 Rain 7 1012 93 10000 5.1 210 14:20 10.03.2020
1393 Rain 7 1012 93 10000 5.1 210 13:59 10.03.2020
1394 Rain 7 1012 87 10000 5.7 210 13:41 10.03.2020
1395 Rain 6 1013 87 10000 5.1 200 13:22 10.03.2020
1396 Rain 6 1013 87 10000 4.6 210 12:42 10.03.2020
1397 Rain 5 1013 87 10000 4.6 210 12:19 10.03.2020
1398 Rain 5 1013 86 10000 5.7 200 11:58 10.03.2020
1399 Rain 5 1013 86 10000 5.7 200 11:40 10.03.2020
1400 Rain 5 1013 86 10000 5.1 210 11:22 10.03.2020
1401 Rain 5 1013 86 10000 6.2 210 10:43 10.03.2020
1402 Rain 5 1013 86 10000 6.2 210 10:43 10.03.2020
1403 Rain 4 1013 80 10000 4.6 210 10:23 10.03.2020
1404 Rain 4 1013 80 10000 4.6 210 09:59 10.03.2020
1405 Rain 4 1013 86 10000 7.7 200 09:41 10.03.2020
1406 Rain 4 1014 86 10000 6.2 200 09:19 10.03.2020
1407 Rain 4 1014 86 10000 6.2 190 08:51 10.03.2020
1408 Rain 4 1014 86 10000 6.2 190 08:33 10.03.2020
1409 Rain 4 1014 80 10000 5.7 200 07:52 10.03.2020
1410 Rain 5 1014 75 10000 3.6 200 07:32 10.03.2020
1411 Rain 4 1015 75 10000 4.1 200 06:50 10.03.2020
1412 Clouds 4 1015 75 10000 3.6 200 06:31 10.03.2020
1413 Clouds 4 1016 80 10000 3.6 210 05:42 10.03.2020
1414 Clouds 4 1016 80 10000 2.1 210 04:56 10.03.2020
1415 Clouds 4 1016 80 10000 3.1 200 04:25 10.03.2020
1416 Clouds 3 1018 80 10000 3.1 230 02:46 10.03.2020
1417 Clouds 4 1018 80 10000 2.6 210 01:31 10.03.2020
1418 Clouds 3 1019 75 10000 3.6 230 00:50 10.03.2020
1419 Clouds 3 1019 80 10000 2.6 230 00:27 10.03.2020
1420 Clouds 3 1019 86 10000 2.6 210 23:41 09.03.2020
1421 Clear 3 1019 86 10000 2.6 220 23:22 09.03.2020
1422 Clouds 4 1019 86 10000 3.1 220 22:57 09.03.2020
1423 Clouds 4 1019 86 10000 3.1 220 22:37 09.03.2020
1424 Clouds 4 1019 86 10000 2.6 220 22:18 09.03.2020
1425 Clouds 4 1019 80 10000 3.1 230 21:43 09.03.2020
1426 Clouds 4 1018 80 10000 3.1 230 21:22 09.03.2020
1427 Clouds 4 1018 80 10000 2.1 220 20:58 09.03.2020
1428 Clouds 5 1018 80 10000 2.1 220 20:40 09.03.2020
1429 Clouds 5 1018 80 10000 2.1 200 20:20 09.03.2020
1430 Clouds 5 1018 80 10000 1.5 210 19:45 09.03.2020
1431 Clouds 5 1017 81 10000 2.6 210 19:26 09.03.2020
1432 Clouds 6 1017 75 10000 2.6 210 18:59 09.03.2020
1433 Clouds 6 1017 75 10000 2.6 210 18:40 09.03.2020
1434 Clouds 7 1017 65 10000 4.6 250 18:21 09.03.2020
1435 Clouds 7 1016 61 10000 5.1 280 17:58 09.03.2020
1436 Clouds 7 1016 61 10000 5.1 280 17:39 09.03.2020
1437 Clouds 8 1016 70 10000 4.6 240 17:20 09.03.2020
1438 Rain 8 1016 70 10000 3.6 230 16:59 09.03.2020
1439 Rain 8 1016 70 10000 3.6 230 16:41 09.03.2020
1440 Rain 8 1015 61 10000 5.1 290 16:22 09.03.2020
1441 Rain 9 1015 61 10000 5.1 290 15:58 09.03.2020
1442 Rain 9 1015 61 10000 5.1 290 15:39 09.03.2020
1443 Rain 9 1015 61 10000 3.1 230 15:21 09.03.2020
1444 Rain 9 1015 70 10000 5.1 250 14:58 09.03.2020
1445 Rain 8 1015 61 10000 4.6 300 14:38 09.03.2020
1446 Rain 8 1015 65 10000 4.6 250 14:19 09.03.2020
1447 Rain 8 1015 65 10000 4.6 250 13:58 09.03.2020
1448 Rain 8 1015 65 10000 4.6 250 13:39 09.03.2020
1449 Clouds 8 1015 61 10000 5.7 260 13:20 09.03.2020
1450 Clouds 8 1015 65 10000 4.6 270 12:44 09.03.2020
1451 Clouds 7 1015 70 10000 5.7 260 12:24 09.03.2020
1452 Rain 7 1015 75 10000 4.1 240 11:58 09.03.2020
1453 Rain 6 1015 81 10000 3.1 230 11:40 09.03.2020
1454 Rain 6 1015 81 10000 3.1 230 11:20 09.03.2020
1455 Clouds 6 1015 81 10000 2.6 230 10:55 09.03.2020
1456 Clouds 6 1015 81 10000 2.6 230 10:37 09.03.2020
1457 Clouds 6 1015 81 10000 2.6 230 10:18 09.03.2020
1458 Rain 6 1014 86 10000 3.1 230 09:42 09.03.2020
1459 Rain 5 1014 86 10000 3.6 230 09:23 09.03.2020
1460 Clouds 5 1013 86 10000 2.6 230 08:45 09.03.2020
1461 Clouds 5 1013 86 10000 2.6 230 08:27 09.03.2020
1462 Clouds 5 1013 86 10000 2.6 240 07:45 09.03.2020
1463 Clouds 5 1013 86 10000 2.6 240 07:45 09.03.2020
1464 Clouds 5 1012 86 10000 4.6 270 07:23 09.03.2020
1465 Rain 5 1012 86 10000 6.7 280 06:59 09.03.2020
1466 Rain 5 1012 86 10000 6.7 280 06:39 09.03.2020
1467 Rain 5 1011 87 10000 5.7 280 06:21 09.03.2020
1468 Clouds 6 1011 81 10000 1.5 200 05:41 09.03.2020
1469 Clouds 6 1011 81 10000 2.1 200 04:57 09.03.2020
1470 Clouds 6 1011 75 10000 3.1 190 04:39 09.03.2020
1471 Clouds 6 1011 75 10000 3.1 190 04:19 09.03.2020
1472 Rain 5 1012 87 10000 2.1 190 02:53 09.03.2020
1473 Clouds 6 1013 65 10000 2.1 230 00:44 09.03.2020
1474 Clouds 6 1013 65 10000 2.1 230 00:25 09.03.2020
1475 Rain 6 1013 65 10000 1.5 200 23:58 08.03.2020
1476 Rain 6 1013 70 10000 2.1 200 23:38 08.03.2020
1477 Rain 6 1013 70 10000 2.1 200 23:18 08.03.2020
1478 Rain 6 1013 70 10000 1.5 230 22:41 08.03.2020
1479 Rain 6 1013 65 10000 1.5 190 22:41 08.03.2020
1480 Rain 6 1013 70 10000 1.5 230 22:22 08.03.2020
1481 Rain 5 1013 70 10000 1.5 230 21:59 08.03.2020
1482 Rain 6 1014 65 10000 1 200 21:41 08.03.2020
1483 Rain 6 1014 65 10000 1 200 21:20 08.03.2020
1484 Rain 6 1014 61 10000 2.1 200 20:58 08.03.2020
1485 Rain 6 1014 61 10000 3.1 190 20:38 08.03.2020
1486 Clouds 7 1014 61 10000 3.1 190 20:20 08.03.2020
1487 Clouds 7 1014 57 10000 3.6 180 19:40 08.03.2020
1488 Clouds 8 1014 61 10000 3.6 180 19:20 08.03.2020
1489 Clouds 8 1014 57 10000 2.1 230 18:57 08.03.2020
1490 Clouds 8 1014 57 10000 2.1 250 18:38 08.03.2020
1491 Clouds 9 1014 57 10000 2.1 250 18:20 08.03.2020
1492 Clouds 10 1015 53 10000 2.1 0 17:41 08.03.2020
1493 Clouds 10 1015 53 10000 2.1 0 17:22 08.03.2020
1494 Clouds 10 1015 53 10000 2.1 0 16:59 08.03.2020
1495 Clouds 10 1015 53 10000 2.1 0 16:40 08.03.2020
1496 Clouds 10 1015 53 10000 2.1 0 16:22 08.03.2020
1497 Clouds 10 1016 50 10000 3.6 180 15:41 08.03.2020
1498 Clouds 10 1016 50 10000 3.6 180 15:22 08.03.2020
1499 Clouds 11 1016 50 10000 3.6 180 14:59 08.03.2020
1500 Clouds 10 1017 53 10000 3.1 220 14:38 08.03.2020
1501 Clouds 10 1017 53 10000 3.1 220 14:20 08.03.2020
1502 Clouds 10 1017 53 10000 3.1 220 13:55 08.03.2020
1503 Clouds 10 1018 53 10000 3.1 230 13:36 08.03.2020
1504 Clouds 9 1018 53 10000 2.6 200 13:18 08.03.2020
1505 Clouds 9 1019 61 10000 3.6 250 12:37 08.03.2020
1506 Clouds 9 1019 61 10000 3.6 200 12:18 08.03.2020
1507 Clouds 8 1020 52 10000 3.1 230 11:42 08.03.2020
1508 Clouds 7 1020 52 10000 3.1 230 11:23 08.03.2020
1509 Clouds 7 1020 56 10000 2.6 180 10:57 08.03.2020
1510 Clouds 7 1020 56 10000 2.6 180 10:57 08.03.2020
1511 Clouds 6 1020 56 10000 2.6 180 10:39 08.03.2020
1512 Clouds 6 1020 56 10000 2.6 180 10:21 08.03.2020
1513 Clouds 5 1021 75 10000 1.5 170 09:40 08.03.2020
1514 Clouds 4 1021 67 10000 1.5 80 09:22 08.03.2020
1515 Clouds 4 1021 67 10000 1 0 08:48 08.03.2020
1516 Clouds 1 1021 74 10000 0.5 20 08:22 08.03.2020
1517 Clouds 0 1021 80 10000 0.5 0 07:49 08.03.2020
1518 Clouds -1 1021 92 10000 0.5 0 07:28 08.03.2020
1519 Clouds 0 1021 92 10000 0.5 0 06:46 08.03.2020
1520 Clouds 0 1021 92 10000 1 0 06:27 08.03.2020
1521 Clouds 0 1021 83 10000 1 70 05:49 08.03.2020
1522 Clouds 0 1021 80 10000 0.5 0 04:24 08.03.2020
1523 Clouds 0 1022 86 10000 1.5 240 03:19 08.03.2020
1524 Clouds 0 1022 80 10000 1.5 220 01:55 08.03.2020
1525 Clouds 1 1023 80 10000 1 0 01:20 08.03.2020
1526 Clouds 1 1023 80 10000 0.5 0 00:41 08.03.2020
1527 Clouds 1 1023 80 10000 0.5 0 00:22 08.03.2020
1528 Clouds 1 1023 84 10000 1.5 230 23:43 07.03.2020
1529 Clear 1 1023 85 10000 1.5 230 23:21 07.03.2020
1530 Clear 2 1023 74 10000 1 0 22:38 07.03.2020
1531 Clear 2 1023 74 10000 1 0 22:20 07.03.2020
1532 Clear 2 1023 74 10000 1.5 210 21:47 07.03.2020
1533 Clear 2 1022 85 10000 1.5 210 21:24 07.03.2020
1534 Clear 3 1022 69 10000 1.5 230 20:42 07.03.2020
1535 Clouds 3 1022 82 10000 2.6 240 20:23 07.03.2020
1536 Clouds 3 1022 74 10000 3.6 260 19:58 07.03.2020
1537 Clouds 3 1022 69 10000 3.1 250 19:40 07.03.2020
1538 Clouds 4 1022 69 10000 3.1 250 19:20 07.03.2020
1539 Clouds 5 1021 82 10000 4.6 300 18:41 07.03.2020
1540 Clouds 5 1021 82 10000 4.6 300 18:22 07.03.2020
1541 Rain 5 1020 82 10000 6.2 280 17:56 07.03.2020
1542 Clouds 6 1020 82 10000 5.7 280 17:38 07.03.2020
1543 Clouds 6 1020 69 10000 5.7 280 17:18 07.03.2020
1544 Clouds 6 1020 69 10000 6.7 290 16:42 07.03.2020
1545 Clouds 6 1020 69 10000 6.7 290 16:23 07.03.2020
1546 Clouds 5 1019 69 10000 7.2 290 15:58 07.03.2020
1547 Rain 5 1019 65 10000 6.7 260 15:40 07.03.2020
1548 Rain 5 1019 65 10000 6.7 260 15:21 07.03.2020
1549 Rain 5 1019 65 10000 6.7 260 15:21 07.03.2020
1550 Clouds 6 1019 69 10000 8.2 270 14:57 07.03.2020
1551 Clouds 6 1019 69 10000 8.2 270 14:39 07.03.2020
1552 Clouds 6 1019 65 10000 6.7 270 14:21 07.03.2020
1553 Clouds 6 1019 70 10000 5.7 280 13:40 07.03.2020
1554 Clouds 5 1019 70 10000 5.7 280 13:21 07.03.2020
1555 Rain 5 1019 80 10000 6.7 290 12:44 07.03.2020
1556 Clouds 5 1019 70 10000 4.1 270 12:23 07.03.2020
1557 Clouds 5 1018 75 10000 4.6 320 11:59 07.03.2020
1558 Clouds 5 1018 70 10000 5.1 270 11:41 07.03.2020
1559 Clouds 5 1018 70 10000 5.1 270 11:23 07.03.2020
1560 Clouds 5 1018 75 10000 4.6 270 10:56 07.03.2020
1561 Clouds 4 1017 75 10000 4.6 270 10:36 07.03.2020
1562 Clouds 4 1017 75 10000 4.6 270 10:18 07.03.2020
1563 Clouds 4 1017 86 10000 4.6 260 09:40 07.03.2020
1564 Clouds 4 1017 86 10000 4.6 260 09:19 07.03.2020
1565 Clouds 3 1016 93 10000 4.1 260 08:57 07.03.2020
1566 Clouds 3 1016 86 10000 4.1 260 08:39 07.03.2020
1567 Clouds 3 1016 86 10000 4.1 260 08:20 07.03.2020
1568 Rain 3 1015 93 10000 3.6 250 07:44 07.03.2020
1569 Clouds 3 1014 93 10000 5.1 260 07:21 07.03.2020
1570 Rain 3 1026 90 0 0.45 114 06:39 07.03.2020
1571 Rain 3 1026 90 0 0.45 114 05:59 07.03.2020
1572 Rain 3 1012 86 10000 4.6 280 05:40 07.03.2020
1573 Rain 3 1011 86 10000 5.1 270 03:36 07.03.2020
1574 Rain 4 1011 86 10000 4.6 260 02:43 07.03.2020
1575 Rain 4 1010 86 10000 6.2 270 01:51 07.03.2020
1576 Clouds 4 1009 93 10000 3.1 240 00:43 07.03.2020
1577 Clouds 4 1008 93 10000 3.1 230 00:23 07.03.2020
1578 Clouds 4 1008 93 10000 3.1 230 00:23 07.03.2020
1579 Clouds 4 1008 93 10000 3.1 230 00:23 07.03.2020
1580 Clouds 4 1008 93 10000 3.1 230 00:23 07.03.2020
1581 Rain 4 1008 93 10000 3.1 240 23:58 06.03.2020
1582 Rain 4 1008 86 10000 2.6 230 23:39 06.03.2020
1583 Rain 4 1008 86 10000 2.6 230 23:21 06.03.2020
1584 Clouds 4 1007 93 10000 2.6 240 22:44 06.03.2020
1585 Clouds 4 1007 93 10000 2.6 240 22:19 06.03.2020
1586 Clouds 4 1007 93 10000 3.1 220 21:47 06.03.2020
1587 Rain 4 1006 93 9000 3.1 210 21:20 06.03.2020
1588 Rain 4 1005 86 10000 3.6 230 20:44 06.03.2020
1589 Rain 4 1005 86 10000 3.6 230 20:23 06.03.2020
1590 Rain 4 1005 86 10000 4.6 240 19:58 06.03.2020
1591 Rain 4 1004 86 10000 5.1 240 19:40 06.03.2020
1592 Rain 4 1004 86 10000 5.1 240 19:21 06.03.2020
1593 Rain 4 1003 93 10000 5.1 250 18:42 06.03.2020
1594 Rain 4 1002 86 10000 5.7 240 18:20 06.03.2020
1595 Rain 4 1002 86 10000 4.1 240 17:56 06.03.2020
1596 Rain 4 1001 86 10000 4.6 240 17:38 06.03.2020
1597 Rain 4 1001 86 10000 4.6 240 17:20 06.03.2020
1598 Rain 4 1000 93 10000 7.2 260 16:54 06.03.2020
1599 Rain 4 1000 93 10000 7.2 260 16:36 06.03.2020
1600 Rain 4 1000 93 10000 7.2 260 16:18 06.03.2020
1601 Rain 4 1000 86 10000 6.2 250 15:41 06.03.2020
1602 Rain 4 999 86 10000 6.2 250 15:22 06.03.2020
1603 Rain 5 998 86 10000 7.7 240 14:40 06.03.2020
1604 Rain 5 998 80 10000 8.7 240 14:22 06.03.2020
1605 Rain 5 997 80 10000 8.7 230 13:55 06.03.2020
1606 Rain 5 997 80 10000 7.2 230 13:37 06.03.2020
1607 Rain 5 997 80 10000 7.2 230 13:18 06.03.2020
1608 Rain 5 997 75 10000 8.7 230 12:40 06.03.2020
1609 Rain 6 996 75 10000 8.2 240 12:21 06.03.2020
1610 Clouds 6 995 75 10000 6.7 240 11:59 06.03.2020
1611 Clouds 6 995 75 10000 6.7 240 11:41 06.03.2020
1612 Clouds 6 995 75 10000 6.7 230 11:20 06.03.2020
1613 Rain 6 995 75 10000 7.2 230 10:56 06.03.2020
1614 Rain 6 994 80 10000 6.7 230 10:36 06.03.2020
1615 Rain 6 994 80 10000 6.7 230 10:18 06.03.2020
1616 Rain 6 994 70 10000 6.7 220 09:41 06.03.2020
1617 Rain 6 994 70 10000 6.7 220 09:23 06.03.2020
1618 Rain 6 993 75 10000 6.2 220 08:56 06.03.2020
1619 Rain 6 993 70 10000 6.2 210 08:37 06.03.2020
1620 Rain 6 993 70 10000 6.2 210 08:18 06.03.2020
1621 Rain 6 992 75 10000 7.7 220 07:41 06.03.2020
1622 Rain 6 992 75 10000 7.7 220 07:22 06.03.2020
1623 Rain 6 992 75 10000 5.7 220 06:42 06.03.2020
1624 Rain 6 991 75 10000 4.6 210 06:22 06.03.2020
1625 Rain 6 991 70 10000 4.6 210 05:38 06.03.2020
1626 Rain 6 991 70 10000 4.6 210 05:19 06.03.2020
1627 Rain 6 990 75 10000 5.7 200 04:39 06.03.2020
1628 Rain 7 989 75 10000 6.2 200 01:44 06.03.2020
1629 Clouds 7 989 75 10000 5.1 200 01:25 06.03.2020
1630 Clouds 7 990 75 10000 5.7 200 00:57 06.03.2020
1631 Clouds 7 990 75 10000 6.2 200 00:31 06.03.2020
1632 Clouds 7 990 75 10000 3.1 190 23:44 05.03.2020
1633 Clouds 7 990 81 10000 4.1 190 23:25 05.03.2020
1634 Clouds 7 991 81 10000 3.6 200 22:56 05.03.2020
1635 Clouds 7 991 81 10000 4.6 210 22:37 05.03.2020
1636 Clouds 7 991 81 10000 4.6 210 22:18 05.03.2020
1637 Clouds 7 991 87 10000 5.1 200 21:56 05.03.2020
1638 Clouds 7 991 87 10000 3.6 210 21:37 05.03.2020
1639 Clouds 7 991 87 10000 3.6 210 21:19 05.03.2020
1640 Clouds 7 991 87 10000 4.6 200 20:55 05.03.2020
1641 Rain 7 991 93 10000 3.1 210 20:36 05.03.2020
1642 Rain 7 991 93 10000 3.1 210 20:18 05.03.2020
1643 Rain 7 991 93 10000 1.5 220 19:55 05.03.2020
1644 Rain 7 991 87 10000 1 0 19:37 05.03.2020
1645 Rain 7 991 87 10000 1 0 19:18 05.03.2020
1646 Rain 6 990 93 10000 3.1 160 18:38 05.03.2020
1647 Rain 6 990 93 10000 3.1 160 18:19 05.03.2020
1648 Rain 6 990 93 10000 3.6 170 17:59 05.03.2020
1649 Rain 6 991 87 10000 5.1 170 17:40 05.03.2020
1650 Rain 6 991 87 10000 5.1 170 17:21 05.03.2020
1651 Rain 6 992 93 10000 3.6 140 16:43 05.03.2020
1652 Rain 6 992 93 10000 3.6 140 16:25 05.03.2020
1653 Rain 6 992 93 10000 3.6 140 16:25 05.03.2020
1654 Rain 6 993 93 10000 4.6 150 15:59 05.03.2020
1655 Rain 6 993 93 10000 4.6 150 15:40 05.03.2020
1656 Rain 6 994 93 10000 3.1 140 15:21 05.03.2020
1657 Rain 6 995 93 10000 3.6 140 14:56 05.03.2020
1658 Rain 6 995 93 10000 3.6 140 14:37 05.03.2020
1659 Rain 6 995 93 10000 3.6 140 14:18 05.03.2020
1660 Rain 6 996 93 10000 3.1 150 13:43 05.03.2020
1661 Rain 6 998 93 10000 3.6 160 13:21 05.03.2020
1662 Rain 6 998 93 10000 4.1 160 12:58 05.03.2020
1663 Rain 6 998 93 10000 4.1 160 12:40 05.03.2020
1664 Rain 6 999 87 10000 2.6 160 12:19 05.03.2020
1665 Rain 6 1000 87 10000 2.1 160 11:57 05.03.2020
1666 Rain 6 1000 81 10000 2.1 140 11:37 05.03.2020
1667 Rain 6 1000 81 10000 2.1 140 11:37 05.03.2020
1668 Rain 6 1000 81 10000 2.1 140 11:18 05.03.2020
1669 Rain 6 1000 81 10000 1.5 150 10:57 05.03.2020
1670 Clouds 6 1001 86 10000 1.5 100 10:38 05.03.2020
1671 Clouds 6 1001 86 10000 1.5 100 10:20 05.03.2020
1672 Clouds 5 1002 86 10000 1.5 120 09:45 05.03.2020
1673 Clouds 5 1002 86 10000 1.5 140 09:27 05.03.2020
1674 Clouds 4 1003 86 10000 1 0 08:47 05.03.2020
1675 Clouds 4 1003 80 10000 1 0 08:29 05.03.2020
1676 Clouds 4 1003 90 10000 1.5 130 07:49 05.03.2020
1677 Clouds 3 1004 90 10000 1 100 07:23 05.03.2020
1678 Clouds 3 1004 90 10000 1 0 06:59 05.03.2020
1679 Clouds 3 1004 80 10000 1.5 70 06:41 05.03.2020
1680 Clouds 3 1004 80 10000 1.5 70 06:19 05.03.2020
1681 Clouds 3 1005 73 10000 1 70 05:32 05.03.2020
1682 Clouds 3 1006 80 10000 1 0 04:23 05.03.2020
1683 Clouds 2 1006 80 10000 0.5 0 03:58 05.03.2020
1684 Clouds 2 1008 73 10000 1 0 02:25 05.03.2020
1685 Clouds 2 1009 79 10000 0.5 250 01:24 05.03.2020
1686 Clouds 2 1009 79 10000 1 0 00:44 05.03.2020
1687 Clouds 2 1010 86 10000 0.5 50 23:56 04.03.2020
1688 Clouds 2 1010 79 10000 0.5 0 23:38 04.03.2020
1689 Clouds 2 1010 79 10000 0.5 0 23:20 04.03.2020
1690 Clouds 2 1010 79 10000 1 70 22:54 04.03.2020
1691 Clouds 2 1011 79 10000 1 0 22:36 04.03.2020
1692 Clouds 2 1011 79 10000 1 0 22:18 04.03.2020
1693 Clouds 2 1011 80 10000 2.1 70 21:41 04.03.2020
1694 Clouds 2 1011 74 10000 2.08 159 21:21 04.03.2020
1695 Clouds 3 1011 79 10000 1 110 20:58 04.03.2020
1696 Clouds 3 1011 79 10000 1 110 20:58 04.03.2020
1697 Clouds 3 1011 79 10000 0.5 0 20:39 04.03.2020
1698 Clouds 3 1011 80 10000 0.5 0 20:21 04.03.2020
1699 Clouds 4 1012 75 10000 0.5 0 19:43 04.03.2020
1700 Clouds 4 1012 75 10000 0.5 0 19:24 04.03.2020
1701 Rain 5 1012 75 10000 0.5 0 18:59 04.03.2020
1702 Rain 5 1012 70 10000 1 0 18:41 04.03.2020
1703 Rain 5 1012 70 10000 1 0 18:22 04.03.2020
1704 Rain 6 1012 77 10000 0.5 140 17:59 04.03.2020
1705 Clouds 6 1012 52 10000 1 190 17:38 04.03.2020
1706 Rain 6 1012 56 10000 1 0 17:20 04.03.2020
1707 Rain 6 1012 56 10000 1 0 16:55 04.03.2020
1708 Rain 7 1012 56 10000 2.1 290 16:36 04.03.2020
1709 Rain 7 1012 56 10000 2.1 290 16:18 04.03.2020
1710 Rain 7 1013 64 10000 4.1 290 15:42 04.03.2020
1711 Rain 7 1013 64 10000 4.1 290 15:23 04.03.2020
1712 Rain 7 1013 56 10000 4.1 290 14:56 04.03.2020
1713 Rain 7 1013 56 10000 5.7 270 14:38 04.03.2020
1714 Rain 7 1013 56 10000 5.7 270 14:19 04.03.2020
1715 Rain 7 1013 56 10000 4.6 250 13:57 04.03.2020
1716 Rain 6 1013 56 10000 5.1 240 13:39 04.03.2020
1717 Rain 7 1013 56 10000 4.6 250 13:39 04.03.2020
1718 Rain 6 1013 56 10000 5.1 240 13:20 04.03.2020
1719 Rain 6 1013 70 10000 5.1 240 12:45 04.03.2020
1720 Clouds 6 1013 70 10000 4.1 240 12:27 04.03.2020
1721 Clouds 6 1013 70 10000 4.6 230 11:59 04.03.2020
1722 Clouds 6 1013 70 10000 4.6 230 11:41 04.03.2020
1723 Clouds 5 1014 77 10000 5.1 240 11:23 04.03.2020
1724 Clouds 5 1014 77 10000 4.6 230 10:57 04.03.2020
1725 Clouds 5 1014 77 10000 3.1 230 10:39 04.03.2020
1726 Clouds 5 1014 77 10000 3.1 230 10:18 04.03.2020
1727 Clouds 4 1014 74 10000 3.1 220 09:42 04.03.2020
1728 Clouds 3 1014 74 10000 3.1 220 09:21 04.03.2020
1729 Clouds 3 1014 80 10000 3.1 220 08:47 04.03.2020
1730 Clouds 2 1013 80 10000 3.1 230 08:27 04.03.2020
1731 Clear 2 1013 80 10000 3.1 230 07:56 04.03.2020
1732 Clear 1 1013 80 10000 3.1 230 07:38 04.03.2020
1733 Clear 1 1013 80 10000 3.1 230 07:20 04.03.2020
1734 Clouds 1 1013 80 10000 2.6 230 06:43 04.03.2020
1735 Clouds 1 1012 80 10000 2.6 220 06:23 04.03.2020
1736 Clear 1 1012 80 10000 2.1 230 05:50 04.03.2020
1737 Clouds 1 1011 86 10000 1 0 04:30 04.03.2020
1738 Clouds 0 1011 92 10000 1.5 240 03:44 04.03.2020
1739 Clouds 0 1011 92 10000 1.5 250 03:25 04.03.2020
1740 Clear 0 1011 90 10000 1 230 02:55 04.03.2020
1741 Rain 0 1011 89 10000 1.5 260 02:21 04.03.2020
1742 Rain 1 1011 86 10000 1.5 250 01:54 04.03.2020
1743 Clouds 0 1010 89 10000 2.1 250 00:52 04.03.2020
1744 Clouds 1 1010 86 10000 1.5 280 00:27 04.03.2020
1745 Clouds 1 1009 80 10000 2.1 270 23:48 03.03.2020
1746 Clouds 1 1009 89 10000 1 0 23:28 03.03.2020
1747 Clouds 1 1009 85 10000 0.5 0 22:59 03.03.2020
1748 Clouds 1 1009 93 10000 0.5 0 22:40 03.03.2020
1749 Clouds 1 1009 93 10000 0.5 0 22:20 03.03.2020
1750 Clouds 1 1008 85 10000 1 0 21:58 03.03.2020
1751 Clouds 1 1008 85 10000 1 0 21:39 03.03.2020
1752 Clouds 2 1008 93 10000 0.5 250 21:20 03.03.2020
1753 Clouds 2 1008 85 10000 0.5 0 20:56 03.03.2020
1754 Clouds 2 1008 85 10000 2.1 310 20:37 03.03.2020
1755 Rain 3 1007 86 10000 4.6 310 20:18 03.03.2020
1756 Rain 3 1007 86 10000 4.6 310 20:18 03.03.2020
1757 Rain 3 1007 86 10000 4.6 310 19:55 03.03.2020
1758 Rain 3 1007 82 10000 4.1 260 19:36 03.03.2020
1759 Rain 4 1007 82 10000 4.1 260 19:18 03.03.2020
1760 Rain 4 1006 65 10000 2.1 230 18:55 03.03.2020
1761 Clouds 4 1005 60 10000 2.6 250 18:37 03.03.2020
1762 Clouds 5 1005 60 10000 2.6 250 18:18 03.03.2020
1763 Rain 5 1004 56 10000 4.1 260 17:40 03.03.2020
1764 Rain 5 1004 56 10000 4.1 260 17:22 03.03.2020
1765 Rain 6 1004 56 10000 3.1 260 16:59 03.03.2020
1766 Rain 6 1004 52 10000 3.6 260 16:38 03.03.2020
1767 Rain 6 1004 52 10000 3.6 260 16:38 03.03.2020
1768 Rain 6 1004 52 10000 3.6 260 16:20 03.03.2020
1769 Rain 5 1004 52 10000 3.6 260 16:20 03.03.2020
1770 Rain 6 1004 52 10000 3.6 260 16:20 03.03.2020
1771 Rain 6 1004 52 10000 5.1 250 15:58 03.03.2020
1772 Clouds 6 1004 45 10000 5.1 260 15:40 03.03.2020
1773 Clouds 6 1004 45 10000 5.1 260 15:20 03.03.2020
1774 Rain 6 1004 56 10000 4.1 250 14:43 03.03.2020
1775 Rain 6 1004 56 10000 4.6 250 14:20 03.03.2020
1776 Clouds 6 1004 56 10000 4.6 250 13:58 03.03.2020
1777 Clouds 6 1004 56 10000 4.6 240 13:40 03.03.2020
1778 Clouds 6 1004 56 10000 4.6 240 13:21 03.03.2020
1779 Clouds 6 1004 60 10000 6.2 260 12:48 03.03.2020
1780 Clouds 6 1004 56 10000 6.7 270 12:27 03.03.2020
1781 Clouds 6 1004 60 10000 7.7 260 11:59 03.03.2020
1782 Rain 5 1004 65 10000 6.2 260 11:38 03.03.2020
1783 Rain 5 1004 65 10000 6.2 260 11:19 03.03.2020
1784 Rain 5 1004 81 10000 6.2 260 10:57 03.03.2020
1785 Clouds 5 1004 75 10000 3.6 250 10:38 03.03.2020
1786 Clouds 5 1004 75 10000 3.6 250 10:19 03.03.2020
1787 Clouds 4 1004 75 10000 2.1 250 09:45 03.03.2020
1788 Clouds 4 1004 81 10000 4.1 250 09:23 03.03.2020
1789 Clouds 4 1004 81 10000 4.6 250 08:59 03.03.2020
1790 Clouds 3 1003 81 10000 3.1 250 08:39 03.03.2020
1791 Clouds 3 1003 85 10000 3.1 250 08:21 03.03.2020
1792 Clouds 3 1002 86 10000 6.2 260 07:44 03.03.2020
1793 Clouds 3 1002 86 10000 6.2 260 07:24 03.03.2020
1794 Clouds 3 1002 86 10000 7.2 260 06:54 03.03.2020
1795 Clouds 3 1001 86 10000 7.7 270 06:27 03.03.2020
1796 Rain 3 1000 86 10000 10.3 280 05:49 03.03.2020
1797 Rain 3 1000 80 10000 10.8 270 05:31 03.03.2020
1798 Rain 4 997 93 10000 7.2 270 04:44 03.03.2020
1799 Rain 4 996 86 10000 3.6 240 02:37 03.03.2020
1800 Rain 5 994 93 10000 2.1 220 01:21 03.03.2020
1801 Rain 5 994 93 10000 2.1 230 00:40 03.03.2020
1802 Rain 5 994 93 10000 2.1 210 00:20 03.03.2020
1803 Rain 5 993 93 10000 2.1 240 23:46 02.03.2020
1804 Rain 5 993 93 10000 3.1 240 23:23 02.03.2020
1805 Rain 6 992 87 10000 4.1 240 22:57 02.03.2020
1806 Rain 6 991 93 10000 2.6 240 22:38 02.03.2020
1807 Rain 6 991 93 10000 2.6 240 22:38 02.03.2020
1808 Rain 6 991 93 10000 2.6 240 22:19 02.03.2020
1809 Rain 6 991 93 10000 2.6 240 21:56 02.03.2020
1810 Rain 6 990 93 10000 1 220 21:37 02.03.2020
1811 Rain 6 990 93 10000 1 220 21:19 02.03.2020
1812 Rain 6 990 100 10000 0.5 0 20:54 02.03.2020
1813 Rain 6 990 93 10000 4.54 291 20:36 02.03.2020
1814 Rain 6 990 93 10000 1.62 91 20:18 02.03.2020
1815 Rain 6 989 93 10000 1 0 19:39 02.03.2020
1816 Rain 7 989 93 10000 2.1 330 19:21 02.03.2020
1817 Rain 7 988 87 10000 2.6 330 18:57 02.03.2020
1818 Rain 7 988 87 10000 2.1 10 18:38 02.03.2020
1819 Rain 7 988 87 10000 2.1 10 18:18 02.03.2020
1820 Rain 7 988 81 10000 2.1 70 17:56 02.03.2020
1821 Rain 8 987 81 10000 2.1 70 17:38 02.03.2020
1822 Rain 8 987 81 10000 2.1 70 17:20 02.03.2020
1823 Rain 9 988 70 10000 3.1 140 16:43 02.03.2020
1824 Rain 9 988 70 10000 1 0 16:25 02.03.2020
1825 Clouds 10 988 66 10000 2.1 90 15:58 02.03.2020
1826 Clouds 10 988 66 10000 2.1 90 15:40 02.03.2020
1827 Clouds 10 988 61 10000 4.1 60 15:18 02.03.2020
1828 Clouds 10 988 61 10000 3.6 90 14:40 02.03.2020
1829 Clouds 10 988 57 10000 4.6 80 14:20 02.03.2020
1830 Clouds 10 989 57 10000 4.6 70 13:57 02.03.2020
1831 Clouds 10 990 61 10000 4.1 90 13:38 02.03.2020
1832 Clouds 10 990 61 10000 4.1 90 13:18 02.03.2020
1833 Clouds 10 990 61 10000 3.6 70 12:43 02.03.2020
1834 Clouds 9 991 65 10000 3.6 100 12:19 02.03.2020
1835 Clouds 9 991 65 10000 3.6 100 12:19 02.03.2020
1836 Clouds 9 991 65 10000 3.6 90 11:40 02.03.2020
1837 Clouds 8 992 75 10000 2.1 100 11:22 02.03.2020
1838 Clouds 7 993 75 10000 3.6 60 10:59 02.03.2020
1839 Clouds 6 994 80 10000 1 0 10:41 02.03.2020
1840 Clouds 6 994 80 10000 1 0 10:20 02.03.2020
1841 Clouds 6 995 72 10000 0.5 0 09:56 02.03.2020
1842 Clouds 5 994 72 10000 1 90 09:37 02.03.2020
1843 Clouds 5 994 72 10000 1 90 09:18 02.03.2020
1844 Clouds 4 995 80 10000 1.5 90 08:41 02.03.2020
1845 Clouds 2 995 80 10000 1.5 90 08:19 02.03.2020
1846 Clouds 2 995 80 10000 1.5 70 07:41 02.03.2020
1847 Clouds 1 996 80 10000 1 0 06:57 02.03.2020
1848 Clouds 1 997 80 10000 0.5 0 06:37 02.03.2020
1849 Clouds 2 997 86 10000 1 0 05:52 02.03.2020
1850 Clouds 3 998 80 10000 0.5 0 04:21 02.03.2020
1851 Clouds 4 999 84 10000 2.1 220 03:20 02.03.2020
1852 Clouds 4 999 84 10000 3.1 200 02:37 02.03.2020
1853 Clouds 4 999 84 10000 3.1 200 02:37 02.03.2020
1854 Clouds 4 998 80 10000 5.1 230 01:45 02.03.2020
1855 Clouds 5 998 80 10000 5.1 230 01:26 02.03.2020
1856 Clouds 6 998 85 10000 9.8 250 00:23 02.03.2020
1857 Clouds 6 998 85 10000 13.4 250 23:56 01.03.2020
1858 Clouds 7 997 85 10000 8.7 230 23:38 01.03.2020
1859 Clouds 7 997 70 10000 8.7 230 23:19 01.03.2020
1860 Clouds 8 995 61 10000 6.7 210 22:43 01.03.2020
1861 Clouds 8 995 61 10000 6.7 210 22:43 01.03.2020
1862 Clouds 8 995 61 10000 6.7 210 22:20 01.03.2020
1863 Clouds 8 995 70 10000 4.1 230 21:56 01.03.2020
1864 Rain 9 995 75 10000 6.7 240 21:38 01.03.2020
1865 Rain 9 995 75 10000 6.7 240 21:19 01.03.2020
1866 Rain 9 994 50 10000 6.2 200 20:43 01.03.2020
1867 Clouds 9 994 50 10000 6.2 200 20:25 01.03.2020
1868 Clouds 8 995 57 10000 4.1 160 19:56 01.03.2020
1869 Clouds 9 995 66 10000 2.6 130 19:37 01.03.2020
1870 Clouds 9 995 66 10000 2.6 130 19:19 01.03.2020
1871 Clouds 9 995 66 10000 2.1 130 18:41 01.03.2020
1872 Clouds 10 995 61 10000 2.1 140 18:20 01.03.2020
1873 Clouds 11 996 50 10000 2.6 170 17:58 01.03.2020
1874 Clouds 11 996 50 10000 2.6 180 17:40 01.03.2020
1875 Rain 11 996 50 10000 2.6 180 17:21 01.03.2020
1876 Rain 11 997 46 10000 2.6 220 16:58 01.03.2020
1877 Rain 12 997 46 10000 3.1 220 16:39 01.03.2020
1878 Rain 12 997 46 10000 3.1 220 16:39 01.03.2020
1879 Rain 12 997 46 10000 3.1 220 16:19 01.03.2020
1880 Rain 12 998 46 10000 5.1 220 15:58 01.03.2020
1881 Rain 12 998 53 10000 5.7 240 15:40 01.03.2020
1882 Rain 12 998 53 10000 5.7 240 15:21 01.03.2020
1883 Clouds 12 999 50 10000 4.6 230 14:58 01.03.2020
1884 Clouds 11 999 46 10000 5.7 220 14:39 01.03.2020
1885 Clouds 11 999 46 10000 5.7 220 14:21 01.03.2020
1886 Clouds 11 999 50 10000 8.2 260 13:57 01.03.2020
1887 Clouds 11 1000 53 10000 7.2 230 13:38 01.03.2020
1888 Clouds 11 1000 53 10000 7.2 230 13:38 01.03.2020
1889 Clouds 11 1000 53 10000 7.2 230 13:19 01.03.2020
1890 Clouds 11 1000 53 10000 7.2 230 13:19 01.03.2020
1891 Clouds 10 1000 53 10000 9.3 240 12:56 01.03.2020
1892 Clouds 10 1000 53 10000 9.3 240 12:38 01.03.2020
1893 Clouds 10 1000 61 10000 4.1 240 12:19 01.03.2020
1894 Clouds 9 1000 57 10000 6.7 230 11:40 01.03.2020
1895 Clouds 9 1000 57 10000 6.7 230 11:19 01.03.2020
1896 Clouds 9 1000 61 10000 6.7 220 10:56 01.03.2020
1897 Clouds 9 1001 66 10000 5.7 200 10:37 01.03.2020
1898 Clouds 9 1001 65 10000 5.7 200 10:18 01.03.2020
1899 Clouds 8 1001 65 10000 5.7 200 09:44 01.03.2020
1900 Clouds 8 1001 65 10000 3.6 200 09:26 01.03.2020
1901 Clouds 7 1001 70 10000 4.1 190 08:47 01.03.2020
1902 Clouds 6 1001 75 10000 4.6 200 08:28 01.03.2020
1903 Clouds 6 1002 75 10000 4.6 200 07:59 01.03.2020
1904 Clouds 6 1002 75 10000 3.6 200 07:40 01.03.2020
1905 Clouds 6 1002 75 10000 3.6 200 07:22 01.03.2020
1906 Clouds 6 1002 75 10000 4.1 200 06:43 01.03.2020
1907 Clouds 6 1002 75 10000 4.1 200 06:21 01.03.2020
1908 Clouds 6 1002 75 10000 4.6 200 03:40 01.03.2020
1909 Rain 6 1003 81 10000 3.6 190 02:23 01.03.2020
1910 Clouds 6 1003 81 10000 1.5 200 01:46 01.03.2020
1911 Clouds 6 1003 81 10000 1.5 210 01:20 01.03.2020
1912 Clouds 6 1003 81 10000 1.5 210 01:20 01.03.2020
1913 Rain 6 1003 81 10000 3.6 180 00:40 01.03.2020
1914 Rain 6 1003 81 10000 3.6 180 00:19 01.03.2020
1915 Rain 6 1003 75 10000 3.1 190 23:42 29.02.2020
1916 Rain 6 1003 70 10000 3.1 210 23:23 29.02.2020
1917 Rain 6 1002 75 10000 3.1 200 22:40 29.02.2020
1918 Rain 6 1002 75 10000 3.1 200 22:22 29.02.2020
1919 Clouds 7 1002 70 10000 3.1 230 21:42 29.02.2020
1920 Clouds 6 1001 81 10000 2.6 210 21:22 29.02.2020
1921 Clouds 7 1001 81 10000 2.6 210 20:43 29.02.2020
1922 Clouds 7 1001 81 10000 6.2 240 20:21 29.02.2020
1923 Rain 7 1000 75 10000 13.4 260 19:56 29.02.2020
1924 Rain 7 1000 75 10000 13.4 260 19:56 29.02.2020
1925 Rain 7 1000 75 10000 13.4 260 19:37 29.02.2020
1926 Clouds 10 998 71 10000 6.7 200 19:19 29.02.2020
1927 Clouds 10 997 71 10000 6.7 200 18:42 29.02.2020
1928 Rain 11 997 58 10000 7.2 200 18:23 29.02.2020
1929 Rain 12 996 54 10000 7.2 200 17:57 29.02.2020
1930 Rain 13 997 50 10000 4.6 220 17:39 29.02.2020
1931 Rain 13 997 50 10000 4.6 220 17:20 29.02.2020
1932 Clouds 14 997 44 10000 4.1 220 16:45 29.02.2020
1933 Clouds 14 996 47 10000 5.1 200 16:22 29.02.2020
1934 Clouds 14 997 44 10000 4.6 200 15:58 29.02.2020
1935 Clouds 14 997 44 10000 5.1 200 15:40 29.02.2020
1936 Clouds 14 997 44 10000 5.1 200 15:21 29.02.2020
1937 Rain 14 997 44 10000 3.1 220 14:41 29.02.2020
1938 Clouds 14 998 44 10000 5.7 210 14:22 29.02.2020
1939 Clouds 14 998 44 10000 4.1 200 13:47 29.02.2020
1940 Clouds 14 998 51 10000 5.1 190 13:28 29.02.2020
1941 Clouds 14 999 50 10000 5.1 180 12:59 29.02.2020
1942 Clouds 13 999 58 10000 4.1 180 12:40 29.02.2020
1943 Clouds 13 999 58 10000 4.1 180 12:21 29.02.2020
1944 Clouds 12 1000 62 10000 4.1 190 11:56 29.02.2020
1945 Clouds 11 1000 62 10000 3.1 190 11:38 29.02.2020
1946 Clouds 11 1000 62 10000 3.1 190 11:20 29.02.2020
1947 Clouds 10 1000 66 10000 2.1 190 10:44 29.02.2020
1948 Clouds 9 1001 76 10000 1 0 10:26 29.02.2020
1949 Clouds 8 1002 75 10000 1 0 09:47 29.02.2020
1950 Rain 7 1002 87 10000 1.5 160 09:23 29.02.2020
1951 Rain 6 1003 81 10000 2.1 180 08:42 29.02.2020
1952 Clouds 5 1003 86 10000 3.1 180 08:22 29.02.2020
1953 Clouds 6 1004 86 10000 0.5 0 07:58 29.02.2020
1954 Clouds 5 1005 93 10000 1.5 160 07:40 29.02.2020
1955 Clouds 5 1005 93 10000 1.5 160 07:18 29.02.2020
1956 Clouds 6 1006 87 10000 1.5 100 06:44 29.02.2020
1957 Clouds 6 1006 87 10000 1.5 100 06:23 29.02.2020
1958 Clouds 6 1006 87 10000 1.5 230 05:46 29.02.2020
1959 Rain 6 1007 75 10000 1.5 200 04:46 29.02.2020
1960 Rain 5 1007 70 10000 1.5 150 03:40 29.02.2020
1961 Clouds 6 1008 84 10000 2.1 140 03:22 29.02.2020
1962 Rain 5 1009 84 10000 2.1 120 02:37 29.02.2020
1963 Clouds 5 1010 60 10000 2.1 170 00:59 29.02.2020
1964 Clouds 5 1011 69 10000 2.1 170 00:37 29.02.2020
1965 Snow 5 1011 69 10000 1.5 150 23:56 28.02.2020
1966 Clouds 5 1012 52 10000 2.1 170 23:36 28.02.2020
1967 Clouds 5 1012 52 10000 2.1 170 23:18 28.02.2020
1968 Clouds 5 1012 56 10000 2.6 170 22:41 28.02.2020
1969 Clouds 5 1012 56 10000 2.6 170 22:19 28.02.2020
1970 Clouds 4 1014 56 10000 2.1 150 21:41 28.02.2020
1971 Clouds 4 1014 56 10000 2.1 150 21:21 28.02.2020
1972 -273 0 0 0 0 0 21:21 28.02.2020
1973 Clouds 4 1014 56 10000 2.6 170 20:54 28.02.2020
1974 Clouds 4 1015 56 10000 3.6 170 20:36 28.02.2020
1975 Clouds 4 1015 56 10000 3.6 170 20:18 28.02.2020
1976 Clouds 4 1015 56 10000 2.6 160 19:55 28.02.2020
1977 Clouds 4 1016 60 10000 2.1 150 19:37 28.02.2020
1978 Clouds 4 1016 60 10000 2.1 150 19:18 28.02.2020
1979 Clouds 4 1016 56 10000 2.6 170 18:43 28.02.2020
1980 Clouds 5 1016 52 10000 2.6 180 18:22 28.02.2020
1981 Clouds 6 1017 48 10000 4.6 180 17:41 28.02.2020
1982 Clouds 6 1017 48 10000 4.6 180 17:23 28.02.2020
1983 Clouds 6 1017 48 10000 3.1 210 16:55 28.02.2020
1984 Clouds 6 1017 45 10000 3.6 200 16:37 28.02.2020
1985 Clouds 6 1017 45 10000 3.6 200 16:18 28.02.2020
1986 Clouds 6 1018 48 10000 3.1 210 15:42 28.02.2020
1987 Clouds 6 1018 48 10000 3.1 230 15:20 28.02.2020
1988 Clouds 6 1018 48 10000 3.1 230 15:20 28.02.2020
1989 Clouds 7 1018 48 10000 5.1 250 14:59 28.02.2020
1990 Clouds 6 1019 48 10000 4.1 230 14:41 28.02.2020
1991 Clouds 6 1019 48 10000 4.1 230 14:19 28.02.2020
1992 Clouds 6 1019 52 10000 5.1 240 13:57 28.02.2020
1993 Clouds 6 1020 56 10000 4.1 230 13:39 28.02.2020
1994 Clouds 6 1020 56 10000 4.1 230 13:19 28.02.2020
1995 Clouds 5 1021 60 10000 5.7 250 12:43 28.02.2020
1996 Clouds 5 1021 60 10000 5.7 250 12:25 28.02.2020
1997 Clouds 5 1020 65 10000 4.1 220 11:55 28.02.2020
1998 Clouds 5 1020 69 10000 4.6 230 11:37 28.02.2020
1999 Clouds 4 1020 69 10000 4.1 230 11:18 28.02.2020
2000 Clouds 3 1020 80 10000 3.1 220 10:43 28.02.2020
2001 Clouds 3 1020 80 10000 3.1 220 10:23 28.02.2020
2002 Clouds 3 1020 80 10000 3.6 220 09:47 28.02.2020
2003 Snow 2 1020 80 10000 3.6 220 09:22 28.02.2020
2004 Clouds 2 1020 80 10000 4.1 200 08:59 28.02.2020
2005 Clouds 1 1020 80 10000 4.1 200 08:41 28.02.2020
2006 Clouds 1 1019 80 10000 4.1 190 08:20 28.02.2020
2007 Clouds 1 1019 80 10000 2.6 200 07:45 28.02.2020
2008 Clouds 1 1018 80 10000 3.1 230 07:25 28.02.2020
2009 Clouds 1 1018 80 10000 3.1 240 06:48 28.02.2020
2010 Clouds 1 1017 90 10000 5.1 260 06:28 28.02.2020
2011 Clouds 1 1015 74 10000 6.2 270 04:50 28.02.2020
2012 Clouds 1 1015 74 10000 8.7 280 04:20 28.02.2020
2013 Clouds 1 1012 74 10000 8.7 280 02:47 28.02.2020
2014 Snow 1 1012 74 10000 8.7 280 02:28 28.02.2020
2015 Snow 1 1011 80 8000 8.2 280 01:38 28.02.2020
2016 Snow 1 1008 80 10000 10.8 270 00:31 28.02.2020
2017 Snow 1 1007 80 10000 8.2 280 23:45 27.02.2020
2018 Snow 1 1006 95 7000 8.7 290 23:22 27.02.2020
2019 Snow 1 1004 74 9000 14.4 280 22:56 27.02.2020
2020 Snow 1 1002 80 9000 13.9 280 22:38 27.02.2020
2021 Snow 1 1002 80 9000 13.9 280 22:20 27.02.2020
2022 Snow 1 1000 95 9000 14.4 270 21:41 27.02.2020
2023 Snow 1 998 95 9000 16.5 270 21:23 27.02.2020
2024 Rain 2 995 80 10000 15.9 260 20:59 27.02.2020
2025 Rain 2 995 80 10000 15.9 260 20:41 27.02.2020
2026 Rain 2 993 82 10000 13.9 260 20:21 27.02.2020
2027 Clouds 3 992 82 10000 15.4 260 19:57 27.02.2020
2028 Rain 3 989 86 10000 7.7 250 19:38 27.02.2020
2029 Rain 3 989 86 10000 7.7 250 19:19 27.02.2020
2030 Rain 3 988 93 10000 5.1 210 18:54 27.02.2020
2031 Drizzle 2 988 82 10000 3.6 190 18:36 27.02.2020
2032 Drizzle 2 988 82 10000 3.6 190 18:18 27.02.2020
2033 Drizzle 1 989 82 10000 4.6 180 17:40 27.02.2020
2034 Drizzle 1 989 82 10000 4.6 180 17:40 27.02.2020
2035 Snow 1 991 96 3500 5.1 160 17:20 27.02.2020
2036 Snow 1 992 96 1600 4.1 150 16:59 27.02.2020
2037 Snow 1 993 96 2000 3.1 140 16:40 27.02.2020
2038 Snow 1 993 96 2000 3.1 140 16:20 27.02.2020
2039 Snow 1 994 96 1600 3.1 130 15:59 27.02.2020
2040 Snow 1 995 96 1000 3.1 130 15:38 27.02.2020
2041 Snow 1 995 96 1000 3.1 130 15:38 27.02.2020
2042 Snow 1 995 96 1000 3.1 130 15:19 27.02.2020
2043 Snow 1 996 96 300 3.1 140 14:58 27.02.2020
2044 Snow 1 998 96 800 6.2 170 14:37 27.02.2020
2045 Snow 2 998 67 800 6.2 170 14:19 27.02.2020
2046 Snow 4 999 69 4000 4.6 180 13:42 27.02.2020
2047 Clouds 4 1000 64 10000 5.7 150 13:21 27.02.2020
2048 Clouds 5 1001 60 10000 4.1 170 12:56 27.02.2020
2049 Clouds 5 1001 60 10000 4.1 170 12:38 27.02.2020
2050 Clouds 5 1003 64 10000 4.1 180 12:18 27.02.2020
2051 Clouds 5 1003 69 10000 4.6 180 11:42 27.02.2020
2052 Clouds 5 1004 64 10000 3.1 190 11:22 27.02.2020
2053 Clouds 4 1005 69 10000 3.1 190 10:45 27.02.2020
2054 Clouds 4 1006 74 10000 3.1 190 10:24 27.02.2020
2055 Clouds 3 1007 80 10000 3.1 180 09:59 27.02.2020
2056 Clouds 3 1007 74 10000 2.6 190 09:40 27.02.2020
2057 Clouds 3 1007 74 10000 2.6 190 09:21 27.02.2020
2058 Clouds 2 1008 80 10000 2.6 170 08:42 27.02.2020
2059 Clouds 2 1008 74 10000 2.6 210 08:22 27.02.2020
2060 Clouds 1 1008 80 10000 2.6 210 07:46 27.02.2020
2061 Clouds 1 1008 80 10000 3.1 220 07:26 27.02.2020
2062 Snow 1 1008 86 10000 3.1 220 06:48 27.02.2020
2063 Snow 1 1009 86 4500 4.1 230 06:19 27.02.2020
2064 Clouds 1 1009 86 10000 3.6 210 04:21 27.02.2020
2065 Clouds 1 1009 80 10000 3.6 210 02:35 27.02.2020
2066 Clouds 2 1009 80 10000 3.1 220 00:47 27.02.2020
2067 Clouds 2 1009 80 10000 2.6 220 00:28 27.02.2020
2068 Clouds 2 1009 74 10000 4.1 230 23:40 26.02.2020
2069 Clouds 2 1009 74 10000 4.1 230 23:20 26.02.2020
2070 Clouds 1 1009 86 10000 2.6 210 22:59 26.02.2020
2071 Clouds 2 1009 86 10000 2.6 210 22:39 26.02.2020
2072 Clouds 2 1008 86 10000 2.6 220 22:21 26.02.2020
2073 Clouds 2 1008 80 10000 3.6 220 21:57 26.02.2020
2074 Clouds 2 1008 80 10000 3.6 220 21:38 26.02.2020
2075 Clouds 2 1008 80 10000 4.6 230 21:19 26.02.2020
2076 Clouds 1 1008 80 10000 4.6 230 21:19 26.02.2020
2077 Clouds 2 1007 80 10000 4.1 230 20:55 26.02.2020
2078 Clouds 1 1007 86 10000 3.1 220 20:37 26.02.2020
2079 Clouds 1 1007 86 10000 3.1 220 20:18 26.02.2020
2080 Rain 1 1007 86 10000 2.6 240 19:47 26.02.2020
2081 Rain 1 1006 86 10000 4.1 250 19:21 26.02.2020
2082 Rain 1 1005 86 10000 5.7 260 18:59 26.02.2020
2083 Rain 1 1005 86 10000 5.7 260 18:41 26.02.2020
2084 Rain 1 1005 86 10000 5.7 260 18:41 26.02.2020
2085 Rain 1 1005 80 10000 6.2 250 18:22 26.02.2020
2086 Rain 1 1005 86 10000 5.7 250 17:59 26.02.2020
2087 Snow 2 1004 75 10000 6.2 250 17:39 26.02.2020
2088 Snow 3 1004 73 10000 6.2 250 17:18 26.02.2020
2089 Rain 3 1004 64 10000 6.7 250 16:56 26.02.2020
2090 Clouds 3 1003 60 10000 8.7 270 16:37 26.02.2020
2091 Clouds 3 1003 60 10000 8.7 270 16:18 26.02.2020
2092 Clouds 4 1003 60 10000 8.7 270 15:43 26.02.2020
2093 Clouds 4 1003 64 10000 7.7 260 15:25 26.02.2020
2094 Rain 3 1002 69 10000 7.2 270 14:43 26.02.2020
2095 Rain 3 1002 69 10000 7.2 270 14:43 26.02.2020
2096 Rain 3 1002 69 10000 7.2 270 14:23 26.02.2020
2097 Snow 3 1002 69 10000 8.2 270 13:56 26.02.2020
2098 Clouds 3 1002 69 10000 9.3 270 13:38 26.02.2020
2099 Clouds 3 1002 69 10000 9.3 270 13:18 26.02.2020
2100 Snow 3 1000 80 10000 8.2 260 12:38 26.02.2020
2101 Snow 3 1000 80 10000 8.2 260 12:19 26.02.2020
2102 Clouds 3 1000 70 10000 4.1 230 11:55 26.02.2020
2103 Clouds 3 1000 70 10000 5.1 230 11:36 26.02.2020
2104 Clouds 3 1000 70 10000 5.1 230 11:36 26.02.2020
2105 Clouds 3 1000 80 10000 5.1 230 11:18 26.02.2020
2106 Clouds 3 999 74 10000 4.1 230 10:40 26.02.2020
2107 Clouds 3 999 74 10000 4.1 230 10:21 26.02.2020
2108 Clouds 3 999 74 10000 3.6 210 09:44 26.02.2020
2109 Clouds 3 999 74 10000 4.1 200 09:25 26.02.2020
2110 Clouds 2 999 74 10000 5.1 200 08:59 26.02.2020
2111 Rain 2 999 74 10000 5.1 210 08:38 26.02.2020
2112 Rain 2 999 74 10000 5.1 210 08:19 26.02.2020
2113 Rain 2 999 86 10000 3.1 220 07:48 26.02.2020
2114 Rain 2 999 86 10000 4.6 220 07:29 26.02.2020
2115 Snow 2 999 80 8000 7.2 230 06:53 26.02.2020
2116 Clouds 2 999 80 10000 4.1 220 06:35 26.02.2020
2117 Clouds 2 999 80 10000 5.1 230 05:54 26.02.2020
2118 Snow 2 999 80 10000 7.2 240 05:28 26.02.2020
2119 Clouds 2 999 83 10000 4.1 230 04:49 26.02.2020
2120 Rain 3 998 86 10000 3.6 180 02:51 26.02.2020
2121 Rain 3 999 80 10000 5.7 240 01:50 26.02.2020
2122 Clouds 4 999 86 10000 6.2 250 00:51 26.02.2020
2123 Rain 4 999 80 10000 4.1 240 00:27 26.02.2020
2124 Rain 4 999 75 10000 2.6 220 23:59 25.02.2020
2125 Rain 4 999 75 10000 3.6 220 23:38 25.02.2020
2126 Clouds 4 999 75 10000 3.6 220 23:20 25.02.2020
2127 Clouds 5 1000 75 10000 4.6 230 22:43 25.02.2020
2128 Clouds 5 1000 75 10000 2.1 200 22:20 25.02.2020
2129 Clouds 5 1000 75 10000 2.6 220 21:58 25.02.2020
2130 Clouds 5 1001 80 10000 3.6 220 21:37 25.02.2020
2131 Clouds 5 1001 80 10000 3.6 220 21:19 25.02.2020
2132 Clouds 6 1001 81 10000 4.6 240 20:56 25.02.2020
2133 Clouds 6 1001 81 10000 4.6 240 20:37 25.02.2020
2134 Clouds 6 1001 81 10000 4.6 240 20:19 25.02.2020
2135 Rain 6 1002 93 6000 6.7 310 19:43 25.02.2020
2136 Rain 6 1002 93 6000 6.7 310 19:22 25.02.2020
2137 Rain 6 1001 87 10000 1.5 330 18:58 25.02.2020
2138 Clouds 7 1001 87 10000 2.6 240 18:39 25.02.2020
2139 Clouds 7 1001 87 10000 2.6 240 18:20 25.02.2020
2140 Rain 7 1002 81 10000 2.1 230 17:55 25.02.2020
2141 Rain 7 1002 81 8000 3.6 210 17:36 25.02.2020
2142 Rain 7 1002 81 8000 3.6 210 17:18 25.02.2020
2143 Clouds 8 1002 76 10000 5.1 210 16:55 25.02.2020
2144 Clouds 8 1002 70 10000 4.6 200 16:36 25.02.2020
2145 Clouds 8 1002 70 10000 4.6 200 16:18 25.02.2020
2146 Clouds 9 1003 70 10000 5.7 220 15:44 25.02.2020
2147 Clouds 9 1003 70 10000 6.2 230 15:20 25.02.2020
2148 Clouds 9 1003 70 10000 6.7 230 14:59 25.02.2020
2149 Clouds 9 1004 70 10000 5.7 220 14:39 25.02.2020
2150 Clouds 8 1004 70 10000 5.7 220 14:18 25.02.2020
2151 Rain 9 1004 70 10000 6.2 230 13:58 25.02.2020
2152 Clouds 9 1004 70 10000 5.7 220 13:39 25.02.2020
2153 Clouds 9 1004 70 10000 5.7 220 13:20 25.02.2020
2154 Clouds 9 1004 70 10000 5.7 220 13:20 25.02.2020
2155 Clouds 9 1005 70 10000 5.7 220 12:56 25.02.2020
2156 Clouds 8 1005 70 10000 5.1 220 12:37 25.02.2020
2157 Clouds 8 1005 70 10000 5.1 220 12:19 25.02.2020
2158 Rain 9 1005 75 10000 5.1 230 11:55 25.02.2020
2159 Clouds 9 1006 76 10000 4.6 0 11:37 25.02.2020
2160 Clouds 8 1006 76 10000 4.6 0 11:18 25.02.2020
2161 Rain 8 1006 81 10000 4.6 230 10:42 25.02.2020
2162 Rain 8 1006 81 10000 4.6 230 10:23 25.02.2020
2163 Rain 8 1006 75 10000 5.1 240 09:42 25.02.2020
2164 Clouds 8 1006 75 10000 5.1 230 09:23 25.02.2020
2165 Rain 8 1007 75 10000 3.1 230 08:59 25.02.2020
2166 Rain 8 1007 75 10000 3.1 230 08:41 25.02.2020
2167 Rain 8 1007 75 10000 2.1 190 08:22 25.02.2020
2168 Clouds 7 1007 75 10000 3.6 230 07:48 25.02.2020
2169 Clouds 7 1007 75 10000 2.1 230 07:23 25.02.2020
2170 Clouds 7 1007 75 10000 2.1 230 07:23 25.02.2020
2171 Clouds 7 1007 75 10000 2.6 250 06:55 25.02.2020
2172 Rain 7 1007 81 10000 2.6 250 05:51 25.02.2020
2173 Clouds 7 1007 81 10000 3.1 260 05:19 25.02.2020
2174 Clouds 8 1009 75 10000 2.1 70 02:34 25.02.2020
2175 Clouds 9 1010 76 10000 1 0 00:58 25.02.2020
2176 Clouds 9 1011 71 10000 1.5 190 00:32 25.02.2020
2177 Clouds 10 1011 71 10000 2.1 190 23:48 24.02.2020
2178 Clouds 10 1011 71 10000 2.1 210 23:29 24.02.2020
2179 Clouds 11 1011 66 10000 2.6 210 22:59 24.02.2020
2180 Clouds 10 1012 66 10000 2.1 200 22:37 24.02.2020
2181 Clouds 10 1012 66 10000 2.1 200 22:18 24.02.2020
2182 Clouds 10 1012 71 10000 2.6 240 21:55 24.02.2020
2183 Clouds 10 1012 71 10000 3.1 240 21:36 24.02.2020
2184 Clouds 10 1012 71 10000 3.1 240 21:18 24.02.2020
2185 Clouds 11 1011 66 10000 3.1 230 20:54 24.02.2020
2186 Clouds 11 1012 66 10000 3.1 220 20:36 24.02.2020
2187 Clouds 11 1012 66 10000 3.1 220 20:18 24.02.2020
2188 Clouds 11 1012 66 10000 2.6 230 19:55 24.02.2020
2189 Clouds 11 1013 71 10000 3.1 240 19:36 24.02.2020
2190 Clouds 11 1013 71 10000 3.1 240 19:18 24.02.2020
2191 Clouds 11 1013 71 10000 3.6 230 18:41 24.02.2020
2192 Clouds 11 1013 66 10000 5.1 230 18:22 24.02.2020
2193 Clouds 12 1013 62 10000 3.6 220 17:55 24.02.2020
2194 Clouds 12 1013 62 10000 6.2 240 17:36 24.02.2020
2195 Clouds 13 1013 62 10000 6.2 240 17:18 24.02.2020
2196 Clouds 13 1014 62 10000 6.2 240 16:55 24.02.2020
2197 Clouds 13 1015 67 10000 6.2 240 16:36 24.02.2020
2198 Clouds 13 1015 67 10000 6.2 240 16:18 24.02.2020
2199 Clouds 13 1015 67 10000 6.2 240 16:18 24.02.2020
2200 Clouds 13 1015 67 10000 6.7 240 15:55 24.02.2020
2201 Clouds 13 1016 71 10000 6.2 240 15:37 24.02.2020
2202 Clouds 13 1016 71 10000 6.2 240 15:18 24.02.2020
2203 Clouds 11 1017 71 10000 3.1 230 14:40 24.02.2020
2204 Clouds 11 1018 81 10000 1.5 120 14:22 24.02.2020
2205 Clouds 9 1019 87 10000 1.5 140 13:58 24.02.2020
2206 Clouds 9 1019 87 10000 2.6 160 13:40 24.02.2020
2207 Clouds 8 1019 87 10000 2.6 160 13:22 24.02.2020
2208 Clouds 8 1020 93 7000 2.1 150 12:58 24.02.2020
2209 Clouds 8 1020 93 7000 2.1 150 12:39 24.02.2020
2210 Clouds 7 1021 93 7000 1.5 110 12:21 24.02.2020
2211 Drizzle 7 1021 93 6000 1.5 130 11:47 24.02.2020
2212 Drizzle 6 1022 100 3500 1.5 90 11:29 24.02.2020
2213 Drizzle 6 1023 100 3300 1.5 110 10:51 24.02.2020
2214 Drizzle 6 1023 93 5000 1.5 120 10:31 24.02.2020
2215 Drizzle 5 1024 93 7000 1.5 110 09:56 24.02.2020
2216 Drizzle 5 1024 100 7000 2.1 150 09:38 24.02.2020
2217 Drizzle 5 1024 100 7000 2.1 150 09:19 24.02.2020
2218 Rain 5 1024 100 7000 1.5 160 08:48 24.02.2020
2219 Rain 5 1024 93 6000 1 170 08:28 24.02.2020
2220 Rain 4 1025 100 6000 1 0 07:52 24.02.2020
2221 Rain 4 1025 93 8000 1.5 160 07:31 24.02.2020
2222 Rain 5 1025 93 10000 1 160 06:48 24.02.2020
2223 Rain 4 1025 93 10000 1 160 06:22 24.02.2020
2224 Rain 4 1025 93 10000 2.1 330 05:33 24.02.2020
2225 Rain 5 1025 93 10000 2.1 310 04:49 24.02.2020
2226 Rain 6 1024 93 10000 5.7 330 02:57 24.02.2020
2227 Rain 7 1023 100 2500 8.7 330 01:53 24.02.2020
2228 Rain 8 1022 87 10000 6.7 250 01:28 24.02.2020
2229 Rain 8 1022 87 10000 6.7 250 01:28 24.02.2020
2230 Rain 9 1022 87 10000 6.2 240 00:38 24.02.2020
2231 Rain 10 1022 87 10000 6.2 240 00:19 24.02.2020
2232 Rain 11 1021 76 10000 8.2 250 23:42 23.02.2020
2233 Rain 12 1021 76 10000 8.2 250 23:23 23.02.2020
2234 Rain 12 1021 76 10000 7.7 250 22:58 23.02.2020
2235 Clouds 12 1020 76 10000 6.7 240 22:40 23.02.2020
2236 Clouds 12 1020 76 10000 6.7 240 22:21 23.02.2020
2237 Rain 12 1020 81 10000 8.7 250 21:46 23.02.2020
2238 Clouds 12 1020 71 10000 7.7 250 21:21 23.02.2020
2239 Clouds 13 1020 71 10000 8.7 250 20:58 23.02.2020
2240 Clouds 13 1020 71 10000 8.7 250 20:40 23.02.2020
2241 Rain 13 1020 76 10000 8.2 260 20:22 23.02.2020
2242 Rain 13 1019 62 10000 7.7 250 19:59 23.02.2020
2243 Rain 13 1019 62 10000 7.7 250 19:41 23.02.2020
2244 Clouds 13 1019 58 10000 7.7 240 19:19 23.02.2020
2245 Clouds 13 1019 58 10000 7.7 240 18:59 23.02.2020
2246 Clouds 13 1019 58 10000 7.7 240 18:38 23.02.2020
2247 Clouds 13 1018 58 10000 7.7 240 18:19 23.02.2020
2248 Clouds 13 1018 58 10000 6.7 240 17:58 23.02.2020
2249 Clouds 14 1018 58 10000 6.7 230 17:39 23.02.2020
2250 Clouds 14 1018 58 10000 6.7 230 17:21 23.02.2020
2251 Clouds 14 1018 58 10000 8.2 240 16:56 23.02.2020
2252 Clouds 14 1018 58 10000 7.7 220 16:36 23.02.2020
2253 Clouds 14 1018 58 10000 7.7 220 16:18 23.02.2020
2254 Clouds 14 1019 62 10000 7.2 230 15:40 23.02.2020
2255 Clouds 14 1019 62 10000 7.2 230 15:22 23.02.2020
2256 Clouds 13 1019 58 10000 7.2 240 14:59 23.02.2020
2257 Clouds 13 1019 58 10000 8.2 230 14:41 23.02.2020
2258 Clouds 13 1019 58 10000 8.2 230 14:23 23.02.2020
2259 Clouds 13 1019 58 10000 8.7 230 13:58 23.02.2020
2260 Clouds 13 1020 58 10000 9.8 230 13:39 23.02.2020
2261 Clouds 13 1020 58 10000 9.8 230 13:21 23.02.2020
2262 Clouds 12 1020 62 10000 8.7 230 12:44 23.02.2020
2263 Clouds 12 1020 62 10000 8.7 230 12:24 23.02.2020
2264 Clouds 12 1021 62 10000 9.8 240 11:59 23.02.2020
2265 Clouds 11 1021 62 10000 9.3 230 11:38 23.02.2020
2266 Clouds 11 1021 62 10000 9.3 230 11:20 23.02.2020
2267 Clouds 11 1021 71 10000 7.2 230 10:56 23.02.2020
2268 Clouds 11 1021 71 10000 7.2 230 10:56 23.02.2020
2269 Clouds 10 1021 71 10000 5.7 220 10:38 23.02.2020
2270 Clouds 10 1022 76 10000 5.7 210 10:20 23.02.2020
2271 Clouds 9 1022 76 10000 5.7 210 09:54 23.02.2020
2272 Clouds 9 1023 76 10000 3.1 210 09:36 23.02.2020
2273 Clouds 9 1023 76 10000 3.1 210 09:18 23.02.2020
2274 Clouds 8 1023 81 10000 5.1 220 08:42 23.02.2020
2275 Clouds 8 1023 81 10000 4.6 220 08:23 23.02.2020
2276 Clouds 7 1023 87 10000 5.7 200 07:41 23.02.2020
2277 Clouds 7 1024 87 10000 4.1 210 07:18 23.02.2020
2278 Clouds 7 1025 87 10000 4.1 200 06:19 23.02.2020
2279 Rain 7 1026 87 10000 3.6 220 04:51 23.02.2020
2280 Rain 7 1026 87 10000 3.6 220 03:52 23.02.2020
2281 Rain 7 1027 81 10000 3.1 220 02:38 23.02.2020
2282 Rain 8 1027 70 10000 5.7 230 01:27 23.02.2020
2283 Rain 8 1027 66 10000 5.1 230 00:58 23.02.2020
2284 Rain 9 1027 61 10000 6.2 230 00:37 23.02.2020
2285 Rain 9 1027 61 10000 6.2 230 00:18 23.02.2020
2286 Rain 9 1028 53 10000 6.2 280 23:42 22.02.2020
2287 Rain 9 1028 53 10000 6.2 280 23:20 22.02.2020
2288 Clouds 10 1027 40 10000 4.1 260 22:44 22.02.2020
2289 Rain 10 1027 37 10000 3.6 250 22:19 22.02.2020
2290 Clouds 11 1026 32 10000 3.6 240 21:43 22.02.2020
2291 Clouds 11 1026 30 10000 4.6 250 21:25 22.02.2020
2292 Clouds 11 1026 27 10000 4.6 230 20:58 22.02.2020
2293 Clouds 11 1026 27 10000 4.6 230 20:39 22.02.2020
2294 Clouds 11 1026 27 10000 4.6 230 20:21 22.02.2020
2295 Clouds 11 1025 26 10000 4.1 230 19:42 22.02.2020
2296 Clouds 11 1025 26 10000 4.1 230 19:23 22.02.2020
2297 Clouds 11 1025 24 10000 5.1 230 18:57 22.02.2020
2298 Clouds 11 1025 25 10000 6.2 240 18:37 22.02.2020
2299 Clouds 11 1025 25 10000 6.2 240 18:19 22.02.2020
2300 Clouds 12 1024 26 10000 4.6 240 17:44 22.02.2020
2301 Clouds 11 1024 26 10000 4.6 240 17:26 22.02.2020
2302 Clouds 12 1024 28 10000 4.1 230 16:59 22.02.2020
2303 Clouds 12 1024 28 10000 4.1 230 16:40 22.02.2020
2304 Clouds 12 1025 30 10000 2.6 220 16:20 22.02.2020
2305 Clouds 12 1025 30 10000 2.6 220 16:20 22.02.2020
2306 Clouds 13 1025 30 10000 3.6 240 15:56 22.02.2020
2307 Clouds 13 1025 26 10000 4.6 240 15:38 22.02.2020
2308 Clouds 13 1025 26 10000 4.6 240 15:20 22.02.2020
2309 Clouds 13 1025 26 10000 5.7 240 14:42 22.02.2020
2310 Clouds 13 1025 28 10000 5.1 220 14:22 22.02.2020
2311 Clouds 12 1025 30 10000 4.6 220 13:44 22.02.2020
2312 Clouds 12 1026 32 10000 5.1 210 13:20 22.02.2020
2313 Clouds 12 1026 32 10000 5.1 210 13:20 22.02.2020
2314 Clouds 11 1027 32 10000 4.6 210 12:59 22.02.2020
2315 Clouds 11 1028 34 10000 3.6 230 12:40 22.02.2020
2316 Clouds 10 1028 34 10000 3.6 230 12:21 22.02.2020
2317 Clouds 9 1028 45 10000 1 0 11:44 22.02.2020
2318 Clouds 9 1028 45 10000 1 0 11:26 22.02.2020
2319 Clouds 8 1028 49 10000 2.1 110 10:56 22.02.2020
2320 Clouds 7 1028 49 10000 2.1 110 10:38 22.02.2020
2321 Clouds 6 1028 65 10000 1.5 90 10:19 22.02.2020
2322 Clouds 6 1028 60 10000 1.5 70 09:56 22.02.2020
2323 Clouds 5 1027 64 10000 1 0 09:37 22.02.2020
2324 Clouds 4 1027 64 10000 1 0 09:18 22.02.2020
2325 Clouds 3 1027 64 10000 1.5 90 08:44 22.02.2020
2326 Clear 2 1027 69 10000 1.5 180 08:26 22.02.2020
2327 Clear 1 1027 69 10000 2.6 200 07:43 22.02.2020
2328 Clear 0 1028 76 10000 2.6 300 07:18 22.02.2020
2329 Clear 0 1027 64 10000 0.5 0 06:46 22.02.2020
2330 Clear 1 1028 69 10000 2.1 240 05:44 22.02.2020
2331 Clear 1 1028 74 10000 2.6 240 04:29 22.02.2020
2332 Clear 2 1029 74 10000 2.1 230 02:44 22.02.2020
2333 Clouds 3 1029 64 10000 1.5 210 01:57 22.02.2020
2334 Clouds 3 1029 64 10000 2.1 220 01:39 22.02.2020
2335 Clouds 4 1029 64 10000 2.1 220 01:21 22.02.2020
2336 Clouds 4 1029 64 10000 0.5 0 00:39 22.02.2020
2337 Clouds 4 1029 64 10000 0.5 0 00:19 22.02.2020
2338 Clouds 4 1030 64 10000 1 240 23:41 21.02.2020
2339 Clouds 4 1030 64 10000 1 240 23:20 21.02.2020
2340 Clouds 4 1030 60 10000 0.5 0 22:43 21.02.2020
2341 Clouds 5 1030 60 10000 1 0 22:25 21.02.2020
2342 Clouds 4 1029 56 10000 1 0 21:56 21.02.2020
2343 Clouds 5 1029 60 10000 3.6 280 21:37 21.02.2020
2344 Clouds 5 1029 60 10000 3.6 280 21:19 21.02.2020
2345 Clouds 5 1029 52 10000 1.5 220 20:47 21.02.2020
2346 Clouds 5 1029 60 10000 1.5 200 20:27 21.02.2020
2347 Clouds 5 1029 56 10000 2.6 250 19:41 21.02.2020
2348 Clouds 5 1029 56 10000 2.6 250 19:23 21.02.2020
2349 Clouds 5 1029 56 10000 3.6 250 18:55 21.02.2020
2350 Clouds 5 1029 56 10000 3.6 250 18:55 21.02.2020
2351 Clouds 6 1029 48 10000 3.1 240 18:36 21.02.2020
2352 Clouds 6 1029 48 10000 3.1 240 18:18 21.02.2020
2353 Clouds 7 1029 42 10000 4.1 250 17:39 21.02.2020
2354 Clouds 7 1029 42 10000 4.1 250 17:21 21.02.2020
2355 Clouds 7 1029 42 10000 3.1 240 16:57 21.02.2020
2356 Clouds 7 1029 42 10000 3.1 240 16:39 21.02.2020
2357 Clouds 8 1029 39 10000 4.1 260 16:20 21.02.2020
2358 Clouds 8 1029 39 10000 4.1 260 15:44 21.02.2020
2359 Clouds 8 1029 42 10000 3.6 230 15:19 21.02.2020
2360 Clouds 8 1029 39 10000 5.1 250 14:56 21.02.2020
2361 Clouds 8 1029 42 10000 4.1 260 14:38 21.02.2020
2362 Clouds 8 1029 42 10000 4.1 260 14:19 21.02.2020
2363 Clouds 7 1029 49 10000 4.1 240 13:42 21.02.2020
2364 Clouds 7 1030 45 10000 4.1 260 13:23 21.02.2020
2365 Clouds 7 1030 48 10000 5.7 250 12:50 21.02.2020
2366 Clouds 7 1030 48 10000 7.2 260 12:28 21.02.2020
2367 Clouds 6 1029 56 10000 6.2 240 11:59 21.02.2020
2368 Clouds 6 1029 56 10000 5.7 240 11:40 21.02.2020
2369 Clouds 6 1029 56 10000 5.7 240 11:21 21.02.2020
2370 Clouds 5 1030 65 10000 5.1 240 10:56 21.02.2020
2371 Clouds 5 1030 65 10000 3.1 230 10:38 21.02.2020
2372 Clouds 5 1030 65 10000 3.1 230 10:18 21.02.2020
2373 Clouds 4 1030 69 10000 2.6 200 09:43 21.02.2020
2374 Clouds 4 1029 69 10000 2.6 250 09:25 21.02.2020
2375 Clouds 3 1029 74 10000 1.5 180 08:58 21.02.2020
2376 Clouds 3 1029 74 10000 1.5 180 08:40 21.02.2020
2377 Clouds 3 1028 84 10000 1.5 230 08:21 21.02.2020
2378 Clouds 3 1027 74 10000 3.1 250 07:58 21.02.2020
2379 Clouds 3 1027 74 10000 3.1 250 07:40 21.02.2020
2380 Clouds 3 1027 80 10000 2.6 250 07:18 21.02.2020
2381 Clouds 3 1027 69 10000 4.6 270 06:46 21.02.2020
2382 Clouds 3 1026 74 10000 4.6 280 06:28 21.02.2020
2383 Clouds 3 1025 74 10000 5.1 260 05:42 21.02.2020
2384 Clouds 4 1024 69 10000 6.7 250 04:32 21.02.2020
2385 Clouds 4 1023 80 10000 6.7 260 03:58 21.02.2020
2386 Clouds 5 1023 80 10000 6.7 260 03:24 21.02.2020
2387 Clouds 6 1020 75 10000 11.8 270 01:51 21.02.2020
2388 Rain 6 1019 81 9000 6.7 240 01:23 21.02.2020
2389 Rain 7 1018 75 10000 7.2 240 00:45 21.02.2020
2390 Rain 7 1017 70 10000 4.6 230 00:23 21.02.2020
2391 Rain 7 1017 70 10000 3.1 220 23:44 20.02.2020
2392 Clouds 7 1017 70 10000 2.6 210 23:23 20.02.2020
2393 Clouds 6 1017 70 10000 1.5 220 22:56 20.02.2020
2394 Clouds 6 1017 75 10000 2.1 210 22:37 20.02.2020
2395 Clouds 6 1017 75 10000 2.1 210 22:19 20.02.2020
2396 Clouds 6 1017 75 10000 1.5 200 21:55 20.02.2020
2397 Clouds 6 1017 82 10000 2.6 270 21:37 20.02.2020
2398 Clouds 5 1017 82 10000 2.6 270 21:19 20.02.2020
2399 Clouds 6 1017 80 10000 1.5 230 20:54 20.02.2020
2400 Clouds 6 1017 70 10000 1.5 180 20:36 20.02.2020
2401 Clouds 6 1017 70 10000 1.5 180 20:18 20.02.2020
2402 Clouds 7 1018 65 10000 1.5 210 19:42 20.02.2020
2403 Clouds 7 1018 65 10000 1.5 210 19:24 20.02.2020
2404 Clouds 7 1018 65 10000 2.1 250 18:59 20.02.2020
2405 Clouds 7 1018 65 10000 2.6 250 18:39 20.02.2020
2406 Clouds 8 1018 57 10000 4.6 240 18:19 20.02.2020
2407 Clouds 9 1018 57 10000 4.6 240 17:41 20.02.2020
2408 Clouds 9 1018 57 10000 4.6 240 17:23 20.02.2020
2409 Clouds 9 1018 57 10000 4.6 240 17:22 20.02.2020
2410 Clouds 9 1018 57 10000 4.6 240 17:22 20.02.2020
2411 Clouds 10 1018 53 10000 4.6 250 16:58 20.02.2020
2412 Clouds 10 1018 57 10000 4.1 230 16:40 20.02.2020
2413 Clouds 10 1018 57 10000 4.1 230 16:20 20.02.2020
2414 Clouds 10 1019 53 10000 4.1 250 15:59 20.02.2020
2415 Clouds 10 1019 57 10000 3.1 230 15:41 20.02.2020
2416 Clouds 10 1019 57 10000 3.1 230 15:20 20.02.2020
2417 Clouds 10 1019 61 10000 4.1 210 14:54 20.02.2020
2418 Clouds 10 1020 66 10000 4.1 210 14:36 20.02.2020
2419 Clouds 9 1020 66 10000 4.1 210 14:18 20.02.2020
2420 Clouds 9 1020 66 10000 4.1 210 14:18 20.02.2020
2421 Clouds 9 1020 66 10000 4.1 240 13:44 20.02.2020
2422 Clouds 9 1021 66 10000 3.6 210 13:20 20.02.2020
2423 Clouds 9 1021 70 10000 3.1 220 12:57 20.02.2020
2424 Clouds 9 1022 70 10000 3.1 230 12:37 20.02.2020
2425 Clouds 8 1022 70 10000 3.1 230 12:19 20.02.2020
2426 Clouds 8 1022 70 10000 3.6 240 11:43 20.02.2020
2427 Clouds 7 1022 75 10000 3.6 220 11:23 20.02.2020
2428 Clouds 7 1022 75 10000 3.1 220 10:57 20.02.2020
2429 Clouds 6 1022 75 10000 3.1 210 10:39 20.02.2020
2430 Clouds 6 1022 75 10000 3.1 210 10:21 20.02.2020
2431 Clouds 6 1022 75 10000 3.1 210 10:21 20.02.2020
2432 Clouds 5 1022 75 10000 2.6 200 09:46 20.02.2020
2433 Clouds 5 1022 78 10000 1.5 210 09:25 20.02.2020
2434 Clouds 5 1022 80 10000 1.5 180 08:59 20.02.2020
2435 Clouds 5 1022 78 10000 2.1 180 08:39 20.02.2020
2436 Clouds 4 1022 88 10000 2.1 180 08:21 20.02.2020
2437 Clouds 4 1022 88 10000 1 0 07:45 20.02.2020
2438 Clouds 4 1022 88 10000 1 0 07:26 20.02.2020
2439 Clouds 4 1022 88 10000 2.1 170 06:55 20.02.2020
2440 Clouds 4 1022 88 10000 1.5 190 06:27 20.02.2020
2441 Clouds 4 1022 88 10000 2.1 210 05:47 20.02.2020
2442 Clouds 4 1023 89 10000 2.1 200 04:56 20.02.2020
2443 Clouds 3 1023 69 10000 2.6 210 04:23 20.02.2020
2444 Clouds 3 1023 69 10000 2.1 210 03:35 20.02.2020
2445 Clouds 3 1024 74 10000 2.6 230 02:37 20.02.2020
2446 Clouds 3 1024 69 10000 3.6 230 01:21 20.02.2020
2447 Clouds 2 1025 74 10000 3.1 220 00:34 20.02.2020
2448 Clouds 2 1025 74 10000 3.6 230 23:54 19.02.2020
2449 Clear 2 1025 74 10000 2.1 220 23:24 19.02.2020
2450 Clear 2 1025 74 10000 1.5 220 22:56 19.02.2020
2451 Clear 2 1025 74 10000 1.5 220 22:38 19.02.2020
2452 Clear 2 1025 80 10000 2.6 230 22:20 19.02.2020
2453 Clear 2 1025 74 10000 2.6 210 21:57 19.02.2020
2454 Clear 2 1025 80 10000 2.1 210 21:38 19.02.2020
2455 Clear 3 1025 80 10000 2.1 210 21:18 19.02.2020
2456 Clear 3 1025 74 10000 2.1 210 20:56 19.02.2020
2457 Clouds 3 1025 74 10000 2.1 200 20:37 19.02.2020
2458 Clouds 3 1025 74 10000 2.1 200 20:18 19.02.2020
2459 Clouds 3 1025 74 10000 2.1 200 19:56 19.02.2020
2460 Clouds 3 1025 74 10000 1.5 200 19:37 19.02.2020
2461 Clouds 4 1025 74 10000 1.5 200 19:18 19.02.2020
2462 Clouds 4 1024 74 10000 2.6 240 18:57 19.02.2020
2463 Clouds 4 1024 69 10000 3.1 240 18:39 19.02.2020
2464 Clouds 4 1024 69 10000 3.1 240 18:20 19.02.2020
2465 Clouds 5 1023 78 10000 5.1 260 17:43 19.02.2020
2466 Clouds 5 1023 66 10000 5.1 260 17:20 19.02.2020
2467 Clouds 6 1023 66 10000 7.2 260 16:55 19.02.2020
2468 Clouds 5 1023 70 10000 8.2 270 16:37 19.02.2020
2469 Clouds 5 1023 70 10000 8.2 270 16:18 19.02.2020
2470 Clouds 5 1023 80 10000 6.7 260 15:41 19.02.2020
2471 Clouds 6 1023 80 10000 4.6 240 15:23 19.02.2020
2472 Rain 6 1022 86 10000 9.3 280 14:56 19.02.2020
2473 Rain 6 1022 86 10000 9.3 280 14:56 19.02.2020
2474 Rain 6 1022 80 10000 8.2 270 14:37 19.02.2020
2475 Rain 6 1022 80 10000 8.2 270 14:37 19.02.2020
2476 Rain 5 1022 80 10000 8.2 270 14:19 19.02.2020
2477 Rain 5 1022 86 10000 10.3 270 13:41 19.02.2020
2478 Clouds 4 1021 80 10000 9.3 270 13:21 19.02.2020
2479 Clouds 3 1021 80 10000 7.2 270 12:55 19.02.2020
2480 Snow 4 1021 86 5000 11.8 290 12:36 19.02.2020
2481 Rain 4 1020 64 10000 10.8 260 12:18 19.02.2020
2482 Rain 4 1020 75 10000 10.3 260 11:38 19.02.2020
2483 Rain 4 1020 75 10000 10.3 260 11:20 19.02.2020
2484 Rain 4 1019 80 10000 4.1 230 10:58 19.02.2020
2485 Rain 4 1019 86 10000 5.1 220 10:38 19.02.2020
2486 Rain 4 1019 86 10000 5.1 220 10:20 19.02.2020
2487 Rain 5 1019 86 10000 7.7 230 09:58 19.02.2020
2488 Clouds 5 1018 75 10000 8.2 240 09:37 19.02.2020
2489 Clouds 5 1018 75 10000 8.2 240 09:19 19.02.2020
2490 Rain 5 1018 70 10000 6.7 230 08:45 19.02.2020
2491 Rain 5 1018 70 10000 6.7 230 08:24 19.02.2020
2492 Clouds 5 1018 75 10000 4.1 200 07:44 19.02.2020
2493 Clouds 5 1018 75 10000 4.1 200 07:26 19.02.2020
2494 Clouds 5 1018 80 10000 3.1 180 06:57 19.02.2020
2495 Rain 5 1018 80 10000 2.1 200 06:34 19.02.2020
2496 Rain 5 1020 70 10000 4.1 200 04:28 19.02.2020
2497 Rain 5 1021 87 10000 3.6 200 03:22 19.02.2020
2498 Rain 6 1022 87 10000 3.1 200 02:33 19.02.2020
2499 Clouds 5 1023 60 10000 3.6 200 01:33 19.02.2020
2500 Clouds 5 1023 60 10000 2.6 210 00:53 19.02.2020
2501 Clouds 5 1024 60 10000 3.1 220 00:34 19.02.2020
2502 Clouds 6 1024 76 10000 4.1 210 23:57 18.02.2020
2503 Clouds 6 1024 76 10000 5.1 210 23:39 18.02.2020
2504 Clouds 6 1024 78 10000 5.1 210 23:19 18.02.2020
2505 Clouds 6 1024 78 10000 5.1 210 23:19 18.02.2020
2506 Clouds 5 1025 60 10000 4.6 220 22:54 18.02.2020
2507 Clouds 5 1025 60 10000 4.1 210 22:36 18.02.2020
2508 Clouds 6 1025 60 10000 4.1 210 22:18 18.02.2020
2509 Clouds 6 1025 60 10000 3.6 220 21:38 18.02.2020
2510 Clouds 6 1025 60 10000 3.6 220 21:20 18.02.2020
2511 Clouds 6 1026 78 10000 3.6 220 20:59 18.02.2020
2512 Clouds 6 1026 78 10000 3.6 220 20:39 18.02.2020
2513 Clouds 6 1026 76 10000 3.6 210 20:21 18.02.2020
2514 Clouds 6 1026 76 10000 3.6 210 20:21 18.02.2020
2515 Clouds 6 1026 76 10000 3.6 220 19:56 18.02.2020
2516 Clouds 6 1026 76 10000 2.6 210 19:38 18.02.2020
2517 Clouds 6 1026 76 10000 2.6 210 19:18 18.02.2020
2518 Clouds 6 1026 76 10000 2.6 210 18:42 18.02.2020
2519 Clouds 6 1026 76 10000 2.6 220 18:21 18.02.2020
2520 Clouds 6 1026 76 10000 2.6 220 18:21 18.02.2020
2521 Clouds 6 1026 76 10000 3.1 230 17:57 18.02.2020
2522 Clouds 6 1026 76 10000 3.1 230 17:39 18.02.2020
2523 Clouds 6 1026 76 10000 4.1 220 17:39 18.02.2020
2524 Clouds 7 1026 62 10000 4.1 220 17:19 18.02.2020
2525 Clouds 7 1026 62 10000 4.6 230 16:40 18.02.2020
2526 Clouds 7 1026 52 10000 5.7 250 16:21 18.02.2020
2527 Clouds 7 1026 61 10000 5.7 230 15:54 18.02.2020
2528 Clouds 8 1027 65 10000 6.7 240 15:36 18.02.2020
2529 Clouds 7 1027 65 10000 6.7 240 15:18 18.02.2020
2530 Clouds 8 1027 62 10000 5.7 250 14:54 18.02.2020
2531 Clouds 7 1027 62 10000 6.7 250 14:36 18.02.2020
2532 Clouds 7 1027 67 10000 6.7 250 14:18 18.02.2020
2533 Clouds 7 1027 67 10000 6.2 260 13:41 18.02.2020
2534 Clouds 7 1027 67 10000 6.2 250 13:21 18.02.2020
2535 Clouds 7 1027 65 10000 5.1 230 12:44 18.02.2020
2536 Clouds 7 1027 65 10000 5.1 230 12:25 18.02.2020
2537 Clouds 7 1027 67 10000 6.7 250 11:59 18.02.2020
2538 Clouds 7 1027 67 10000 7.7 250 11:41 18.02.2020
2539 Clouds 7 1027 67 10000 7.7 250 11:41 18.02.2020
2540 Clouds 7 1027 78 10000 7.7 250 11:22 18.02.2020
2541 Clouds 6 1027 75 10000 3.6 230 10:44 18.02.2020
2542 Clouds 6 1027 75 10000 3.6 230 10:24 18.02.2020
2543 Clouds 6 1027 75 10000 3.6 220 09:57 18.02.2020
2544 Clouds 6 1027 75 10000 3.6 220 09:39 18.02.2020
2545 Clouds 5 1027 80 10000 4.6 240 09:20 18.02.2020
2546 Clouds 5 1027 80 10000 4.6 240 09:20 18.02.2020
2547 Clouds 5 1027 80 10000 5.1 230 08:58 18.02.2020
2548 Clouds 4 1026 80 10000 4.1 230 08:39 18.02.2020
2549 Clouds 4 1026 80 10000 4.1 230 08:19 18.02.2020
2550 Clouds 4 1026 80 10000 4.1 230 07:51 18.02.2020
2551 Clouds 4 1025 80 10000 3.1 220 07:26 18.02.2020
2552 Clouds 4 1025 80 10000 4.1 240 06:55 18.02.2020
2553 Clouds 4 1025 80 10000 3.6 240 06:29 18.02.2020
2554 Clouds 4 1025 86 10000 2.6 230 05:53 18.02.2020
2555 Rain 5 1025 86 10000 3.6 240 05:22 18.02.2020
2556 Clear 5 1024 80 10000 4.1 220 03:57 18.02.2020
2557 Clear 5 1024 80 10000 1.5 180 02:58 18.02.2020
2558 Clouds 5 1024 80 10000 2.6 210 01:45 18.02.2020
2559 Clouds 5 1023 75 10000 4.1 230 00:44 18.02.2020
2560 Clouds 5 1023 81 10000 3.6 230 00:19 18.02.2020
2561 Rain 6 1022 87 10000 6.2 250 23:44 17.02.2020
2562 Clouds 6 1022 81 10000 4.1 230 23:25 17.02.2020
2563 Clouds 7 1021 81 10000 5.1 230 22:59 17.02.2020
2564 Clouds 6 1021 81 10000 4.6 210 22:40 17.02.2020
2565 Clouds 6 1021 81 10000 4.6 210 22:20 17.02.2020
2566 Clouds 6 1021 81 10000 4.6 210 22:20 17.02.2020
2567 Clouds 6 1021 81 10000 4.1 200 21:40 17.02.2020
2568 Clouds 6 1021 81 10000 4.1 200 21:19 17.02.2020
2569 Clouds 7 1020 81 10000 4.1 200 20:57 17.02.2020
2570 Clouds 7 1020 81 10000 3.6 200 20:38 17.02.2020
2571 Clouds 7 1020 81 10000 3.6 200 20:20 17.02.2020
2572 Clouds 7 1020 93 10000 2.6 210 19:54 17.02.2020
2573 Rain 7 1020 75 10000 5.7 240 19:36 17.02.2020
2574 Rain 7 1020 75 10000 5.7 240 19:18 17.02.2020
2575 Rain 7 1019 87 10000 3.1 220 18:37 17.02.2020
2576 Rain 7 1019 87 10000 3.1 220 18:37 17.02.2020
2577 Rain 7 1019 87 10000 3.1 220 18:19 17.02.2020
2578 Rain 7 1019 93 10000 3.1 280 17:55 17.02.2020
2579 Rain 7 1018 87 10000 2.6 230 17:36 17.02.2020
2580 Rain 8 1018 87 10000 2.6 230 17:18 17.02.2020
2581 Rain 8 1018 87 10000 2.1 190 16:43 17.02.2020
2582 Rain 8 1018 87 10000 2.1 190 16:23 17.02.2020
2583 Rain 8 1018 87 10000 2.6 210 15:59 17.02.2020
2584 Rain 8 1018 87 10000 2.6 210 15:40 17.02.2020
2585 Rain 8 1018 87 10000 2.6 200 15:22 17.02.2020
2586 Rain 9 1018 87 10000 2.6 230 14:46 17.02.2020
2587 Rain 9 1018 87 10000 2.6 230 14:27 17.02.2020
2588 Rain 9 1018 93 10000 3.6 230 13:59 17.02.2020
2589 Rain 9 1018 87 10000 1.5 230 13:39 17.02.2020
2590 Rain 9 1018 87 10000 1.5 230 13:19 17.02.2020
2591 Rain 9 1018 87 10000 2.1 200 12:54 17.02.2020
2592 Rain 9 1018 87 10000 1.5 210 12:36 17.02.2020
2593 Rain 9 1018 87 10000 1.5 210 12:18 17.02.2020
2594 Rain 9 1018 93 10000 2.1 220 11:43 17.02.2020
2595 Rain 9 1018 87 10000 2.6 230 11:22 17.02.2020
2596 Rain 9 1018 93 10000 1.5 240 10:56 17.02.2020
2597 Rain 9 1018 81 10000 2.6 250 10:38 17.02.2020
2598 Rain 9 1018 81 10000 2.6 250 10:19 17.02.2020
2599 Rain 9 1018 81 10000 1.5 190 09:56 17.02.2020
2600 Clouds 9 1018 81 10000 0.5 0 09:37 17.02.2020
2601 Clouds 9 1018 81 10000 0.5 0 09:18 17.02.2020
2602 Clouds 9 1017 76 10000 0.5 0 08:41 17.02.2020
2603 Clouds 9 1018 76 10000 0.5 0 08:23 17.02.2020
2604 Clouds 9 1018 76 10000 0.5 0 07:57 17.02.2020
2605 Clouds 9 1017 76 10000 2.1 270 07:26 17.02.2020
2606 Clouds 10 1017 71 10000 2.6 310 06:56 17.02.2020
2607 Clouds 10 1017 81 10000 3.1 300 06:36 17.02.2020
2608 Clouds 10 1017 81 10000 3.1 300 06:18 17.02.2020
2609 Clouds 10 1017 76 10000 8.2 310 05:39 17.02.2020
2610 Clouds 12 1015 51 10000 4.6 230 03:55 17.02.2020
2611 Clouds 13 1014 47 10000 3.6 220 02:44 17.02.2020
2612 Clouds 13 1013 44 10000 4.1 200 00:59 17.02.2020
2613 Clouds 12 1013 41 10000 5.1 210 00:37 17.02.2020
2614 Clouds 13 1013 41 10000 5.1 210 00:18 17.02.2020
2615 Clouds 13 1013 41 10000 3.6 210 23:41 16.02.2020
2616 Clouds 12 1013 44 10000 2.6 200 23:22 16.02.2020
2617 Clouds 13 1013 44 10000 4.6 200 22:55 16.02.2020
2618 Clouds 13 1013 41 10000 3.1 210 22:37 16.02.2020
2619 Clouds 13 1013 41 10000 3.1 210 22:18 16.02.2020
2620 Clouds 12 1013 47 10000 3.6 200 21:43 16.02.2020
2621 Clouds 12 1013 47 10000 3.6 200 21:24 16.02.2020
2622 Clouds 12 1013 41 10000 2.6 200 20:59 16.02.2020
2623 Clouds 12 1013 47 10000 4.1 190 20:40 16.02.2020
2624 Clouds 11 1013 47 10000 4.1 190 20:22 16.02.2020
2625 Clouds 11 1013 44 10000 3.1 190 19:59 16.02.2020
2626 Clouds 12 1013 44 10000 3.1 190 19:59 16.02.2020
2627 Clouds 12 1013 44 10000 3.1 190 19:40 16.02.2020
2628 Clouds 12 1013 44 10000 4.1 180 19:19 16.02.2020
2629 Clouds 12 1013 44 10000 3.1 190 18:59 16.02.2020
2630 Clouds 11 1013 44 10000 3.1 190 18:41 16.02.2020
2631 Clouds 11 1013 44 10000 4.1 190 18:22 16.02.2020
2632 Clouds 12 1013 34 10000 4.6 200 17:44 16.02.2020
2633 Clouds 14 1013 34 10000 4.6 200 17:21 16.02.2020
2634 Clouds 14 1013 31 10000 4.6 200 16:57 16.02.2020
2635 Clouds 14 1014 32 10000 6.7 200 16:39 16.02.2020
2636 Clouds 15 1014 32 10000 6.7 200 16:21 16.02.2020
2637 Clouds 16 1014 32 10000 4.6 210 15:57 16.02.2020
2638 Clouds 16 1014 29 10000 4.6 210 15:38 16.02.2020
2639 Clouds 16 1014 29 10000 4.6 210 15:18 16.02.2020
2640 Clouds 15 1015 51 10000 2.6 90 14:40 16.02.2020
2641 Clouds 14 1015 51 10000 2.6 90 14:22 16.02.2020
2642 Clouds 14 1015 62 10000 2.1 80 13:47 16.02.2020
2643 Clouds 13 1015 47 10000 1 0 13:24 16.02.2020
2644 Clouds 14 1016 44 10000 3.6 170 12:56 16.02.2020
2645 Clouds 13 1016 66 10000 3.1 120 12:38 16.02.2020
2646 Clouds 13 1016 66 10000 3.1 120 12:19 16.02.2020
2647 Clouds 12 1017 71 10000 2.6 140 11:39 16.02.2020
2648 Clouds 11 1017 70 10000 2.1 120 11:19 16.02.2020
2649 Clouds 10 1017 75 10000 2.1 130 10:57 16.02.2020
2650 Clouds 10 1018 70 10000 1.5 130 10:39 16.02.2020
2651 Clouds 9 1018 70 10000 1.5 130 10:21 16.02.2020
2652 Clouds 9 1018 75 10000 1.5 100 09:57 16.02.2020
2653 Clouds 10 1018 75 10000 1.5 130 09:37 16.02.2020
2654 Clouds 9 1018 75 10000 1.5 130 09:19 16.02.2020
2655 Clouds 9 1018 70 10000 1.5 100 08:47 16.02.2020
2656 Clouds 7 1018 65 10000 1.5 100 08:22 16.02.2020
2657 Clouds 7 1017 61 10000 1.5 130 07:56 16.02.2020
2658 Clouds 7 1018 65 10000 1 110 07:38 16.02.2020
2659 Clouds 7 1018 61 10000 2.6 200 06:36 16.02.2020
2660 Clouds 8 1018 65 10000 3.1 180 05:37 16.02.2020
2661 Clouds 7 1018 86 10000 1 70 04:30 16.02.2020
2662 Clouds 6 1019 75 10000 0.5 0 03:18 16.02.2020
2663 Clouds 7 1020 70 10000 1 0 01:57 16.02.2020
2664 Clouds 7 1020 70 10000 1.5 110 01:37 16.02.2020
2665 Clouds 7 1020 70 10000 1.5 110 01:19 16.02.2020
2666 Clouds 7 1020 81 10000 1 0 00:41 16.02.2020
2667 Clouds 7 1020 81 10000 1 0 00:21 16.02.2020
2668 Clouds 7 1020 75 10000 2.1 180 23:43 15.02.2020
2669 Clouds 6 1020 80 10000 1 0 23:24 15.02.2020
2670 Clouds 6 1020 70 10000 1 0 22:57 15.02.2020
2671 Clouds 6 1020 75 10000 1.5 190 22:39 15.02.2020
2672 Clouds 6 1020 75 10000 1.5 190 22:19 15.02.2020
2673 Clouds 6 1020 70 10000 2.6 200 21:44 15.02.2020
2674 Clouds 6 1020 70 10000 1.5 190 21:24 15.02.2020
2675 Clouds 6 1020 70 10000 2.1 190 20:58 15.02.2020
2676 Clouds 6 1020 70 10000 2.6 180 20:37 15.02.2020
2677 Clouds 6 1020 70 10000 2.6 180 20:19 15.02.2020
2678 Clouds 6 1021 70 10000 2.1 190 19:42 15.02.2020
2679 Clouds 6 1020 70 10000 1.5 200 19:22 15.02.2020
2680 Clouds 6 1020 70 10000 1.5 200 19:22 15.02.2020
2681 Clouds 7 1021 66 10000 2.1 170 18:42 15.02.2020
2682 Clouds 7 1021 66 10000 1.5 160 18:21 15.02.2020
2683 Clouds 8 1021 58 10000 2.1 170 17:57 15.02.2020
2684 Clouds 9 1021 58 10000 1.5 190 17:37 15.02.2020
2685 Clouds 10 1021 58 10000 1.5 190 17:19 15.02.2020
2686 Clouds 11 1020 54 10000 2.6 180 16:42 15.02.2020
2687 Clouds 11 1021 54 10000 2.6 150 16:24 15.02.2020
2688 Clouds 11 1021 58 10000 3.1 140 15:57 15.02.2020
2689 Clouds 11 1021 54 10000 3.1 170 15:39 15.02.2020
2690 Clouds 11 1021 54 10000 3.1 170 15:20 15.02.2020
2691 Clouds 11 1022 62 10000 1.5 120 14:43 15.02.2020
2692 Clouds 11 1022 62 10000 1.5 120 14:19 15.02.2020
2693 Clouds 10 1023 61 10000 1 0 13:54 15.02.2020
2694 Clouds 10 1023 70 10000 2.1 70 13:36 15.02.2020
2695 Clouds 10 1023 70 10000 2.1 70 13:18 15.02.2020
2696 Clouds 10 1024 70 10000 1 0 12:42 15.02.2020
2697 Clouds 9 1024 70 10000 1 0 12:22 15.02.2020
2698 Clouds 9 1024 81 10000 1 0 11:49 15.02.2020
2699 Clouds 8 1024 81 10000 1.5 110 11:31 15.02.2020
2700 Clouds 6 1025 80 10000 0.5 0 10:56 15.02.2020
2701 Clouds 6 1025 86 10000 1 0 10:37 15.02.2020
2702 Clouds 5 1025 86 10000 1 0 10:19 15.02.2020
2703 Clouds 4 1025 93 10000 1 0 09:43 15.02.2020
2704 Clouds 3 1024 76 10000 1 110 09:25 15.02.2020
2705 Clouds 2 1024 76 10000 0.5 0 08:44 15.02.2020
2706 Fog 1 1024 77 10000 0.5 0 08:25 15.02.2020
2707 Fog 1 1024 84 10000 1 0 07:59 15.02.2020
2708 Clouds 1 1024 84 10000 1.5 140 07:39 15.02.2020
2709 Clouds 1 1024 84 10000 1.5 140 07:18 15.02.2020
2710 Clouds 1 1024 84 10000 0.5 0 06:37 15.02.2020
2711 Clouds 1 1025 84 10000 1 320 05:55 15.02.2020
2712 Clouds 2 1025 85 10000 1.5 270 04:49 15.02.2020
2713 Clouds 2 1025 85 10000 0.5 0 03:58 15.02.2020
2714 Clouds 2 1026 100 10000 1 0 02:58 15.02.2020
2715 Clouds 3 1026 86 10000 1 340 02:24 15.02.2020
2716 Clouds 3 1026 93 10000 0.5 300 01:43 15.02.2020
2717 Clouds 3 1027 93 10000 1 0 00:58 15.02.2020
2718 Clouds 4 1027 93 10000 1.5 270 00:28 15.02.2020
2719 Clouds 4 1027 88 10000 2.6 260 23:45 14.02.2020
2720 Clouds 4 1027 86 10000 1.5 230 23:21 14.02.2020
2721 Clouds 4 1027 93 10000 1 230 22:55 14.02.2020
2722 Clouds 4 1027 93 10000 2.6 280 22:36 14.02.2020
2723 Clouds 4 1027 93 10000 2.6 280 22:18 14.02.2020
2724 Clouds 5 1026 86 10000 1.5 200 21:49 14.02.2020
2725 Clouds 5 1026 81 10000 2.1 200 21:30 14.02.2020
2726 Clouds 6 1026 81 10000 1.5 200 20:45 14.02.2020
2727 Clouds 6 1026 81 10000 1.5 240 20:20 14.02.2020
2728 Clouds 6 1026 75 10000 2.1 230 19:59 14.02.2020
2729 Clouds 6 1025 75 10000 2.6 210 19:40 14.02.2020
2730 Clouds 6 1025 75 10000 2.6 210 19:21 14.02.2020
2731 Clouds 6 1025 75 10000 2.6 230 18:56 14.02.2020
2732 Clouds 6 1024 75 10000 2.1 220 18:38 14.02.2020
2733 Clouds 6 1024 75 10000 2.1 220 18:19 14.02.2020
2734 Clouds 7 1024 75 10000 4.1 250 17:43 14.02.2020
2735 Clouds 7 1024 70 10000 3.1 250 17:21 14.02.2020
2736 Clouds 7 1024 65 10000 2.6 230 16:58 14.02.2020
2737 Clouds 7 1024 65 10000 2.6 230 16:58 14.02.2020
2738 Clouds 7 1024 65 10000 3.6 250 16:39 14.02.2020
2739 Clouds 7 1024 65 10000 3.6 250 16:21 14.02.2020
2740 Clouds 7 1023 65 10000 4.1 250 15:56 14.02.2020
2741 Clouds 8 1023 65 10000 5.7 260 15:37 14.02.2020
2742 Clouds 8 1023 65 10000 5.7 260 15:19 14.02.2020
2743 Rain 8 1023 61 10000 6.2 260 14:58 14.02.2020
2744 Rain 8 1023 61 10000 7.7 260 14:40 14.02.2020
2745 Rain 8 1023 61 10000 7.7 260 14:21 14.02.2020
2746 Clouds 8 1023 70 10000 5.7 250 13:54 14.02.2020
2747 Rain 8 1023 70 10000 3.1 230 13:36 14.02.2020
2748 Rain 8 1023 70 10000 3.1 230 13:18 14.02.2020
2749 Clouds 7 1022 75 10000 4.1 230 12:55 14.02.2020
2750 Clouds 7 1022 75 10000 6.2 240 12:37 14.02.2020
2751 Clouds 7 1022 75 10000 6.2 240 12:18 14.02.2020
2752 Clouds 6 1022 75 10000 5.1 230 11:41 14.02.2020
2753 Clouds 6 1021 81 10000 4.6 230 11:21 14.02.2020
2754 Clouds 6 1021 86 10000 5.1 230 10:57 14.02.2020
2755 Clouds 6 1020 86 10000 3.1 230 10:38 14.02.2020
2756 Clouds 6 1020 86 10000 3.1 230 10:20 14.02.2020
2757 Rain 5 1020 93 10000 2.1 210 09:44 14.02.2020
2758 Rain 5 1020 93 10000 3.1 250 09:22 14.02.2020
2759 Rain 5 1019 93 10000 5.1 290 08:56 14.02.2020
2760 Rain 5 1018 86 8000 2.6 290 08:38 14.02.2020
2761 Rain 5 1018 86 8000 2.6 290 08:19 14.02.2020
2762 Rain 5 1017 93 10000 3.6 250 07:49 14.02.2020
2763 Clouds 5 1016 86 10000 3.6 230 07:24 14.02.2020
2764 Rain 5 1015 86 10000 4.1 240 06:33 14.02.2020
2765 Rain 5 1015 86 10000 4.1 230 05:59 14.02.2020
2766 Rain 5 1013 86 10000 5.1 240 05:28 14.02.2020
2767 Rain 5 1012 86 10000 3.6 200 03:46 14.02.2020
2768 Clouds 6 1011 75 10000 3.1 220 02:53 14.02.2020
2769 Rain 6 1009 86 10000 7.2 240 01:55 14.02.2020
2770 Clouds 6 1008 81 10000 6.2 240 00:45 14.02.2020
2771 Clouds 6 1007 81 10000 5.7 240 00:26 14.02.2020
2772 Clouds 6 1006 93 10000 4.6 210 23:56 13.02.2020
2773 Rain 6 1006 86 10000 4.6 220 23:37 13.02.2020
2774 Rain 5 1006 86 10000 4.6 220 23:18 13.02.2020
2775 Clouds 5 1005 86 10000 5.7 200 22:39 13.02.2020
2776 Clouds 5 1005 86 10000 5.7 200 22:19 13.02.2020
2777 Rain 5 1005 80 10000 5.1 210 21:56 13.02.2020
2778 Rain 5 1005 80 10000 4.1 220 21:37 13.02.2020
2779 Rain 5 1005 80 10000 5.7 210 21:19 13.02.2020
2780 Rain 5 1005 80 10000 5.7 210 20:42 13.02.2020
2781 Rain 5 1004 86 10000 4.6 200 20:22 13.02.2020
2782 Rain 5 1004 86 10000 6.2 200 19:57 13.02.2020
2783 Clouds 5 1004 80 10000 6.2 210 19:38 13.02.2020
2784 Clouds 5 1004 80 10000 6.2 210 19:20 13.02.2020
2785 Rain 5 1004 80 10000 6.2 200 18:57 13.02.2020
2786 Rain 5 1004 80 10000 6.2 200 18:39 13.02.2020
2787 Rain 6 1005 87 9000 9.3 270 18:20 13.02.2020
2788 Rain 6 1002 86 10000 3.1 230 17:57 13.02.2020
2789 Rain 6 1002 70 10000 6.2 200 17:37 13.02.2020
2790 Rain 7 1002 70 10000 6.2 200 17:18 13.02.2020
2791 Clouds 7 1003 70 10000 6.2 200 16:42 13.02.2020
2792 Rain 7 1004 65 10000 6.7 200 16:21 13.02.2020
2793 Clouds 7 1004 57 10000 6.2 200 15:58 13.02.2020
2794 Clouds 7 1004 57 10000 5.7 210 15:39 13.02.2020
2795 Clouds 7 1004 57 10000 5.7 210 15:20 13.02.2020
2796 Clouds 7 1005 78 10000 4.6 180 14:59 13.02.2020
2797 Clouds 6 1006 56 10000 4.1 180 14:40 13.02.2020
2798 Clouds 6 1006 56 10000 4.1 180 14:21 13.02.2020
2799 Clouds 6 1007 56 10000 4.6 180 13:54 13.02.2020
2800 Rain 6 1008 60 10000 4.1 170 13:36 13.02.2020
2801 Rain 6 1008 60 10000 4.1 170 13:18 13.02.2020
2802 Rain 6 1009 56 10000 4.6 160 12:48 13.02.2020
2803 Rain 6 1010 60 10000 4.6 160 12:29 13.02.2020
2804 Rain 5 1011 69 10000 2.1 140 11:57 13.02.2020
2805 Rain 5 1011 69 10000 2.1 140 11:39 13.02.2020
2806 Clouds 4 1012 69 10000 1.5 130 11:18 13.02.2020
2807 Clouds 3 1013 80 10000 1 0 10:43 13.02.2020
2808 Clouds 3 1013 80 10000 1 0 10:23 13.02.2020
2809 Clouds 2 1014 72 10000 1 0 09:46 13.02.2020
2810 Clouds 2 1014 72 10000 0.5 0 09:24 13.02.2020
2811 Clouds 2 1014 72 10000 0.5 0 09:24 13.02.2020
2812 Clouds 1 1015 72 10000 5.1 164 08:48 13.02.2020
2813 Clouds 0 1015 100 10000 1 0 08:20 13.02.2020
2814 Clouds 0 1015 100 10000 1 0 07:45 13.02.2020
2815 Clouds 0 1016 100 10000 1 0 07:24 13.02.2020
2816 Clouds 0 1016 92 10000 0.5 0 06:56 13.02.2020
2817 Clouds 0 1017 100 10000 1 330 06:38 13.02.2020
2818 Clouds 0 1017 100 10000 3.28 162 05:56 13.02.2020
2819 Clouds 0 1018 100 10000 0.5 0 05:20 13.02.2020
2820 Clouds 0 1018 88 10000 1.5 70 04:24 13.02.2020
2821 Clouds 0 1018 88 10000 1 0 03:45 13.02.2020
2822 Clouds 1 1020 88 10000 1 0 02:59 13.02.2020
2823 Clouds 1 1020 88 10000 1 0 02:41 13.02.2020
2824 Clouds 2 1020 89 10000 1 0 02:18 13.02.2020
2825 Clouds 2 1020 93 10000 2.1 220 01:27 13.02.2020
2826 Clouds 2 1020 93 10000 2.1 250 00:32 13.02.2020
2827 Clouds 2 1020 93 10000 2.1 230 23:58 12.02.2020
2828 Clouds 2 1020 93 10000 2.1 220 23:37 12.02.2020
2829 Clouds 2 1020 93 10000 2.1 220 23:18 12.02.2020
2830 Clouds 2 1020 93 10000 2.1 220 22:44 12.02.2020
2831 Clouds 2 1021 93 10000 3.1 200 22:24 12.02.2020
2832 Rain 2 1021 86 10000 3.6 200 21:58 12.02.2020
2833 Rain 2 1020 93 10000 2.1 210 21:39 12.02.2020
2834 Rain 2 1020 93 10000 2.1 210 21:39 12.02.2020
2835 Rain 2 1020 93 10000 2.1 210 21:19 12.02.2020
2836 Clouds 2 1020 93 10000 2.6 230 20:56 12.02.2020
2837 Clouds 2 1020 93 10000 4.1 210 20:37 12.02.2020
2838 Clouds 3 1020 93 10000 4.1 210 20:18 12.02.2020
2839 Clouds 3 1020 93 10000 4.1 210 20:18 12.02.2020
2840 Rain 3 1020 86 10000 5.7 230 19:44 12.02.2020
2841 Rain 3 1019 86 10000 2.6 210 19:23 12.02.2020
2842 Clouds 4 1019 86 10000 3.6 210 18:55 12.02.2020
2843 Clouds 4 1019 86 10000 4.1 210 18:37 12.02.2020
2844 Clouds 4 1019 86 10000 4.1 210 18:18 12.02.2020
2845 Rain 4 1018 83 10000 5.1 220 17:42 12.02.2020
2846 Rain 4 1018 81 10000 5.1 220 17:20 12.02.2020
2847 Rain 4 1018 84 10000 5.1 220 17:20 12.02.2020
2848 Rain 4 1018 75 10000 4.6 230 16:59 12.02.2020
2849 Rain 4 1018 80 10000 5.7 220 16:39 12.02.2020
2850 Rain 4 1018 80 10000 5.7 220 16:19 12.02.2020
2851 Rain 5 1018 84 10000 7.7 240 15:41 12.02.2020
2852 Rain 5 1018 84 10000 7.7 240 15:23 12.02.2020
2853 Rain 5 1018 75 10000 7.7 240 14:57 12.02.2020
2854 Rain 5 1018 75 10000 6.7 240 14:39 12.02.2020
2855 Rain 5 1018 75 10000 6.7 240 14:19 12.02.2020
2856 Rain 5 1018 85 10000 6.2 240 13:56 12.02.2020
2857 Clouds 5 1018 60 10000 9.8 240 13:38 12.02.2020
2858 Clouds 5 1018 60 10000 9.8 240 13:19 12.02.2020
2859 Rain 5 1018 85 10000 5.1 240 12:57 12.02.2020
2860 Rain 5 1018 85 10000 5.1 220 12:37 12.02.2020
2861 Rain 5 1018 85 10000 5.1 220 12:18 12.02.2020
2862 Clouds 5 1018 85 10000 6.2 220 11:56 12.02.2020
2863 Clouds 5 1018 85 10000 6.2 230 11:37 12.02.2020
2864 Clouds 5 1018 84 10000 6.2 230 11:19 12.02.2020
2865 Clouds 4 1018 84 10000 5.7 230 10:54 12.02.2020
2866 Clouds 4 1018 84 10000 4.6 230 10:36 12.02.2020
2867 Clouds 4 1018 84 10000 4.6 230 10:18 12.02.2020
2868 Clouds 4 1018 84 10000 6.2 230 09:41 12.02.2020
2869 Clouds 4 1018 84 10000 6.2 230 09:41 12.02.2020
2870 Clouds 4 1018 74 10000 5.7 220 09:21 12.02.2020
2871 Clouds 3 1018 74 10000 5.7 220 09:21 12.02.2020
2872 Clouds 3 1018 69 10000 6.2 230 08:57 12.02.2020
2873 Clouds 3 1018 74 10000 4.1 220 08:37 12.02.2020
2874 Clouds 3 1018 74 10000 4.1 220 08:19 12.02.2020
2875 Clouds 3 1017 69 10000 4.1 220 07:44 12.02.2020
2876 Clouds 3 1017 64 10000 5.1 230 07:23 12.02.2020
2877 Clouds 3 1017 69 10000 4.1 230 06:56 12.02.2020
2878 Clouds 3 1017 74 10000 3.6 230 06:23 12.02.2020
2879 Clouds 3 1016 74 10000 3.1 230 05:38 12.02.2020
2880 Clouds 3 1016 74 10000 3.6 220 04:58 12.02.2020
2881 Clouds 3 1016 69 10000 3.6 210 04:39 12.02.2020
2882 Clouds 3 1016 64 10000 4.1 230 03:37 12.02.2020
2883 Clouds 3 1016 64 10000 4.1 230 03:19 12.02.2020
2884 Clouds 3 1017 69 10000 5.1 230 02:30 12.02.2020
2885 Clouds 3 1016 69 10000 5.7 250 01:58 12.02.2020
2886 Clouds 3 1016 69 10000 5.7 250 00:46 12.02.2020
2887 Clouds 3 1016 69 10000 8.2 260 00:26 12.02.2020
2888 Clouds 4 1015 74 10000 7.7 260 23:58 11.02.2020
2889 Clouds 4 1015 74 10000 7.7 260 23:40 11.02.2020
2890 Clouds 4 1015 74 10000 7.7 260 23:22 11.02.2020
2891 Clouds 4 1015 79 10000 4.1 240 22:56 11.02.2020
2892 Clouds 4 1014 93 10000 3.6 230 22:38 11.02.2020
2893 Clouds 3 1014 93 10000 3.6 230 22:19 11.02.2020
2894 Clouds 3 1014 93 10000 4.6 240 21:56 11.02.2020
2895 Clouds 3 1014 93 10000 4.6 240 21:56 11.02.2020
2896 Clouds 3 1014 93 10000 6.7 250 21:37 11.02.2020
2897 Clouds 3 1014 93 10000 6.7 250 21:18 11.02.2020
2898 Clouds 3 1014 93 10000 6.7 250 21:18 11.02.2020
2899 Clouds 3 1014 93 10000 6.7 250 21:18 11.02.2020
2900 Rain 4 1013 79 10000 9.3 250 20:56 11.02.2020
2901 Clouds 4 1012 69 10000 5.7 220 20:37 11.02.2020
2902 Clouds 4 1012 69 10000 5.7 220 20:37 11.02.2020
2903 Clouds 4 1012 69 10000 5.7 220 20:18 11.02.2020
2904 Clouds 4 1012 69 10000 5.7 220 19:43 11.02.2020
2905 Clouds 4 1012 69 10000 5.7 220 19:43 11.02.2020
2906 Clouds 4 1012 64 10000 4.1 220 19:24 11.02.2020
2907 Clouds 4 1012 60 10000 6.2 250 18:57 11.02.2020
2908 Clouds 4 1012 60 10000 6.2 250 18:57 11.02.2020
2909 Clouds 4 1012 69 10000 5.1 250 18:39 11.02.2020
2910 Clouds 4 1012 69 10000 5.1 250 18:39 11.02.2020
2911 Clouds 4 1012 69 10000 5.1 250 18:39 11.02.2020
2912 Clouds 4 1012 69 10000 5.1 250 18:20 11.02.2020
2913 Clouds 5 1012 76 10000 6.7 240 17:55 11.02.2020
2914 Clouds 5 1011 76 10000 10.8 260 17:37 11.02.2020
2915 Clouds 5 1011 65 10000 10.8 260 17:18 11.02.2020
2916 Clouds 5 1011 65 10000 10.8 260 17:18 11.02.2020
2917 Clouds 6 1011 65 10000 7.2 250 16:57 11.02.2020
2918 Rain 6 1011 65 10000 7.2 250 16:38 11.02.2020
2919 Rain 5 1011 65 10000 7.2 250 16:19 11.02.2020
2920 Rain 6 1011 60 10000 9.8 260 15:45 11.02.2020
2921 Rain 6 1011 56 10000 7.7 250 15:26 11.02.2020
2922 Clouds 6 1010 56 10000 11.3 260 14:58 11.02.2020
2923 Clouds 6 1010 65 10000 9.8 260 14:39 11.02.2020
2924 Clouds 6 1010 78 10000 9.8 260 14:19 11.02.2020
2925 Clouds 6 1011 78 10000 8.7 240 13:42 11.02.2020
2926 Clouds 6 1011 71 10000 8.7 240 13:22 11.02.2020
2927 Rain 5 1011 71 10000 7.7 240 12:59 11.02.2020
2928 Rain 5 1011 71 10000 10.8 250 12:40 11.02.2020
2929 Rain 5 1011 71 10000 10.8 250 12:21 11.02.2020
2930 Rain 5 1011 65 10000 9.8 250 11:56 11.02.2020
2931 Rain 5 1010 71 10000 8.2 250 11:38 11.02.2020
2932 Rain 5 1010 90 10000 8.2 250 11:19 11.02.2020
2933 Rain 4 1011 93 10000 4.1 250 10:40 11.02.2020
2934 Rain 4 1011 93 10000 4.1 250 10:21 11.02.2020
2935 Snow 4 1011 90 1800 7.7 280 09:58 11.02.2020
2936 Snow 4 1011 90 1800 7.7 280 09:40 11.02.2020
2937 Rain 4 1010 90 10000 9.3 250 09:21 11.02.2020
2938 Clouds 3 1010 90 9000 9.3 260 08:49 11.02.2020
2939 Clouds 3 1010 91 2200 9.8 290 08:25 11.02.2020
2940 Clouds 3 1010 91 2200 9.8 290 08:25 11.02.2020
2941 Rain 3 1009 76 10000 5.7 250 07:55 11.02.2020
2942 Rain 4 1009 60 10000 6.7 240 07:34 11.02.2020
2943 Clouds 5 1009 60 10000 7.2 250 06:58 11.02.2020
2944 Clouds 4 1009 60 10000 7.2 250 06:58 11.02.2020
2945 Clouds 5 1008 60 10000 8.2 260 06:38 11.02.2020
2946 Clouds 5 1008 60 10000 8.2 260 06:20 11.02.2020
2947 Clouds 5 1008 60 10000 7.7 250 05:44 11.02.2020
2948 Clouds 5 1008 65 10000 9.8 260 05:20 11.02.2020
2949 Clouds 5 1006 68 10000 13.4 260 04:34 11.02.2020
2950 Rain 5 1004 80 10000 10.3 260 02:40 11.02.2020
2951 Rain 5 1004 80 10000 10.3 260 02:22 11.02.2020
2952 Rain 4 1003 93 10000 13.4 280 01:32 11.02.2020
2953 Rain 5 1001 75 10000 6.7 220 00:28 11.02.2020
2954 Clouds 6 1002 75 10000 3.6 230 23:52 10.02.2020
2955 Clouds 6 1003 86 10000 8.7 290 23:31 10.02.2020
2956 Rain 6 1002 75 10000 8.7 240 22:58 10.02.2020
2957 Rain 7 1002 81 10000 9.8 240 22:38 10.02.2020
2958 Rain 7 1002 81 10000 9.8 240 22:20 10.02.2020
2959 Rain 7 1003 81 10000 6.2 230 21:43 10.02.2020
2960 Rain 7 1003 75 10000 7.7 230 21:25 10.02.2020
2961 Rain 7 1003 75 10000 7.7 230 21:25 10.02.2020
2962 Rain 7 1004 75 10000 8.7 230 20:57 10.02.2020
2963 Rain 7 1004 75 10000 8.7 230 20:38 10.02.2020
2964 Rain 8 1004 74 10000 5.7 200 20:20 10.02.2020
2965 Rain 7 1005 49 10000 6.2 220 19:58 10.02.2020
2966 Rain 8 1005 49 10000 6.2 220 19:38 10.02.2020
2967 Rain 8 1006 52 10000 5.1 210 19:19 10.02.2020
2968 Clouds 8 1006 74 10000 4.6 220 18:59 10.02.2020
2969 Clouds 8 1007 74 10000 5.7 230 18:40 10.02.2020
2970 Clouds 8 1007 74 10000 5.7 230 18:21 10.02.2020
2971 Rain 8 1008 74 10000 6.7 240 17:58 10.02.2020
2972 Clouds 9 1009 74 10000 6.2 230 17:38 10.02.2020
2973 Clouds 9 1009 63 10000 6.2 230 17:19 10.02.2020
2974 Rain 9 1009 49 10000 6.7 250 16:58 10.02.2020
2975 Rain 9 1009 49 10000 6.7 250 16:40 10.02.2020
2976 Rain 9 1009 49 10000 11.3 250 16:19 10.02.2020
2977 Rain 9 1009 49 10000 8.7 260 15:56 10.02.2020
2978 Rain 9 1009 49 10000 8.7 260 15:56 10.02.2020
2979 Rain 9 1009 37 10000 16.5 270 15:38 10.02.2020
2980 Rain 9 1009 37 10000 16.5 270 15:20 10.02.2020
2981 Clouds 10 1009 40 10000 14.4 260 14:56 10.02.2020
2982 Clouds 10 1009 40 10000 14.4 260 14:37 10.02.2020
2983 Clouds 9 1009 40 10000 14.4 260 14:18 10.02.2020
2984 Clouds 9 1008 57 10000 14.9 260 13:42 10.02.2020
2985 Clouds 9 1008 57 10000 14.9 260 13:24 10.02.2020
2986 Clouds 9 1008 57 10000 14.9 260 13:24 10.02.2020
2987 Clouds 8 1008 65 10000 13.4 260 12:54 10.02.2020
2988 Rain 8 1008 65 10000 12.9 250 12:36 10.02.2020
2989 Rain 7 1008 65 10000 12.9 250 12:18 10.02.2020
2990 Clouds 8 1007 57 10000 7.7 240 11:43 10.02.2020
2991 Rain 8 1007 61 10000 15.4 270 11:20 10.02.2020
2992 Rain 9 1005 70 10000 15.9 260 10:47 10.02.2020
2993 Rain 9 1005 70 10000 15.9 260 10:28 10.02.2020
2994 Clouds 9 1004 66 10000 17 270 09:48 10.02.2020
2995 Rain 8 1003 76 10000 16.5 270 09:27 10.02.2020
2996 Rain 8 1002 81 10000 10.3 240 08:59 10.02.2020
2997 Rain 8 1000 81 10000 13.9 260 08:38 10.02.2020
2998 Rain 9 1001 71 10000 8.7 250 08:19 10.02.2020
2999 Rain 9 1000 93 2300 14.9 280 07:51 10.02.2020
3000 Clouds 10 1000 66 10000 14.9 250 07:32 10.02.2020
3001 Rain 12 999 62 10000 12.9 240 06:30 10.02.2020
3002 Rain 13 999 62 10000 14.4 230 04:47 10.02.2020
3003 Clouds 14 1000 62 10000 10.3 230 03:53 10.02.2020
3004 Clouds 13 1001 66 10000 8.2 200 02:57 10.02.2020
3005 Clouds 13 1002 66 10000 8.2 210 02:36 10.02.2020
3006 Clouds 13 1003 54 10000 5.7 220 00:56 10.02.2020
3007 Clouds 14 1003 50 10000 7.7 210 00:37 10.02.2020
3008 Clouds 13 1004 47 10000 8.7 210 23:59 09.02.2020
3009 Clouds 13 1005 43 10000 7.2 210 23:41 09.02.2020
3010 Clouds 13 1005 43 10000 7.2 210 23:23 09.02.2020
3011 Clouds 13 1005 43 10000 7.2 210 23:23 09.02.2020
3012 Clouds 13 1006 43 10000 6.7 210 22:43 09.02.2020
3013 Clouds 13 1006 55 10000 9.3 200 22:22 09.02.2020
3014 Clouds 13 1007 37 10000 7.7 200 21:54 09.02.2020
3015 Clouds 12 1008 40 10000 5.7 200 21:36 09.02.2020
3016 Clouds 12 1008 40 10000 5.7 200 21:18 09.02.2020
3017 Clouds 12 1009 56 10000 6.7 200 20:44 09.02.2020
3018 Clouds 11 1009 58 10000 6.7 200 20:21 09.02.2020
3019 Clouds 11 1010 58 10000 4.1 210 19:54 09.02.2020
3020 Clouds 11 1010 58 10000 5.1 200 19:36 09.02.2020
3021 Clouds 11 1011 58 10000 5.1 200 19:18 09.02.2020
3022 Clouds 11 1012 58 10000 6.7 190 18:41 09.02.2020
3023 Clouds 11 1012 58 10000 6.7 190 18:23 09.02.2020
3024 Clouds 11 1012 50 10000 5.1 190 17:44 09.02.2020
3025 Clouds 11 1013 50 10000 4.6 200 17:23 09.02.2020
3026 Clouds 12 1014 46 10000 3.6 210 16:59 09.02.2020
3027 Clouds 12 1015 50 10000 4.1 210 16:40 09.02.2020
3028 Clouds 12 1015 50 10000 4.1 210 16:21 09.02.2020
3029 Clouds 12 1014 50 10000 5.1 210 15:57 09.02.2020
3030 Clouds 12 1014 50 10000 5.1 210 15:57 09.02.2020
3031 Clouds 13 1015 50 10000 5.7 210 15:39 09.02.2020
3032 Clouds 13 1015 50 10000 5.7 210 15:21 09.02.2020
3033 Clouds 13 1016 50 10000 5.7 220 14:56 09.02.2020
3034 Clouds 13 1017 50 10000 5.1 210 14:37 09.02.2020
3035 Clouds 12 1017 50 10000 5.1 210 14:18 09.02.2020
3036 Clouds 13 1017 54 10000 4.6 210 13:42 09.02.2020
3037 Clouds 12 1018 54 10000 5.7 220 13:23 09.02.2020
3038 Clouds 12 1019 54 10000 4.6 200 12:54 09.02.2020
3039 Clouds 12 1019 57 10000 4.1 200 12:36 09.02.2020
3040 Clouds 11 1019 57 10000 4.1 200 12:18 09.02.2020
3041 Clouds 10 1020 61 10000 4.6 190 11:39 09.02.2020
3042 Clouds 9 1020 61 10000 4.1 160 11:19 09.02.2020
3043 Clouds 9 1020 61 10000 4.1 160 11:19 09.02.2020
3044 Clouds 8 1021 70 10000 2.1 160 10:54 09.02.2020
3045 Clouds 7 1021 80 10000 0.5 0 10:36 09.02.2020
3046 Clouds 6 1021 80 10000 0.5 0 10:18 09.02.2020
3047 Clouds 6 1022 70 10000 2.1 200 09:39 09.02.2020
3048 Clouds 5 1022 86 10000 1 0 09:20 09.02.2020
3049 Clear 3 1022 92 10000 1 0 08:42 09.02.2020
3050 Clouds 1 1022 92 10000 1 0 08:23 09.02.2020
3051 Clouds 1 1022 92 10000 1 0 07:54 09.02.2020
3052 Clouds 1 1022 86 10000 0.5 0 07:34 09.02.2020
3053 Clouds 1 1022 86 10000 0.5 0 07:34 09.02.2020
3054 Clouds 1 1023 86 10000 1.5 320 06:42 09.02.2020
3055 Clouds 1 1023 92 10000 0.5 20 05:56 09.02.2020
3056 Clouds 1 1023 86 10000 0.5 0 05:35 09.02.2020
3057 Clouds 1 1023 92 10000 1.5 360 04:52 09.02.2020
3058 Clouds 0 1023 92 10000 1.5 70 03:30 09.02.2020
3059 Clouds 0 1023 74 10000 1 0 02:43 09.02.2020
3060 Clouds 0 1023 100 10000 1 0 01:55 09.02.2020
3061 Clouds 1 1024 82 10000 1 0 01:34 09.02.2020
3062 Clouds 1 1024 82 10000 1.5 120 00:40 09.02.2020
3063 Clouds 1 1024 86 10000 1 0 00:18 09.02.2020
3064 Clouds 1 1024 86 10000 1 100 23:42 08.02.2020
3065 Clouds 1 1024 86 10000 1 100 23:19 08.02.2020
3066 Clouds 2 1024 86 10000 1 290 22:41 08.02.2020
3067 Clouds 2 1024 86 10000 1 290 22:21 08.02.2020
3068 Clouds 2 1024 86 10000 1 0 21:58 08.02.2020
3069 Clouds 2 1024 83 10000 1 290 21:39 08.02.2020
3070 Clouds 2 1023 83 10000 1 0 21:19 08.02.2020
3071 Clouds 3 1023 83 10000 1 0 20:55 08.02.2020
3072 Clouds 3 1023 86 10000 2.1 270 20:37 08.02.2020
3073 Clouds 3 1023 86 10000 2.1 270 20:18 08.02.2020
3074 Clouds 4 1023 86 10000 1 0 19:54 08.02.2020
3075 Clouds 4 1023 75 10000 0.5 290 19:36 08.02.2020
3076 Clouds 4 1023 75 10000 0.5 290 19:18 08.02.2020
3077 Clouds 5 1023 75 10000 0.5 50 18:42 08.02.2020
3078 Clouds 5 1023 75 10000 0.5 50 18:22 08.02.2020
3079 Clouds 6 1023 70 10000 1 0 17:43 08.02.2020
3080 Clouds 8 1023 70 10000 1 0 17:21 08.02.2020
3081 Clouds 8 1023 70 10000 1 0 17:21 08.02.2020
3082 Clouds 8 1023 70 10000 1.5 80 16:58 08.02.2020
3083 Clouds 8 1023 70 10000 1.5 70 16:39 08.02.2020
3084 Clouds 9 1023 70 10000 1.5 70 16:20 08.02.2020
3085 Clouds 9 1023 65 0 1.5 70 15:42 08.02.2020
3086 Clouds 9 1023 65 0 1.5 70 15:19 08.02.2020
3087 Clouds 9 1023 65 10000 1.5 90 14:59 08.02.2020
3088 Clouds 9 1023 65 10000 1.5 100 14:39 08.02.2020
3089 Clouds 9 1023 65 10000 1.5 100 14:19 08.02.2020
3090 Clouds 8 1024 70 10000 1.5 70 13:43 08.02.2020
3091 Clouds 8 1024 70 10000 1.5 70 13:23 08.02.2020
3092 Clouds 7 1024 51 10000 1 0 12:57 08.02.2020
3093 Clouds 7 1024 51 10000 1 0 12:37 08.02.2020
3094 Clouds 7 1024 51 10000 1 0 12:19 08.02.2020
3095 Clouds 7 1024 51 10000 1 0 12:19 08.02.2020
3096 Clouds 5 1024 51 10000 2.1 130 11:43 08.02.2020
3097 Clouds 4 1024 80 10000 1 0 11:21 08.02.2020
3098 Clouds 3 1024 86 10000 1.5 130 10:55 08.02.2020
3099 Clouds 2 1024 57 10000 1.5 100 10:37 08.02.2020
3100 Clouds 2 1024 57 10000 1.5 100 10:19 08.02.2020
3101 Clouds 1 1024 86 10000 1 90 09:46 08.02.2020
3102 Clouds 0 1024 86 10000 1 80 09:23 08.02.2020
3103 Clouds -1 1024 92 9000 1 60 08:41 08.02.2020
3104 Clouds -1 1024 92 9000 1.5 80 08:41 08.02.2020
3105 Clouds -3 1024 92 9000 1 60 08:22 08.02.2020
3106 Clouds -3 1024 100 10000 1 70 07:53 08.02.2020
3107 Clouds -3 1024 100 10000 0.5 60 07:34 08.02.2020
3108 Clouds -3 1024 92 10000 0.5 100 06:54 08.02.2020
3109 Clouds -3 1023 92 10000 0.91 166 06:21 08.02.2020
3110 Clouds -2 1023 92 10000 1.5 260 05:34 08.02.2020
3111 Clear -2 1023 92 10000 0.5 290 04:54 08.02.2020
3112 Clear -2 1023 92 10000 1 240 04:24 08.02.2020
3113 Clear -2 1024 92 10000 1 0 03:38 08.02.2020
3114 Clear -1 1024 92 10000 1 0 02:29 08.02.2020
3115 Clear -1 1024 86 10000 0.5 280 01:33 08.02.2020
3116 Clear -1 1024 92 10000 0.5 0 00:54 08.02.2020
3117 Clear 0 1024 86 10000 1.5 270 00:25 08.02.2020
3118 Clear 0 1024 86 10000 0.5 0 23:58 07.02.2020
3119 Clear 0 1024 92 10000 0.5 120 23:39 07.02.2020
3120 Clear 0 1024 92 10000 0.5 120 23:20 07.02.2020
3121 Clear 1 1024 73 10000 0.5 0 22:55 07.02.2020
3122 Clear 1 1024 73 10000 1 0 22:37 07.02.2020
3123 Clear 1 1024 73 10000 1 0 22:18 07.02.2020
3124 Clear 1 1024 73 10000 1.5 90 21:41 07.02.2020
3125 Clear 1 1024 73 10000 1.5 90 21:21 07.02.2020
3126 Clear 2 1024 73 10000 2.1 90 20:40 07.02.2020
3127 Clear 2 1024 73 10000 2.1 90 20:21 07.02.2020
3128 Clear 2 1024 86 10000 2.6 100 19:56 07.02.2020
3129 Clear 2 1025 74 10000 2.6 90 19:37 07.02.2020
3130 Clear 3 1025 74 10000 2.6 90 19:19 07.02.2020
3131 Clear 3 1025 69 10000 4.1 80 18:46 07.02.2020
3132 Clear 3 1024 69 10000 3.6 70 18:26 07.02.2020
3133 Clear 5 1024 56 10000 3.6 80 17:57 07.02.2020
3134 Clear 5 1024 65 10000 3.1 80 17:39 07.02.2020
3135 Clear 6 1024 65 10000 3.1 80 17:20 07.02.2020
3136 Clear 6 1024 60 10000 3.1 80 16:52 07.02.2020
3137 Clear 7 1024 52 10000 3.6 70 16:24 07.02.2020
3138 Clear 7 1025 56 10000 3.1 80 15:55 07.02.2020
3139 Clear 7 1025 52 10000 2.6 80 15:36 07.02.2020
3140 Clear 7 1025 52 10000 2.6 80 15:18 07.02.2020
3141 Clear 7 1025 56 10000 3.1 70 14:42 07.02.2020
3142 Clear 7 1025 56 10000 3.1 70 14:24 07.02.2020
3143 Clear 7 1026 56 10000 2.1 100 13:57 07.02.2020
3144 Clear 7 1026 60 10000 3.1 70 13:38 07.02.2020
3145 Clear 6 1026 60 10000 3.1 70 13:20 07.02.2020
3146 Clear 6 1027 64 10000 1.5 80 12:44 07.02.2020
3147 Clear 5 1027 64 10000 1.5 80 12:26 07.02.2020
3148 Clear 4 1028 69 10000 3.1 70 11:58 07.02.2020
3149 Clear 4 1028 74 10000 2.1 70 11:39 07.02.2020
3150 Clear 2 1028 74 10000 2.1 70 11:18 07.02.2020
3151 Clear 2 1028 74 10000 1 0 10:40 07.02.2020
3152 Clear 1 1028 57 10000 0.5 0 10:20 07.02.2020
3153 Clear 0 1028 80 10000 0.5 0 09:47 07.02.2020
3154 Clear -1 1028 80 10000 0.5 0 09:27 07.02.2020
3155 Clear -2 1028 92 10000 0.5 0 08:58 07.02.2020
3156 Clear -2 1028 92 10000 0.5 0 08:40 07.02.2020
3157 Clear -3 1028 92 10000 0.5 0 08:20 07.02.2020
3158 Clear -4 1028 92 10000 0.5 0 07:43 07.02.2020
3159 Clear -4 1028 85 10000 1 230 07:24 07.02.2020
3160 Clear -4 1028 92 10000 1 200 06:44 07.02.2020
3161 Clear -3 1028 85 10000 2.1 30 06:23 07.02.2020
3162 Clear -3 1028 92 10000 1 0 05:44 07.02.2020
3163 Clear -3 1028 92 10000 2.1 300 04:33 07.02.2020
3164 Clear -2 1029 92 10000 1 0 02:33 07.02.2020
3165 Clear -2 1029 92 10000 1 50 01:37 07.02.2020
3166 Clear -2 1029 79 10000 1 20 00:45 07.02.2020
3167 Clear -2 1029 79 10000 1 20 00:18 07.02.2020
3168 Clear -2 1029 86 10000 1 0 23:37 06.02.2020
3169 Clear -2 1029 86 10000 1 0 23:18 06.02.2020
3170 Clear -1 1029 80 10000 1 280 22:44 06.02.2020
3171 Clear -1 1029 80 10000 1 210 22:25 06.02.2020
3172 Clear -1 1029 74 10000 2.6 280 21:38 06.02.2020
3173 Clear 0 1029 74 10000 2.6 280 21:20 06.02.2020
3174 Clear 0 1029 69 10000 1.5 280 20:58 06.02.2020
3175 Clear 0 1029 69 10000 1.5 280 20:39 06.02.2020
3176 Clear 0 1030 69 10000 1 230 20:19 06.02.2020
3177 Clear 1 1030 59 10000 1.5 290 19:59 06.02.2020
3178 Clear 1 1030 55 10000 2.1 320 19:41 06.02.2020
3179 Clear 1 1030 55 10000 2.1 320 19:22 06.02.2020
3180 Clear 2 1030 55 10000 1.5 320 18:59 06.02.2020
3181 Clear 2 1030 55 10000 1.5 320 18:40 06.02.2020
3182 Clear 3 1030 51 10000 2.1 340 18:21 06.02.2020
3183 Clear 4 1030 48 10000 2.6 350 17:45 06.02.2020
3184 Clear 5 1030 45 10000 2.6 360 17:21 06.02.2020
3185 -273 0 0 0 0 0 17:21 06.02.2020
3186 Clear 6 1029 42 10000 1.5 60 16:59 06.02.2020
3187 Clear 6 1029 39 10000 1.5 50 16:41 06.02.2020
3188 Clear 6 1029 39 10000 1.5 50 16:22 06.02.2020
3189 Clear 6 1030 39 10000 1 0 15:42 06.02.2020
3190 Clear 7 1030 39 10000 1 0 15:22 06.02.2020
3191 Clear 7 1030 45 10000 2.1 80 14:51 06.02.2020
3192 Clouds 7 1030 48 10000 1.5 60 14:28 06.02.2020
3193 Clouds 6 1030 65 10000 1 0 13:59 06.02.2020
3194 Clouds 6 1030 65 10000 1 0 13:40 06.02.2020
3195 Clouds 6 1031 42 10000 1.5 100 13:20 06.02.2020
3196 Clouds 6 1031 42 10000 1.5 110 12:44 06.02.2020
3197 Clouds 5 1031 60 10000 2.1 90 12:19 06.02.2020
3198 Clouds 5 1031 60 10000 2.1 90 12:19 06.02.2020
3199 Clouds 4 1031 69 10000 1 0 11:57 06.02.2020
3200 Clouds 4 1032 74 10000 1 0 11:39 06.02.2020
3201 Clouds 3 1032 74 10000 1 0 11:19 06.02.2020
3202 Clouds 3 1032 80 10000 1 0 10:56 06.02.2020
3203 Clouds 2 1032 86 10000 1.5 120 10:38 06.02.2020
3204 Clouds 1 1032 86 10000 1.5 120 10:20 06.02.2020
3205 Clouds 0 1032 92 10000 0.5 0 09:56 06.02.2020
3206 Clouds -1 1032 92 10000 0.5 0 09:36 06.02.2020
3207 Clouds -2 1032 92 10000 0.5 0 09:18 06.02.2020
3208 Fog -2 1031 100 10000 0.5 0 08:41 06.02.2020
3209 Fog -3 1031 92 10000 1.5 160 08:22 06.02.2020
3210 Fog -3 1032 100 10000 1 0 07:47 06.02.2020
3211 Clouds -3 1032 100 10000 0.5 110 07:25 06.02.2020
3212 Clouds -3 1032 100 10000 0.5 0 06:37 06.02.2020
3213 Clouds -3 1032 100 10000 0.5 0 06:18 06.02.2020
3214 Clouds -3 1033 100 10000 0.83 162 04:43 06.02.2020
3215 Clouds -3 1033 92 10000 1 0 03:21 06.02.2020
3216 Clouds -3 1034 86 10000 0.5 0 02:29 06.02.2020
3217 Clear -2 1034 92 10000 1 0 01:37 06.02.2020
3218 Clear -2 1034 92 10000 0.5 310 00:58 06.02.2020
3219 Clear -2 1035 92 10000 0.5 0 00:26 06.02.2020
3220 Clear -1 1035 86 10000 0.5 0 23:47 05.02.2020
3221 Clear -1 1035 86 10000 0.5 0 23:29 05.02.2020
3222 Clear -1 1035 80 10000 1 310 22:59 05.02.2020
3223 Clear -1 1035 75 10000 1 240 22:40 05.02.2020
3224 Clear -1 1035 75 10000 1 240 22:40 05.02.2020
3225 Clear -1 1035 75 10000 1 240 22:22 05.02.2020
3226 Clear -1 1035 75 10000 1 240 22:22 05.02.2020
3227 Clear -1 1035 75 10000 1 240 22:22 05.02.2020
3228 Clear -1 1035 86 10000 1 0 21:55 05.02.2020
3229 Clear 0 1035 80 10000 1 0 21:36 05.02.2020
3230 Clear 0 1035 80 10000 1 0 21:18 05.02.2020
3231 Clouds 0 1035 77 10000 1 0 20:39 05.02.2020
3232 Clear 1 1035 76 10000 1 0 20:20 05.02.2020
3233 Clear 1 1035 74 10000 1.5 250 19:58 05.02.2020
3234 Clouds 1 1035 64 10000 1.5 300 19:38 05.02.2020
3235 Clouds 2 1035 64 10000 1.5 300 19:19 05.02.2020
3236 Clouds 2 1035 64 10000 2.1 310 18:55 05.02.2020
3237 Clouds 2 1035 64 10000 2.6 310 18:36 05.02.2020
3238 Clouds 2 1035 64 10000 2.6 310 18:18 05.02.2020
3239 Clouds 4 1034 56 10000 3.1 320 17:38 05.02.2020
3240 Clouds 4 1034 56 10000 3.1 320 17:38 05.02.2020
3241 Clouds 4 1034 56 10000 3.1 320 17:19 05.02.2020
3242 Clouds 5 1034 56 10000 2.6 310 16:57 05.02.2020
3243 Clouds 5 1034 60 10000 3.6 330 16:38 05.02.2020
3244 Clouds 5 1034 60 10000 3.6 330 16:19 05.02.2020
3245 Clouds 5 1034 60 10000 4.1 350 15:45 05.02.2020
3246 Clouds 5 1034 52 10000 5.1 310 15:20 05.02.2020
3247 Clouds 6 1033 60 10000 5.1 310 14:58 05.02.2020
3248 Clouds 6 1033 60 10000 5.1 310 14:39 05.02.2020
3249 Clouds 5 1033 60 10000 5.1 320 14:21 05.02.2020
3250 Clouds 5 1033 60 10000 4.6 330 13:43 05.02.2020
3251 Clouds 5 1033 65 10000 4.6 330 13:22 05.02.2020
3252 Clouds 5 1033 65 10000 4.1 320 12:57 05.02.2020
3253 Clouds 5 1033 69 10000 5.1 330 12:36 05.02.2020
3254 Clouds 5 1033 69 10000 5.1 330 12:18 05.02.2020
3255 Clouds 5 1033 69 10000 5.1 330 12:18 05.02.2020
3256 Clouds 4 1032 69 10000 4.6 340 11:41 05.02.2020
3257 Clouds 4 1032 74 10000 4.6 330 11:22 05.02.2020
3258 Clouds 4 1032 81 10000 5.1 330 10:57 05.02.2020
3259 Clouds 4 1031 81 10000 5.7 330 10:39 05.02.2020
3260 Clouds 3 1031 81 10000 5.7 330 10:18 05.02.2020
3261 Clouds 3 1030 74 10000 6.2 320 09:40 05.02.2020
3262 Clouds 3 1030 74 10000 6.2 320 09:21 05.02.2020
3263 Clouds 3 1030 74 10000 7.7 320 08:55 05.02.2020
3264 Clouds 2 1030 74 10000 7.7 320 08:37 05.02.2020
3265 Clouds 3 1029 83 10000 8.2 320 08:18 05.02.2020
3266 Clouds 3 1029 83 10000 6.2 310 07:42 05.02.2020
3267 Clouds 3 1028 83 10000 5.7 300 07:18 05.02.2020
3268 Clouds 3 1027 83 10000 6.7 300 06:39 05.02.2020
3269 Clouds 3 1027 83 10000 7.7 290 06:20 05.02.2020
3270 Clouds 3 1027 81 10000 6.7 290 05:20 05.02.2020
3271 Clouds 3 1026 81 10000 7.2 300 04:58 05.02.2020
3272 Clouds 3 1026 81 10000 6.7 310 04:27 05.02.2020
3273 Clouds 3 1025 86 10000 5.1 290 02:53 05.02.2020
3274 Clouds 3 1024 86 10000 4.6 290 02:22 05.02.2020
3275 Clouds 3 1023 86 10000 3.1 300 01:34 05.02.2020
3276 Clouds 3 1023 86 10000 5.1 300 00:25 05.02.2020
3277 Rain 3 1022 86 10000 4.6 270 23:42 04.02.2020
3278 Rain 3 1022 86 10000 4.6 270 23:42 04.02.2020
3279 Rain 3 1022 86 10000 4.6 270 23:22 04.02.2020
3280 Clouds 3 1021 86 10000 5.1 290 22:58 04.02.2020
3281 Clouds 3 1021 95 10000 5.7 290 22:40 04.02.2020
3282 Clouds 3 1021 95 10000 5.7 290 22:20 04.02.2020
3283 Clouds 3 1021 95 10000 6.2 280 21:57 04.02.2020
3284 Clouds 3 1020 95 10000 5.7 270 21:38 04.02.2020
3285 Clouds 3 1020 95 10000 5.7 270 21:19 04.02.2020
3286 Clouds 3 1020 95 10000 2.6 240 20:55 04.02.2020
3287 Clouds 3 1019 95 10000 3.6 250 20:37 04.02.2020
3288 Clouds 3 1019 80 10000 3.6 250 20:18 04.02.2020
3289 Clouds 2 1019 80 10000 2.1 230 19:55 04.02.2020
3290 Clouds 2 1019 80 10000 2.1 230 19:36 04.02.2020
3291 Clouds 3 1019 80 10000 2.1 230 19:18 04.02.2020
3292 Clouds 2 1018 80 10000 5.7 280 18:41 04.02.2020
3293 Clouds 2 1018 80 10000 5.7 280 18:22 04.02.2020
3294 Clouds 2 1018 80 10000 5.7 280 18:22 04.02.2020
3295 Rain 3 1017 80 10000 6.2 290 17:58 04.02.2020
3296 Snow 3 1017 80 750 9.8 310 17:40 04.02.2020
3297 Clouds 3 1015 65 10000 7.2 260 17:20 04.02.2020
3298 Clouds 3 1015 65 10000 7.2 260 17:20 04.02.2020
3299 Clouds 4 1015 65 10000 8.7 270 16:39 04.02.2020
3300 Clouds 4 1015 65 10000 8.7 270 16:21 04.02.2020
3301 Clouds 4 1015 60 10000 9.3 280 15:58 04.02.2020
3302 Rain 5 1014 65 10000 9.8 290 15:40 04.02.2020
3303 Rain 5 1014 65 10000 9.8 290 15:20 04.02.2020
3304 Clouds 5 1014 69 10000 9.3 290 14:57 04.02.2020
3305 Clouds 5 1014 69 10000 7.2 290 14:39 04.02.2020
3306 Clouds 5 1014 69 10000 7.2 290 14:20 04.02.2020
3307 Clouds 5 1014 69 10000 8.7 270 13:42 04.02.2020
3308 Rain 4 1014 69 10000 10.8 270 13:23 04.02.2020
3309 Clouds 4 1014 69 10000 8.7 270 12:59 04.02.2020
3310 Clouds 4 1014 69 10000 8.7 270 12:59 04.02.2020
3311 Clouds 4 1015 80 10000 5.1 250 12:41 04.02.2020
3312 Clouds 4 1015 80 10000 5.1 250 12:41 04.02.2020
3313 Clouds 4 1015 80 10000 5.1 250 12:22 04.02.2020
3314 Clouds 4 1015 86 10000 3.1 240 11:56 04.02.2020
3315 Rain 4 1015 86 10000 5.7 270 11:38 04.02.2020
3316 Rain 4 1015 86 10000 5.7 270 11:37 04.02.2020
3317 Rain 4 1015 86 10000 5.7 270 11:19 04.02.2020
3318 Snow 4 1015 87 1300 6.7 270 10:46 04.02.2020
3319 Clouds 4 1014 87 6000 6.7 260 10:26 04.02.2020
3320 Clouds 4 1014 87 10000 7.2 280 09:58 04.02.2020
3321 Clouds 4 1014 87 10000 9.3 280 09:39 04.02.2020
3322 Clouds 4 1014 87 10000 9.3 280 09:20 04.02.2020
3323 Clouds 4 1013 87 10000 8.7 280 08:46 04.02.2020
3324 Clouds 4 1013 78 10000 9.3 280 08:27 04.02.2020
3325 Clouds 4 1013 80 10000 8.7 270 07:53 04.02.2020
3326 Rain 4 1012 86 10000 8.7 280 07:25 04.02.2020
3327 Clouds 4 1011 86 10000 10.3 280 06:58 04.02.2020
3328 Rain 4 1010 86 8000 9.8 280 06:40 04.02.2020
3329 Rain 4 1007 86 10000 10.3 290 05:34 04.02.2020
3330 Rain 5 1004 86 9000 13.9 310 04:28 04.02.2020
3331 Rain 7 1002 87 4000 14.9 280 03:48 04.02.2020
3332 Rain 8 1000 76 10000 7.2 220 03:29 04.02.2020
3333 Rain 10 1001 81 9000 9.3 220 02:48 04.02.2020
3334 Rain 11 1002 76 9000 6.7 230 02:27 04.02.2020
3335 Rain 12 1003 71 10000 9.3 240 01:46 04.02.2020
3336 Clouds 12 1003 58 10000 8.2 230 01:19 04.02.2020
3337 Clouds 11 1005 71 10000 5.7 200 00:23 04.02.2020
3338 Clouds 10 1007 76 10000 5.1 210 23:55 03.02.2020
3339 Clouds 10 1008 81 10000 4.1 220 23:37 03.02.2020
3340 Clouds 9 1008 81 10000 4.1 220 23:18 03.02.2020
3341 Clouds 8 1010 93 10000 2.1 200 22:39 03.02.2020
3342 Clouds 8 1010 93 10000 2.1 200 22:19 03.02.2020
3343 Rain 7 1013 93 10000 1 0 21:42 03.02.2020
3344 Rain 7 1013 93 10000 1 0 21:20 03.02.2020
3345 Rain 8 1014 93 10000 2.1 150 20:57 03.02.2020
3346 Rain 8 1014 93 10000 2.1 150 20:57 03.02.2020
3347 Rain 8 1015 93 10000 1.5 170 20:39 03.02.2020
3348 Rain 8 1015 93 10000 1.5 170 20:18 03.02.2020
3349 Rain 8 1016 93 10000 2.6 200 19:56 03.02.2020
3350 Rain 8 1016 81 10000 3.6 230 19:37 03.02.2020
3351 Rain 8 1016 81 10000 3.6 230 19:37 03.02.2020
3352 Rain 8 1016 81 10000 3.6 230 19:18 03.02.2020
3353 Rain 8 1016 87 10000 3.6 220 18:42 03.02.2020
3354 Rain 8 1017 87 10000 4.1 220 18:22 03.02.2020
3355 Rain 8 1017 81 10000 4.6 220 17:58 03.02.2020
3356 Rain 8 1017 81 10000 4.6 210 17:39 03.02.2020
3357 Rain 9 1017 81 10000 4.6 210 17:20 03.02.2020
3358 Clouds 9 1017 81 10000 3.6 220 16:54 03.02.2020
3359 Clouds 9 1018 75 10000 3.6 210 16:36 03.02.2020
3360 Clouds 9 1018 75 10000 3.6 210 16:18 03.02.2020
3361 Rain 8 1018 75 10000 3.1 210 15:54 03.02.2020
3362 Rain 9 1018 75 10000 5.1 240 15:36 03.02.2020
3363 Rain 9 1018 75 10000 5.1 240 15:18 03.02.2020
3364 Clouds 9 1018 76 10000 2.6 230 14:39 03.02.2020
3365 Clouds 9 1018 76 10000 2.6 230 14:21 03.02.2020
3366 Clouds 9 1018 81 10000 3.1 250 13:55 03.02.2020
3367 Rain 9 1018 76 10000 4.1 240 13:36 03.02.2020
3368 Rain 9 1018 76 10000 4.1 240 13:18 03.02.2020
3369 Rain 9 1018 81 10000 3.1 240 12:41 03.02.2020
3370 Rain 8 1018 81 10000 3.1 240 12:22 03.02.2020
3371 Rain 8 1018 87 10000 2.6 220 11:58 03.02.2020
3372 Rain 8 1018 93 10000 3.1 210 11:38 03.02.2020
3373 Rain 8 1018 93 10000 3.1 210 11:19 03.02.2020
3374 Rain 8 1018 93 10000 1.5 220 10:54 03.02.2020
3375 Rain 8 1018 93 10000 2.6 220 10:36 03.02.2020
3376 Rain 8 1018 93 10000 2.6 220 10:18 03.02.2020
3377 Rain 8 1017 87 10000 3.6 260 09:38 03.02.2020
3378 Rain 8 1017 87 10000 3.6 260 09:19 03.02.2020
3379 Rain 8 1017 87 10000 3.1 270 08:40 03.02.2020
3380 Rain 8 1017 93 10000 2.6 290 08:22 03.02.2020
3381 Rain 8 1016 87 10000 7.2 310 07:42 03.02.2020
3382 Rain 8 1016 87 10000 7.2 310 07:23 03.02.2020
3383 Rain 8 1016 93 10000 1 0 06:56 03.02.2020
3384 Rain 8 1016 100 8000 1.5 260 06:31 03.02.2020
3385 Rain 8 1015 93 10000 1.5 240 05:55 03.02.2020
3386 Rain 8 1015 93 10000 1.5 210 05:33 03.02.2020
3387 Rain 8 1015 93 10000 2.6 190 04:47 03.02.2020
3388 Rain 8 1015 93 10000 4.1 290 02:53 03.02.2020
3389 Rain 8 1014 93 8000 4.6 290 02:32 03.02.2020
3390 Rain 9 1015 93 10000 2.1 260 00:50 03.02.2020
3391 Rain 9 1015 87 10000 4.1 270 00:30 03.02.2020
3392 Rain 9 1015 87 10000 3.1 270 23:59 02.02.2020
3393 Rain 9 1015 87 10000 4.1 280 23:37 02.02.2020
3394 Rain 9 1015 87 10000 4.1 280 23:18 02.02.2020
3395 Rain 10 1015 76 10000 8.2 280 22:40 02.02.2020
3396 Rain 10 1015 76 10000 8.2 280 22:22 02.02.2020
3397 Rain 11 1014 81 10000 8.7 270 21:58 02.02.2020
3398 Rain 11 1014 81 10000 8.7 270 21:39 02.02.2020
3399 Rain 11 1014 87 8000 9.8 270 21:21 02.02.2020
3400 Rain 12 1014 87 7000 4.1 230 20:58 02.02.2020
3401 Rain 12 1014 87 7000 4.1 230 20:39 02.02.2020
3402 Rain 12 1014 82 9000 3.1 230 20:20 02.02.2020
3403 Clouds 13 1013 76 10000 2.6 220 19:59 02.02.2020
3404 Clouds 13 1013 76 10000 4.6 230 19:41 02.02.2020
3405 Clouds 13 1013 76 10000 4.6 230 19:22 02.02.2020
3406 Clouds 13 1013 82 10000 3.6 220 18:57 02.02.2020
3407 Clouds 13 1013 93 10000 2.1 210 18:38 02.02.2020
3408 Clouds 13 1013 93 10000 2.1 210 18:20 02.02.2020
3409 Clouds 13 1013 87 10000 2.6 230 17:57 02.02.2020
3410 Clouds 13 1012 87 10000 3.1 230 17:38 02.02.2020
3411 Clouds 13 1012 87 10000 3.1 230 17:18 02.02.2020
3412 Rain 12 1011 93 8000 4.6 230 16:58 02.02.2020
3413 Rain 12 1011 93 5000 4.1 230 16:38 02.02.2020
3414 Rain 12 1011 93 5000 4.1 230 16:19 02.02.2020
3415 Rain 12 1010 93 6000 4.6 220 15:57 02.02.2020
3416 Clouds 12 1011 87 10000 4.1 220 15:38 02.02.2020
3417 Clouds 12 1011 87 10000 4.1 220 15:19 02.02.2020
3418 Rain 12 1010 87 10000 4.1 210 14:44 02.02.2020
3419 Clouds 12 1010 87 10000 4.6 210 14:20 02.02.2020
3420 Rain 12 1011 87 10000 5.1 200 13:59 02.02.2020
3421 Rain 12 1011 87 10000 5.1 200 13:59 02.02.2020
3422 Rain 11 1011 87 10000 5.1 200 13:41 02.02.2020
3423 Clouds 11 1011 81 10000 4.6 210 13:22 02.02.2020
3424 -273 0 0 0 0 0 12:58 02.02.2020
3425 Clouds 11 1011 81 10000 4.1 210 12:40 02.02.2020
3426 Clouds 11 1011 81 10000 4.1 210 12:22 02.02.2020
3427 Clouds 11 1012 81 10000 5.1 200 11:54 02.02.2020
3428 Clouds 10 1013 87 10000 3.6 200 11:36 02.02.2020
3429 Clouds 10 1013 87 10000 3.6 200 11:18 02.02.2020
3430 Rain 10 1013 87 10000 4.1 210 10:54 02.02.2020
3431 Rain 10 1013 81 10000 4.1 200 10:36 02.02.2020
3432 Rain 10 1013 81 10000 4.1 200 10:18 02.02.2020
3433 Rain 9 1014 87 10000 3.6 200 09:40 02.02.2020
3434 Rain 9 1014 87 10000 3.6 200 09:21 02.02.2020
3435 Rain 9 1014 81 10000 3.6 200 08:56 02.02.2020
3436 Rain 9 1015 81 10000 3.6 210 08:38 02.02.2020
3437 Clouds 9 1015 81 10000 3.1 210 08:19 02.02.2020
3438 Clouds 9 1015 81 10000 3.1 210 07:44 02.02.2020
3439 Rain 9 1015 87 10000 2.6 200 07:25 02.02.2020
3440 Rain 9 1015 81 10000 3.6 190 06:38 02.02.2020
3441 Rain 9 1015 81 10000 3.6 190 06:19 02.02.2020
3442 Rain 9 1016 87 10000 2.1 230 05:36 02.02.2020
3443 Clouds 9 1016 87 10000 1.5 200 04:30 02.02.2020
3444 Rain 9 1016 87 10000 2.1 220 03:24 02.02.2020
3445 Rain 10 1015 87 10000 3.1 230 02:24 02.02.2020
3446 Rain 10 1015 87 10000 4.6 240 01:52 02.02.2020
3447 Rain 10 1015 87 10000 3.6 240 01:19 02.02.2020
3448 Clouds 10 1014 93 10000 4.6 240 00:41 02.02.2020
3449 Rain 10 1014 93 10000 5.1 250 00:19 02.02.2020
3450 Rain 10 1014 81 10000 8.2 250 23:45 01.02.2020
3451 Rain 10 1014 81 10000 8.2 250 23:21 01.02.2020
3452 Clouds 10 1012 87 10000 2.6 230 22:48 01.02.2020
3453 Clouds 10 1012 87 10000 2.6 230 22:19 01.02.2020
3454 Clouds 10 1012 81 10000 2.1 220 21:44 01.02.2020
3455 Clouds 10 1012 81 10000 3.1 240 21:20 01.02.2020
3456 Clouds 10 1012 81 10000 3.6 250 20:58 01.02.2020
3457 Clouds 10 1012 81 10000 3.6 250 20:40 01.02.2020
3458 Clouds 10 1012 81 10000 8.2 260 20:20 01.02.2020
3459 Clouds 10 1012 87 10000 7.7 280 19:56 01.02.2020
3460 Clouds 10 1011 87 10000 5.1 260 19:38 01.02.2020
3461 Clouds 10 1011 87 10000 5.1 260 19:19 01.02.2020
3462 Rain 11 1010 87 9000 4.1 230 18:57 01.02.2020
3463 Rain 11 1010 87 9000 4.1 230 18:38 01.02.2020
3464 Rain 11 1010 87 9000 4.6 220 18:20 01.02.2020
3465 Rain 11 1009 87 10000 4.6 230 17:56 01.02.2020
3466 Clouds 11 1009 87 10000 5.1 230 17:38 01.02.2020
3467 Clouds 11 1009 87 10000 5.1 230 17:19 01.02.2020
3468 Rain 11 1009 93 10000 4.1 220 16:42 01.02.2020
3469 Rain 11 1009 93 10000 4.1 220 16:23 01.02.2020
3470 Rain 12 1009 81 10000 6.2 230 15:58 01.02.2020
3471 Clouds 12 1009 71 10000 6.2 240 15:38 01.02.2020
3472 Clouds 12 1009 71 10000 6.2 240 15:18 01.02.2020
3473 Rain 12 1007 81 10000 5.7 240 14:40 01.02.2020
3474 Clouds 13 1009 67 10000 7.2 240 14:21 01.02.2020
3475 Rain 13 1009 62 10000 8.2 230 13:45 01.02.2020
3476 Rain 14 1009 62 10000 8.2 230 13:24 01.02.2020
3477 Clouds 14 1008 67 10000 8.2 240 12:59 01.02.2020
3478 Clouds 14 1008 67 10000 8.2 240 12:41 01.02.2020
3479 Clouds 14 1009 67 10000 6.7 230 12:22 01.02.2020
3480 Clouds 14 1009 71 10000 3.6 200 11:44 01.02.2020
3481 Clouds 13 1009 71 10000 3.6 200 11:24 01.02.2020
3482 Clouds 13 1010 71 10000 3.1 200 10:59 01.02.2020
3483 Clouds 13 1010 76 10000 3.1 190 10:40 01.02.2020
3484 Clouds 12 1010 76 10000 3.1 190 10:22 01.02.2020
3485 Clouds 12 1010 76 10000 1.5 0 09:59 01.02.2020
3486 Clouds 11 1010 76 10000 1 0 09:40 01.02.2020
3487 Clouds 11 1010 76 10000 1 0 09:21 01.02.2020
3488 Clouds 10 1010 76 10000 1 0 08:54 01.02.2020
3489 Clouds 10 1010 76 10000 0.5 0 07:59 01.02.2020
3490 Clouds 10 1010 81 10000 1 0 07:40 01.02.2020
3491 Clouds 10 1010 76 10000 0.5 0 07:40 01.02.2020
3492 Clouds 10 1010 81 10000 1 0 07:22 01.02.2020
3493 Clouds 10 1011 81 10000 3.6 200 06:43 01.02.2020
3494 Clouds 11 1011 81 10000 2.1 180 05:54 01.02.2020
3495 Clouds 11 1013 71 10000 4.1 220 04:22 01.02.2020
3496 Clouds 11 1013 76 10000 1 0 03:25 01.02.2020
3497 Clouds 10 1013 81 10000 2.1 0 02:58 01.02.2020
3498 Clouds 11 1013 81 10000 4.1 200 02:39 01.02.2020
3499 Clouds 11 1013 81 10000 4.1 200 02:19 01.02.2020
3500 Clouds 11 1013 81 10000 1 0 01:40 01.02.2020
3501 Clouds 11 1014 81 10000 1.5 170 01:19 01.02.2020
3502 Clouds 11 1014 76 10000 1 0 00:23 01.02.2020
3503 Clouds 11 1014 81 10000 1 0 23:41 31.01.2020
3504 Clouds 11 1015 81 10000 2.1 210 23:19 31.01.2020
3505 Clouds 11 1014 76 10000 3.1 200 22:57 31.01.2020
3506 Clouds 11 1015 76 10000 3.6 200 22:38 31.01.2020
3507 Clouds 11 1015 76 10000 3.6 200 22:20 31.01.2020
3508 Clouds 11 1015 76 10000 3.6 210 21:55 31.01.2020
3509 Clouds 12 1015 76 10000 3.1 220 21:37 31.01.2020
3510 Clouds 11 1015 76 10000 3.1 220 21:18 31.01.2020
3511 Clouds 11 1015 81 10000 3.1 220 20:54 31.01.2020
3512 Clouds 11 1015 81 10000 3.1 220 20:54 31.01.2020
3513 Clouds 11 1015 81 10000 2.6 220 20:36 31.01.2020
3514 Clouds 11 1015 81 10000 2.6 220 20:36 31.01.2020
3515 Clouds 11 1015 81 10000 2.6 220 20:18 31.01.2020
3516 Clouds 11 1015 81 10000 2.6 220 19:42 31.01.2020
3517 Clouds 11 1015 81 10000 2.6 220 19:24 31.01.2020
3518 Clouds 11 1015 81 10000 2.6 220 19:24 31.01.2020
3519 Clouds 11 1015 81 10000 3.1 230 18:58 31.01.2020
3520 Clouds 12 1015 81 10000 2.6 220 18:38 31.01.2020
3521 Clouds 12 1015 81 10000 2.6 220 18:20 31.01.2020
3522 Clouds 12 1015 87 10000 2.6 220 17:46 31.01.2020
3523 Clouds 12 1015 81 10000 3.6 230 17:27 31.01.2020
3524 Clouds 12 1015 76 10000 3.6 240 16:57 31.01.2020
3525 Clouds 13 1015 76 10000 3.6 240 16:38 31.01.2020
3526 Clouds 13 1015 76 10000 4.1 240 16:19 31.01.2020
3527 Clouds 13 1015 76 10000 4.1 210 15:58 31.01.2020
3528 Clouds 13 1015 76 10000 4.1 210 15:40 31.01.2020
3529 Clouds 13 1015 76 10000 4.1 230 15:20 31.01.2020
3530 Clouds 13 1014 76 10000 3.6 220 14:44 31.01.2020
3531 Clouds 13 1014 76 10000 5.7 240 14:24 31.01.2020
3532 Clouds 13 1014 71 10000 6.7 250 13:56 31.01.2020
3533 Clouds 13 1015 71 10000 7.2 250 13:38 31.01.2020
3534 Clouds 13 1015 71 10000 7.2 250 13:20 31.01.2020
3535 Clouds 13 1015 76 10000 6.2 240 12:44 31.01.2020
3536 Clouds 12 1015 76 10000 5.7 240 12:24 31.01.2020
3537 Clouds 12 1015 82 10000 5.1 230 11:55 31.01.2020
3538 Clouds 12 1014 82 10000 4.6 230 11:37 31.01.2020
3539 Clouds 12 1014 82 10000 4.6 230 11:19 31.01.2020
3540 Clouds 12 1014 87 10000 5.1 230 10:43 31.01.2020
3541 Clouds 11 1014 87 10000 3.1 230 10:22 31.01.2020
3542 Clouds 11 1014 87 10000 3.1 230 10:22 31.01.2020
3543 Clouds 11 1014 81 10000 3.1 240 09:58 31.01.2020
3544 Rain 11 1014 87 8000 3.1 240 09:39 31.01.2020
3545 Rain 11 1014 87 8000 3.1 240 09:39 31.01.2020
3546 Rain 11 1014 87 8000 3.1 240 09:19 31.01.2020
3547 Rain 11 1013 87 10000 3.6 240 08:53 31.01.2020
3548 Clouds 11 1013 81 10000 4.1 240 08:28 31.01.2020
3549 Clouds 11 1012 81 10000 5.1 230 07:58 31.01.2020
3550 Clouds 11 1012 81 10000 5.1 240 07:39 31.01.2020
3551 Clouds 11 1012 81 10000 5.1 240 07:18 31.01.2020
3552 Clouds 10 1011 87 10000 4.6 220 06:27 31.01.2020
3553 Clouds 11 1011 87 10000 4.6 220 06:27 31.01.2020
3554 Clouds 10 1011 87 10000 4.1 220 05:50 31.01.2020
3555 Clouds 10 1011 87 10000 3.6 230 04:57 31.01.2020
3556 Clouds 10 1011 87 10000 3.6 220 03:29 31.01.2020
3557 Clouds 9 1010 87 10000 3.1 210 01:40 31.01.2020
3558 Clouds 9 1010 87 10000 3.6 210 00:47 31.01.2020
3559 Clouds 9 1010 87 10000 3.6 210 00:28 31.01.2020
3560 Clouds 8 1010 87 10000 3.1 220 23:58 30.01.2020
3561 Clouds 8 1010 93 10000 2.6 210 23:26 30.01.2020
3562 Rain 7 1010 87 10000 3.6 210 22:58 30.01.2020
3563 Clouds 7 1010 87 10000 3.6 210 22:38 30.01.2020
3564 Clouds 7 1010 87 10000 3.6 210 22:19 30.01.2020
3565 Clouds 7 1010 87 10000 2.6 200 21:57 30.01.2020
3566 Clouds 7 1010 87 10000 4.1 200 21:39 30.01.2020
3567 Rain 7 1010 81 10000 2.6 220 21:18 30.01.2020
3568 Rain 7 1010 81 10000 2.6 220 20:56 30.01.2020
3569 Rain 7 1010 81 10000 2.6 210 20:37 30.01.2020
3570 Rain 7 1010 70 10000 4.1 210 20:19 30.01.2020
3571 Clouds 7 1010 61 10000 2.6 200 19:42 30.01.2020
3572 Clouds 8 1010 61 10000 2.6 200 19:19 30.01.2020
3573 Clouds 8 1010 61 10000 3.6 180 18:58 30.01.2020
3574 Clouds 8 1010 61 10000 3.6 180 18:58 30.01.2020
3575 Clouds 8 1010 61 10000 2.6 170 18:36 30.01.2020
3576 Clouds 8 1010 61 10000 2.6 170 18:18 30.01.2020
3577 Clouds 8 1011 61 10000 2.1 160 17:41 30.01.2020
3578 Clouds 8 1011 57 10000 2.1 140 17:19 30.01.2020
3579 Clouds 8 1011 57 10000 2.6 190 16:58 30.01.2020
3580 Clouds 8 1012 57 10000 2.6 190 16:39 30.01.2020
3581 Clouds 8 1012 57 10000 2.6 190 16:21 30.01.2020
3582 Clouds 9 1012 53 10000 2.6 200 15:44 30.01.2020
3583 Clouds 9 1012 53 10000 2.6 220 15:21 30.01.2020
3584 Clouds 9 1013 57 10000 2.6 210 14:58 30.01.2020
3585 Clouds 9 1013 57 10000 3.1 220 14:39 30.01.2020
3586 Clouds 9 1013 57 10000 3.1 220 14:21 30.01.2020
3587 Clouds 9 1014 66 10000 2.6 230 13:42 30.01.2020
3588 Clouds 9 1014 66 10000 2.6 230 13:24 30.01.2020
3589 Clouds 8 1015 65 10000 2.6 220 12:57 30.01.2020
3590 Clouds 8 1015 70 10000 2.1 190 12:38 30.01.2020
3591 Clouds 8 1015 70 10000 2.1 190 12:20 30.01.2020
3592 Clouds 8 1016 70 10000 2.1 200 11:41 30.01.2020
3593 Clouds 7 1016 75 10000 1.5 200 11:41 30.01.2020
3594 Clouds 8 1016 70 10000 2.1 200 11:41 30.01.2020
3595 Clouds 7 1016 75 10000 1.5 200 11:23 30.01.2020
3596 Clouds 7 1016 75 10000 2.1 180 10:59 30.01.2020
3597 Clouds 6 1016 75 10000 2.1 180 10:40 30.01.2020
3598 Clouds 6 1016 80 10000 2.1 190 10:21 30.01.2020
3599 Clouds 5 1016 80 10000 2.1 180 09:46 30.01.2020
3600 Clouds 5 1016 82 10000 1.5 80 09:27 30.01.2020
3601 Clouds 4 1016 86 10000 1.5 260 08:57 30.01.2020
3602 Clouds 4 1016 86 10000 2.1 200 08:37 30.01.2020
3603 Clouds 4 1016 86 10000 2.1 200 08:18 30.01.2020
3604 Clouds 3 1016 86 10000 2.1 190 07:48 30.01.2020
3605 Clouds 3 1016 80 10000 2.1 200 07:20 30.01.2020
3606 Clouds 4 1017 80 10000 2.1 210 06:46 30.01.2020
3607 Clouds 4 1017 80 10000 2.1 210 06:27 30.01.2020
3608 Clouds 4 1016 80 10000 2.6 220 05:43 30.01.2020
3609 Clouds 4 1017 80 10000 2.6 200 05:19 30.01.2020
3610 Clouds 4 1017 80 10000 2.6 220 03:52 30.01.2020
3611 Clouds 4 1017 80 10000 1.5 230 03:34 30.01.2020
3612 Clouds 4 1018 80 10000 2.6 220 01:57 30.01.2020
3613 Clouds 3 1018 86 10000 2.6 220 00:40 30.01.2020
3614 Clouds 3 1018 86 10000 2.6 220 00:20 30.01.2020
3615 Rain 3 1017 93 10000 4.6 260 23:45 29.01.2020
3616 Rain 3 1017 85 10000 2.6 260 23:21 29.01.2020
3617 Rain 3 1017 85 10000 2.6 260 23:21 29.01.2020
3618 Rain 3 1017 85 10000 2.6 260 23:21 29.01.2020
3619 Rain 3 1017 93 10000 1 0 22:56 29.01.2020
3620 Rain 3 1016 93 10000 2.1 210 22:38 29.01.2020
3621 Rain 3 1016 93 10000 2.1 210 22:19 29.01.2020
3622 Rain 3 1016 93 10000 2.1 210 22:19 29.01.2020
3623 Clouds 3 1016 93 10000 4.6 250 21:57 29.01.2020
3624 Clouds 3 1016 86 10000 4.6 260 21:38 29.01.2020
3625 Clouds 3 1016 86 10000 4.6 260 21:19 29.01.2020
3626 Rain 3 1016 86 10000 6.2 260 20:57 29.01.2020
3627 Clouds 3 1016 86 10000 5.1 240 20:38 29.01.2020
3628 Clouds 3 1016 86 10000 5.1 240 20:19 29.01.2020
3629 Clouds 3 1016 86 10000 5.1 240 20:19 29.01.2020
3630 Rain 3 1015 86 10000 3.6 250 19:55 29.01.2020
3631 Clouds 3 1015 84 10000 3.1 250 19:37 29.01.2020
3632 Clouds 3 1015 84 10000 3.1 250 19:18 29.01.2020
3633 Clouds 3 1014 93 10000 3.6 250 18:46 29.01.2020
3634 Rain 3 1014 93 10000 5.7 260 18:19 29.01.2020
3635 Rain 3 1013 86 10000 6.2 250 17:57 29.01.2020
3636 Rain 3 1013 86 10000 4.1 250 17:38 29.01.2020
3637 Rain 3 1013 86 10000 4.1 250 17:20 29.01.2020
3638 Rain 4 1012 86 8000 7.2 300 16:41 29.01.2020
3639 Rain 4 1011 75 10000 4.6 230 16:23 29.01.2020
3640 Rain 4 1011 75 10000 5.1 230 15:55 29.01.2020
3641 Rain 4 1011 79 10000 5.7 240 15:37 29.01.2020
3642 Rain 4 1011 79 10000 5.7 240 15:18 29.01.2020
3643 Clouds 5 1011 75 10000 4.1 240 14:42 29.01.2020
3644 Clouds 4 1011 75 10000 4.1 240 14:20 29.01.2020
3645 Clouds 4 1011 75 10000 4.1 230 13:54 29.01.2020
3646 Clouds 4 1011 77 10000 4.1 230 13:36 29.01.2020
3647 Clouds 4 1011 81 10000 4.1 230 13:18 29.01.2020
3648 Clouds 4 1011 81 10000 3.6 210 12:54 29.01.2020
3649 Clouds 4 1011 81 10000 4.1 210 12:36 29.01.2020
3650 Clouds 4 1011 81 10000 3.1 200 12:18 29.01.2020
3651 Clouds 4 1011 81 10000 3.1 200 11:44 29.01.2020
3652 Clouds 4 1011 80 10000 3.1 210 11:20 29.01.2020
3653 Clouds 3 1010 74 10000 4.1 220 10:46 29.01.2020
3654 Clouds 3 1010 74 10000 4.1 220 10:25 29.01.2020
3655 Clouds 2 1010 80 10000 2.6 200 09:58 29.01.2020
3656 Clouds 2 1010 80 10000 2.6 200 09:39 29.01.2020
3657 Clouds 2 1010 80 10000 2.6 200 09:20 29.01.2020
3658 Clouds 2 1010 74 10000 2.6 220 08:56 29.01.2020
3659 Clouds 2 1009 74 10000 2.1 220 08:37 29.01.2020
3660 Clouds 2 1009 74 10000 2.1 220 08:18 29.01.2020
3661 Clouds 2 1009 80 10000 4.6 260 07:43 29.01.2020
3662 Clouds 2 1008 80 10000 6.7 260 07:21 29.01.2020
3663 Snow 2 1008 74 10000 9.3 260 06:38 29.01.2020
3664 Snow 2 1008 74 10000 9.3 260 06:19 29.01.2020
3665 Snow 2 1007 83 10000 8.2 260 05:52 29.01.2020
3666 Snow 2 1007 83 10000 6.2 240 05:33 29.01.2020
3667 Clouds 2 1005 83 10000 9.3 270 04:39 29.01.2020
3668 Clouds 2 1005 83 10000 9.3 270 03:59 29.01.2020
3669 Snow 1 1003 100 6000 2.6 210 02:38 29.01.2020
3670 Snow 2 1003 87 8000 4.6 220 01:27 29.01.2020
3671 Clouds 2 1004 86 10000 1.5 110 00:39 29.01.2020
3672 Clouds 2 1004 86 10000 1.5 110 00:21 29.01.2020
3673 Clouds 2 1005 80 10000 2.1 210 23:40 28.01.2020
3674 Clouds 2 1005 80 10000 2.1 210 23:20 28.01.2020
3675 Clouds 2 1005 80 10000 3.1 200 22:56 28.01.2020
3676 Clouds 2 1006 80 10000 3.1 180 22:36 28.01.2020
3677 Clouds 2 1006 80 10000 3.1 180 22:18 28.01.2020
3678 Clouds 2 1006 80 10000 3.1 180 22:18 28.01.2020
3679 Clouds 2 1006 74 10000 1.5 180 21:39 28.01.2020
3680 Clouds 2 1006 74 10000 1.5 180 21:20 28.01.2020
3681 Clouds 2 1006 80 10000 2.6 220 20:46 28.01.2020
3682 Clouds 2 1006 80 10000 2.6 220 20:28 28.01.2020
3683 Clouds 2 1005 73 10000 3.6 250 19:58 28.01.2020
3684 Clouds 2 1004 73 10000 7.2 240 19:38 28.01.2020
3685 Clouds 2 1004 73 10000 7.2 240 19:19 28.01.2020
3686 Snow 3 1004 74 10000 4.1 220 18:57 28.01.2020
3687 Clouds 3 1004 74 10000 5.1 230 18:38 28.01.2020
3688 Clouds 3 1004 74 10000 5.1 230 18:20 28.01.2020
3689 Clouds 4 1004 73 10000 6.7 240 17:55 28.01.2020
3690 Clouds 4 1003 69 10000 7.2 240 17:36 28.01.2020
3691 Clouds 4 1003 69 10000 7.2 240 17:18 28.01.2020
3692 Clouds 4 1002 69 10000 7.7 250 16:44 28.01.2020
3693 Clouds 5 1002 64 10000 8.2 250 16:26 28.01.2020
3694 Rain 4 1002 64 10000 7.7 240 15:59 28.01.2020
3695 Rain 4 1002 64 10000 7.7 240 15:40 28.01.2020
3696 Rain 4 1001 69 10000 11.3 250 15:18 28.01.2020
3697 Snow 4 1001 64 3500 15.4 250 14:44 28.01.2020
3698 Snow 4 1001 58 3500 15.4 250 14:20 28.01.2020
3699 Rain 5 1001 69 10000 9.3 240 13:45 28.01.2020
3700 Rain 6 1001 70 10000 9.3 260 13:25 28.01.2020
3701 Rain 5 1000 80 10000 10.8 270 12:58 28.01.2020
3702 Rain 5 1000 75 10000 6.7 240 12:40 28.01.2020
3703 Rain 6 1000 75 10000 6.7 240 12:22 28.01.2020
3704 Clouds 5 1000 70 10000 7.2 250 11:43 28.01.2020
3705 Clouds 5 999 80 10000 8.2 270 11:23 28.01.2020
3706 Rain 5 999 75 10000 9.8 230 10:56 28.01.2020
3707 Rain 5 999 75 10000 9.8 230 10:56 28.01.2020
3708 Rain 5 998 87 10000 5.1 220 10:38 28.01.2020
3709 Rain 5 998 87 10000 5.1 220 10:18 28.01.2020
3710 Clouds 6 998 81 10000 4.6 210 09:42 28.01.2020
3711 Clouds 6 998 81 10000 4.6 210 09:21 28.01.2020
3712 Rain 6 999 81 10000 5.1 210 08:57 28.01.2020
3713 Clouds 6 999 81 10000 5.1 190 08:39 28.01.2020
3714 Clouds 6 999 81 10000 5.1 190 08:18 28.01.2020
3715 Clouds 6 1000 81 10000 5.1 190 07:37 28.01.2020
3716 Clouds 6 1000 81 10000 5.1 190 07:37 28.01.2020
3717 Clouds 5 1000 81 10000 4.6 200 06:50 28.01.2020
3718 Clouds 6 1001 81 10000 4.1 200 06:26 28.01.2020
3719 Clouds 5 1001 81 10000 3.6 220 05:54 28.01.2020
3720 Clouds 5 1001 86 10000 3.1 210 05:26 28.01.2020
3721 Clouds 6 1002 81 10000 6.2 210 04:28 28.01.2020
3722 Rain 6 1002 81 10000 6.2 200 02:58 28.01.2020
3723 Rain 6 1002 75 10000 5.7 200 02:25 28.01.2020
3724 Clouds 6 1003 75 10000 4.1 200 01:57 28.01.2020
3725 Clouds 6 1003 75 10000 4.1 200 01:57 28.01.2020
3726 Clouds 6 1004 75 10000 5.1 190 01:26 28.01.2020
3727 Rain 6 1004 81 10000 5.1 200 00:51 28.01.2020
3728 Rain 6 1005 81 10000 5.1 200 00:29 28.01.2020
3729 Rain 6 1005 81 10000 5.7 200 23:51 27.01.2020
3730 Rain 6 1006 81 10000 3.1 200 23:30 27.01.2020
3731 Rain 6 1006 81 10000 4.1 200 22:56 27.01.2020
3732 Rain 6 1006 81 10000 4.1 210 22:38 27.01.2020
3733 Rain 6 1006 81 10000 4.1 210 22:19 27.01.2020
3734 Rain 6 1007 75 10000 3.1 220 21:55 27.01.2020
3735 Rain 6 1007 70 10000 3.6 210 21:37 27.01.2020
3736 Rain 6 1007 70 10000 3.6 210 21:18 27.01.2020
3737 Clouds 6 1008 70 10000 3.1 200 20:43 27.01.2020
3738 Clouds 6 1008 70 10000 3.1 200 20:22 27.01.2020
3739 Clouds 6 1008 70 10000 3.1 200 19:59 27.01.2020
3740 Rain 6 1008 65 10000 3.1 220 19:41 27.01.2020
3741 Rain 6 1008 87 10000 2.6 200 19:22 27.01.2020
3742 Clouds 6 1009 75 10000 1.5 170 18:56 27.01.2020
3743 Clouds 6 1009 75 10000 2.1 160 18:38 27.01.2020
3744 Clouds 6 1009 75 10000 2.1 160 18:19 27.01.2020
3745 Clouds 7 1009 75 10000 3.1 170 17:39 27.01.2020
3746 Clouds 7 1010 70 10000 3.6 170 17:21 27.01.2020
3747 Clouds 7 1010 70 10000 3.6 170 16:59 27.01.2020
3748 Rain 8 1010 66 10000 3.6 180 16:41 27.01.2020
3749 Rain 8 1010 66 10000 3.6 180 16:23 27.01.2020
3750 Clouds 8 1010 61 10000 3.6 200 15:55 27.01.2020
3751 Clouds 8 1011 61 10000 3.1 210 15:37 27.01.2020
3752 Clouds 9 1011 57 10000 2.6 220 15:19 27.01.2020
3753 Clouds 9 1011 61 10000 3.1 210 15:19 27.01.2020
3754 Clouds 9 1011 57 10000 2.6 220 14:54 27.01.2020
3755 Clouds 9 1011 61 10000 4.1 200 14:36 27.01.2020
3756 Clouds 9 1011 61 10000 4.1 200 14:18 27.01.2020
3757 Clouds 9 1012 61 10000 2.6 180 13:41 27.01.2020
3758 Clouds 9 1012 61 10000 2.6 180 13:20 27.01.2020
3759 Clouds 9 1013 66 10000 2.6 140 12:56 27.01.2020
3760 Clouds 9 1014 70 10000 2.6 140 12:37 27.01.2020
3761 Clouds 8 1014 70 10000 2.6 140 12:19 27.01.2020
3762 Clouds 7 1014 70 10000 3.1 180 11:41 27.01.2020
3763 Clouds 7 1014 70 10000 3.1 180 11:21 27.01.2020
3764 Clouds 6 1015 80 10000 2.1 170 10:43 27.01.2020
3765 Clouds 5 1015 80 10000 2.1 170 10:25 27.01.2020
3766 Clouds 5 1015 86 10000 2.6 190 09:57 27.01.2020
3767 Clouds 4 1016 86 10000 1 0 09:38 27.01.2020
3768 Clouds 4 1016 86 10000 1 0 09:18 27.01.2020
3769 Clouds 3 1016 86 10000 1 0 08:46 27.01.2020
3770 Clouds 3 1016 86 10000 1 0 08:22 27.01.2020
3771 Clouds 3 1016 93 10000 1.5 200 07:55 27.01.2020
3772 Clouds 3 1016 86 10000 1 0 07:35 27.01.2020
3773 Clouds 2 1016 90 10000 0.5 0 06:55 27.01.2020
3774 Clouds 2 1016 90 10000 1 0 06:27 27.01.2020
3775 Clouds 2 1016 93 10000 1 0 05:37 27.01.2020
3776 Clouds 2 1016 93 10000 1 0 05:37 27.01.2020
3777 Clouds 2 1017 93 10000 0.5 0 04:20 27.01.2020
3778 Clouds 1 1017 91 10000 1.93 194 03:27 27.01.2020
3779 Clouds 1 1018 90 10000 1 0 01:32 27.01.2020
3780 Clouds 1 1018 90 10000 0.5 0 00:59 27.01.2020
3781 Clouds 1 1018 100 10000 0.5 0 00:38 27.01.2020
3782 Clouds 1 1018 100 10000 0.5 0 00:19 27.01.2020
3783 Clouds 1 1018 90 10000 0.5 0 23:42 26.01.2020
3784 Clouds 1 1018 88 10000 0.5 0 23:20 26.01.2020
3785 Clouds 1 1018 88 10000 0.5 160 22:57 26.01.2020
3786 Clouds 1 1018 88 10000 1 280 22:37 26.01.2020
3787 Clouds 1 1018 88 10000 1 280 22:19 26.01.2020
3788 Clouds 1 1018 88 10000 0.5 0 21:57 26.01.2020
3789 Clouds 1 1018 88 10000 1 290 21:38 26.01.2020
3790 Clouds 1 1018 88 10000 1 290 21:20 26.01.2020
3791 Clouds 2 1018 88 10000 1.5 270 20:57 26.01.2020
3792 Clouds 2 1018 88 10000 1.5 280 20:38 26.01.2020
3793 Clouds 1 1018 84 10000 1.5 280 20:18 26.01.2020
3794 Clouds 2 1017 84 10000 2.1 290 19:57 26.01.2020
3795 Clouds 2 1017 86 10000 0.5 0 19:37 26.01.2020
3796 Clouds 2 1017 86 10000 0.5 0 19:18 26.01.2020
3797 Clouds 3 1017 84 10000 1 0 18:54 26.01.2020
3798 Clouds 3 1017 81 10000 2.6 320 18:36 26.01.2020
3799 Clouds 4 1017 81 10000 2.6 320 18:18 26.01.2020
3800 Clouds 4 1017 75 10000 1 320 17:54 26.01.2020
3801 Clouds 5 1017 75 10000 1 0 17:36 26.01.2020
3802 Clouds 6 1017 75 10000 1 0 17:18 26.01.2020
3803 Clouds 6 1017 75 10000 1 0 16:54 26.01.2020
3804 Clouds 7 1017 75 10000 1.5 50 16:36 26.01.2020
3805 Clouds 7 1017 75 10000 1.5 50 16:18 26.01.2020
3806 Clouds 7 1026 90 0 0.45 114 15:41 26.01.2020
3807 Clouds 7 1026 90 0 0.45 114 15:19 26.01.2020
3808 Clouds 7 1017 87 0 1.08 105 14:41 26.01.2020
3809 Clouds 6 1026 90 0 0.45 114 14:23 26.01.2020
3810 Clouds 6 1017 88 0 0.65 120 13:59 26.01.2020
3811 Clouds 6 1026 90 0 0.45 114 13:59 26.01.2020
3812 Clouds 6 1026 90 0 0.45 114 13:38 26.01.2020
3813 Clouds 6 1026 90 0 0.45 114 13:18 26.01.2020
3814 Clouds 5 1019 83 0 0.73 116 13:18 26.01.2020
3815 Clouds 5 1026 90 0 0.45 114 12:43 26.01.2020
3816 Clouds 5 1026 90 0 0.45 114 12:43 26.01.2020
3817 Clouds 5 1026 90 0 0.45 114 12:25 26.01.2020
3818 Clouds 4 1026 90 0 0.45 114 11:59 26.01.2020
3819 Clouds 3 1026 90 0 0.45 114 11:40 26.01.2020
3820 Clouds 2 1019 100 6000 0.5 0 11:19 26.01.2020
3821 Clouds 2 1019 100 6000 0.5 0 10:59 26.01.2020
3822 Clouds 1 1019 100 6000 0.5 0 10:39 26.01.2020
3823 Clouds 0 1019 100 6000 0.5 0 10:21 26.01.2020
3824 Mist 0 1019 92 5000 0.5 0 09:59 26.01.2020
3825 Mist 0 1019 92 5000 0.5 0 09:41 26.01.2020
3826 Mist 0 1019 100 4000 0.5 0 09:22 26.01.2020
3827 Mist -1 1019 100 2000 0.5 330 08:57 26.01.2020
3828 Fog -1 1019 100 700 1 330 08:38 26.01.2020
3829 Fog -1 1019 100 700 1 330 08:20 26.01.2020
3830 Fog -1 1019 100 500 1 310 07:47 26.01.2020
3831 Fog -1 1019 100 250 1 0 07:22 26.01.2020
3832 Fog -1 1019 100 6000 0.5 40 06:38 26.01.2020
3833 Fog -1 1019 100 6000 0.5 40 06:18 26.01.2020
3834 Mist -1 1019 100 5000 0.5 0 05:26 26.01.2020
3835 Mist 0 1019 100 4000 1 310 03:23 26.01.2020
3836 Clouds 0 1019 100 9000 0.5 0 02:24 26.01.2020
3837 Clouds 0 1020 100 10000 0.5 0 01:40 26.01.2020
3838 Clouds 0 1020 100 10000 0.5 0 01:21 26.01.2020
3839 Clouds 0 1020 92 10000 0.5 0 00:41 26.01.2020
3840 Clouds 0 1020 100 10000 0.5 0 00:20 26.01.2020
3841 Clouds 0 1020 93 0 0.81 148 23:39 25.01.2020
3842 Clouds 0 1020 93 0 1.18 143 23:20 25.01.2020
3843 Clouds 1 1020 93 0 1.18 143 22:56 25.01.2020
3844 Clouds 1 1020 93 0 1.18 143 22:36 25.01.2020
3845 Clouds 1 1021 84 0 1.18 143 22:18 25.01.2020
3846 Clouds 1 1022 87 0 1.18 143 21:41 25.01.2020
3847 Clouds 1 1020 92 0 1.18 143 21:23 25.01.2020
3848 Clouds 1 1020 92 0 1.18 143 21:23 25.01.2020
3849 Clouds 1 1022 87 0 1.18 143 20:56 25.01.2020
3850 Clouds 1 1020 91 0 1.18 143 20:38 25.01.2020
3851 Clouds 1 1022 87 0 0.76 169 20:20 25.01.2020
3852 Clouds 1 1020 90 0 0.72 163 19:44 25.01.2020
3853 Clouds 2 1020 99 0 0.72 163 19:20 25.01.2020
3854 Clouds 2 1026 90 0 0.45 114 18:59 25.01.2020
3855 Clouds 3 1026 90 0 0.45 114 18:41 25.01.2020
3856 Clouds 3 1026 90 0 0.45 114 18:20 25.01.2020
3857 Clouds 3 1026 90 0 0.45 114 17:54 25.01.2020
3858 Clouds 5 1026 90 0 0.45 114 17:36 25.01.2020
3859 Clouds 5 1026 90 0 0.45 114 17:18 25.01.2020
3860 Clouds 7 1026 90 0 0.45 114 16:42 25.01.2020
3861 Clouds 7 1026 90 0 0.45 114 16:22 25.01.2020
3862 Clouds 7 1026 90 0 0.45 114 15:56 25.01.2020
3863 Clouds 7 1026 90 0 0.45 114 15:37 25.01.2020
3864 Clouds 7 1026 90 0 0.45 114 15:19 25.01.2020
3865 Clouds 7 1026 90 0 0.45 114 14:41 25.01.2020
3866 Clouds 7 1026 90 0 0.45 114 14:19 25.01.2020
3867 Clouds 6 1022 78 0 0.96 32 13:44 25.01.2020
3868 Clouds 6 1026 90 0 0.45 114 13:25 25.01.2020
3869 Clouds 6 1022 86 7000 1 0 12:50 25.01.2020
3870 Clouds 5 1022 86 7000 1 0 12:30 25.01.2020
3871 Clouds 4 1022 73 8000 0.5 0 11:57 25.01.2020
3872 Clouds 3 1022 73 8000 1 0 11:38 25.01.2020
3873 Clouds 2 1022 85 8000 1 0 11:19 25.01.2020
3874 Clouds 1 1022 85 8000 1 0 10:42 25.01.2020
3875 Clouds 0 1022 92 8000 0.5 0 10:21 25.01.2020
3876 Clouds 0 1022 92 8000 0.5 0 09:59 25.01.2020
3877 Clouds -1 1022 92 9000 0.5 140 09:38 25.01.2020
3878 Clouds -1 1022 92 9000 0.5 340 09:19 25.01.2020
3879 Clouds -1 1021 92 9000 0.5 0 08:42 25.01.2020
3880 Clouds -1 1022 92 9000 0.5 340 08:42 25.01.2020
3881 Clouds -2 1021 100 10000 0.5 0 07:54 25.01.2020
3882 Clouds -2 1021 92 10000 0.5 210 07:28 25.01.2020
3883 Clouds -2 1021 100 10000 0.5 0 06:31 25.01.2020
3884 Clouds -2 1021 100 10000 1 0 05:57 25.01.2020
3885 Clouds -2 1021 100 10000 1 0 05:38 25.01.2020
3886 Clouds -2 1021 100 10000 1 0 05:38 25.01.2020
3887 Clouds -2 1021 92 10000 0.5 0 03:58 25.01.2020
3888 Clouds -2 1021 100 10000 1.5 280 03:39 25.01.2020
3889 Clouds -2 1021 92 10000 1.5 60 02:37 25.01.2020
3890 Clouds -2 1021 92 10000 1 0 01:57 25.01.2020
3891 Clear -1 1021 92 10000 1 300 01:23 25.01.2020
3892 Clear -1 1022 92 10000 1 0 00:39 25.01.2020
3893 Clear -1 1022 92 10000 1 0 00:18 25.01.2020
3894 Clear -1 1022 92 10000 1 0 23:42 24.01.2020
3895 Clouds -1 1022 82 10000 1 0 23:24 24.01.2020
3896 Clouds -1 1022 82 10000 1 190 22:47 24.01.2020
3897 Clouds -1 1022 92 10000 1 0 22:28 24.01.2020
3898 Clouds -1 1022 82 10000 1 0 21:59 24.01.2020
3899 Clouds -1 1022 92 10000 1 0 21:40 24.01.2020
3900 Clouds -1 1022 92 10000 1 0 21:19 24.01.2020
3901 Clouds 0 1022 82 10000 1 0 20:44 24.01.2020
3902 Clear 0 1022 80 10000 2.1 300 20:23 24.01.2020
3903 Clear 0 1022 86 10000 1.5 280 19:59 24.01.2020
3904 Clear 0 1022 86 10000 2.6 310 19:41 24.01.2020
3905 Clear 1 1022 86 10000 2.6 310 19:22 24.01.2020
3906 Clear 1 1022 80 10000 1 0 18:58 24.01.2020
3907 Clear 1 1022 80 10000 1 0 18:40 24.01.2020
3908 Clear 2 1022 80 10000 1 0 18:21 24.01.2020
3909 Clear 3 1021 74 10000 2.1 360 17:44 24.01.2020
3910 Clear 4 1021 74 10000 2.1 360 17:22 24.01.2020
3911 Clear 4 1022 69 10000 2.6 10 16:57 24.01.2020
3912 Clear 5 1022 60 10000 2.1 70 16:38 24.01.2020
3913 Clear 6 1022 60 10000 2.1 70 16:19 24.01.2020
3914 Clear 6 1022 70 10000 1 90 15:41 24.01.2020
3915 Clear 6 1022 70 10000 1 90 15:21 24.01.2020
3916 Clear 7 1022 60 10000 1.5 80 14:55 24.01.2020
3917 Clear 6 1022 60 10000 1.5 80 14:36 24.01.2020
3918 Clear 6 1022 46 10000 1.5 80 14:18 24.01.2020
3919 Clear 5 1023 74 10000 1 0 13:41 24.01.2020
3920 Clear 5 1023 74 10000 1 0 13:21 24.01.2020
3921 Clear 4 1023 74 10000 1.5 130 12:43 24.01.2020
3922 Clear 3 1024 74 10000 1.5 0 12:21 24.01.2020
3923 Clear 2 1024 47 10000 1.5 110 11:45 24.01.2020
3924 Clear 1 1024 80 9000 2.1 130 11:19 24.01.2020
3925 Clear 0 1024 80 9000 2.1 130 10:58 24.01.2020
3926 Clear 0 1024 80 9000 2.1 130 10:40 24.01.2020
3927 Clear -1 1024 92 8000 1.5 110 10:19 24.01.2020
3928 Clouds -2 1024 86 7000 1 0 09:41 24.01.2020
3929 Clouds -2 1024 100 6000 0.5 0 09:23 24.01.2020
3930 Mist -3 1024 100 5000 0.5 120 08:41 24.01.2020
3931 Mist -3 1024 100 5000 0.5 120 08:21 24.01.2020
3932 Clouds -3 1024 100 6000 0.5 90 08:00 24.01.2020
3933 Clouds -3 1024 100 8000 0.5 0 07:41 24.01.2020
3934 Clouds -3 1024 100 8000 0.5 0 07:18 24.01.2020
3935 Clouds -2 1024 92 9000 0.5 0 06:42 24.01.2020
3936 Clouds -2 1024 92 9000 0.5 210 06:18 24.01.2020
3937 Clouds -2 1024 92 9000 1 0 05:21 24.01.2020
3938 Clouds -1 1025 86 10000 1 0 03:29 24.01.2020
3939 Clouds -1 1025 86 10000 1.5 210 02:39 24.01.2020
3940 Clouds -1 1025 86 10000 2.1 190 02:19 24.01.2020
3941 Clouds -1 1025 86 10000 2.1 190 01:38 24.01.2020
3942 Clouds -1 1026 80 9000 2.6 180 00:42 24.01.2020
3943 Clouds -1 1026 80 9000 2.6 180 00:19 24.01.2020
3944 Clouds -1 1026 80 9000 2.6 190 23:41 23.01.2020
3945 Clouds -1 1026 80 9000 2.1 190 23:21 23.01.2020
3946 Clouds 0 1026 92 9000 1 0 22:58 23.01.2020
3947 Clouds 0 1026 86 9000 1 180 22:37 23.01.2020
3948 Clouds 0 1026 86 9000 1 180 22:37 23.01.2020
3949 Clouds 0 1026 86 9000 1 180 22:18 23.01.2020
3950 Clouds 0 1026 86 9000 1 140 21:55 23.01.2020
3951 Clouds 0 1026 92 9000 1 140 21:37 23.01.2020
3952 Clouds 0 1026 92 9000 1 140 21:19 23.01.2020
3953 Clouds 0 1026 92 7000 1.5 100 20:54 23.01.2020
3954 Clouds 0 1026 92 7000 1 80 20:36 23.01.2020
3955 Clouds 0 1026 92 7000 1 80 20:18 23.01.2020
3956 Clouds 0 1026 86 7000 1.5 70 19:42 23.01.2020
3957 Clouds 0 1026 92 7000 1.5 90 19:23 23.01.2020
3958 Clouds 0 1026 86 8000 3.6 60 18:57 23.01.2020
3959 Clouds 0 1026 86 8000 3.1 60 18:38 23.01.2020
3960 Clouds -1 1026 86 8000 3.1 60 18:19 23.01.2020
3961 Clouds 0 1026 86 8000 2.6 80 17:55 23.01.2020
3962 Clouds 0 1026 78 9000 3.6 80 17:37 23.01.2020
3963 Clouds 0 1026 64 9000 3.6 80 17:18 23.01.2020
3964 Clouds 0 1026 80 10000 3.6 80 16:39 23.01.2020
3965 Clouds 1 1027 86 10000 2.6 100 16:20 23.01.2020
3966 Clouds 1 1027 86 10000 2.6 100 16:20 23.01.2020
3967 Clouds 1 1027 86 10000 2.6 100 15:58 23.01.2020
3968 Clouds 1 1027 86 8000 1.5 30 15:39 23.01.2020
3969 Clouds 1 1027 86 8000 1.5 30 15:19 23.01.2020
3970 Clouds 1 1028 86 8000 2.1 350 14:59 23.01.2020
3971 Clouds 1 1028 64 9000 2.1 10 14:41 23.01.2020
3972 Clouds 1 1028 61 9000 2.1 10 14:22 23.01.2020
3973 Clouds 1 1029 61 9000 1.5 90 13:59 23.01.2020
3974 Clouds 1 1030 60 7000 1 0 13:37 23.01.2020
3975 Clouds 1 1030 60 7000 1 0 13:19 23.01.2020
3976 Mist 2 1030 86 4500 0.5 0 12:44 23.01.2020
3977 Mist 1 1030 86 4500 0.5 0 12:24 23.01.2020
3978 Mist 0 1031 92 3800 0.5 0 11:56 23.01.2020
3979 Mist 0 1031 92 3800 1 0 11:37 23.01.2020
3980 Mist 0 1031 92 3800 1 0 11:37 23.01.2020
3981 Mist -1 1031 92 3800 1 0 11:18 23.01.2020
3982 Mist -1 1031 92 4300 0.5 0 10:44 23.01.2020
3983 Mist -1 1031 92 5000 0.5 0 10:22 23.01.2020
3984 Mist -1 1031 92 5000 0.5 0 09:43 23.01.2020
3985 Mist -2 1031 92 5000 0.5 0 09:25 23.01.2020
3986 Mist -2 1031 92 4000 1 0 08:59 23.01.2020
3987 Mist -2 1031 92 4000 1 0 08:40 23.01.2020
3988 Fog -3 1031 92 3200 1.5 200 08:22 23.01.2020
3989 Fog -2 1031 92 4000 1 0 07:45 23.01.2020
3990 Fog -2 1031 92 4500 0.5 0 07:26 23.01.2020
3991 Fog -2 1031 92 4500 0.5 0 06:51 23.01.2020
3992 Fog -3 1032 92 3000 0.5 0 06:22 23.01.2020
3993 Fog -3 1032 92 1700 1 0 05:57 23.01.2020
3994 Fog -3 1033 100 2500 1 0 04:24 23.01.2020
3995 Fog -4 1034 100 400 0.5 0 02:34 23.01.2020
3996 Fog -4 1034 100 600 1 220 01:33 23.01.2020
3997 Fog -4 1034 100 1200 1 0 00:27 23.01.2020
3998 Fog -4 1034 100 1500 1 0 23:48 22.01.2020
3999 Mist -4 1034 92 4000 1 0 23:30 22.01.2020
4000 Mist -4 1034 92 5000 1 0 22:59 22.01.2020
4001 Clouds -3 1034 92 6000 2.1 330 22:41 22.01.2020
4002 Mist -3 1034 92 5000 1 0 22:41 22.01.2020
4003 Clouds -4 1034 92 6000 2.1 330 22:22 22.01.2020
4004 Clouds -3 1034 92 6000 1.5 240 21:40 22.01.2020
4005 Clouds -3 1034 92 6000 1.5 240 21:22 22.01.2020
4006 Mist -3 1034 92 4500 1 0 20:57 22.01.2020
4007 Mist -3 1034 92 4500 2.1 360 20:39 22.01.2020
4008 Mist -3 1034 92 4500 2.1 360 20:21 22.01.2020
4009 Mist -3 1033 92 5000 2.6 350 19:57 22.01.2020
4010 Mist -3 1033 92 5000 2.6 350 19:38 22.01.2020
4011 Clear -3 1033 86 6000 2.6 350 19:19 22.01.2020
4012 Clear -2 1033 86 6000 2.1 340 18:57 22.01.2020
4013 Clear -2 1033 92 6000 2.6 310 18:38 22.01.2020
4014 Clear -2 1033 92 6000 2.6 310 18:19 22.01.2020
4015 Mist -2 1033 92 4500 2.1 250 17:54 22.01.2020
4016 Mist -1 1033 92 4500 1 0 17:36 22.01.2020
4017 Mist -1 1033 92 4500 1 0 17:18 22.01.2020
4018 Mist 0 1033 86 3500 4.6 350 16:43 22.01.2020
4019 Mist 0 1033 86 3500 4.6 350 16:23 22.01.2020
4020 Clouds 0 1033 86 6000 4.6 350 15:58 22.01.2020
4021 Clear 0 1033 60 8000 4.1 360 15:40 22.01.2020
4022 Clear 0 1033 60 8000 4.1 360 15:40 22.01.2020
4023 Clear 1 1033 60 8000 4.1 360 15:22 22.01.2020
4024 Clear 1 1033 74 10000 1.5 70 14:57 22.01.2020
4025 Clouds 1 1033 74 10000 1.5 100 14:37 22.01.2020
4026 Clouds 1 1033 74 10000 1.5 100 14:18 22.01.2020
4027 Clouds 0 1033 48 10000 1.5 20 13:54 22.01.2020
4028 Clouds 0 1033 49 9000 1 0 13:36 22.01.2020
4029 Clouds 0 1033 49 9000 1 0 13:18 22.01.2020
4030 Clouds 1 1033 86 7000 1 0 12:55 22.01.2020
4031 Mist 1 1034 92 5000 1.5 140 12:37 22.01.2020
4032 Mist 0 1034 92 5000 1.5 140 12:18 22.01.2020
4033 Mist -1 1034 86 4000 1 0 11:56 22.01.2020
4034 Mist -1 1034 92 4000 1 0 11:37 22.01.2020
4035 Mist -2 1034 92 4000 1 0 11:18 22.01.2020
4036 Mist -3 1034 92 4500 1.5 50 10:44 22.01.2020
4037 Mist -3 1034 92 4500 1.5 50 10:20 22.01.2020
4038 Mist -3 1034 92 4000 1 0 09:44 22.01.2020
4039 Mist -3 1034 92 4000 1 0 09:25 22.01.2020
4040 Mist -3 1034 85 4000 1 0 08:58 22.01.2020
4041 Clouds -4 1034 92 6000 1 260 08:40 22.01.2020
4042 Clouds -4 1034 92 6000 1 260 08:21 22.01.2020
4043 Clouds -4 1034 92 7000 0.5 0 07:58 22.01.2020
4044 Clouds -4 1034 92 8000 0.5 220 07:40 22.01.2020
4045 Clouds -4 1034 92 8000 0.5 220 07:21 22.01.2020
4046 Clouds -4 1033 92 8000 2.6 290 06:31 22.01.2020
4047 Clouds -4 1034 92 8000 0.5 0 05:42 22.01.2020
4048 Clear -4 1034 92 9000 1 0 04:20 22.01.2020
4049 Clear -4 1034 92 9000 0.5 0 03:23 22.01.2020
4050 Clear -4 1034 92 9000 0.5 0 03:23 22.01.2020
4051 Clouds -3 1035 92 8000 0.5 160 02:32 22.01.2020
4052 Clouds -3 1036 92 7000 0.5 90 00:46 22.01.2020
4053 Clouds -3 1036 92 7000 0.5 90 00:27 22.01.2020
4054 Clear -3 1036 92 8000 1.5 40 23:55 21.01.2020
4055 Clouds -3 1036 92 8000 1 20 23:36 21.01.2020
4056 Clouds -3 1036 92 8000 1 20 23:18 21.01.2020
4057 Clouds -2 1036 92 9000 0.5 0 22:39 21.01.2020
4058 Clouds -2 1036 92 9000 0.5 0 22:20 21.01.2020
4059 Clouds -2 1036 92 9000 0.5 0 22:20 21.01.2020
4060 Clouds -2 1037 92 9000 1.5 80 21:57 21.01.2020
4061 Clouds -2 1037 92 9000 2.1 60 21:38 21.01.2020
4062 Clouds -2 1037 92 9000 2.1 60 21:20 21.01.2020
4063 Clouds -2 1037 92 9000 2.1 80 20:56 21.01.2020
4064 Clouds -2 1037 86 10000 2.6 60 20:37 21.01.2020
4065 Clouds -2 1037 86 10000 2.6 60 20:18 21.01.2020
4066 Clouds -2 1037 92 10000 2.1 90 19:56 21.01.2020
4067 Clouds -1 1037 86 10000 3.1 80 19:37 21.01.2020
4068 Clouds -1 1037 86 10000 2.1 90 19:19 21.01.2020
4069 Clouds -1 1037 86 10000 2.1 90 18:55 21.01.2020
4070 Clouds -1 1037 86 10000 2.6 90 18:37 21.01.2020
4071 Clouds -1 1037 86 10000 2.6 90 18:18 21.01.2020
4072 Clouds 0 1038 80 10000 2.1 60 17:44 21.01.2020
4073 Clouds 0 1038 80 10000 2.1 60 17:20 21.01.2020
4074 Clouds 1 1038 74 10000 2.1 50 16:59 21.01.2020
4075 Clouds 1 1038 69 10000 1.5 30 16:37 21.01.2020
4076 Clouds 1 1038 69 10000 1.5 30 16:19 21.01.2020
4077 Clouds 2 1038 64 10000 1 0 15:54 21.01.2020
4078 Clouds 2 1038 69 10000 1 0 15:36 21.01.2020
4079 Clouds 2 1038 69 10000 1 0 15:18 21.01.2020
4080 Clouds 2 1039 69 10000 1.5 0 14:38 21.01.2020
4081 Clouds 2 1039 69 10000 1.5 0 14:20 21.01.2020
4082 Clouds 2 1040 69 10000 1.5 170 13:40 21.01.2020
4083 Clouds 1 1040 69 10000 1.5 170 13:19 21.01.2020
4084 Clouds 1 1040 74 10000 1 0 12:45 21.01.2020
4085 Clouds 1 1040 74 10000 2.1 170 12:27 21.01.2020
4086 Clouds 0 1040 66 10000 2.1 150 11:58 21.01.2020
4087 Clouds 0 1040 66 10000 2.1 150 11:40 21.01.2020
4088 Clouds 0 1040 81 10000 1 0 11:21 21.01.2020
4089 Clouds -1 1040 86 10000 0.5 0 10:55 21.01.2020
4090 Clouds -1 1041 92 10000 0.5 0 10:37 21.01.2020
4091 Clouds -1 1041 92 10000 0.5 0 10:18 21.01.2020
4092 Clouds -2 1040 92 10000 0.5 0 09:41 21.01.2020
4093 Clouds -2 1040 92 10000 0.5 0 09:22 21.01.2020
4094 Clouds -2 1040 92 10000 1 330 08:50 21.01.2020
4095 Clouds -3 1040 92 10000 1 340 08:30 21.01.2020
4096 Clouds -3 1040 92 10000 0.5 0 07:59 21.01.2020
4097 Clouds -3 1040 92 10000 0.5 0 07:40 21.01.2020
4098 Clouds -3 1040 92 10000 0.5 0 07:22 21.01.2020
4099 Clouds -3 1040 92 10000 1 0 06:49 21.01.2020
4100 Clouds -3 1040 92 10000 1 0 06:49 21.01.2020
4101 Clouds -3 1040 100 10000 0.5 0 06:29 21.01.2020
4102 Clear -3 1040 92 10000 1 0 05:43 21.01.2020
4103 Clear -2 1041 100 10000 0.5 0 04:40 21.01.2020
4104 Clear -2 1041 92 10000 0.5 0 02:57 21.01.2020
4105 Clouds -2 1041 86 10000 1 0 01:56 21.01.2020
4106 Clouds -2 1041 86 10000 2.1 40 01:26 21.01.2020
4107 Clouds -1 1042 86 10000 3.1 360 00:37 21.01.2020
4108 Clouds -1 1042 86 10000 2.6 40 23:59 20.01.2020
4109 Clouds -1 1042 86 10000 2.6 40 23:41 20.01.2020
4110 Clouds -1 1042 86 10000 2.6 40 23:19 20.01.2020
4111 Clouds -1 1042 87 10000 3.6 10 22:58 20.01.2020
4112 Clouds -1 1042 87 10000 3.6 30 22:38 20.01.2020
4113 Clouds 0 1042 87 10000 3.6 30 22:20 20.01.2020
4114 Clouds 0 1042 87 10000 3.6 30 22:20 20.01.2020
4115 Clouds 0 1042 80 10000 3.1 30 21:58 20.01.2020
4116 Clouds 0 1042 87 10000 3.6 50 21:37 20.01.2020
4117 Clouds 0 1042 87 10000 3.6 50 21:19 20.01.2020
4118 Clouds 0 1042 87 10000 4.1 40 20:57 20.01.2020
4119 Clouds 0 1042 87 10000 4.1 40 20:38 20.01.2020
4120 Clouds 0 1043 85 10000 3.1 50 20:18 20.01.2020
4121 Clouds 1 1043 85 10000 2.6 80 19:56 20.01.2020
4122 Clouds 1 1043 85 10000 3.1 60 19:38 20.01.2020
4123 Clouds 1 1043 85 10000 3.1 60 19:18 20.01.2020
4124 Clouds 1 1042 74 10000 3.1 30 18:44 20.01.2020
4125 Clouds 1 1042 69 10000 3.1 30 18:23 20.01.2020
4126 Clouds 2 1042 69 10000 4.1 30 17:58 20.01.2020
4127 Clouds 3 1042 64 10000 4.1 40 17:36 20.01.2020
4128 Clouds 3 1042 64 10000 4.1 40 17:36 20.01.2020
4129 Clouds 3 1042 64 10000 4.1 40 17:18 20.01.2020
4130 Clouds 4 1043 64 10000 5.1 50 16:43 20.01.2020
4131 Clouds 4 1043 64 10000 5.1 50 16:25 20.01.2020
4132 Clouds 4 1043 56 10000 5.1 60 15:58 20.01.2020
4133 Clouds 4 1043 60 10000 4.6 70 15:39 20.01.2020
4134 Clouds 4 1043 60 10000 4.6 70 15:21 20.01.2020
4135 Clouds 4 1043 69 10000 4.1 50 14:44 20.01.2020
4136 Clouds 5 1043 64 10000 5.1 60 14:25 20.01.2020
4137 Clouds 5 1044 64 10000 5.1 70 13:59 20.01.2020
4138 Clouds 5 1044 64 10000 5.1 70 13:40 20.01.2020
4139 Clouds 4 1044 69 10000 5.1 70 13:22 20.01.2020
4140 Clouds 4 1044 64 10000 4.1 70 12:56 20.01.2020
4141 Clouds 4 1044 64 10000 4.1 70 12:38 20.01.2020
4142 Clouds 4 1044 64 10000 4.1 70 12:19 20.01.2020
4143 Clouds 3 1044 64 10000 1.5 80 11:43 20.01.2020
4144 Clouds 3 1044 64 10000 1.5 80 11:24 20.01.2020
4145 Clouds 2 1044 85 10000 0.5 0 10:57 20.01.2020
4146 Clouds 1 1044 85 10000 1 0 10:39 20.01.2020
4147 Clouds 1 1044 85 10000 1 0 10:19 20.01.2020
4148 Clouds 0 1044 85 10000 0.5 0 09:41 20.01.2020
4149 Clouds 0 1044 85 10000 0.5 0 09:41 20.01.2020
4150 Clouds 0 1044 85 10000 0.5 0 09:22 20.01.2020
4151 Clear 0 1044 100 9000 0.5 0 08:51 20.01.2020
4152 Clear 0 1043 100 9000 1 110 08:31 20.01.2020
4153 Clear 0 1043 92 10000 0.5 90 07:55 20.01.2020
4154 Clear 0 1043 92 10000 0.5 0 07:31 20.01.2020
4155 Clear -1 1043 92 10000 1.38 73 06:59 20.01.2020
4156 Clear -1 1043 92 10000 1.38 73 06:59 20.01.2020
4157 Clouds -1 1042 92 10000 0.5 0 06:34 20.01.2020
4158 Clouds 0 1042 92 10000 0.5 0 05:56 20.01.2020
4159 Clouds 0 1042 100 10000 1 0 05:37 20.01.2020
4160 Clouds 0 1042 100 10000 1 0 05:18 20.01.2020
4161 Clear 0 1042 100 10000 1 260 03:46 20.01.2020
4162 Clouds 0 1042 100 10000 3.1 340 01:58 20.01.2020
4163 Clouds 0 1042 92 10000 1 300 01:38 20.01.2020
4164 Clouds 0 1042 92 10000 1.5 330 00:46 20.01.2020
4165 Clouds 0 1042 92 10000 1.5 310 00:27 20.01.2020
4166 Clouds 1 1041 92 10000 1 0 23:56 19.01.2020
4167 Clouds 1 1041 92 10000 1.5 360 23:37 19.01.2020
4168 Clouds 1 1041 91 10000 1.5 360 23:18 19.01.2020
4169 Clouds 1 1041 91 10000 1.5 360 23:18 19.01.2020
4170 Clouds 1 1041 91 10000 1.5 360 22:55 19.01.2020
4171 Clouds 1 1040 91 10000 2.1 350 22:36 19.01.2020
4172 Clouds 1 1040 91 10000 2.1 350 22:18 19.01.2020
4173 Clouds 1 1040 91 10000 2.6 340 21:55 19.01.2020
4174 Clouds 1 1040 91 10000 2.6 340 21:55 19.01.2020
4175 Clouds 1 1040 91 10000 2.1 340 21:37 19.01.2020
4176 Clouds 1 1040 91 10000 2.1 340 21:19 19.01.2020
4177 Clouds 1 1039 91 10000 1 350 20:56 19.01.2020
4178 Clouds 2 1039 82 10000 1 320 20:37 19.01.2020
4179 Clouds 2 1039 89 10000 1 320 20:19 19.01.2020
4180 Clouds 1 1039 89 10000 1.5 310 19:55 19.01.2020
4181 Clouds 1 1038 89 10000 1 0 19:37 19.01.2020
4182 Clouds 1 1038 89 10000 1 0 19:19 19.01.2020
4183 Clouds 1 1038 89 10000 1 20 18:55 19.01.2020
4184 Clouds 1 1038 89 10000 1 0 18:37 19.01.2020
4185 Clouds 2 1038 89 10000 1 0 18:18 19.01.2020
4186 Clouds 2 1037 89 10000 1 0 17:57 19.01.2020
4187 Clouds 2 1037 89 10000 1.5 10 17:38 19.01.2020
4188 Clouds 2 1037 85 10000 1.5 10 17:19 19.01.2020
4189 Clouds 3 1036 85 10000 2.6 360 16:57 19.01.2020
4190 Rain 3 1036 85 10000 3.1 10 16:37 19.01.2020
4191 Rain 3 1036 85 10000 3.1 10 16:19 19.01.2020
4192 Clouds 3 1036 85 10000 3.1 360 15:56 19.01.2020
4193 Rain 3 1035 86 10000 3.6 360 15:37 19.01.2020
4194 Rain 3 1035 86 10000 3.6 360 15:18 19.01.2020
4195 Snow 3 1035 85 10000 3.1 350 14:56 19.01.2020
4196 Rain 3 1035 85 10000 3.1 350 14:37 19.01.2020
4197 Rain 3 1035 88 10000 3.1 350 14:18 19.01.2020
4198 Rain 3 1035 88 10000 3.1 350 14:18 19.01.2020
4199 Rain 3 1035 93 10000 3.6 350 13:54 19.01.2020
4200 Snow 3 1035 93 10000 3.1 320 13:36 19.01.2020
4201 Snow 2 1035 93 10000 3.1 320 13:18 19.01.2020
4202 Snow 2 1034 79 10000 3.1 350 12:42 19.01.2020
4203 Snow 2 1034 79 10000 2.6 350 12:23 19.01.2020
4204 Clouds 2 1034 79 10000 3.1 320 11:57 19.01.2020
4205 Clouds 2 1034 79 10000 3.1 320 11:39 19.01.2020
4206 Clouds 2 1034 94 10000 3.1 320 11:19 19.01.2020
4207 Clouds 1 1033 94 10000 2.6 310 10:55 19.01.2020
4208 Snow 1 1033 94 2000 3.1 320 10:37 19.01.2020
4209 Snow 1 1033 94 2000 3.1 320 10:18 19.01.2020
4210 Snow 1 1032 94 4800 4.1 330 09:41 19.01.2020
4211 Snow 1 1032 94 10000 3.6 320 09:23 19.01.2020
4212 Clouds 1 1032 94 10000 2.6 330 08:58 19.01.2020
4213 Clouds 1 1031 94 10000 3.1 310 08:39 19.01.2020
4214 Clouds 1 1031 96 10000 3.1 310 08:20 19.01.2020
4215 Clouds 1 1031 96 10000 1.5 310 07:42 19.01.2020
4216 Clouds 1 1031 96 10000 1.5 310 07:21 19.01.2020
4217 Snow 1 1030 96 8000 2.6 320 06:50 19.01.2020
4218 Snow 1 1030 80 10000 1 270 05:21 19.01.2020
4219 Clouds 1 1029 94 10000 1.5 260 02:43 19.01.2020
4220 Clouds 1 1029 80 10000 1 0 02:21 19.01.2020
4221 Clouds 2 1028 80 10000 3.1 290 01:25 19.01.2020
4222 Clouds 2 1028 92 10000 4.1 300 00:46 19.01.2020
4223 Clouds 2 1028 92 10000 4.6 290 00:28 19.01.2020
4224 Clouds 2 1028 92 10000 4.6 290 23:56 18.01.2020
4225 Clouds 2 1028 92 10000 3.1 290 23:38 18.01.2020
4226 Clouds 2 1028 92 10000 3.1 290 23:38 18.01.2020
4227 Clouds 2 1028 93 10000 3.1 290 23:19 18.01.2020
4228 Clouds 2 1028 93 10000 2.6 280 22:55 18.01.2020
4229 Clouds 2 1028 93 10000 2.1 260 22:37 18.01.2020
4230 Clouds 2 1028 93 10000 2.1 260 22:19 18.01.2020
4231 Clouds 2 1028 93 10000 3.1 270 21:57 18.01.2020
4232 Clouds 2 1027 93 10000 2.6 270 21:37 18.01.2020
4233 Clouds 2 1027 93 10000 2.6 270 21:19 18.01.2020
4234 Clouds 3 1027 93 10000 1 0 20:43 18.01.2020
4235 Clouds 2 1027 93 10000 2.1 290 20:21 18.01.2020
4236 Rain 3 1027 86 10000 0.5 0 19:58 18.01.2020
4237 Rain 3 1027 92 10000 4.1 300 19:40 18.01.2020
4238 Rain 3 1027 92 10000 4.1 300 19:22 18.01.2020
4239 Clouds 3 1027 92 10000 1.5 240 18:42 18.01.2020
4240 Clouds 3 1027 92 10000 4.6 270 18:22 18.01.2020
4241 Rain 3 1026 92 10000 6.2 290 17:56 18.01.2020
4242 Rain 3 1026 92 10000 1 0 17:37 18.01.2020
4243 Rain 4 1026 88 10000 1 0 17:19 18.01.2020
4244 Clouds 4 1026 75 10000 1.5 350 16:55 18.01.2020
4245 Clouds 4 1026 75 10000 1.5 350 16:55 18.01.2020
4246 Rain 4 1026 75 10000 2.1 280 16:36 18.01.2020
4247 Rain 4 1026 75 10000 2.1 280 16:18 18.01.2020
4248 Rain 4 1026 75 10000 2.1 280 16:18 18.01.2020
4249 Rain 4 1025 60 10000 5.1 270 15:41 18.01.2020
4250 Rain 4 1025 60 10000 5.1 270 15:23 18.01.2020
4251 Rain 4 1025 60 10000 3.6 230 14:57 18.01.2020
4252 Rain 5 1025 60 10000 4.1 230 14:39 18.01.2020
4253 Rain 5 1025 60 10000 4.1 230 14:18 18.01.2020
4254 Rain 5 1026 72 10000 4.6 230 13:44 18.01.2020
4255 Rain 5 1026 70 10000 3.6 230 13:26 18.01.2020
4256 Clouds 6 1026 73 10000 4.1 240 12:59 18.01.2020
4257 Clouds 6 1026 73 10000 4.1 240 12:40 18.01.2020
4258 Clouds 6 1026 70 10000 3.6 230 12:20 18.01.2020
4259 Clouds 5 1026 70 10000 2.6 210 11:44 18.01.2020
4260 Clouds 5 1027 75 10000 3.1 200 11:24 18.01.2020
4261 Clouds 5 1026 86 10000 2.6 200 10:57 18.01.2020
4262 Clouds 4 1026 80 10000 0.5 0 10:38 18.01.2020
4263 Clouds 4 1026 80 10000 0.5 0 10:20 18.01.2020
4264 Clouds 4 1026 84 10000 1.5 270 09:48 18.01.2020
4265 Clouds 4 1026 86 10000 0.5 0 09:30 18.01.2020
4266 Clouds 3 1026 86 10000 0.5 0 08:57 18.01.2020
4267 Clouds 3 1026 86 10000 0.5 0 08:39 18.01.2020
4268 Clouds 4 1026 86 10000 0.5 0 08:19 18.01.2020
4269 Clouds 4 1026 86 10000 1.5 230 07:50 18.01.2020
4270 Rain 4 1026 86 10000 2.6 260 07:31 18.01.2020
4271 Rain 4 1025 86 10000 3.1 240 06:48 18.01.2020
4272 Clouds 4 1025 93 10000 1 0 05:59 18.01.2020
4273 Clouds 5 1025 80 10000 1.5 220 05:24 18.01.2020
4274 Clouds 5 1024 86 10000 1 0 03:25 18.01.2020
4275 Clouds 6 1023 93 10000 1.5 260 01:56 18.01.2020
4276 Clouds 6 1022 93 10000 2.1 290 01:35 18.01.2020
4277 Clouds 6 1022 87 10000 1 0 00:38 18.01.2020
4278 Clouds 6 1022 87 10000 1 0 00:19 18.01.2020
4279 Clouds 6 1022 87 10000 1.5 240 23:44 17.01.2020
4280 Clouds 6 1022 93 10000 1 0 23:20 17.01.2020
4281 Clouds 7 1022 93 10000 1 0 23:20 17.01.2020
4282 Clouds 7 1021 87 10000 2.1 230 22:59 17.01.2020
4283 Clouds 7 1021 87 10000 2.1 230 22:40 17.01.2020
4284 Clouds 7 1021 87 10000 2.1 240 22:19 17.01.2020
4285 Rain 7 1021 87 10000 2.1 220 21:42 17.01.2020
4286 Clouds 7 1021 87 10000 2.1 230 21:24 17.01.2020
4287 Clouds 7 1020 87 10000 2.1 210 20:59 17.01.2020
4288 Clouds 7 1020 87 10000 2.6 210 20:40 17.01.2020
4289 Clouds 7 1020 87 10000 2.6 210 20:20 17.01.2020
4290 Rain 7 1020 87 10000 2.1 220 19:57 17.01.2020
4291 Rain 7 1020 87 10000 2.1 210 19:38 17.01.2020
4292 Rain 7 1020 87 10000 2.1 210 19:19 17.01.2020
4293 Rain 7 1020 81 10000 2.1 230 18:57 17.01.2020
4294 Rain 7 1019 81 10000 3.1 240 18:37 17.01.2020
4295 Rain 7 1019 81 10000 3.1 240 18:19 17.01.2020
4296 Rain 8 1019 70 10000 3.6 240 17:40 17.01.2020
4297 Rain 8 1019 70 10000 2.6 240 17:40 17.01.2020
4298 Rain 8 1019 70 10000 2.6 240 17:21 17.01.2020
4299 Rain 8 1019 81 10000 1 0 16:55 17.01.2020
4300 Clouds 9 1018 75 10000 1 0 16:36 17.01.2020
4301 Clouds 9 1018 75 10000 1 0 16:18 17.01.2020
4302 Clouds 9 1018 75 10000 1 0 15:43 17.01.2020
4303 Clouds 9 1018 81 10000 0.5 0 15:25 17.01.2020
4304 Clouds 9 1018 70 10000 1 0 14:44 17.01.2020
4305 Clouds 9 1019 66 10000 1 0 14:25 17.01.2020
4306 Clouds 9 1019 81 10000 0.5 0 13:56 17.01.2020
4307 Clouds 9 1019 81 10000 1.5 80 13:37 17.01.2020
4308 Clouds 9 1019 81 10000 1.5 80 13:18 17.01.2020
4309 Clouds 8 1020 86 10000 1 0 12:42 17.01.2020
4310 Clouds 7 1020 86 10000 1 0 12:21 17.01.2020
4311 Clouds 6 1020 86 10000 1 0 11:38 17.01.2020
4312 Clear 5 1020 80 10000 0.5 90 11:18 17.01.2020
4313 Clear 3 1020 80 10000 1 100 10:43 17.01.2020
4314 Clear 3 1020 80 10000 0.5 0 10:23 17.01.2020
4315 Clear 2 1020 100 10000 0.5 0 09:58 17.01.2020
4316 Clear 2 1020 92 10000 0.5 0 09:39 17.01.2020
4317 Clear 2 1020 92 10000 0.5 0 09:19 17.01.2020
4318 Fog 2 1020 100 10000 1 60 08:43 17.01.2020
4319 Fog 1 1020 100 10000 1.5 80 08:24 17.01.2020
4320 Clear 0 1021 100 10000 1.5 60 07:54 17.01.2020
4321 Clear 1 1021 100 10000 1.5 80 07:31 17.01.2020
4322 Clear 0 1021 100 10000 1 100 06:58 17.01.2020
4323 Clear 0 1021 100 10000 1 100 06:40 17.01.2020
4324 Clear 1 1021 91 10000 0.5 0 05:53 17.01.2020
4325 Clear 1 1026 90 0 0.45 114 03:39 17.01.2020
4326 Clear 2 1026 90 0 0.45 114 02:52 17.01.2020
4327 Clear 3 1026 90 0 0.45 114 01:47 17.01.2020
4328 Clear 3 1026 90 0 0.45 114 01:29 17.01.2020
4329 Clear 3 1026 90 0 0.45 114 00:50 17.01.2020
4330 Clear 3 1023 84 0 1.96 132 00:26 17.01.2020
4331 Clear 4 1024 80 10000 1 80 23:44 16.01.2020
4332 Clear 4 1024 80 10000 1 80 23:26 16.01.2020
4333 Clear 4 1024 86 10000 0.5 0 22:58 16.01.2020
4334 Clear 5 1024 86 10000 0.5 0 22:40 16.01.2020
4335 Clear 5 1025 86 10000 0.5 260 22:20 16.01.2020
4336 Clear 5 1025 86 10000 1.5 80 21:55 16.01.2020
4337 Clear 5 1025 80 10000 0.5 0 21:37 16.01.2020
4338 Clear 6 1025 80 10000 0.5 0 21:18 16.01.2020
4339 Clear 6 1025 86 10000 1 0 20:56 16.01.2020
4340 Clear 6 1026 86 10000 2.1 100 20:36 16.01.2020
4341 Clear 6 1026 86 10000 2.1 100 20:18 16.01.2020
4342 Clear 6 1026 86 10000 2.1 100 20:18 16.01.2020
4343 Clear 7 1026 81 10000 1.5 110 19:41 16.01.2020
4344 Clear 7 1026 81 10000 1.5 110 19:23 16.01.2020
4345 Clear 7 1026 81 10000 1.5 90 18:58 16.01.2020
4346 Clear 8 1026 81 10000 1.5 90 18:40 16.01.2020
4347 Clear 8 1026 75 10000 2.1 80 18:21 16.01.2020
4348 Clear 8 1026 81 10000 2.6 90 17:59 16.01.2020
4349 Clear 8 1026 71 10000 2.6 80 17:41 16.01.2020
4350 Clear 10 1026 71 10000 2.6 80 17:21 16.01.2020
4351 Clear 11 1026 66 10000 3.1 60 16:56 16.01.2020
4352 Clear 11 1026 58 10000 2.6 60 16:37 16.01.2020
4353 Clear 11 1026 58 10000 2.6 60 16:19 16.01.2020
4354 Clear 11 1026 58 10000 1.5 50 15:44 16.01.2020
4355 Clouds 11 1026 58 10000 1.5 70 15:22 16.01.2020
4356 Clouds 12 1026 54 10000 2.1 80 14:56 16.01.2020
4357 Clouds 12 1026 58 10000 1.5 70 14:37 16.01.2020
4358 Clouds 12 1026 58 10000 1.5 70 14:19 16.01.2020
4359 Clouds 12 1027 58 10000 1.5 70 13:44 16.01.2020
4360 Clouds 12 1027 62 10000 1.5 80 13:25 16.01.2020
4361 Clouds 12 1028 62 10000 1 0 12:46 16.01.2020
4362 Clouds 11 1028 66 10000 1 0 12:28 16.01.2020
4363 Clouds 10 1028 70 10000 1 80 11:57 16.01.2020
4364 Clouds 10 1029 76 10000 0.5 90 11:39 16.01.2020
4365 Clouds 9 1029 76 10000 0.5 90 11:21 16.01.2020
4366 Clouds 8 1029 81 10000 1 0 10:39 16.01.2020
4367 Clouds 8 1029 81 10000 1 0 10:21 16.01.2020
4368 Clouds 7 1028 81 10000 0.5 0 09:58 16.01.2020
4369 Clouds 7 1028 81 10000 1 70 09:40 16.01.2020
4370 Clouds 7 1028 81 10000 1 70 09:22 16.01.2020
4371 Clouds 7 1028 75 10000 1 90 08:53 16.01.2020
4372 Clouds 7 1028 81 10000 1.23 159 08:35 16.01.2020
4373 Clouds 7 1028 75 10000 1 70 07:59 16.01.2020
4374 Clouds 7 1028 70 10000 1 90 07:39 16.01.2020
4375 Clouds 7 1028 70 10000 1 90 07:21 16.01.2020
4376 Clouds 7 1028 87 10000 0.95 156 06:43 16.01.2020
4377 Clouds 7 1027 87 10000 0.5 0 06:22 16.01.2020
4378 Clouds 7 1027 81 10000 1 0 05:46 16.01.2020
4379 Clouds 7 1027 81 10000 1 80 04:40 16.01.2020
4380 Clouds 7 1027 81 10000 2.1 60 03:28 16.01.2020
4381 Clouds 7 1026 75 10000 1.5 200 02:44 16.01.2020
4382 Clouds 8 1025 70 10000 1.5 220 01:24 16.01.2020
4383 Clouds 8 1025 65 10000 3.1 200 00:41 16.01.2020
4384 Clouds 8 1025 65 10000 3.1 200 00:19 16.01.2020
4385 Clouds 8 1024 65 10000 2.1 190 23:40 15.01.2020
4386 -273 0 0 0 0 0 23:20 15.01.2020
4387 Clouds 7 1024 65 10000 2.6 190 23:19 15.01.2020
4388 Clouds 7 1024 65 10000 2.6 180 22:56 15.01.2020
4389 Clouds 7 1023 65 10000 3.1 200 22:36 15.01.2020
4390 Clouds 7 1023 65 10000 3.1 200 22:18 15.01.2020
4391 Clouds 7 1023 70 10000 2.1 210 21:55 15.01.2020
4392 Clouds 7 1023 65 10000 3.1 200 21:36 15.01.2020
4393 Clouds 7 1023 65 10000 3.1 200 21:18 15.01.2020
4394 Clouds 7 1023 65 10000 1.5 190 20:54 15.01.2020
4395 Clouds 7 1022 70 10000 2.1 170 20:36 15.01.2020
4396 Clear 6 1022 70 10000 2.1 170 20:18 15.01.2020
4397 Clear 7 1022 65 10000 2.1 150 19:54 15.01.2020
4398 Clear 7 1022 61 10000 1.5 200 19:36 15.01.2020
4399 Clear 7 1022 61 10000 1.5 200 19:36 15.01.2020
4400 Clear 7 1022 61 10000 1.5 200 19:18 15.01.2020
4401 Clear 8 1021 61 10000 1.5 240 18:55 15.01.2020
4402 Clear 7 1021 61 10000 1.5 240 18:55 15.01.2020
4403 Clear 8 1021 65 10000 2.1 230 18:36 15.01.2020
4404 Clear 8 1021 65 10000 2.1 230 18:18 15.01.2020
4405 Clear 8 1021 65 10000 2.1 230 18:18 15.01.2020
4406 Clear 9 1020 57 10000 2.6 210 17:40 15.01.2020
4407 Clear 10 1020 57 10000 2.6 210 17:22 15.01.2020
4408 Clear 10 1020 57 10000 2.6 210 17:22 15.01.2020
4409 Clouds 10 1020 50 10000 3.6 220 16:57 15.01.2020
4410 Clouds 10 1019 50 10000 3.6 220 16:38 15.01.2020
4411 Clear 11 1019 47 10000 4.1 220 16:20 15.01.2020
4412 Clouds 11 1019 50 10000 3.6 220 16:20 15.01.2020
4413 Clouds 11 1019 50 10000 3.6 220 16:20 15.01.2020
4414 Clouds 11 1019 50 10000 3.6 220 16:20 15.01.2020
4415 Clouds 11 1019 50 10000 3.6 220 16:20 15.01.2020
4416 Clear 11 1019 47 10000 4.1 220 15:43 15.01.2020
4417 Clear 12 1018 47 10000 4.6 230 15:21 15.01.2020
4418 Clear 12 1018 47 10000 4.1 220 14:58 15.01.2020
4419 Clear 12 1018 47 10000 3.6 220 14:39 15.01.2020
4420 Clear 12 1018 47 10000 3.6 220 14:18 15.01.2020
4421 Clear 12 1018 47 10000 3.6 220 14:18 15.01.2020
4422 Clear 12 1018 47 10000 2.6 220 13:45 15.01.2020
4423 Clear 12 1018 47 10000 3.1 210 13:24 15.01.2020
4424 Clear 11 1019 50 10000 2.6 190 12:58 15.01.2020
4425 Clear 11 1019 53 10000 1.5 100 12:39 15.01.2020
4426 Clear 11 1019 53 10000 1.5 100 12:19 15.01.2020
4427 Clear 10 1019 70 10000 2.1 90 11:56 15.01.2020
4428 Clear 8 1019 70 10000 1.5 90 11:36 15.01.2020
4429 Clear 7 1019 70 10000 1.5 90 11:18 15.01.2020
4430 Clear 7 1019 65 10000 1.5 100 10:42 15.01.2020
4431 Clear 5 1019 65 10000 1.5 100 10:24 15.01.2020
4432 Clear 3 1019 65 10000 1 0 09:42 15.01.2020
4433 Clear 3 1018 80 10000 1.5 120 09:23 15.01.2020
4434 Clear 2 1018 80 10000 1 0 08:56 15.01.2020
4435 Clear 2 1018 86 10000 1 0 08:38 15.01.2020
4436 Clouds 2 1018 86 10000 1 0 08:19 15.01.2020
4437 Clouds 3 1018 68 10000 1.5 260 07:51 15.01.2020
4438 Clouds 3 1018 68 10000 1 0 07:31 15.01.2020
4439 Clouds 2 1018 68 10000 1 0 06:45 15.01.2020
4440 Clouds 3 1018 65 10000 2.1 220 06:19 15.01.2020
4441 Clouds 3 1017 67 10000 0.5 0 04:36 15.01.2020
4442 Clouds 4 1017 67 10000 0.5 0 02:38 15.01.2020
4443 Clouds 5 1017 66 10000 2.1 250 01:28 15.01.2020
4444 Clouds 6 1017 65 10000 1 0 00:46 15.01.2020
4445 Clouds 6 1018 65 10000 2.1 240 00:27 15.01.2020
4446 Clouds 6 1017 65 10000 1.5 200 23:56 14.01.2020
4447 Clouds 6 1017 65 10000 0.5 0 23:38 14.01.2020
4448 Clouds 7 1017 61 10000 0.5 0 23:19 14.01.2020
4449 Clouds 7 1017 61 10000 3.1 200 22:41 14.01.2020
4450 Clouds 7 1017 61 10000 3.1 200 22:19 14.01.2020
4451 Clouds 7 1017 61 10000 2.6 190 21:59 14.01.2020
4452 Clouds 6 1017 61 10000 3.1 200 21:40 14.01.2020
4453 Clouds 6 1017 61 10000 3.1 200 21:22 14.01.2020
4454 Clouds 7 1017 61 10000 2.1 210 20:59 14.01.2020
4455 Clouds 7 1017 65 10000 2.6 180 20:40 14.01.2020
4456 Clouds 7 1017 61 10000 2.1 210 20:40 14.01.2020
4457 Clouds 7 1017 65 10000 2.6 180 20:20 14.01.2020
4458 Clouds 7 1017 65 10000 2.6 180 19:56 14.01.2020
4459 Clouds 7 1017 65 10000 3.1 170 19:38 14.01.2020
4460 Clouds 8 1017 65 10000 3.1 170 19:19 14.01.2020
4461 Clouds 8 1017 65 10000 2.6 180 18:56 14.01.2020
4462 Clouds 8 1017 61 10000 2.6 170 18:37 14.01.2020
4463 Clouds 8 1017 61 10000 2.6 170 18:19 14.01.2020
4464 Clouds 8 1016 65 10000 2.6 170 17:39 14.01.2020
4465 Clouds 8 1016 65 10000 2.6 170 17:19 14.01.2020
4466 Clouds 8 1016 70 10000 1.5 140 16:56 14.01.2020
4467 Clouds 8 1016 70 10000 1.5 140 16:38 14.01.2020
4468 Clouds 9 1016 61 10000 1.5 160 16:19 14.01.2020
4469 Clouds 9 1016 57 10000 3.1 180 15:43 14.01.2020
4470 Clouds 9 1016 57 10000 3.1 180 15:19 14.01.2020
4471 Clouds 9 1016 53 10000 2.6 170 14:59 14.01.2020
4472 Clouds 9 1016 62 10000 3.1 160 14:41 14.01.2020
4473 Clouds 10 1016 55 10000 3.1 160 14:19 14.01.2020
4474 Clouds 10 1015 43 10000 2.6 150 13:42 14.01.2020
4475 Clouds 10 1016 43 10000 3.1 130 13:20 14.01.2020
4476 Clouds 10 1016 57 10000 4.1 140 12:57 14.01.2020
4477 Clouds 10 1016 55 10000 3.1 160 12:39 14.01.2020
4478 Clouds 9 1016 55 10000 3.1 160 12:20 14.01.2020
4479 Clouds 9 1016 55 10000 3.1 160 12:20 14.01.2020
4480 Clouds 8 1016 55 10000 2.6 150 11:42 14.01.2020
4481 Clouds 6 1016 56 10000 1.5 170 11:22 14.01.2020
4482 Clouds 5 1016 60 10000 3.1 170 10:57 14.01.2020
4483 Clouds 5 1016 65 10000 1.5 130 10:38 14.01.2020
4484 Clouds 4 1016 65 10000 1.5 130 10:19 14.01.2020
4485 Clouds 4 1016 64 10000 1.5 210 09:56 14.01.2020
4486 Clouds 4 1016 64 10000 1.5 220 09:38 14.01.2020
4487 Clouds 4 1016 64 10000 1.5 220 09:20 14.01.2020
4488 Clouds 3 1015 80 10000 2.1 180 08:42 14.01.2020
4489 Clouds 2 1015 80 10000 2.1 180 08:23 14.01.2020
4490 Clouds 2 1015 86 10000 1.5 90 07:53 14.01.2020
4491 Clouds 2 1015 74 10000 1 0 07:31 14.01.2020
4492 Clouds 2 1015 74 10000 1.5 0 06:51 14.01.2020
4493 Clouds 2 1015 74 10000 1 0 06:23 14.01.2020
4494 Clouds 2 1015 74 10000 1 0 05:21 14.01.2020
4495 Clouds 2 1015 70 8000 1.5 310 03:51 14.01.2020
4496 Clouds 2 1015 70 8000 1.5 310 03:51 14.01.2020
4497 Fog 2 1016 70 8000 1 0 02:42 14.01.2020
4498 Fog 2 1016 78 8000 1 0 01:53 14.01.2020
4499 Clouds 3 1017 76 10000 1 0 00:49 14.01.2020
4500 Clouds 3 1017 100 10000 1.5 300 00:28 14.01.2020
4501 Fog 3 1017 100 8000 0.5 0 23:54 13.01.2020
4502 Clouds 3 1017 100 8000 0.5 0 23:36 13.01.2020
4503 Clouds 3 1017 100 8000 0.5 0 23:18 13.01.2020
4504 Fog 3 1017 100 7000 0.5 140 22:41 13.01.2020
4505 Fog 3 1017 100 3000 1 280 22:21 13.01.2020
4506 Fog 3 1017 100 1500 0.5 40 21:56 13.01.2020
4507 Fog 3 1017 100 8000 0.5 0 21:38 13.01.2020
4508 Fog 3 1017 100 8000 0.5 0 21:19 13.01.2020
4509 Fog 3 1018 100 10000 0.5 0 20:58 13.01.2020
4510 Clouds 4 1019 100 10000 0.5 0 20:40 13.01.2020
4511 Clouds 4 1019 100 10000 0.5 0 20:22 13.01.2020
4512 Clouds 4 1018 100 10000 1 0 19:59 13.01.2020
4513 Clouds 4 1019 100 10000 1 0 19:39 13.01.2020
4514 Clouds 4 1019 100 10000 1 0 19:20 13.01.2020
4515 Clouds 4 1019 100 10000 1 0 19:20 13.01.2020
4516 Fog 5 1019 100 10000 2.1 130 18:56 13.01.2020
4517 Clouds 5 1019 100 10000 1 0 18:37 13.01.2020
4518 Clouds 5 1019 100 10000 1 0 18:19 13.01.2020
4519 Clouds 6 1019 100 10000 1 0 17:43 13.01.2020
4520 Rain 6 1019 93 10000 0.5 0 17:25 13.01.2020
4521 Rain 6 1019 93 10000 0.5 0 16:58 13.01.2020
4522 Clouds 6 1026 90 0 0.45 114 16:38 13.01.2020
4523 Clouds 6 1026 90 0 0.45 114 16:20 13.01.2020
4524 Clouds 6 1019 84 0 1.14 281 15:54 13.01.2020
4525 Clouds 7 1026 90 0 0.45 114 15:36 13.01.2020
4526 Clouds 7 1026 90 0 0.45 114 15:18 13.01.2020
4527 Clouds 7 1026 90 0 0.45 114 14:40 13.01.2020
4528 Clouds 7 1026 90 0 0.45 114 14:22 13.01.2020
4529 Clouds 7 1026 90 0 0.45 114 13:56 13.01.2020
4530 Clouds 7 1026 90 0 0.45 114 13:56 13.01.2020
4531 Clouds 7 1026 90 0 0.45 114 13:37 13.01.2020
4532 Clouds 6 1026 90 0 0.45 114 13:19 13.01.2020
4533 Clouds 6 1022 80 10000 1.5 240 12:43 13.01.2020
4534 Clouds 6 1022 80 10000 1.5 240 12:23 13.01.2020
4535 Clouds 5 1022 80 10000 1.5 240 11:59 13.01.2020
4536 Clouds 5 1022 80 10000 1.5 240 11:38 13.01.2020
4537 Clouds 5 1022 80 10000 1 0 11:19 13.01.2020
4538 Clouds 4 1022 86 10000 1 270 10:56 13.01.2020
4539 Clouds 4 1023 86 10000 0.5 0 10:38 13.01.2020
4540 Clouds 4 1023 86 10000 0.5 0 10:20 13.01.2020
4541 Clouds 3 1023 93 10000 1 0 09:55 13.01.2020
4542 Clouds 3 1023 76 10000 0.5 0 09:37 13.01.2020
4543 Clouds 3 1023 76 10000 0.5 0 09:19 13.01.2020
4544 Clouds 3 1023 76 10000 0.5 0 08:39 13.01.2020
4545 Clouds 3 1023 76 10000 0.5 0 08:20 13.01.2020
4546 Clouds 3 1023 100 10000 1 0 07:46 13.01.2020
4547 Clouds 3 1024 100 10000 1 0 07:27 13.01.2020
4548 Clouds 3 1024 93 10000 1 70 06:39 13.01.2020
4549 Clouds 3 1024 93 10000 1 70 06:18 13.01.2020
4550 Rain 3 1025 100 10000 1 80 05:20 13.01.2020
4551 Drizzle 3 1026 93 10000 1 0 03:47 13.01.2020
4552 Drizzle 3 1026 80 10000 1 90 03:22 13.01.2020
4553 Clouds 3 1026 86 10000 1 0 02:38 13.01.2020
4554 Clouds 3 1026 80 10000 1 0 02:18 13.01.2020
4555 Clouds 3 1027 93 10000 0.5 0 00:59 13.01.2020
4556 Clouds 3 1027 93 10000 0.5 0 00:40 13.01.2020
4557 Clouds 3 1027 93 10000 0.5 0 00:21 13.01.2020
4558 Rain 3 1027 86 10000 1.28 175 23:41 12.01.2020
4559 Rain 3 1027 86 10000 0.45 203 23:23 12.01.2020
4560 Rain 3 1027 78 10000 1 0 22:57 12.01.2020
4561 Clouds 3 1027 78 10000 0.5 0 22:39 12.01.2020
4562 Clouds 3 1027 78 10000 0.5 0 22:21 12.01.2020
4563 Clouds 3 1027 78 10000 0.5 0 21:55 12.01.2020
4564 Clouds 3 1027 78 10000 0.5 0 21:55 12.01.2020
4565 Clouds 3 1027 78 10000 1 0 21:37 12.01.2020
4566 Clouds 3 1027 78 10000 1 0 21:19 12.01.2020
4567 Clouds 3 1027 78 10000 1 0 20:56 12.01.2020
4568 Clouds 2 1027 80 10000 1.5 190 20:37 12.01.2020
4569 Clouds 2 1027 80 10000 1.5 190 20:19 12.01.2020
4570 Clouds 2 1027 80 10000 1.5 190 19:55 12.01.2020
4571 Clouds 2 1027 86 10000 1 150 19:37 12.01.2020
4572 Clouds 2 1027 86 10000 1 150 19:18 12.01.2020
4573 Clouds 2 1027 86 10000 1 150 19:18 12.01.2020
4574 Clouds 2 1027 86 10000 1.5 150 18:57 12.01.2020
4575 Clouds 2 1027 80 10000 1 0 18:38 12.01.2020
4576 Clouds 2 1027 80 10000 1 0 18:20 12.01.2020
4577 Clouds 2 1027 80 10000 2.6 200 17:42 12.01.2020
4578 Clouds 2 1027 86 10000 2.1 190 17:23 12.01.2020
4579 Clouds 2 1027 82 10000 2.1 200 16:59 12.01.2020
4580 Clouds 3 1026 82 10000 2.1 190 16:39 12.01.2020
4581 Clouds 3 1026 82 10000 2.1 190 16:20 12.01.2020
4582 Clouds 3 1026 82 10000 2.6 240 15:58 12.01.2020
4583 Clouds 2 1026 82 10000 2.1 210 15:39 12.01.2020
4584 Clouds 2 1026 82 10000 2.1 210 15:21 12.01.2020
4585 Clouds 3 1026 82 10000 2.1 220 14:43 12.01.2020
4586 Clouds 3 1026 75 10000 2.6 210 14:25 12.01.2020
4587 Clouds 3 1026 75 10000 3.6 190 13:57 12.01.2020
4588 Clouds 3 1027 75 10000 2.1 170 13:39 12.01.2020
4589 Clouds 3 1027 75 10000 2.1 170 13:20 12.01.2020
4590 Clouds 3 1027 86 9000 2.6 180 12:57 12.01.2020
4591 Clouds 3 1028 86 8000 1 0 12:38 12.01.2020
4592 Clouds 3 1028 86 8000 1 0 12:19 12.01.2020
4593 Clouds 2 1028 72 7000 1.5 180 11:43 12.01.2020
4594 Mist 0 1028 81 5000 1.5 200 11:23 12.01.2020
4595 Mist 0 1028 100 5000 1.5 190 10:59 12.01.2020
4596 Mist 0 1028 100 5000 0.5 0 10:40 12.01.2020
4597 Mist -1 1028 100 5000 0.5 0 10:21 12.01.2020
4598 Clouds -1 1027 92 10000 0.5 0 09:55 12.01.2020
4599 Clouds -2 1027 92 10000 0.5 0 09:37 12.01.2020
4600 Clouds -2 1027 92 10000 0.5 0 09:18 12.01.2020
4601 Clouds -2 1027 92 10000 0.5 0 08:42 12.01.2020
4602 Fog -2 1027 100 9000 0.5 0 08:19 12.01.2020
4603 Fog -3 1027 100 9000 0.5 0 07:39 12.01.2020
4604 Fog -3 1027 100 9000 1 0 07:21 12.01.2020
4605 Fog -3 1027 92 6000 1 0 06:42 12.01.2020
4606 Fog -3 1027 100 8000 0.5 0 06:19 12.01.2020
4607 Fog -2 1027 92 10000 0.5 0 05:22 12.01.2020
4608 Clouds -2 1028 100 10000 0.5 360 03:47 12.01.2020
4609 Fog -2 1029 100 10000 0.5 0 03:22 12.01.2020
4610 Fog -2 1029 100 10000 0.91 197 02:30 12.01.2020
4611 Clouds -2 1029 100 10000 1.29 185 01:42 12.01.2020
4612 Clouds -1 1029 100 10000 0.5 0 01:22 12.01.2020
4613 Clouds -1 1029 92 10000 0.5 0 00:40 12.01.2020
4614 Clouds -1 1030 100 10000 0.5 0 00:20 12.01.2020
4615 Clouds -1 1030 86 10000 1 0 23:42 11.01.2020
4616 Clouds -1 1030 86 10000 1 0 23:19 11.01.2020
4617 Clouds -1 1030 92 10000 0.5 0 22:58 11.01.2020
4618 Clouds 0 1030 92 10000 0.5 0 22:39 11.01.2020
4619 Clouds -1 1030 92 10000 1.49 175 22:20 11.01.2020
4620 Clouds -1 1030 92 10000 1 0 21:58 11.01.2020
4621 Clouds 0 1031 92 10000 1 0 21:40 11.01.2020
4622 Clouds 0 1031 92 10000 1 0 21:40 11.01.2020
4623 Clouds 0 1031 92 10000 1 0 21:18 11.01.2020
4624 Clouds 0 1031 85 10000 0.5 170 20:41 11.01.2020
4625 Clouds 0 1031 92 10000 2.1 300 20:22 11.01.2020
4626 Clouds 0 1031 92 10000 2.1 300 20:22 11.01.2020
4627 Clouds 1 1031 77 10000 0.5 0 19:59 11.01.2020
4628 Clouds 1 1031 77 10000 0.5 0 19:39 11.01.2020
4629 Clouds 1 1031 80 10000 1 270 19:39 11.01.2020
4630 Clouds 1 1031 80 10000 1 270 19:21 11.01.2020
4631 Clouds 1 1031 77 10000 1.5 310 18:59 11.01.2020
4632 Clouds 1 1031 77 10000 0.5 320 18:39 11.01.2020
4633 Clouds 2 1031 77 10000 0.5 320 18:20 11.01.2020
4634 Clouds 3 1031 77 10000 0.5 90 17:58 11.01.2020
4635 Clouds 3 1031 77 10000 0.5 0 17:40 11.01.2020
4636 Clouds 4 1031 73 10000 0.5 0 17:20 11.01.2020
4637 Clouds 5 1031 73 10000 2.1 150 16:55 11.01.2020
4638 Clouds 5 1031 73 10000 2.1 150 16:55 11.01.2020
4639 Clouds 5 1032 70 10000 0.5 340 16:36 11.01.2020
4640 Clouds 5 1032 70 10000 0.5 340 16:18 11.01.2020
4641 Clouds 6 1032 75 10000 1 0 15:41 11.01.2020
4642 Clouds 6 1032 75 10000 1 0 15:23 11.01.2020
4643 Clouds 6 1032 75 10000 0.5 40 14:58 11.01.2020
4644 Clouds 6 1032 80 10000 1 0 14:40 11.01.2020
4645 Clouds 6 1032 80 10000 1 0 14:21 11.01.2020
4646 Clouds 6 1032 86 10000 2.1 50 13:55 11.01.2020
4647 Clouds 6 1032 81 10000 1.5 40 13:36 11.01.2020
4648 Clouds 6 1032 81 10000 1.5 40 13:18 11.01.2020
4649 Clouds 6 1033 86 10000 1 0 12:42 11.01.2020
4650 Clouds 6 1033 86 10000 1 0 12:24 11.01.2020
4651 Clouds 6 1033 86 10000 1.5 80 11:54 11.01.2020
4652 Clouds 5 1034 86 10000 0.5 0 11:36 11.01.2020
4653 Clouds 5 1034 86 10000 0.5 0 11:18 11.01.2020
4654 Clouds 5 1034 86 10000 0.5 0 11:18 11.01.2020
4655 Clouds 5 1033 86 10000 1 0 10:42 11.01.2020
4656 Clouds 4 1033 86 10000 1 0 10:23 11.01.2020
4657 Clouds 4 1033 93 10000 0.5 0 09:39 11.01.2020
4658 Clouds 4 1033 93 10000 0.5 0 09:21 11.01.2020
4659 Clouds 4 1033 93 10000 0.5 0 09:21 11.01.2020
4660 Clouds 4 1033 86 10000 1 0 08:43 11.01.2020
4661 Clouds 4 1033 86 10000 1 0 08:43 11.01.2020
4662 Clouds 4 1033 86 10000 2.6 300 08:23 11.01.2020
4663 Clouds 4 1033 86 10000 2.1 290 07:45 11.01.2020
4664 Clouds 4 1033 86 10000 2.1 290 07:26 11.01.2020
4665 Clouds 4 1033 86 10000 2.1 290 07:26 11.01.2020
4666 Clouds 4 1032 93 10000 0.5 0 06:56 11.01.2020
4667 Clouds 4 1032 93 10000 0.5 210 06:28 11.01.2020
4668 Rain 4 1031 86 10000 2.6 10 04:49 11.01.2020
4669 Rain 4 1031 86 10000 1 0 04:30 11.01.2020
4670 Clouds 4 1031 86 10000 2.6 280 03:58 11.01.2020
4671 Clouds 5 1030 86 10000 3.1 260 02:43 11.01.2020
4672 Clouds 5 1030 86 10000 3.1 260 01:44 11.01.2020
4673 Clouds 6 1030 86 10000 3.1 250 01:21 11.01.2020
4674 Clouds 6 1030 86 10000 3.1 250 01:21 11.01.2020
4675 Clouds 5 1030 86 10000 3.1 260 00:47 11.01.2020
4676 Clouds 6 1029 86 10000 3.1 250 00:21 11.01.2020
4677 Clouds 6 1029 86 10000 2.6 250 23:56 10.01.2020
4678 Clouds 6 1029 86 10000 3.1 250 23:38 10.01.2020
4679 Clouds 6 1029 86 10000 3.1 250 23:20 10.01.2020
4680 Clouds 6 1029 87 10000 3.1 250 22:41 10.01.2020
4681 Clouds 6 1028 87 10000 3.1 260 22:22 10.01.2020
4682 Clouds 6 1028 87 10000 4.6 260 21:58 10.01.2020
4683 Clouds 6 1027 87 10000 4.6 270 21:40 10.01.2020
4684 Clouds 6 1027 87 10000 4.6 270 21:20 10.01.2020
4685 Clouds 6 1027 87 10000 5.1 280 20:57 10.01.2020
4686 Clouds 6 1026 87 10000 6.7 280 20:38 10.01.2020
4687 Clouds 7 1026 87 10000 6.7 280 20:19 10.01.2020
4688 Rain 7 1026 87 10000 4.1 260 19:40 10.01.2020
4689 Rain 7 1025 81 10000 4.6 250 19:21 10.01.2020
4690 Clouds 8 1024 81 10000 4.6 230 18:56 10.01.2020
4691 Clouds 8 1024 76 10000 2.6 220 18:37 10.01.2020
4692 Clouds 8 1024 76 10000 2.6 220 18:18 10.01.2020
4693 Clouds 8 1023 70 10000 4.6 240 17:56 10.01.2020
4694 Rain 8 1023 76 10000 4.6 250 17:38 10.01.2020
4695 Rain 9 1023 76 10000 4.6 250 17:19 10.01.2020
4696 Rain 9 1022 76 10000 5.7 260 17:19 10.01.2020
4697 Rain 9 1022 76 10000 5.7 260 16:43 10.01.2020
4698 Rain 9 1022 66 10000 4.6 240 16:22 10.01.2020
4699 Clouds 10 1021 62 10000 4.6 240 15:58 10.01.2020
4700 Clouds 10 1020 66 10000 5.7 230 15:39 10.01.2020
4701 Clouds 10 1020 66 10000 5.7 230 15:20 10.01.2020
4702 Clouds 10 1020 62 10000 4.1 230 14:59 10.01.2020
4703 Clouds 10 1020 62 10000 4.1 230 14:41 10.01.2020
4704 Clouds 10 1020 57 10000 4.6 230 14:20 10.01.2020
4705 Clouds 10 1020 57 10000 5.7 240 13:58 10.01.2020
4706 Clouds 10 1020 57 10000 5.7 240 13:58 10.01.2020
4707 Clouds 10 1020 57 10000 5.7 240 13:40 10.01.2020
4708 Clouds 10 1020 62 10000 6.2 240 13:22 10.01.2020
4709 Clouds 11 1019 62 10000 4.6 230 12:57 10.01.2020
4710 Clouds 11 1020 66 10000 3.6 220 12:38 10.01.2020
4711 Clouds 10 1020 66 10000 3.6 220 12:18 10.01.2020
4712 Clouds 10 1020 66 10000 3.6 220 11:54 10.01.2020
4713 Clouds 10 1019 66 10000 3.6 200 11:36 10.01.2020
4714 Clouds 10 1019 66 10000 3.6 200 11:18 10.01.2020
4715 Clouds 9 1019 75 10000 2.1 180 10:42 10.01.2020
4716 Clouds 8 1019 75 10000 2.1 180 10:24 10.01.2020
4717 Clouds 8 1019 81 10000 1 0 09:56 10.01.2020
4718 Clouds 7 1019 75 10000 1.5 70 09:37 10.01.2020
4719 Clouds 7 1019 75 10000 1.5 70 09:19 10.01.2020
4720 Clouds 7 1018 81 10000 2.1 140 08:41 10.01.2020
4721 Clouds 7 1018 75 10000 2.1 160 08:23 10.01.2020
4722 Clouds 7 1018 75 10000 2.6 200 07:45 10.01.2020
4723 Clouds 7 1018 75 10000 2.1 220 07:26 10.01.2020
4724 Clouds 7 1018 75 10000 2.6 210 06:46 10.01.2020
4725 Clouds 7 1018 75 10000 2.6 220 06:26 10.01.2020
4726 Clouds 7 1018 75 10000 4.1 220 05:51 10.01.2020
4727 Rain 7 1017 66 10000 4.1 220 03:45 10.01.2020
4728 Rain 7 1017 66 10000 3.1 220 03:22 10.01.2020
4729 Rain 7 1017 66 10000 3.6 230 02:50 10.01.2020
4730 Rain 8 1016 65 10000 2.6 220 01:47 10.01.2020
4731 Rain 8 1016 57 10000 2.1 240 01:28 10.01.2020
4732 Rain 8 1016 57 10000 0.5 0 00:44 10.01.2020
4733 Rain 8 1015 57 10000 0.5 0 00:19 10.01.2020
4734 Rain 9 1015 75 10000 1.5 170 23:39 09.01.2020
4735 Rain 9 1015 75 10000 1.5 170 23:39 09.01.2020
4736 Rain 9 1015 75 10000 1.5 170 23:39 09.01.2020
4737 Rain 9 1015 75 10000 1.5 160 23:20 09.01.2020
4738 Clouds 9 1016 70 10000 1 0 22:58 09.01.2020
4739 Clouds 9 1016 70 10000 1 0 22:58 09.01.2020
4740 Clouds 9 1016 76 10000 2.1 190 22:39 09.01.2020
4741 Clouds 9 1016 76 10000 2.1 190 22:19 09.01.2020
4742 Clouds 9 1016 76 10000 2.6 200 21:57 09.01.2020
4743 Clouds 9 1016 71 10000 2.1 170 21:38 09.01.2020
4744 Clouds 9 1016 71 10000 2.1 170 21:20 09.01.2020
4745 Clouds 9 1016 71 10000 1.5 190 20:58 09.01.2020
4746 Clouds 9 1016 71 10000 1.5 190 20:39 09.01.2020
4747 Clouds 9 1016 71 10000 1.5 210 20:20 09.01.2020
4748 Clouds 9 1016 71 10000 1.5 210 20:20 09.01.2020
4749 Clouds 9 1016 71 10000 1.5 210 19:59 09.01.2020
4750 Clouds 9 1016 71 10000 2.1 190 19:39 09.01.2020
4751 Clouds 9 1017 71 10000 2.1 190 19:20 09.01.2020
4752 Clouds 8 1017 71 10000 2.1 190 18:56 09.01.2020
4753 Clouds 8 1017 76 10000 2.1 170 18:38 09.01.2020
4754 Clouds 9 1017 71 10000 1.5 180 18:20 09.01.2020
4755 Clouds 9 1017 71 10000 2.1 160 17:41 09.01.2020
4756 Clouds 11 1017 62 10000 2.1 200 17:19 09.01.2020
4757 Clouds 11 1017 62 10000 2.1 200 16:56 09.01.2020
4758 Clouds 11 1017 81 10000 1 0 16:38 09.01.2020
4759 Clouds 11 1018 81 10000 1.5 230 16:20 09.01.2020
4760 Clouds 12 1018 58 10000 2.6 220 15:42 09.01.2020
4761 Clouds 12 1018 76 10000 3.1 220 15:22 09.01.2020
4762 Clouds 12 1018 62 10000 4.1 200 14:57 09.01.2020
4763 Clouds 12 1018 62 10000 4.1 200 14:38 09.01.2020
4764 Clouds 13 1018 67 10000 3.1 210 14:19 09.01.2020
4765 Clouds 13 1019 67 10000 3.6 210 13:55 09.01.2020
4766 Clouds 12 1019 67 10000 3.6 210 13:37 09.01.2020
4767 Clouds 12 1019 71 10000 3.1 210 13:18 09.01.2020
4768 Clouds 11 1020 76 10000 2.6 210 12:42 09.01.2020
4769 Clouds 11 1020 76 10000 2.6 210 12:24 09.01.2020
4770 Clouds 11 1021 76 10000 2.6 190 11:59 09.01.2020
4771 Clouds 10 1021 76 10000 2.6 190 11:41 09.01.2020
4772 Clouds 9 1021 81 10000 0.5 0 11:23 09.01.2020
4773 Clouds 9 1021 81 10000 0.5 0 10:57 09.01.2020
4774 Clouds 8 1021 87 10000 1 80 10:39 09.01.2020
4775 Clouds 8 1021 93 10000 1.5 70 10:20 09.01.2020
4776 Clouds 7 1021 87 10000 1.5 90 09:45 09.01.2020
4777 Clouds 7 1022 87 10000 0.5 0 09:23 09.01.2020
4778 Clouds 7 1022 87 10000 0.5 0 08:57 09.01.2020
4779 Clouds 7 1022 93 10000 1 0 08:38 09.01.2020
4780 Clouds 7 1022 87 10000 1 0 08:20 09.01.2020
4781 Clouds 7 1022 87 10000 2.1 160 07:46 09.01.2020
4782 Clouds 6 1022 87 10000 2.1 160 07:28 09.01.2020
4783 Clouds 6 1023 87 10000 1.5 120 06:40 09.01.2020
4784 Clouds 7 1024 87 10000 1.5 150 06:22 09.01.2020
4785 Clouds 6 1024 87 10000 2.6 170 05:51 09.01.2020
4786 Clouds 6 1024 87 10000 2.6 170 05:18 09.01.2020
4787 Rain 6 1024 93 10000 2.1 160 04:38 09.01.2020
4788 Clouds 6 1025 93 10000 1 0 03:27 09.01.2020
4789 Clouds 6 1025 87 10000 0.62 164 02:46 09.01.2020
4790 Clouds 6 1026 87 10000 0.5 0 01:42 09.01.2020
4791 Clouds 6 1026 87 10000 0.5 0 00:59 09.01.2020
4792 Clouds 6 1026 87 10000 1 0 00:37 09.01.2020
4793 Clouds 6 1026 87 10000 1.5 120 00:19 09.01.2020
4794 Clouds 6 1027 87 10000 1.5 120 23:39 08.01.2020
4795 Clouds 6 1027 81 10000 1 0 23:20 08.01.2020
4796 Clouds 6 1027 75 10000 1 0 22:41 08.01.2020
4797 Clouds 6 1027 87 10000 1 0 22:23 08.01.2020
4798 Clouds 6 1027 87 10000 1 0 21:59 08.01.2020
4799 Clouds 6 1027 75 10000 1 0 21:40 08.01.2020
4800 Clouds 6 1027 81 10000 1.5 140 21:22 08.01.2020
4801 Clouds 6 1027 81 10000 1.5 140 20:59 08.01.2020
4802 Clouds 6 1027 87 10000 1 110 20:41 08.01.2020
4803 Clouds 6 1027 87 10000 1 130 20:21 08.01.2020
4804 Clouds 6 1027 87 10000 1 130 19:58 08.01.2020
4805 Clouds 6 1027 93 10000 1 340 19:38 08.01.2020
4806 Clouds 6 1027 87 10000 0.5 0 19:20 08.01.2020
4807 Clouds 6 1027 87 10000 0.5 0 18:58 08.01.2020
4808 Rain 6 1027 87 10000 0.5 0 18:39 08.01.2020
4809 Clouds 6 1027 87 10000 1 0 18:19 08.01.2020
4810 Clouds 6 1027 87 10000 1 0 17:57 08.01.2020
4811 Clouds 6 1027 93 10000 1 60 17:38 08.01.2020
4812 Clouds 6 1027 93 10000 1.5 60 17:19 08.01.2020
4813 Clouds 6 1027 93 10000 1.5 60 17:19 08.01.2020
4814 Clouds 6 1027 93 10000 1.5 60 16:56 08.01.2020
4815 Rain 6 1027 93 10000 1.5 60 16:38 08.01.2020
4816 Rain 6 1027 93 10000 1.5 90 16:19 08.01.2020
4817 Rain 6 1028 81 10000 1.5 70 15:45 08.01.2020
4818 Clouds 6 1027 81 10000 1.5 90 15:22 08.01.2020
4819 Rain 6 1028 81 10000 1.5 70 15:22 08.01.2020
4820 Clouds 6 1027 80 10000 1 0 14:59 08.01.2020
4821 Clouds 6 1027 80 10000 1 0 14:40 08.01.2020
4822 Clouds 6 1027 80 10000 1 70 14:21 08.01.2020
4823 Clouds 5 1028 86 10000 1 0 13:42 08.01.2020
4824 Clouds 5 1028 80 10000 1.5 80 13:22 08.01.2020
4825 Clouds 5 1028 80 10000 1.5 80 12:55 08.01.2020
4826 Rain 5 1028 86 10000 1 0 12:37 08.01.2020
4827 Rain 4 1029 86 10000 1 0 12:18 08.01.2020
4828 Rain 4 1029 93 10000 1.5 130 11:48 08.01.2020
4829 Clouds 3 1029 72 10000 1.5 130 11:20 08.01.2020
4830 Clouds 3 1029 72 10000 1.5 130 10:59 08.01.2020
4831 Clouds 2 1029 72 10000 1 0 10:41 08.01.2020
4832 Clouds 2 1029 72 10000 1 0 10:22 08.01.2020
4833 Clouds 2 1029 72 10000 1 0 09:58 08.01.2020
4834 Clouds 2 1029 72 10000 1 0 09:38 08.01.2020
4835 Clouds 1 1029 72 10000 1 0 09:18 08.01.2020
4836 Clouds 1 1028 72 10000 1 0 08:42 08.01.2020
4837 Clouds 1 1028 82 10000 1 0 08:23 08.01.2020
4838 Clouds 1 1028 82 10000 1 0 07:59 08.01.2020
4839 Clouds 1 1028 82 10000 1 0 07:41 08.01.2020
4840 Clouds 1 1028 100 10000 1.5 80 07:20 08.01.2020
4841 Clouds 0 1028 92 10000 1 0 06:42 08.01.2020
4842 Clouds 0 1028 92 10000 0.5 0 05:57 08.01.2020
4843 Clouds 0 1028 100 10000 0.5 0 05:27 08.01.2020
4844 Clouds 0 1028 100 10000 0.5 0 04:37 08.01.2020
4845 Clouds 0 1028 100 10000 1 0 03:31 08.01.2020
4846 Clouds 0 1029 92 10000 1 0 02:36 08.01.2020
4847 Clouds 0 1029 92 10000 3.6 270 02:18 08.01.2020
4848 Clouds 0 1029 92 10000 3.6 270 02:18 08.01.2020
4849 Clouds 0 1028 88 10000 1.5 230 01:39 08.01.2020
4850 Clear 0 1029 92 10000 1 0 00:53 08.01.2020
4851 Clear 0 1029 92 10000 1 0 00:26 08.01.2020
4852 Clear 1 1029 80 10000 1.5 180 23:46 07.01.2020
4853 Clear 1 1029 89 10000 1.5 180 23:22 07.01.2020
4854 Clear 1 1029 89 10000 1.5 180 22:58 07.01.2020
4855 Clear 2 1029 89 10000 1.5 200 22:38 07.01.2020
4856 Clouds 2 1030 89 10000 1 110 22:19 07.01.2020
4857 Clouds 2 1030 89 10000 1 110 21:54 07.01.2020
4858 Clouds 2 1030 89 10000 1 0 21:36 07.01.2020
4859 Clouds 2 1030 86 10000 1.5 100 21:18 07.01.2020
4860 Clouds 3 1030 93 10000 0.5 0 20:41 07.01.2020
4861 Clouds 3 1031 93 10000 1 90 20:23 07.01.2020
4862 Clouds 3 1031 93 10000 1 90 19:59 07.01.2020
4863 Clouds 3 1031 86 10000 0.5 0 19:38 07.01.2020
4864 Clouds 4 1031 80 10000 1 0 19:19 07.01.2020
4865 Clouds 4 1031 80 10000 1 0 19:19 07.01.2020
4866 Clouds 4 1031 80 10000 1 0 18:57 07.01.2020
4867 Clouds 4 1031 86 10000 1 0 18:38 07.01.2020
4868 Clouds 4 1031 80 10000 1 0 18:18 07.01.2020
4869 Clouds 4 1031 80 10000 1 0 17:58 07.01.2020
4870 Clouds 4 1030 70 10000 1.5 280 17:38 07.01.2020
4871 Clouds 5 1030 70 10000 1.5 290 17:20 07.01.2020
4872 Clouds 5 1030 70 10000 1.5 290 16:55 07.01.2020
4873 Clouds 5 1030 75 10000 0.5 0 16:37 07.01.2020
4874 Clouds 5 1030 75 10000 1.5 240 16:18 07.01.2020
4875 Clouds 5 1030 75 10000 2.6 250 15:55 07.01.2020
4876 Clouds 5 1030 75 10000 2.6 250 15:36 07.01.2020
4877 Clouds 5 1030 70 10000 4.6 280 15:18 07.01.2020
4878 Clouds 6 1029 75 10000 4.1 280 14:41 07.01.2020
4879 Clouds 6 1029 75 10000 2.1 250 14:22 07.01.2020
4880 Clouds 5 1029 75 10000 2.1 250 13:56 07.01.2020
4881 Clouds 5 1029 75 10000 1.5 230 13:37 07.01.2020
4882 Clouds 5 1029 81 10000 2.6 290 13:18 07.01.2020
4883 Clouds 5 1030 81 10000 4.1 260 12:40 07.01.2020
4884 Clouds 5 1030 81 10000 4.1 260 12:40 07.01.2020
4885 Clouds 4 1030 86 10000 2.6 240 12:19 07.01.2020
4886 Clouds 4 1030 86 10000 1.5 220 11:44 07.01.2020
4887 Clouds 4 1029 86 10000 2.6 240 11:23 07.01.2020
4888 Clouds 4 1029 86 10000 2.6 240 10:59 07.01.2020
4889 Fog 3 1029 93 10000 3.1 240 10:40 07.01.2020
4890 Fog 3 1029 86 10000 1.5 80 10:22 07.01.2020
4891 Fog 3 1029 86 10000 1.5 80 09:56 07.01.2020
4892 Fog 3 1029 100 10000 1 0 09:38 07.01.2020
4893 Rain 3 1028 93 10000 1 0 09:19 07.01.2020
4894 Clouds 3 1027 100 10000 1 0 08:42 07.01.2020
4895 Rain 2 1027 88 10000 0.5 0 08:22 07.01.2020
4896 Rain 2 1027 88 10000 0.5 0 07:54 07.01.2020
4897 Rain 2 1026 88 10000 0.5 200 07:26 07.01.2020
4898 Drizzle 2 1026 88 10000 1 0 06:53 07.01.2020
4899 Drizzle 2 1026 88 10000 1 0 06:32 07.01.2020
4900 Rain 2 1025 86 10000 1.5 290 05:49 07.01.2020
4901 Clear 0 1025 92 10000 2.6 310 04:33 07.01.2020
4902 Clear 0 1025 86 10000 0.5 110 03:26 07.01.2020
4903 Clouds -1 1024 100 10000 1 0 02:22 07.01.2020
4904 Clouds -1 1024 92 10000 1.5 310 01:51 07.01.2020
4905 Clouds -1 1024 92 10000 1.5 310 01:28 07.01.2020
4906 Clouds -1 1024 100 10000 0.5 0 00:37 07.01.2020
4907 Clouds -1 1024 92 10000 0.5 0 00:18 07.01.2020
4908 Clouds -1 1024 100 10000 1.5 80 23:39 06.01.2020
4909 Clear -1 1025 92 10000 1.5 50 23:21 06.01.2020
4910 Clear -1 1024 92 10000 1 0 22:58 06.01.2020
4911 Clear -1 1024 92 10000 1 0 22:39 06.01.2020
4912 Clear -1 1024 100 10000 1 70 22:21 06.01.2020
4913 Clear -1 1025 92 10000 1 0 21:56 06.01.2020
4914 Clear -1 1025 92 10000 1 0 21:38 06.01.2020
4915 Clear -1 1025 100 10000 0.5 0 21:19 06.01.2020
4916 Clear 0 1025 100 10000 0.5 0 20:56 06.01.2020
4917 Clear 0 1025 100 10000 1.5 100 20:37 06.01.2020
4918 Clear 0 1025 92 10000 0.5 0 20:19 06.01.2020
4919 Clear 0 1025 92 10000 0.5 0 19:56 06.01.2020
4920 Clear 0 1025 79 10000 0.24 199 19:37 06.01.2020
4921 Clear 0 1025 79 10000 1 320 19:19 06.01.2020
4922 Clear 0 1025 79 10000 1 320 19:19 06.01.2020
4923 Clear 0 1025 79 10000 0.5 0 18:46 06.01.2020
4924 Clear 1 1025 79 10000 0.5 0 18:21 06.01.2020
4925 Clear 1 1025 79 10000 0.5 0 17:57 06.01.2020
4926 Clear 1 1025 79 10000 0.5 50 17:37 06.01.2020
4927 Clear 2 1025 72 10000 1 80 17:18 06.01.2020
4928 Clear 3 1025 80 10000 1 100 16:44 06.01.2020
4929 Clear 3 1025 80 10000 1 0 16:24 06.01.2020
4930 Clear 3 1026 75 10000 2.1 70 15:59 06.01.2020
4931 Clear 3 1026 75 10000 2.1 70 15:38 06.01.2020
4932 Clear 4 1026 75 10000 1.5 80 15:18 06.01.2020
4933 Clear 4 1026 75 10000 1.5 80 14:56 06.01.2020
4934 Clear 4 1026 75 10000 1.5 70 14:37 06.01.2020
4935 Clouds 4 1026 75 10000 1.5 80 14:18 06.01.2020
4936 Clouds 4 1026 75 10000 1.5 80 14:18 06.01.2020
4937 Clouds 4 1026 80 10000 1.5 70 13:41 06.01.2020
4938 Clear 3 1027 80 10000 1 0 13:22 06.01.2020
4939 Clear 4 1027 80 10000 1 0 12:59 06.01.2020
4940 Clear 3 1027 86 10000 1 0 12:41 06.01.2020
4941 Clear 3 1028 62 10000 1.5 90 12:20 06.01.2020
4942 Clear 2 1028 62 10000 1 80 11:56 06.01.2020
4943 Clear 2 1028 62 10000 1 80 11:38 06.01.2020
4944 Clear 1 1029 77 9000 1 0 11:20 06.01.2020
4945 Clear 1 1029 77 9000 1 0 11:20 06.01.2020
4946 Clear 0 1029 92 9000 1 0 10:43 06.01.2020
4947 Clear 0 1029 92 9000 1 0 10:43 06.01.2020
4948 Fog -1 1029 100 3500 0.5 0 10:24 06.01.2020
4949 Fog -2 1030 100 1400 1 0 09:57 06.01.2020
4950 Fog -2 1030 100 1400 1 0 09:37 06.01.2020
4951 Fog -2 1030 100 900 0.5 80 09:19 06.01.2020
4952 Fog -2 1029 100 300 1 80 08:42 06.01.2020
4953 Fog -2 1029 100 300 1 80 08:23 06.01.2020
4954 Fog -2 1030 100 4000 0.5 0 07:48 06.01.2020
4955 Fog -2 1030 100 3000 0.5 100 07:23 06.01.2020
4956 Fog -2 1030 92 3000 0.5 0 06:44 06.01.2020
4957 Fog -2 1030 92 3000 1 280 06:18 06.01.2020
4958 Fog -2 1030 100 1000 0.5 0 05:40 06.01.2020
4959 Fog -1 1031 100 3000 1 280 04:30 06.01.2020
4960 Fog -1 1031 100 3000 1 280 03:58 06.01.2020
4961 Fog -1 1031 100 1500 0.5 0 02:46 06.01.2020
4962 Fog -1 1031 100 700 1.5 270 02:22 06.01.2020
4963 Fog -1 1032 100 900 1 250 01:43 06.01.2020
4964 Fog -1 1032 100 900 1.5 300 01:21 06.01.2020
4965 Fog 0 1032 100 500 0.5 300 00:41 06.01.2020
4966 Fog 0 1033 100 900 0.5 0 00:19 06.01.2020
4967 Fog 0 1033 100 900 1 0 23:41 05.01.2020
4968 Fog 0 1033 100 1500 0.5 0 23:22 05.01.2020
4969 Fog 0 1033 90 6000 0.5 100 22:55 05.01.2020
4970 Fog 0 1033 90 6000 0.5 100 22:37 05.01.2020
4971 Fog 0 1034 90 6000 1.45 137 22:19 05.01.2020
4972 Fog 1 1034 90 7000 0.5 0 21:54 05.01.2020
4973 Fog 1 1034 90 7000 0.5 0 21:36 05.01.2020
4974 Clear 1 1034 100 10000 1 70 21:18 05.01.2020
4975 Clear 1 1034 100 10000 1 70 20:54 05.01.2020
4976 Clear 2 1034 100 10000 1 90 20:36 05.01.2020
4977 Clouds 2 1034 100 10000 1.5 80 20:18 05.01.2020
4978 Clouds 2 1034 93 10000 1 70 19:41 05.01.2020
4979 Clouds 2 1034 93 10000 0.5 0 19:21 05.01.2020
4980 Clouds 3 1034 93 10000 0.5 0 18:56 05.01.2020
4981 Clouds 3 1034 86 10000 1 150 18:38 05.01.2020
4982 Clouds 4 1035 93 10000 1.6 136 18:19 05.01.2020
4983 Clouds 4 1035 93 10000 0.5 0 17:59 05.01.2020
4984 Clouds 4 1035 93 10000 1.6 136 17:59 05.01.2020
4985 Clouds 4 1035 93 10000 0.5 0 17:39 05.01.2020
4986 Clouds 4 1035 93 10000 2.1 170 17:20 05.01.2020
4987 Clouds 5 1035 93 10000 2.1 170 16:57 05.01.2020
4988 Clouds 5 1035 86 10000 1 130 16:39 05.01.2020
4989 Clouds 5 1035 86 10000 0.5 0 16:20 05.01.2020
4990 Clouds 5 1035 86 10000 0.5 0 15:40 05.01.2020
4991 Clouds 5 1035 86 10000 1 0 15:22 05.01.2020
4992 Clouds 6 1035 86 10000 1 0 14:58 05.01.2020
4993 Clouds 6 1035 86 10000 1 0 14:40 05.01.2020
4994 Clouds 6 1034 86 10000 1 0 14:22 05.01.2020
4995 Clouds 5 1035 86 10000 1 80 13:59 05.01.2020
4996 Clouds 5 1035 86 10000 1 80 13:39 05.01.2020
4997 Rain 5 1035 86 10000 1 0 13:20 05.01.2020
4998 Rain 5 1035 86 10000 1 0 12:57 05.01.2020
4999 Rain 5 1035 86 10000 1 0 12:57 05.01.2020
5000 Rain 5 1035 93 10000 1.5 150 12:38 05.01.2020
5001 Rain 5 1035 93 10000 1.5 210 12:20 05.01.2020
5002 Rain 5 1035 86 10000 1 0 11:55 05.01.2020
5003 Rain 5 1035 86 10000 1 0 11:37 05.01.2020
5004 Rain 5 1035 86 10000 1 0 11:37 05.01.2020
5005 Rain 5 1035 86 10000 1 0 11:37 05.01.2020
5006 Rain 5 1035 86 10000 1 0 11:37 05.01.2020
5007 Rain 4 1036 86 10000 1 0 11:18 05.01.2020
5008 Clouds 4 1036 86 10000 0.5 0 10:41 05.01.2020
5009 Clouds 4 1035 80 10000 1 240 10:20 05.01.2020
5010 Clouds 4 1035 80 10000 1 240 09:59 05.01.2020
5011 Clouds 3 1035 93 10000 1.5 240 09:41 05.01.2020
5012 Clouds 3 1035 86 10000 1 200 09:21 05.01.2020
5013 Clouds 4 1035 86 10000 1 0 08:45 05.01.2020
5014 Clouds 3 1035 86 10000 1 0 08:25 05.01.2020
5015 Clouds 4 1035 93 10000 1 0 07:50 05.01.2020
5016 Clouds 4 1035 93 10000 1 0 07:29 05.01.2020
5017 Drizzle 4 1035 93 10000 1.5 240 06:57 05.01.2020
5018 Drizzle 4 1034 93 10000 1 0 05:53 05.01.2020
5019 Drizzle 4 1034 93 10000 1 0 05:28 05.01.2020
5020 Rain 4 1034 86 10000 2.1 250 04:24 05.01.2020
5021 Rain 4 1034 86 10000 3.1 250 03:47 05.01.2020
5022 Clouds 4 1034 86 10000 2.1 220 02:43 05.01.2020
5023 Clouds 4 1034 86 10000 2.6 210 02:20 05.01.2020
5024 Clouds 4 1034 86 10000 2.6 190 01:40 05.01.2020
5025 Clouds 4 1034 80 10000 1.5 210 01:18 05.01.2020
5026 Clouds 4 1033 90 10000 1.5 210 00:41 05.01.2020
5027 Clouds 4 1033 90 10000 4.1 230 00:22 05.01.2020
5028 Clouds 4 1033 90 10000 5.1 240 23:59 04.01.2020
5029 Clouds 4 1033 90 10000 5.1 240 23:39 04.01.2020
5030 Clouds 4 1033 93 10000 4.1 250 23:19 04.01.2020
5031 Clouds 5 1033 93 10000 4.6 250 22:39 04.01.2020
5032 Clouds 4 1033 80 10000 3.6 230 22:21 04.01.2020
5033 Clouds 4 1033 80 10000 3.6 230 21:57 04.01.2020
5034 Clouds 4 1033 93 10000 3.6 230 21:38 04.01.2020
5035 Clouds 4 1033 93 10000 4.1 240 21:19 04.01.2020
5036 Clouds 4 1032 93 10000 2.6 230 20:57 04.01.2020
5037 Clouds 4 1032 93 10000 2.6 230 20:38 04.01.2020
5038 Clouds 4 1032 85 10000 3.6 240 20:20 04.01.2020
5039 Clouds 4 1032 85 10000 4.1 240 19:42 04.01.2020
5040 Clouds 4 1032 85 10000 4.1 240 19:42 04.01.2020
5041 Clouds 4 1032 85 10000 4.6 240 19:24 04.01.2020
5042 Clouds 4 1032 85 10000 4.6 240 18:59 04.01.2020
5043 Clouds 4 1032 85 10000 5.7 250 18:40 04.01.2020
5044 Clouds 4 1031 85 10000 5.1 250 18:22 04.01.2020
5045 Clouds 4 1031 85 10000 4.1 260 17:59 04.01.2020
5046 Clouds 4 1031 85 10000 4.1 260 17:40 04.01.2020
5047 Clouds 4 1031 79 10000 5.7 260 17:22 04.01.2020
5048 Clouds 4 1031 79 10000 5.7 260 16:55 04.01.2020
5049 Clouds 4 1030 79 10000 9.3 260 16:36 04.01.2020
5050 Clouds 4 1030 79 10000 6.7 260 16:18 04.01.2020
5051 Clouds 4 1030 79 10000 6.2 260 15:42 04.01.2020
5052 Clouds 4 1030 79 10000 5.1 260 15:20 04.01.2020
5053 Clouds 4 1030 79 10000 5.1 260 14:59 04.01.2020
5054 Clouds 5 1030 79 10000 6.2 260 14:41 04.01.2020
5055 Clouds 5 1030 77 10000 8.7 260 14:20 04.01.2020
5056 Clouds 5 1030 77 10000 8.7 260 13:58 04.01.2020
5057 Clouds 5 1030 77 10000 5.7 260 13:37 04.01.2020
5058 Clouds 5 1030 75 10000 5.1 260 13:19 04.01.2020
5059 Clouds 5 1030 75 10000 5.1 260 12:57 04.01.2020
5060 Clouds 5 1031 75 10000 5.1 250 12:38 04.01.2020
5061 Clouds 5 1031 75 10000 4.6 240 12:18 04.01.2020
5062 Clouds 5 1031 80 10000 3.1 230 11:55 04.01.2020
5063 Clouds 4 1031 80 10000 3.1 230 11:36 04.01.2020
5064 Clouds 4 1031 86 10000 2.6 250 11:18 04.01.2020
5065 Clouds 4 1031 86 10000 2.6 250 10:40 04.01.2020
5066 Clouds 4 1031 93 10000 3.1 280 10:21 04.01.2020
5067 Clouds 3 1030 86 10000 3.1 270 09:47 04.01.2020
5068 Clouds 3 1030 86 10000 3.6 280 09:26 04.01.2020
5069 Clouds 3 1030 86 10000 3.1 270 08:49 04.01.2020
5070 Clouds 3 1030 86 10000 3.1 270 08:29 04.01.2020
5071 Clouds 3 1030 86 10000 2.6 270 07:57 04.01.2020
5072 Clouds 3 1030 86 10000 2.6 270 07:39 04.01.2020
5073 Clouds 4 1029 93 10000 3.6 300 06:44 04.01.2020
5074 Drizzle 4 1028 93 10000 4.1 290 05:59 04.01.2020
5075 Rain 5 1028 93 10000 4.6 290 04:53 04.01.2020
5076 Rain 5 1028 93 10000 4.6 290 04:32 04.01.2020
5077 Drizzle 6 1027 93 10000 5.1 330 03:37 04.01.2020
5078 Drizzle 6 1027 100 10000 3.1 230 03:18 04.01.2020
5079 Drizzle 7 1026 87 9000 3.6 250 02:18 04.01.2020
5080 Rain 7 1026 87 10000 4.1 240 01:51 04.01.2020
5081 Clouds 7 1026 87 10000 4.6 240 01:30 04.01.2020
5082 Clouds 7 1026 87 10000 4.6 230 00:30 04.01.2020
5083 Drizzle 7 1026 87 10000 4.1 230 23:59 03.01.2020
5084 Rain 7 1026 87 10000 5.7 230 23:38 03.01.2020
5085 Rain 7 1026 87 10000 4.6 230 23:20 03.01.2020
5086 Clouds 7 1026 81 10000 4.1 220 22:41 03.01.2020
5087 Clouds 7 1025 81 10000 4.1 230 22:20 03.01.2020
5088 Clouds 7 1025 81 10000 4.6 230 21:58 03.01.2020
5089 Clouds 7 1025 81 10000 4.6 230 21:38 03.01.2020
5090 Clouds 7 1025 81 10000 3.6 230 21:19 03.01.2020
5091 Clouds 7 1025 81 10000 4.1 230 20:58 03.01.2020
5092 Clouds 7 1025 81 10000 4.1 230 20:40 03.01.2020
5093 Clouds 7 1025 81 10000 3.6 220 20:18 03.01.2020
5094 Clouds 7 1025 87 10000 3.1 200 19:56 03.01.2020
5095 Clouds 7 1025 87 10000 3.1 200 19:37 03.01.2020
5096 Rain 7 1025 93 10000 4.1 240 19:19 03.01.2020
5097 Rain 7 1025 81 10000 4.6 240 18:43 03.01.2020
5098 Clouds 7 1025 81 10000 4.1 230 18:24 03.01.2020
5099 Clouds 7 1025 81 10000 4.1 230 17:55 03.01.2020
5100 Clouds 7 1025 75 10000 3.6 220 17:37 03.01.2020
5101 Clouds 7 1025 75 10000 3.6 220 17:37 03.01.2020
5102 Clouds 7 1024 75 10000 4.1 230 17:18 03.01.2020
5103 Clouds 7 1024 75 10000 4.1 230 17:18 03.01.2020
5104 Rain 7 1024 75 10000 5.1 240 16:42 03.01.2020
5105 Rain 7 1024 75 10000 5.1 240 16:23 03.01.2020
5106 Clouds 7 1023 70 10000 1.5 220 15:57 03.01.2020
5107 Clouds 7 1023 70 10000 1.5 220 15:38 03.01.2020
5108 Clouds 7 1023 65 10000 0.5 0 15:18 03.01.2020
5109 Clouds 7 1023 75 10000 1.5 160 14:38 03.01.2020
5110 Clouds 7 1023 75 10000 1.5 160 14:38 03.01.2020
5111 Clouds 7 1023 75 10000 1.5 170 14:19 03.01.2020
5112 Clouds 7 1023 75 10000 2.1 180 13:44 03.01.2020
5113 Clouds 7 1023 75 10000 2.1 180 13:44 03.01.2020
5114 Clouds 7 1023 75 10000 2.1 180 13:44 03.01.2020
5115 Clouds 6 1023 75 10000 2.1 180 13:24 03.01.2020
5116 Clouds 6 1023 75 10000 2.1 180 12:59 03.01.2020
5117 Clouds 6 1023 70 10000 2.1 170 12:39 03.01.2020
5118 Clouds 6 1024 80 10000 2.6 190 12:21 03.01.2020
5119 Clouds 5 1024 79 10000 1.5 190 11:47 03.01.2020
5120 Clouds 4 1024 84 10000 1 0 11:23 03.01.2020
5121 Clouds 3 1024 80 10000 2.1 190 10:47 03.01.2020
5122 Clouds 3 1024 80 10000 2.6 190 10:27 03.01.2020
5123 Clouds 2 1024 80 10000 2.6 190 09:59 03.01.2020
5124 Clouds 2 1024 80 10000 1.5 0 09:40 03.01.2020
5125 Clouds 2 1024 86 10000 1 0 09:22 03.01.2020
5126 Clouds 2 1024 86 10000 1 0 08:57 03.01.2020
5127 Clouds 2 1024 84 10000 1 0 08:38 03.01.2020
5128 Clouds 1 1024 86 10000 0.5 0 08:20 03.01.2020
5129 Clouds 1 1024 86 10000 1 0 07:41 03.01.2020
5130 Clouds 1 1024 92 10000 1 0 07:19 03.01.2020
5131 Clouds 1 1024 92 10000 1 0 06:54 03.01.2020
5132 Clouds 1 1024 92 10000 1 110 06:35 03.01.2020
5133 Clouds 1 1025 100 10000 1.5 70 05:48 03.01.2020
5134 Clouds 1 1025 82 10000 1 0 04:31 03.01.2020
5135 Clouds 1 1025 92 10000 0.5 0 03:34 03.01.2020
5136 Clouds 1 1026 92 10000 1.5 330 02:47 03.01.2020
5137 Clouds 0 1026 100 10000 1.5 60 01:47 03.01.2020
5138 Clouds 0 1026 100 10000 1 0 00:57 03.01.2020
5139 Clouds 0 1027 92 10000 1.5 70 00:33 03.01.2020
5140 Clouds 0 1027 92 10000 1.5 100 23:58 02.01.2020
5141 Clouds 0 1027 92 10000 1.5 100 23:39 02.01.2020
5142 Clouds 0 1027 92 10000 0.5 0 23:20 02.01.2020
5143 Clouds -1 1027 92 10000 0.5 0 22:58 02.01.2020
5144 Clouds -1 1027 92 10000 1 0 22:39 02.01.2020
5145 Clouds -1 1027 92 10000 1.5 130 22:19 02.01.2020
5146 Clouds -1 1027 100 10000 1 0 21:55 02.01.2020
5147 Clouds -1 1027 100 10000 1 0 21:36 02.01.2020
5148 Clear 0 1027 81 10000 1 0 21:18 02.01.2020
5149 Clear 0 1027 92 10000 0.5 110 20:54 02.01.2020
5150 Clear -1 1027 92 10000 0.5 110 20:36 02.01.2020
5151 Clouds 0 1027 82 10000 1 0 20:18 02.01.2020
5152 Clouds 0 1027 82 10000 0.5 0 19:54 02.01.2020
5153 Clouds 0 1027 82 10000 0.5 0 19:36 02.01.2020
5154 Clouds 0 1027 92 10000 1.5 270 19:18 02.01.2020
5155 Clouds 0 1027 86 10000 1 260 18:42 02.01.2020
5156 Clouds 0 1027 82 10000 1 280 18:23 02.01.2020
5157 Clouds 0 1027 82 10000 0.5 0 17:58 02.01.2020
5158 Clouds 0 1027 82 10000 0.5 0 17:38 02.01.2020
5159 Clear 0 1027 80 10000 0.5 0 17:19 02.01.2020
5160 Clear 1 1027 86 10000 1 60 16:58 02.01.2020
5161 Clear 1 1027 86 10000 1 60 16:40 02.01.2020
5162 Clear 2 1027 74 10000 1.5 60 16:20 02.01.2020
5163 Clear 2 1027 74 10000 1 150 15:57 02.01.2020
5164 Clear 2 1027 74 10000 1 150 15:39 02.01.2020
5165 Clear 2 1027 74 10000 1 0 15:19 02.01.2020
5166 Clear 2 1028 80 10000 1 0 14:56 02.01.2020
5167 Clear 2 1028 80 10000 1 0 14:36 02.01.2020
5168 Clear 2 1028 80 10000 1.5 130 14:18 02.01.2020
5169 Clear 2 1028 86 10000 1.5 110 13:48 02.01.2020
5170 Clear 2 1028 86 10000 1.5 110 13:30 02.01.2020
5171 Fog 1 1029 92 10000 1 0 12:46 02.01.2020
5172 Fog 1 1030 92 9000 0.5 0 12:26 02.01.2020
5173 Fog 0 1030 92 9000 0.5 0 11:59 02.01.2020
5174 Fog -1 1030 92 9000 0.5 0 11:40 02.01.2020
5175 Fog -1 1030 100 1400 0.5 0 11:20 02.01.2020
5176 Fog -2 1030 100 200 0.5 190 10:44 02.01.2020
5177 Fog -2 1030 100 200 0.5 0 10:26 02.01.2020
5178 Fog -3 1030 100 150 1 0 09:51 02.01.2020
5179 Fog -3 1030 100 150 1 0 09:33 02.01.2020
5180 Fog -3 1029 100 100 1 0 08:47 02.01.2020
5181 Fog -3 1029 100 100 1 0 08:27 02.01.2020
5182 Fog -3 1029 100 150 1 90 07:54 02.01.2020
5183 Fog -3 1029 100 150 1 90 07:30 02.01.2020
5184 Fog -3 1029 100 8000 1 0 06:55 02.01.2020
5185 Fog -3 1029 100 8000 1 0 06:36 02.01.2020
5186 Clear -3 1029 100 8000 0.5 0 05:36 02.01.2020
5187 Clear -3 1029 92 8000 0.5 0 04:33 02.01.2020
5188 Clear -2 1029 100 8000 0.72 253 02:55 02.01.2020
5189 Clear -2 1029 92 8000 0.5 0 02:20 02.01.2020
5190 Clear -2 1029 100 8000 0.5 0 01:47 02.01.2020
5191 Fog -2 1029 92 8000 1.5 230 01:19 02.01.2020
5192 Fog -2 1029 92 8000 2.1 300 00:36 02.01.2020
5193 Clear -2 1029 100 8000 2.1 270 00:18 02.01.2020
5194 Clear -1 1030 100 8000 1.5 270 23:40 01.01.2020
5195 Clear -2 1030 92 8000 0.5 260 23:20 01.01.2020
5196 Clear -1 1030 100 8000 0.5 0 22:38 01.01.2020
5197 Clear -1 1031 92 8000 1 280 22:20 01.01.2020
5198 Clear -1 1031 92 8000 1 280 21:57 01.01.2020
5199 Clear -1 1031 92 8000 1 0 21:38 01.01.2020
5200 Clear -1 1031 100 8000 1.09 116 21:20 01.01.2020
5201 Clear -1 1031 92 9000 1.09 116 20:56 01.01.2020
5202 Clear -1 1031 92 9000 1.09 116 20:38 01.01.2020
5203 Clear 0 1031 88 10000 0.5 0 20:19 01.01.2020
5204 Clear 0 1031 100 10000 0.5 0 19:55 01.01.2020
5205 Clear 0 1031 100 10000 0.5 0 19:37 01.01.2020
5206 Clear 0 1031 86 10000 1 0 19:19 01.01.2020
5207 Clear 0 1031 86 10000 1 0 18:56 01.01.2020
5208 Clear 0 1031 88 10000 0.5 0 18:36 01.01.2020
5209 Clear 1 1031 86 10000 1 280 18:18 01.01.2020
5210 Clear 1 1031 86 10000 1 280 17:56 01.01.2020
5211 Clear 1 1031 86 10000 1.5 290 17:38 01.01.2020
5212 Clear 2 1031 85 10000 0.5 280 17:19 01.01.2020
5213 Clear 2 1031 85 10000 0.5 260 16:55 01.01.2020
5214 Clear 2 1031 85 10000 0.5 260 16:36 01.01.2020
5215 Clear 3 1031 75 10000 0.5 0 16:18 01.01.2020
5216 Clear 3 1031 75 10000 0.5 0 15:54 01.01.2020
5217 Clear 4 1031 75 10000 0.5 0 15:36 01.01.2020
5218 Clear 3 1031 75 10000 1 0 15:18 01.01.2020
5219 Clear 4 1031 75 10000 1.5 60 14:41 01.01.2020
5220 Clear 4 1031 75 10000 1 0 14:22 01.01.2020
5221 Clear 4 1031 75 10000 1 0 13:56 01.01.2020
5222 Clear 4 1031 75 10000 1 0 13:56 01.01.2020
5223 Clear 4 1031 75 10000 1 80 13:37 01.01.2020
5224 Clear 4 1031 70 10000 0.5 0 13:19 01.01.2020
5225 Clear 5 1032 74 10000 0.5 0 12:57 01.01.2020
5226 Clear 4 1032 74 10000 0.5 0 12:39 01.01.2020
5227 Fog 4 1032 74 10000 1 0 12:19 01.01.2020
5228 Fog 3 1032 74 10000 1 0 11:56 01.01.2020
5229 Fog 2 1032 74 6000 0.5 0 11:37 01.01.2020
5230 Fog 1 1033 86 4500 1 0 11:18 01.01.2020
5231 Fog 1 1033 92 1800 0.5 0 10:54 01.01.2020
5232 Fog 1 1033 92 1800 0.5 0 10:36 01.01.2020
5233 Fog 0 1032 100 5000 1 0 10:18 01.01.2020
5234 Fog 0 1032 100 1800 0.5 0 09:38 01.01.2020
5235 Fog -1 1032 92 1500 1 0 09:19 01.01.2020
5236 Fog -1 1032 92 1500 1 0 09:19 01.01.2020
5237 Clear -1 1033 92 2200 2.1 90 08:56 01.01.2020
5238 Clear -1 1033 92 2200 2.1 90 08:37 01.01.2020
5239 Clear -1 1033 100 2200 2.1 110 08:19 01.01.2020
5240 Clear -1 1033 100 2200 2.1 110 07:56 01.01.2020
5241 Fog -1 1032 100 9000 1 0 07:38 01.01.2020
5242 Clouds -1 1032 92 10000 1 0 06:50 01.01.2020
5243 Clouds -1 1032 92 10000 1 0 06:32 01.01.2020
5244 Clouds 0 1032 92 9000 1 230 05:46 01.01.2020
5245 Clouds 0 1033 100 9000 0.5 0 04:20 01.01.2020
5246 Clouds 0 1033 100 10000 1 60 03:39 01.01.2020
5247 Clouds 0 1033 100 10000 1 80 03:21 01.01.2020
5248 Clouds 0 1033 89 10000 1 120 02:41 01.01.2020
5249 Clouds 0 1033 86 10000 0.5 0 02:22 01.01.2020
5250 Clouds 0 1033 80 10000 0.5 0 01:41 01.01.2020
5251 Clouds 0 1033 80 10000 0.5 0 01:22 01.01.2020
5252 Clouds 1 1033 80 8000 1 0 00:45 01.01.2020
5253 Clouds 1 1033 80 8000 1 0 00:26 01.01.2020
5254 Clouds 1 1034 80 10000 0.5 0 23:56 31.12.2019
5255 Clouds 1 1034 86 10000 0.5 0 23:36 31.12.2019
5256 Clouds 1 1034 71 10000 0.5 0 23:18 31.12.2019
5257 Clouds 1 1034 80 10000 0.5 0 22:55 31.12.2019
5258 Clouds 1 1034 80 10000 0.5 0 22:36 31.12.2019
5259 Clouds 1 1034 86 10000 1.5 220 22:18 31.12.2019
5260 Clouds 1 1034 86 10000 1 250 21:42 31.12.2019
5261 Clouds 1 1034 80 10000 1 240 21:24 31.12.2019
5262 Clouds 0 1034 71 10000 1 310 20:57 31.12.2019
5263 Clouds 1 1034 80 10000 1 240 20:57 31.12.2019
5264 Clouds 0 1034 71 10000 1 310 20:38 31.12.2019
5265 Clouds 0 1034 71 10000 1 310 20:38 31.12.2019
5266 Clouds 1 1034 67 10000 1.5 270 20:20 31.12.2019
5267 Clouds 1 1033 67 10000 1 0 19:57 31.12.2019
5268 Clouds 1 1033 67 10000 1 0 19:39 31.12.2019
5269 Clouds 1 1033 67 10000 2.1 300 19:20 31.12.2019
5270 Clouds 1 1033 67 10000 2.1 300 18:56 31.12.2019
5271 Clouds 1 1033 80 10000 2.1 290 18:38 31.12.2019
5272 Clouds 1 1033 74 10000 0.5 0 18:19 31.12.2019
5273 Clouds 2 1033 80 10000 1.5 20 17:55 31.12.2019
5274 Clouds 2 1033 80 10000 1.5 20 17:36 31.12.2019
5275 Clouds 3 1033 74 10000 1.5 30 17:18 31.12.2019
5276 Clouds 3 1032 64 10000 1 0 16:56 31.12.2019
5277 Clouds 4 1032 64 10000 1 0 16:37 31.12.2019
5278 Clouds 4 1032 64 10000 1 0 16:37 31.12.2019
5279 Clouds 4 1033 64 10000 2.1 10 16:18 31.12.2019
5280 Clouds 4 1032 56 10000 1.5 30 15:56 31.12.2019
5281 Clouds 5 1032 56 10000 1.5 30 15:38 31.12.2019
5282 Clouds 5 1032 52 10000 1.5 30 15:19 31.12.2019
5283 Clouds 5 1032 52 10000 1.5 30 14:55 31.12.2019
5284 Clouds 5 1032 56 10000 1 0 14:37 31.12.2019
5285 Clouds 5 1032 53 10000 0.5 0 14:18 31.12.2019
5286 Clouds 5 1032 53 10000 1 0 13:56 31.12.2019
5287 Clouds 4 1032 53 10000 1 0 13:38 31.12.2019
5288 Clouds 4 1032 55 10000 0.5 0 13:19 31.12.2019
5289 Clouds 5 1033 55 10000 0.5 0 12:55 31.12.2019
5290 Clouds 5 1033 55 10000 0.5 0 12:55 31.12.2019
5291 Clouds 5 1033 55 10000 0.5 0 12:37 31.12.2019
5292 Clouds 4 1033 55 10000 0.5 0 12:37 31.12.2019
5293 Clouds 4 1033 69 10000 1 0 12:18 31.12.2019
5294 Clouds 4 1033 69 10000 1 0 11:55 31.12.2019
5295 Clouds 3 1033 64 10000 0.5 0 11:37 31.12.2019
5296 Clouds 1 1033 80 10000 0.5 0 11:19 31.12.2019
5297 Clouds 1 1033 80 10000 0.5 0 11:19 31.12.2019
5298 Clouds 1 1033 80 10000 0.5 0 10:56 31.12.2019
5299 Clouds 1 1033 65 10000 0.5 0 10:37 31.12.2019
5300 Clouds 0 1032 86 10000 1.5 130 10:19 31.12.2019
5301 Clouds -1 1032 86 10000 1.5 130 09:57 31.12.2019
5302 Clouds 0 1032 86 10000 1.5 130 09:57 31.12.2019
5303 Clouds -1 1032 86 10000 1 0 09:38 31.12.2019
5304 Clouds -2 1031 92 10000 0.5 0 09:19 31.12.2019
5305 Clouds -2 1030 92 10000 1 0 08:43 31.12.2019
5306 Clear -2 1030 92 10000 1 0 08:23 31.12.2019
5307 Clear -2 1030 100 10000 0.5 0 07:59 31.12.2019
5308 Clear -2 1030 100 10000 0.5 0 07:41 31.12.2019
5309 Clear -2 1030 92 10000 1 0 07:19 31.12.2019
5310 Clear -2 1030 92 10000 1.5 280 06:42 31.12.2019
5311 Clear -2 1030 100 10000 0.5 0 05:54 31.12.2019
5312 Clear -2 1031 92 10000 1 0 04:27 31.12.2019
5313 Clear -2 1030 100 10000 1 180 03:27 31.12.2019
5314 Clear -1 1030 92 10000 1 0 02:43 31.12.2019
5315 Clouds -1 1030 92 10000 0.5 0 01:53 31.12.2019
5316 Clouds -1 1030 92 10000 0.5 0 01:34 31.12.2019
5317 Clouds 0 1030 92 10000 0.5 10 00:57 31.12.2019
5318 Clouds 0 1030 92 10000 0.5 10 00:38 31.12.2019
5319 Clouds 0 1030 92 10000 1 10 00:18 31.12.2019
5320 Clouds 0 1030 92 10000 1 10 23:56 30.12.2019
5321 Clouds 0 1030 92 10000 0.5 0 23:37 30.12.2019
5322 Clouds 0 1031 56 10000 1 0 23:19 30.12.2019
5323 Clouds 0 1031 56 10000 0.5 0 22:56 30.12.2019
5324 Clouds 0 1031 56 10000 0.5 0 22:56 30.12.2019
5325 Clouds 0 1031 56 10000 0.5 0 22:37 30.12.2019
5326 Clouds 0 1031 56 10000 0.5 0 22:18 30.12.2019
5327 Clouds 0 1031 56 10000 0.5 0 21:55 30.12.2019
5328 Clouds 0 1031 56 10000 1 0 21:37 30.12.2019
5329 Clouds 0 1031 56 10000 0.5 0 21:18 30.12.2019
5330 Clouds 0 1031 56 10000 0.5 0 20:56 30.12.2019
5331 Clouds 0 1031 56 10000 1 0 20:37 30.12.2019
5332 Clear 0 1031 80 10000 0.5 0 20:19 30.12.2019
5333 Clear 0 1031 80 10000 0.5 0 19:55 30.12.2019
5334 Clear 0 1031 86 10000 1 0 19:37 30.12.2019
5335 Clear 0 1031 86 10000 1.5 310 19:18 30.12.2019
5336 Clear 1 1031 86 10000 1.5 310 18:56 30.12.2019
5337 Clear 0 1031 57 10000 2.1 330 18:37 30.12.2019
5338 Clear 1 1031 74 10000 1 0 18:19 30.12.2019
5339 Clear 1 1031 74 10000 0.5 0 17:54 30.12.2019
5340 Clear 1 1031 74 10000 0.5 0 17:36 30.12.2019
5341 Clear 2 1031 64 10000 1.5 300 17:18 30.12.2019
5342 Clear 3 1031 64 10000 1.5 300 16:54 30.12.2019
5343 Clear 3 1031 65 10000 1 190 16:36 30.12.2019
5344 Clear 3 1031 60 10000 1 0 16:18 30.12.2019
5345 Clear 4 1031 48 10000 1.5 150 15:54 30.12.2019
5346 Clear 4 1031 48 10000 1.5 150 15:36 30.12.2019
5347 Clear 4 1032 48 10000 0.5 0 15:18 30.12.2019
5348 Clear 4 1032 65 10000 1 0 14:42 30.12.2019
5349 Clear 5 1032 65 10000 0.5 0 14:19 30.12.2019
5350 Clear 4 1032 65 10000 0.5 0 13:54 30.12.2019
5351 Clear 5 1032 74 10000 1 0 13:36 30.12.2019
5352 Clear 5 1033 69 10000 1 0 13:18 30.12.2019
5353 Clear 4 1033 80 10000 1 0 12:42 30.12.2019
5354 Clear 3 1033 39 10000 1 0 12:20 30.12.2019
5355 Clear 3 1034 39 10000 1 0 11:58 30.12.2019
5356 Clear 3 1034 39 10000 1 0 11:39 30.12.2019
5357 Clear 1 1034 86 10000 1 0 11:19 30.12.2019
5358 Clear 0 1034 86 10000 1 0 10:43 30.12.2019
5359 Clear -1 1034 92 10000 1 0 10:21 30.12.2019
5360 Clear -2 1034 92 10000 1 0 09:57 30.12.2019
5361 Clear -2 1034 86 10000 0.5 0 09:39 30.12.2019
5362 Clear -3 1034 92 10000 0.5 250 09:19 30.12.2019
5363 Clear -4 1034 92 10000 1.76 131 08:50 30.12.2019
5364 Clear -4 1034 92 10000 1.76 131 08:50 30.12.2019
5365 Clear -4 1034 92 10000 0.5 0 08:23 30.12.2019
5366 Clear -4 1034 100 10000 0.5 0 07:56 30.12.2019
5367 Clear -4 1034 100 10000 0.5 0 07:37 30.12.2019
5368 Clear -4 1034 100 10000 0.5 0 06:52 30.12.2019
5369 Clear -4 1035 92 10000 1 140 04:58 30.12.2019
5370 Clear -4 1035 92 10000 0.5 0 03:57 30.12.2019
5371 Clear -4 1035 92 10000 1 0 03:19 30.12.2019
5372 Clear -3 1035 92 10000 1 0 02:40 30.12.2019
5373 Clear -3 1036 85 10000 0.5 0 01:55 30.12.2019
5374 Clear -3 1036 92 10000 0.5 0 01:23 30.12.2019
5375 Clear -3 1036 92 10000 1 360 00:45 30.12.2019
5376 Clear -3 1036 85 10000 1 260 00:19 30.12.2019
5377 Clear -3 1036 92 10000 0.5 0 23:39 29.12.2019
5378 Clear -3 1036 92 10000 1 0 23:21 29.12.2019
5379 Clear -3 1036 92 10000 0.5 0 22:55 29.12.2019
5380 Clear -3 1036 92 10000 0.5 0 22:37 29.12.2019
5381 Clear -3 1036 100 10000 1 100 22:18 29.12.2019
5382 Clear -2 1036 86 10000 0.5 0 21:43 29.12.2019
5383 Clear -2 1036 86 10000 1 0 21:21 29.12.2019
5384 Clear -2 1036 86 10000 1 0 20:58 29.12.2019
5385 Clear -2 1036 86 10000 0.5 70 20:39 29.12.2019
5386 Clouds -2 1036 86 10000 0.5 0 20:21 29.12.2019
5387 Clouds -1 1036 86 10000 0.5 0 19:59 29.12.2019
5388 Clouds -1 1036 80 10000 2.6 80 19:40 29.12.2019
5389 Clouds -1 1036 68 10000 1.5 60 19:21 29.12.2019
5390 Clouds -1 1036 68 10000 1.5 60 18:58 29.12.2019
5391 Clouds -1 1036 86 10000 0.5 0 18:39 29.12.2019
5392 Clouds -1 1036 68 10000 1 0 18:20 29.12.2019
5393 Clouds -1 1036 68 10000 1 0 17:58 29.12.2019
5394 Clouds 0 1036 68 10000 0.5 0 17:39 29.12.2019
5395 Clouds 0 1036 63 10000 1 210 17:20 29.12.2019
5396 Clouds 1 1036 74 10000 1.54 105 16:57 29.12.2019
5397 Clouds 1 1036 74 10000 1.54 105 16:39 29.12.2019
5398 Clouds 2 1036 64 10000 0.5 0 16:21 29.12.2019
5399 Clouds 2 1036 64 10000 0.5 0 15:58 29.12.2019
5400 Clouds 2 1036 64 10000 0.5 0 15:39 29.12.2019
5401 Clouds 3 1036 64 10000 0.5 0 15:20 29.12.2019
5402 Clouds 3 1036 64 10000 0.5 0 15:20 29.12.2019
5403 Clouds 3 1036 64 10000 0.5 0 14:58 29.12.2019
5404 Clouds 3 1036 64 10000 1.5 80 14:39 29.12.2019
5405 Clear 3 1036 69 10000 0.5 0 14:18 29.12.2019
5406 Clear 3 1036 69 10000 0.5 0 13:58 29.12.2019
5407 Clear 3 1036 69 10000 1 0 13:39 29.12.2019
5408 Clear 2 1037 69 10000 1 0 13:21 29.12.2019
5409 Clear 2 1037 57 10000 1 0 12:56 29.12.2019
5410 Clear 2 1037 57 10000 1 0 12:38 29.12.2019
5411 Clear 1 1037 57 10000 1 0 12:20 29.12.2019
5412 Clear 1 1038 80 10000 1 0 11:41 29.12.2019
5413 Clear -1 1038 86 10000 1.5 70 11:21 29.12.2019
5414 Clear -1 1038 86 10000 1.5 70 10:57 29.12.2019
5415 Clear -2 1038 80 10000 1 0 10:38 29.12.2019
5416 Clear -2 1038 86 10000 0.5 0 10:18 29.12.2019
5417 Clear -3 1038 92 10000 0.5 0 09:45 29.12.2019
5418 Clear -4 1038 85 10000 1 0 09:27 29.12.2019
5419 Clear -4 1037 92 10000 1.5 320 08:56 29.12.2019
5420 Clear -4 1037 92 10000 1.5 320 08:38 29.12.2019
5421 Clouds -4 1037 92 10000 1.5 280 08:20 29.12.2019
5422 Clouds -4 1037 85 10000 1 0 07:44 29.12.2019
5423 Clouds -4 1037 92 10000 1 0 07:25 29.12.2019
5424 Clouds -4 1037 92 10000 1 0 06:38 29.12.2019
5425 Clouds -4 1037 92 10000 1 280 06:18 29.12.2019
5426 Clouds -4 1038 92 10000 1 320 05:44 29.12.2019
5427 Clouds -3 1038 92 10000 1.86 82 04:32 29.12.2019
5428 Clouds -3 1038 85 10000 2.1 300 03:36 29.12.2019
5429 Clouds -3 1038 92 10000 2.1 300 02:30 29.12.2019
5430 Clouds -3 1038 92 10000 2.1 300 02:30 29.12.2019
5431 Clouds -2 1038 92 10000 0.5 0 01:52 29.12.2019
5432 Clouds -2 1038 92 10000 0.5 0 01:29 29.12.2019
5433 Clouds -3 1039 92 10000 1 280 00:47 29.12.2019
5434 Clouds -3 1039 92 10000 1 280 00:25 29.12.2019
5435 Clouds -2 1039 86 10000 0.5 0 23:55 28.12.2019
5436 Clouds -2 1039 86 10000 1 0 23:37 28.12.2019
5437 Clouds -2 1039 92 10000 1.5 320 23:18 28.12.2019
5438 Clouds -2 1039 92 10000 1.5 320 23:18 28.12.2019
5439 Clouds -2 1039 92 10000 0.5 0 22:38 28.12.2019
5440 Clouds -2 1039 92 10000 1 90 22:19 28.12.2019
5441 Clouds -2 1039 92 10000 1 90 21:57 28.12.2019
5442 Clouds -2 1039 92 10000 1.5 80 21:38 28.12.2019
5443 Clouds -1 1039 92 10000 1 70 21:19 28.12.2019
5444 Clouds -1 1039 86 10000 0.5 0 20:55 28.12.2019
5445 Clouds -1 1039 86 10000 0.5 0 20:36 28.12.2019
5446 Clouds -1 1039 86 10000 1 80 20:18 28.12.2019
5447 Clouds -1 1039 86 10000 1 0 19:54 28.12.2019
5448 Clouds -1 1039 86 10000 1 0 19:36 28.12.2019
5449 Clouds -1 1039 86 10000 2.1 90 19:18 28.12.2019
5450 Clouds -1 1039 92 10000 2.1 90 18:42 28.12.2019
5451 Clouds -1 1039 79 10000 1.5 80 18:20 28.12.2019
5452 Clouds -1 1039 79 10000 1.5 80 17:59 28.12.2019
5453 Clouds 0 1039 79 10000 1.5 100 17:41 28.12.2019
5454 Clear 0 1038 76 10000 2.1 90 17:21 28.12.2019
5455 Clear 1 1038 80 10000 2.6 90 16:55 28.12.2019
5456 Clear 1 1038 80 10000 2.6 90 16:36 28.12.2019
5457 Clear 1 1038 80 10000 2.6 90 16:36 28.12.2019
5458 Clouds 1 1038 74 10000 3.6 90 16:18 28.12.2019
5459 Clouds 2 1038 69 10000 2.6 100 15:43 28.12.2019
5460 Clouds 3 1038 69 10000 2.1 70 15:21 28.12.2019
5461 Clouds 3 1038 69 10000 2.1 50 14:48 28.12.2019
5462 Clouds 3 1038 69 10000 2.1 40 14:26 28.12.2019
5463 Clouds 3 1038 69 10000 2.1 40 13:58 28.12.2019
5464 Clouds 3 1038 69 10000 3.1 70 13:40 28.12.2019
5465 Clouds 3 1038 74 10000 2.6 80 13:21 28.12.2019
5466 Clouds 3 1038 74 10000 2.6 80 12:58 28.12.2019
5467 Clouds 3 1038 74 10000 2.6 100 12:40 28.12.2019
5468 Clouds 2 1038 80 10000 2.6 70 12:21 28.12.2019
5469 Clouds 2 1038 80 10000 2.1 80 11:40 28.12.2019
5470 Clouds 2 1038 86 10000 1.5 110 11:21 28.12.2019
5471 Clouds 1 1038 86 10000 0.5 120 10:56 28.12.2019
5472 Clouds 0 1038 86 10000 0.5 120 10:38 28.12.2019
5473 Clouds 1 1038 84 10000 0.5 0 10:19 28.12.2019
5474 Clouds 0 1038 84 10000 0.5 0 09:54 28.12.2019
5475 Clouds -1 1038 84 10000 0.5 0 09:36 28.12.2019
5476 Clouds -1 1037 84 8000 0.5 0 09:18 28.12.2019
5477 Clouds -1 1037 84 8000 0.5 130 08:43 28.12.2019
5478 Clouds -1 1037 83 8000 0.5 130 08:24 28.12.2019
5479 Clouds -1 1037 89 10000 0.5 0 07:48 28.12.2019
5480 Clouds -1 1036 89 10000 0.5 0 07:23 28.12.2019
5481 Clouds -1 1036 89 10000 2.1 320 05:52 28.12.2019
5482 Clouds 0 1035 89 10000 1.5 50 03:49 28.12.2019
5483 Clouds 1 1035 89 10000 1.5 60 02:52 28.12.2019
5484 Clouds 1 1035 89 10000 1.5 60 02:31 28.12.2019
5485 Clouds 2 1035 90 10000 3.6 50 01:56 28.12.2019
5486 Clouds 1 1035 90 10000 1.5 0 01:56 28.12.2019
5487 Clouds 2 1035 89 10000 3.6 50 01:24 28.12.2019
5488 Clouds 2 1035 86 10000 3.6 40 00:51 28.12.2019
5489 Clouds 2 1035 86 10000 3.6 40 00:32 28.12.2019
5490 Clouds 2 1035 86 10000 3.6 40 00:32 28.12.2019
5491 Clouds 3 1034 86 10000 2.1 40 23:59 27.12.2019
5492 Clouds 3 1034 86 10000 2.6 50 23:41 27.12.2019
5493 Clouds 3 1034 86 10000 2.6 40 23:19 27.12.2019
5494 Clouds 3 1034 86 10000 2.6 40 22:57 27.12.2019
5495 Clouds 3 1034 86 10000 2.6 40 22:57 27.12.2019
5496 Clouds 3 1033 86 10000 2.6 50 22:38 27.12.2019
5497 Clouds 3 1033 86 10000 3.1 40 22:20 27.12.2019
5498 Clouds 3 1033 86 10000 3.1 40 21:54 27.12.2019
5499 Clouds 4 1033 86 10000 2.6 30 21:36 27.12.2019
5500 Clouds 4 1032 86 10000 3.6 60 21:18 27.12.2019
5501 Clouds 4 1032 86 10000 2.6 40 20:40 27.12.2019
5502 Clouds 4 1031 86 10000 2.6 50 20:21 27.12.2019
5503 Clouds 4 1031 93 10000 2.6 50 19:42 27.12.2019
5504 Clouds 4 1031 93 10000 2.6 40 19:20 27.12.2019
5505 Clouds 4 1031 93 10000 2.6 40 18:59 27.12.2019
5506 Clouds 4 1030 93 10000 3.1 40 18:39 27.12.2019
5507 Clouds 5 1029 93 10000 2.6 30 18:20 27.12.2019
5508 Clouds 5 1029 93 10000 2.6 30 17:57 27.12.2019
5509 Clouds 5 1029 100 8000 3.1 10 17:39 27.12.2019
5510 Clouds 5 1028 100 7000 3.6 360 17:19 27.12.2019
5511 Clouds 5 1028 100 7000 3.6 360 16:58 27.12.2019
5512 Mist 6 1028 93 5000 2.6 360 16:38 27.12.2019
5513 Mist 6 1027 93 4000 3.1 350 16:19 27.12.2019
5514 Mist 6 1027 93 4000 2.6 350 15:44 27.12.2019
5515 Fog 6 1027 93 4000 2.6 360 15:22 27.12.2019
5516 Fog 6 1026 100 3000 3.6 360 14:57 27.12.2019
5517 Fog 6 1026 100 3000 3.6 360 14:39 27.12.2019
5518 Drizzle 6 1026 100 2500 4.1 360 14:20 27.12.2019
5519 Clouds 6 1025 93 10000 1 0 13:55 27.12.2019
5520 Clouds 6 1025 93 10000 1 0 13:37 27.12.2019
5521 Clouds 6 1025 93 8000 1 0 13:18 27.12.2019
5522 Drizzle 6 1024 93 4000 1 0 12:40 27.12.2019
5523 Drizzle 6 1024 93 2500 1 0 12:22 27.12.2019
5524 Rain 6 1024 100 3500 1 80 11:46 27.12.2019
5525 Rain 5 1023 100 3500 1 0 11:26 27.12.2019
5526 Rain 5 1023 100 3500 1 0 11:26 27.12.2019
5527 Fog 5 1023 93 8000 1 70 10:59 27.12.2019
5528 Fog 5 1023 93 8000 1 70 10:40 27.12.2019
5529 Fog 5 1022 93 10000 1 0 10:22 27.12.2019
5530 Rain 5 1022 100 10000 0.5 0 09:46 27.12.2019
5531 Rain 4 1022 100 10000 1.5 70 09:22 27.12.2019
5532 Rain 4 1021 100 10000 1 60 08:59 27.12.2019
5533 Rain 4 1021 100 10000 1 60 08:59 27.12.2019
5534 Rain 5 1021 100 10000 1 60 08:38 27.12.2019
5535 Rain 4 1021 100 10000 2.1 70 07:57 27.12.2019
5536 Rain 4 1021 100 10000 2.1 70 07:38 27.12.2019
5537 Clouds 4 1020 93 10000 1 0 06:39 27.12.2019
5538 Rain 4 1020 93 10000 1 260 06:18 27.12.2019
5539 Rain 4 1021 93 10000 0.5 0 04:32 27.12.2019
5540 Clouds 4 1022 86 10000 0.5 0 02:27 27.12.2019
5541 Clouds 4 1022 86 10000 1 0 01:42 27.12.2019
5542 Clouds 4 1022 86 10000 1 0 01:20 27.12.2019
5543 Rain 3 1023 86 10000 1 0 00:46 27.12.2019
5544 Rain 3 1023 80 10000 1.5 190 00:25 27.12.2019
5545 Clouds 3 1023 80 10000 1.5 210 23:54 26.12.2019
5546 Clouds 3 1023 80 10000 1.5 210 23:36 26.12.2019
5547 Clouds 3 1023 80 10000 2.1 220 23:18 26.12.2019
5548 Clouds 3 1023 80 10000 1.5 210 22:38 26.12.2019
5549 Clouds 4 1023 80 10000 1 0 22:18 26.12.2019
5550 Clouds 3 1024 80 10000 2.1 210 21:40 26.12.2019
5551 Clouds 3 1024 80 10000 2.1 250 21:21 26.12.2019
5552 Clouds 3 1024 80 10000 2.1 250 20:58 26.12.2019
5553 Clouds 3 1023 80 10000 2.1 200 20:38 26.12.2019
5554 Clouds 3 1023 80 10000 2.1 200 20:38 26.12.2019
5555 Clouds 3 1024 80 10000 2.1 190 20:20 26.12.2019
5556 Clouds 3 1024 86 10000 2.1 200 19:56 26.12.2019
5557 Clouds 3 1024 86 10000 2.1 200 19:38 26.12.2019
5558 Clouds 3 1024 86 10000 1 0 19:19 26.12.2019
5559 Clouds 3 1024 86 10000 1 0 18:57 26.12.2019
5560 Clouds 3 1023 86 10000 0.5 0 18:36 26.12.2019
5561 Clouds 3 1023 93 10000 0.5 0 18:18 26.12.2019
5562 Clouds 3 1023 93 10000 1 280 17:42 26.12.2019
5563 Clouds 4 1023 100 10000 1.5 0 17:22 26.12.2019
5564 Clouds 4 1022 100 10000 1 0 16:51 26.12.2019
5565 Clouds 4 1022 100 10000 1.5 90 16:29 26.12.2019
5566 Clouds 4 1022 100 10000 1.5 90 15:59 26.12.2019
5567 Clouds 4 1023 100 10000 1 90 15:40 26.12.2019
5568 Fog 5 1023 100 8000 1 0 15:19 26.12.2019
5569 Fog 5 1023 100 8000 1 0 14:43 26.12.2019
5570 Fog 5 1023 100 6000 2.1 70 14:24 26.12.2019
5571 Fog 5 1023 100 6000 2.1 70 14:24 26.12.2019
5572 Fog 5 1023 100 6000 2.1 70 14:24 26.12.2019
5573 Fog 4 1023 100 6000 2.1 70 13:58 26.12.2019
5574 Fog 4 1023 93 6000 2.6 70 13:40 26.12.2019
5575 Fog 4 1024 100 6000 1.5 80 13:19 26.12.2019
5576 Fog 4 1024 100 500 0.5 0 12:56 26.12.2019
5577 Fog 4 1024 100 500 0.5 0 12:37 26.12.2019
5578 Fog 3 1024 100 300 0.5 0 12:18 26.12.2019
5579 Fog 3 1024 100 300 0.5 0 11:56 26.12.2019
5580 Fog 3 1025 100 300 1 0 11:37 26.12.2019
5581 Fog 3 1025 89 300 1 0 11:19 26.12.2019
5582 Fog 3 1025 89 300 0.5 0 10:41 26.12.2019
5583 Fog 2 1025 89 400 1 80 10:18 26.12.2019
5584 Fog 1 1024 89 2600 1 0 09:43 26.12.2019
5585 Clouds 1 1025 89 10000 1 0 09:25 26.12.2019
5586 Clouds 1 1025 100 10000 0.5 0 08:42 26.12.2019
5587 Clouds 1 1025 100 10000 0.5 0 08:24 26.12.2019
5588 Clouds 2 1025 100 10000 1 0 07:53 26.12.2019
5589 Clouds 2 1025 100 10000 1 0 07:26 26.12.2019
5590 Clouds 2 1025 93 10000 2.1 290 06:53 26.12.2019
5591 Clouds 2 1025 93 10000 2.1 290 06:32 26.12.2019
5592 Clouds 3 1025 100 10000 1.5 290 05:45 26.12.2019
5593 Clouds 3 1025 93 10000 0.5 0 04:57 26.12.2019
5594 Clouds 3 1025 93 10000 0.5 0 04:30 26.12.2019
5595 Clouds 3 1025 93 10000 1.5 290 02:56 26.12.2019
5596 Clouds 3 1025 93 10000 1.5 320 02:34 26.12.2019
5597 Clouds 3 1025 93 10000 1.5 320 02:34 26.12.2019
5598 Clouds 3 1025 93 10000 1 300 01:50 26.12.2019
5599 Clouds 3 1025 93 10000 1 300 01:32 26.12.2019
5600 Clouds 4 1025 93 10000 1 210 00:50 26.12.2019
5601 Clouds 4 1025 93 10000 1 210 00:27 26.12.2019
5602 Clouds 4 1025 93 10000 0.5 0 23:59 25.12.2019
5603 Clouds 4 1025 93 10000 3.1 260 23:40 25.12.2019
5604 Clouds 4 1025 86 10000 2.1 250 23:21 25.12.2019
5605 Clouds 4 1025 86 10000 2.1 250 22:59 25.12.2019
5606 Clouds 4 1025 93 10000 1.5 220 22:39 25.12.2019
5607 Clouds 4 1025 86 10000 1.5 230 22:21 25.12.2019
5608 Clouds 4 1025 86 10000 1.5 230 21:59 25.12.2019
5609 Clouds 4 1025 86 10000 2.1 260 21:39 25.12.2019
5610 Rain 4 1025 86 10000 1 330 21:20 25.12.2019
5611 Rain 5 1025 86 10000 1 330 20:57 25.12.2019
5612 Rain 4 1025 86 10000 3.6 290 20:39 25.12.2019
5613 Rain 5 1024 86 10000 5.1 270 20:18 25.12.2019
5614 Rain 5 1024 86 10000 5.1 270 20:18 25.12.2019
5615 Rain 5 1024 86 10000 4.1 280 19:43 25.12.2019
5616 Rain 5 1024 86 10000 4.1 280 19:25 25.12.2019
5617 Clouds 5 1024 86 10000 5.1 270 18:59 25.12.2019
5618 Clouds 5 1023 86 10000 4.6 260 18:38 25.12.2019
5619 Clouds 5 1023 86 10000 4.6 260 18:38 25.12.2019
5620 Rain 5 1023 86 10000 3.6 250 18:19 25.12.2019
5621 Rain 6 1023 81 10000 4.1 250 17:42 25.12.2019
5622 Rain 5 1023 81 10000 4.1 250 17:20 25.12.2019
5623 Rain 6 1023 81 10000 4.1 250 16:59 25.12.2019
5624 Clouds 6 1022 81 10000 6.7 270 16:39 25.12.2019
5625 Clouds 6 1022 75 10000 6.7 270 16:19 25.12.2019
5626 Clouds 6 1021 75 10000 7.2 270 15:57 25.12.2019
5627 Clouds 6 1022 75 10000 6.7 270 15:57 25.12.2019
5628 Clouds 6 1021 75 10000 7.2 270 15:39 25.12.2019
5629 Clouds 6 1021 75 10000 8.2 280 15:20 25.12.2019
5630 Clouds 7 1020 81 10000 7.7 280 14:58 25.12.2019
5631 Clouds 7 1020 81 10000 7.7 280 14:40 25.12.2019
5632 Clouds 7 1020 81 10000 7.2 280 14:21 25.12.2019
5633 Rain 7 1019 87 10000 8.2 280 13:57 25.12.2019
5634 Rain 7 1019 87 10000 8.2 280 13:38 25.12.2019
5635 Rain 7 1019 87 7000 9.8 300 13:19 25.12.2019
5636 Rain 7 1018 87 10000 5.7 280 12:40 25.12.2019
5637 Clouds 6 1018 87 10000 6.7 290 12:20 25.12.2019
5638 Clouds 6 1018 87 10000 6.7 290 11:56 25.12.2019
5639 Rain 6 1018 87 4000 9.8 300 11:38 25.12.2019
5640 Rain 6 1017 93 10000 6.7 260 11:18 25.12.2019
5641 Rain 6 1017 93 10000 4.6 250 10:38 25.12.2019
5642 Rain 6 1016 87 10000 5.1 240 10:20 25.12.2019
5643 Rain 7 1016 87 10000 5.1 230 09:51 25.12.2019
5644 Rain 6 1016 87 10000 5.1 230 09:32 25.12.2019
5645 Rain 7 1016 93 10000 3.1 200 08:51 25.12.2019
5646 Rain 7 1016 93 10000 3.1 200 08:51 25.12.2019
5647 Rain 7 1016 93 10000 2.6 210 08:31 25.12.2019
5648 Clouds 7 1016 93 10000 2.1 200 07:52 25.12.2019
5649 Clouds 7 1016 93 10000 2.1 200 07:34 25.12.2019
5650 Rain 7 1015 93 10000 3.1 220 06:52 25.12.2019
5651 Rain 7 1015 93 10000 4.1 200 06:23 25.12.2019
5652 Rain 7 1016 93 10000 3.6 220 05:31 25.12.2019
5653 Rain 6 1015 93 10000 2.6 210 04:39 25.12.2019
5654 Rain 6 1015 81 10000 2.6 210 04:20 25.12.2019
5655 Rain 6 1015 87 10000 3.6 210 03:43 25.12.2019
5656 Rain 6 1015 81 0 3.6 210 02:56 25.12.2019
5657 Clouds 7 1015 87 10000 3.6 190 02:28 25.12.2019
5658 Clouds 7 1015 81 10000 3.1 200 01:26 25.12.2019
5659 Clouds 6 1015 87 10000 2.6 210 00:56 25.12.2019
5660 Rain 7 1016 87 10000 2.1 240 00:33 25.12.2019
5661 Rain 7 1015 81 10000 2.6 210 23:59 24.12.2019
5662 Rain 7 1015 81 10000 2.6 210 23:39 24.12.2019
5663 Rain 7 1015 81 10000 2.6 210 23:39 24.12.2019
5664 Rain 7 1015 81 10000 3.1 200 23:20 24.12.2019
5665 Rain 7 1015 81 10000 3.1 200 23:20 24.12.2019
5666 Rain 7 1015 75 10000 2.1 220 22:42 24.12.2019
5667 Rain 7 1015 81 10000 3.6 190 22:23 24.12.2019
5668 Rain 7 1015 81 10000 3.6 190 21:57 24.12.2019
5669 Rain 7 1015 81 10000 2.6 190 21:37 24.12.2019
5670 Clouds 7 1015 81 10000 3.1 180 21:19 24.12.2019
5671 Clouds 7 1015 81 10000 3.1 190 20:41 24.12.2019
5672 Clouds 7 1015 81 10000 2.6 210 20:20 24.12.2019
5673 Clouds 7 1015 81 10000 3.6 230 19:47 24.12.2019
5674 Rain 7 1015 75 10000 2.6 210 19:22 24.12.2019
5675 Rain 7 1015 75 10000 2.6 210 18:59 24.12.2019
5676 Rain 7 1014 75 10000 2.6 220 18:40 24.12.2019
5677 Clouds 7 1015 75 10000 3.1 200 18:18 24.12.2019
5678 Clouds 7 1014 87 10000 2.6 190 17:43 24.12.2019
5679 Clouds 7 1014 81 10000 2.1 260 17:22 24.12.2019
5680 Clouds 7 1014 81 10000 2.1 260 16:58 24.12.2019
5681 Clouds 7 1013 81 10000 5.1 280 16:39 24.12.2019
5682 Clouds 7 1013 87 10000 5.7 270 16:20 24.12.2019
5683 Clouds 7 1013 87 10000 5.7 270 15:57 24.12.2019
5684 Clouds 7 1012 87 10000 3.6 240 15:37 24.12.2019
5685 Clouds 7 1011 93 10000 3.1 210 15:19 24.12.2019
5686 Clouds 7 1011 93 10000 3.1 210 14:58 24.12.2019
5687 Rain 7 1012 100 10000 3.6 240 14:39 24.12.2019
5688 Rain 6 1012 93 10000 4.1 230 14:21 24.12.2019
5689 Rain 6 1011 93 10000 3.6 220 13:56 24.12.2019
5690 Rain 6 1011 93 10000 3.6 220 13:38 24.12.2019
5691 Rain 5 1011 87 10000 3.1 190 13:19 24.12.2019
5692 Rain 5 1011 87 10000 3.1 190 12:56 24.12.2019
5693 Rain 5 1012 87 10000 3.1 190 12:37 24.12.2019
5694 Rain 5 1012 93 10000 2.1 150 12:19 24.12.2019
5695 Rain 5 1012 93 10000 2.1 150 11:56 24.12.2019
5696 Rain 5 1013 86 10000 1.5 150 11:37 24.12.2019
5697 Rain 5 1013 80 10000 1.5 170 11:19 24.12.2019
5698 Rain 5 1013 80 10000 1.5 170 10:56 24.12.2019
5699 Rain 5 1013 80 10000 1.5 170 10:56 24.12.2019
5700 Clouds 5 1014 75 10000 2.6 160 10:56 24.12.2019
5701 Clouds 5 1014 75 10000 2.6 160 10:38 24.12.2019
5702 Clouds 5 1014 75 10000 2.6 160 10:38 24.12.2019
5703 Clouds 5 1015 75 10000 2.1 170 10:19 24.12.2019
5704 Clouds 5 1015 75 10000 2.1 170 09:55 24.12.2019
5705 Rain 5 1015 80 10000 2.1 180 09:37 24.12.2019
5706 Clouds 4 1016 80 10000 1 0 09:19 24.12.2019
5707 Clouds 4 1016 80 10000 1 0 08:46 24.12.2019
5708 Clouds 4 1016 80 10000 1 0 08:24 24.12.2019
5709 Clouds 4 1017 86 10000 1.5 150 07:54 24.12.2019
5710 Clouds 4 1017 86 10000 1.5 150 07:36 24.12.2019
5711 Clouds 4 1017 86 10000 1.5 150 07:18 24.12.2019
5712 Clouds 4 1018 86 10000 1 0 06:39 24.12.2019
5713 Clouds 5 1018 86 10000 1.5 190 06:19 24.12.2019
5714 Clouds 5 1018 80 10000 2.1 200 05:50 24.12.2019
5715 Clouds 5 1019 86 10000 3.1 200 05:19 24.12.2019
5716 Clouds 5 1019 93 10000 2.6 190 04:21 24.12.2019
5717 Clouds 5 1019 86 10000 3.1 200 03:45 24.12.2019
5718 Clouds 5 1019 86 10000 2.6 210 02:28 24.12.2019
5719 Clouds 5 1019 93 10000 3.1 220 01:54 24.12.2019
5720 Clouds 5 1019 86 10000 2.6 210 01:54 24.12.2019
5721 Rain 5 1019 93 10000 4.1 220 01:26 24.12.2019
5722 Rain 5 1019 93 10000 4.1 220 00:58 24.12.2019
5723 Clouds 5 1018 87 10000 3.1 220 00:39 24.12.2019
5724 Clouds 5 1018 93 10000 2.6 230 00:19 24.12.2019
5725 Rain 6 1018 93 10000 2.6 220 23:42 23.12.2019
5726 Rain 6 1018 93 10000 2.6 220 23:42 23.12.2019
5727 Rain 6 1018 87 10000 2.1 200 23:24 23.12.2019
5728 Rain 6 1017 93 10000 1.5 250 22:57 23.12.2019
5729 Rain 6 1017 93 10000 1.5 250 22:38 23.12.2019
5730 Rain 6 1017 93 10000 1.5 250 22:38 23.12.2019
5731 Rain 6 1017 87 10000 2.6 230 22:20 23.12.2019
5732 Rain 6 1017 87 10000 2.6 230 22:20 23.12.2019
5733 Rain 6 1017 87 10000 4.6 230 21:56 23.12.2019
5734 Rain 6 1017 87 10000 4.6 230 21:37 23.12.2019
5735 Clouds 6 1016 87 10000 2.1 230 21:19 23.12.2019
5736 Clouds 6 1016 87 10000 4.1 260 20:58 23.12.2019
5737 Clouds 6 1016 87 10000 4.1 260 20:40 23.12.2019
5738 Clouds 6 1016 86 10000 3.6 260 20:19 23.12.2019
5739 Clouds 6 1016 86 10000 3.6 260 19:58 23.12.2019
5740 Rain 6 1015 87 10000 3.6 250 19:40 23.12.2019
5741 Rain 6 1015 87 10000 4.1 250 19:21 23.12.2019
5742 Clouds 6 1015 87 10000 4.6 250 18:58 23.12.2019
5743 Clouds 6 1015 87 10000 4.6 250 18:39 23.12.2019
5744 Clouds 6 1014 93 10000 3.6 250 18:20 23.12.2019
5745 Rain 6 1014 93 10000 3.1 240 17:59 23.12.2019
5746 Rain 6 1014 93 10000 3.1 240 17:40 23.12.2019
5747 Rain 6 1013 93 10000 3.1 240 17:19 23.12.2019
5748 Rain 6 1013 81 10000 4.1 250 16:57 23.12.2019
5749 Rain 6 1013 81 10000 4.1 250 16:39 23.12.2019
5750 Rain 6 1012 81 10000 4.6 250 16:19 23.12.2019
5751 Rain 6 1012 81 10000 4.6 250 16:19 23.12.2019
5752 Rain 6 1012 81 10000 4.6 250 15:58 23.12.2019
5753 Clouds 6 1012 81 10000 4.6 260 15:37 23.12.2019
5754 Rain 7 1011 87 10000 3.6 250 15:19 23.12.2019
5755 Rain 7 1011 87 10000 3.6 230 14:56 23.12.2019
5756 Rain 7 1011 87 10000 3.6 230 14:38 23.12.2019
5757 Rain 6 1010 87 10000 2.1 220 14:19 23.12.2019
5758 Rain 7 1010 87 10000 2.1 220 14:19 23.12.2019
5759 Rain 6 1010 87 10000 2.1 220 13:57 23.12.2019
5760 Rain 6 1010 87 10000 2.1 210 13:39 23.12.2019
5761 Rain 6 1010 87 10000 3.1 230 13:20 23.12.2019
5762 Rain 6 1009 87 10000 4.1 220 12:55 23.12.2019
5763 Rain 6 1009 87 10000 4.1 220 12:36 23.12.2019
5764 Rain 6 1009 81 10000 4.6 240 12:18 23.12.2019
5765 Rain 6 1009 81 10000 5.1 240 11:42 23.12.2019
5766 Rain 6 1009 81 10000 5.1 240 11:42 23.12.2019
5767 Clouds 6 1008 81 10000 3.1 230 11:24 23.12.2019
5768 Clouds 6 1008 81 10000 2.6 220 10:56 23.12.2019
5769 Clouds 6 1008 81 10000 2.6 220 10:38 23.12.2019
5770 Rain 6 1008 87 10000 3.1 220 10:20 23.12.2019
5771 Rain 5 1008 87 10000 3.1 220 09:58 23.12.2019
5772 Rain 5 1007 93 10000 2.6 210 09:39 23.12.2019
5773 Rain 5 1007 93 10000 2.6 210 09:39 23.12.2019
5774 Rain 5 1007 93 10000 3.6 220 09:20 23.12.2019
5775 Rain 5 1007 93 10000 3.6 220 08:55 23.12.2019
5776 Rain 5 1006 86 10000 4.1 230 08:37 23.12.2019
5777 Rain 5 1006 86 10000 3.6 220 08:18 23.12.2019
5778 Rain 6 1005 86 10000 4.1 220 07:43 23.12.2019
5779 Rain 6 1005 86 10000 2.1 210 07:19 23.12.2019
5780 Clouds 5 1004 86 10000 2.1 210 06:50 23.12.2019
5781 Rain 6 1004 93 10000 3.6 250 06:23 23.12.2019
5782 Clouds 6 1004 86 10000 2.1 230 05:49 23.12.2019
5783 Clouds 6 1003 93 10000 3.1 250 05:19 23.12.2019
5784 Rain 5 1003 93 10000 3.6 230 04:19 23.12.2019
5785 Clouds 6 1000 93 10000 5.1 240 02:49 23.12.2019
5786 Clouds 6 1000 93 10000 5.1 240 02:25 23.12.2019
5787 Rain 6 1000 93 10000 5.1 240 01:55 23.12.2019
5788 Rain 5 999 86 10000 4.1 240 01:36 23.12.2019
5789 Rain 6 999 86 10000 3.6 230 01:18 23.12.2019
5790 Clouds 5 999 86 10000 3.6 220 00:35 23.12.2019
5791 Rain 6 998 86 10000 3.6 230 23:57 22.12.2019
5792 Rain 6 998 86 10000 3.1 220 23:39 22.12.2019
5793 Rain 6 998 93 10000 3.1 200 23:20 22.12.2019
5794 Rain 6 998 93 10000 3.1 200 22:58 22.12.2019
5795 Clouds 6 997 93 10000 1.5 230 22:38 22.12.2019
5796 Rain 6 997 93 10000 4.1 250 22:19 22.12.2019
5797 Rain 6 997 93 10000 4.1 250 21:57 22.12.2019
5798 Rain 6 996 81 10000 5.1 240 21:39 22.12.2019
5799 Rain 6 996 87 10000 4.1 240 21:20 22.12.2019
5800 Rain 6 996 87 10000 4.6 250 20:56 22.12.2019
5801 Rain 6 996 87 10000 4.6 250 20:38 22.12.2019
5802 Rain 6 995 81 10000 4.6 240 20:18 22.12.2019
5803 Rain 6 995 81 10000 4.6 240 19:54 22.12.2019
5804 Clouds 6 995 87 10000 4.1 230 19:36 22.12.2019
5805 Clouds 7 994 87 10000 3.6 210 19:18 22.12.2019
5806 Clouds 7 994 81 10000 3.1 210 18:39 22.12.2019
5807 Clouds 7 994 81 10000 3.1 210 18:39 22.12.2019
5808 Rain 7 993 81 10000 2.6 220 18:21 22.12.2019
5809 Rain 7 993 81 10000 3.6 240 17:55 22.12.2019
5810 Rain 7 993 81 10000 3.6 240 17:37 22.12.2019
5811 Rain 7 993 81 10000 5.1 240 17:18 22.12.2019
5812 Rain 7 992 93 10000 3.1 230 16:56 22.12.2019
5813 Rain 7 992 93 10000 3.1 230 16:37 22.12.2019
5814 Rain 7 991 87 10000 3.1 230 16:19 22.12.2019
5815 Rain 7 991 87 10000 3.6 220 15:55 22.12.2019
5816 Rain 8 991 87 10000 3.6 220 15:36 22.12.2019
5817 Rain 8 990 87 10000 3.6 220 15:18 22.12.2019
5818 Rain 8 989 87 10000 4.1 230 14:54 22.12.2019
5819 Rain 8 989 87 10000 4.1 230 14:36 22.12.2019
5820 Rain 8 989 87 10000 4.6 0 14:18 22.12.2019
5821 Rain 8 989 76 10000 4.1 230 13:54 22.12.2019
5822 Rain 8 989 76 10000 4.1 230 13:36 22.12.2019
5823 Clouds 8 988 76 10000 3.6 200 13:18 22.12.2019
5824 Clouds 8 988 76 10000 3.6 200 12:54 22.12.2019
5825 Clouds 8 988 76 10000 3.6 200 12:36 22.12.2019
5826 Clouds 8 988 81 10000 2.6 190 12:18 22.12.2019
5827 Clouds 7 988 81 10000 2.1 190 11:39 22.12.2019
5828 Clouds 7 988 81 10000 2.1 180 11:20 22.12.2019
5829 Clouds 7 988 81 10000 2.1 180 10:58 22.12.2019
5830 Clouds 6 988 81 10000 1.5 190 10:40 22.12.2019
5831 Clouds 6 988 87 10000 2.1 200 10:21 22.12.2019
5832 Clouds 5 988 81 10000 2.6 200 09:58 22.12.2019
5833 Clouds 5 988 81 10000 2.6 200 09:40 22.12.2019
5834 Clouds 5 987 86 10000 2.6 200 09:21 22.12.2019
5835 Clouds 5 987 86 10000 2.6 200 08:59 22.12.2019
5836 Clouds 5 987 86 10000 1.5 210 08:37 22.12.2019
5837 Clouds 5 987 86 10000 1.5 200 08:18 22.12.2019
5838 Clouds 5 987 86 10000 1.5 200 08:18 22.12.2019
5839 Clouds 5 987 93 10000 0.5 0 07:38 22.12.2019
5840 Clouds 5 987 93 10000 0.5 0 07:19 22.12.2019
5841 Clouds 5 987 93 10000 1 0 06:40 22.12.2019
5842 Clouds 5 987 100 10000 1 0 05:54 22.12.2019
5843 Clouds 5 987 100 10000 1 200 05:21 22.12.2019
5844 Clouds 5 987 93 10000 1.5 190 04:29 22.12.2019
5845 Clouds 5 987 93 10000 1 0 03:53 22.12.2019
5846 Rain 4 988 93 10000 3.6 170 02:40 22.12.2019
5847 Rain 4 988 93 10000 3.6 170 02:40 22.12.2019
5848 Rain 4 988 93 10000 1.5 120 01:47 22.12.2019
5849 Rain 4 989 93 10000 2.6 170 01:28 22.12.2019
5850 Rain 4 989 86 10000 2.1 200 00:47 22.12.2019
5851 Rain 3 988 93 10000 1 0 00:23 22.12.2019
5852 Rain 4 988 93 10000 1 0 23:56 21.12.2019
5853 Rain 3 989 93 10000 0.5 0 23:38 21.12.2019
5854 Clouds 3 989 93 10000 1 0 23:19 21.12.2019
5855 Clouds 3 989 93 10000 1 0 22:41 21.12.2019
5856 Clouds 3 989 93 10000 1 0 22:41 21.12.2019
5857 Clouds 3 989 93 10000 1 0 22:19 21.12.2019
5858 Clouds 3 989 93 10000 1 0 21:57 21.12.2019
5859 Clouds 3 989 93 10000 1 0 21:38 21.12.2019
5860 Clouds 3 990 86 10000 1 0 21:20 21.12.2019
5861 Clouds 4 990 86 10000 1 140 20:59 21.12.2019
5862 Clouds 4 990 86 10000 1 140 20:39 21.12.2019
5863 Clouds 4 991 93 10000 1.5 110 20:21 21.12.2019
5864 Clouds 4 991 93 10000 1.5 110 19:58 21.12.2019
5865 Clouds 5 991 86 10000 1.5 160 19:40 21.12.2019
5866 Clouds 5 992 81 10000 1.5 150 19:19 21.12.2019
5867 Clouds 5 992 81 10000 1.5 150 19:19 21.12.2019
5868 Clouds 5 992 87 10000 1.5 190 18:55 21.12.2019
5869 Clouds 5 992 87 10000 1.5 190 18:37 21.12.2019
5870 Clouds 5 993 81 10000 1.5 200 18:19 21.12.2019
5871 Clouds 5 993 81 10000 1.5 200 17:55 21.12.2019
5872 Clouds 5 993 75 10000 2.6 220 17:36 21.12.2019
5873 Clouds 6 993 75 10000 2.6 200 17:18 21.12.2019
5874 Clouds 6 993 75 10000 2.6 200 17:18 21.12.2019
5875 Clouds 6 993 75 10000 1.5 180 16:41 21.12.2019
5876 Clouds 7 993 75 10000 1 0 16:19 21.12.2019
5877 Clouds 8 994 70 10000 2.1 210 15:58 21.12.2019
5878 Clouds 8 994 70 10000 2.1 210 15:39 21.12.2019
5879 Clouds 8 994 66 10000 3.6 240 15:20 21.12.2019
5880 Clouds 8 994 66 10000 3.6 240 14:59 21.12.2019
5881 Clouds 8 994 70 10000 4.1 230 14:40 21.12.2019
5882 Clouds 8 994 70 10000 3.6 230 14:22 21.12.2019
5883 Clouds 8 994 76 10000 3.6 210 13:57 21.12.2019
5884 Clouds 8 994 76 10000 3.6 210 13:38 21.12.2019
5885 Clouds 7 995 75 10000 1.5 0 13:18 21.12.2019
5886 Clouds 7 995 75 10000 1 0 12:55 21.12.2019
5887 Clouds 6 995 75 10000 1 0 12:37 21.12.2019
5888 Clouds 6 995 87 10000 0.5 0 12:19 21.12.2019
5889 Clouds 6 996 93 10000 0.5 0 11:45 21.12.2019
5890 Clouds 4 996 93 10000 0.5 0 11:26 21.12.2019
5891 Clouds 4 996 93 10000 0.5 0 10:57 21.12.2019
5892 Clouds 3 996 93 10000 0.5 0 10:39 21.12.2019
5893 Clouds 3 996 93 10000 2.1 260 10:21 21.12.2019
5894 Clouds 3 995 93 10000 2.1 250 09:56 21.12.2019
5895 Clouds 3 995 93 10000 2.1 250 09:38 21.12.2019
5896 Clouds 2 995 100 10000 1 0 09:19 21.12.2019
5897 Clouds 2 995 100 10000 0.5 0 08:46 21.12.2019
5898 Clear 2 995 100 10000 1 280 08:26 21.12.2019
5899 Clouds 2 995 100 10000 0.5 0 07:46 21.12.2019
5900 Clouds 2 995 93 10000 1 0 07:22 21.12.2019
5901 Clouds 3 995 93 10000 1 0 06:46 21.12.2019
5902 Clouds 3 996 100 10000 0.5 0 06:28 21.12.2019
5903 Clouds 3 996 100 10000 1 0 05:55 21.12.2019
5904 Clouds 4 996 86 10000 3.1 150 04:58 21.12.2019
5905 Clouds 4 997 93 10000 1.5 110 04:19 21.12.2019
5906 Clouds 4 997 93 10000 1.5 80 03:56 21.12.2019
5907 Clouds 6 997 87 10000 2.1 210 02:19 21.12.2019
5908 Clouds 6 997 87 10000 2.6 180 01:42 21.12.2019
5909 Clouds 6 997 86 10000 2.6 150 01:23 21.12.2019
5910 Clouds 6 996 81 10000 1 0 00:39 21.12.2019
5911 Clouds 7 996 87 10000 1.5 170 00:20 21.12.2019
5912 Clouds 7 996 87 10000 1.5 210 23:38 20.12.2019
5913 Rain 7 995 87 10000 2.1 210 23:20 20.12.2019
5914 Rain 7 995 87 10000 2.1 210 22:57 20.12.2019
5915 Rain 7 995 87 10000 1.5 220 22:38 20.12.2019
5916 Rain 7 995 93 10000 1.5 220 22:18 20.12.2019
5917 Rain 7 995 87 10000 1.5 200 21:41 20.12.2019
5918 Rain 7 995 87 10000 1.5 200 21:21 20.12.2019
5919 Rain 8 995 81 10000 2.1 230 20:59 20.12.2019
5920 Rain 8 995 81 10000 2.1 230 20:38 20.12.2019
5921 Rain 8 994 76 10000 3.6 240 20:19 20.12.2019
5922 Rain 8 994 76 10000 5.1 250 19:56 20.12.2019
5923 Rain 8 994 76 10000 5.1 250 19:38 20.12.2019
5924 Clouds 8 993 76 10000 3.6 240 19:18 20.12.2019
5925 Rain 8 993 76 10000 2.6 210 18:41 20.12.2019
5926 Rain 8 992 71 10000 3.6 230 18:22 20.12.2019
5927 Rain 7 992 87 10000 1.5 210 17:57 20.12.2019
5928 Rain 7 992 75 10000 1.5 200 17:57 20.12.2019
5929 Rain 7 992 75 10000 1.5 200 17:39 20.12.2019
5930 Rain 7 992 75 10000 1.5 200 17:20 20.12.2019
5931 Clouds 7 991 75 10000 2.1 240 16:57 20.12.2019
5932 Clouds 7 990 81 10000 2.1 0 16:38 20.12.2019
5933 Clouds 7 990 81 10000 2.1 0 16:38 20.12.2019
5934 Clouds 8 990 81 10000 2.1 0 16:19 20.12.2019
5935 Rain 8 991 81 10000 2.1 290 15:55 20.12.2019
5936 Rain 8 990 75 10000 2.1 290 15:37 20.12.2019
5937 Rain 8 990 75 10000 2.1 290 15:37 20.12.2019
5938 Rain 7 991 81 10000 1.5 280 15:19 20.12.2019
5939 Rain 8 991 81 10000 1.5 280 14:43 20.12.2019
5940 Clouds 7 991 87 10000 2.1 0 14:24 20.12.2019
5941 Rain 7 992 87 10000 1.5 0 13:57 20.12.2019
5942 Rain 7 993 81 10000 1.5 0 13:38 20.12.2019
5943 Rain 7 993 81 10000 1.5 0 13:19 20.12.2019
5944 Rain 7 993 75 10000 1.5 0 12:57 20.12.2019
5945 Rain 7 994 70 10000 2.1 260 12:37 20.12.2019
5946 Rain 7 994 70 10000 2.1 260 12:18 20.12.2019
5947 Clouds 7 994 75 10000 4.1 240 11:57 20.12.2019
5948 Clouds 8 994 75 10000 1 0 11:39 20.12.2019
5949 Clouds 6 994 75 10000 1 0 11:18 20.12.2019
5950 Clouds 5 993 86 10000 1.5 280 10:56 20.12.2019
5951 Clouds 5 993 86 10000 2.6 280 10:38 20.12.2019
5952 Clouds 5 993 86 10000 2.6 280 10:20 20.12.2019
5953 Clouds 5 993 86 10000 2.6 280 10:20 20.12.2019
5954 Clouds 5 994 93 10000 1.5 260 09:43 20.12.2019
5955 Clouds 5 994 76 10000 1 260 09:22 20.12.2019
5956 Clouds 5 994 76 10000 1 260 09:22 20.12.2019
5957 Clouds 4 994 76 10000 1.5 270 08:59 20.12.2019
5958 Clouds 4 995 100 10000 0.5 0 08:41 20.12.2019
5959 Clouds 3 995 100 10000 0.5 0 08:21 20.12.2019
5960 Clouds 3 995 80 10000 1.5 330 07:57 20.12.2019
5961 Clouds 2 996 80 10000 2.6 270 07:39 20.12.2019
5962 Clouds 2 996 80 10000 2.6 270 07:18 20.12.2019
5963 Clouds 3 997 80 10000 1.5 290 06:48 20.12.2019
5964 Clouds 3 997 100 10000 1.5 290 06:30 20.12.2019
5965 Clouds 2 998 80 10000 1 0 05:49 20.12.2019
5966 Clear 3 999 83 10000 4.1 270 05:25 20.12.2019
5967 Fog 2 1001 83 8000 0.5 0 03:50 20.12.2019
5968 Clear 2 1002 83 10000 1 0 03:29 20.12.2019
5969 Clear 3 1003 100 10000 1 0 02:38 20.12.2019
5970 Clouds 3 1003 93 10000 1 290 01:44 20.12.2019
5971 Clouds 3 1004 93 10000 1 0 01:18 20.12.2019
5972 Clouds 3 1005 93 10000 1 0 00:41 20.12.2019
5973 Clouds 4 1005 93 10000 1 0 00:19 20.12.2019
5974 Clouds 5 1005 93 10000 4.1 280 23:42 19.12.2019
5975 Clouds 5 1005 93 10000 1.5 0 23:23 19.12.2019
5976 Clouds 5 1005 93 10000 1 0 22:56 19.12.2019
5977 Clouds 4 1006 93 10000 1 290 22:36 19.12.2019
5978 Clouds 4 1007 100 10000 2.6 280 22:18 19.12.2019
5979 Clouds 4 1007 100 10000 2.6 280 22:18 19.12.2019
5980 Clouds 4 1007 100 10000 2.6 280 21:55 19.12.2019
5981 Clouds 4 1007 93 10000 0.5 0 21:37 19.12.2019
5982 Clouds 5 1007 93 10000 0.5 0 21:18 19.12.2019
5983 Clouds 5 1008 93 10000 1.5 290 20:55 19.12.2019
5984 Clouds 5 1009 93 10000 0.5 0 20:36 19.12.2019
5985 Clouds 6 1009 93 10000 0.5 0 20:18 19.12.2019
5986 Clouds 5 1009 86 10000 0.5 0 19:54 19.12.2019
5987 Clouds 5 1009 93 10000 0.5 180 19:36 19.12.2019
5988 Clouds 6 1009 93 10000 0.5 180 19:18 19.12.2019
5989 Clouds 6 1010 87 10000 0.5 0 18:41 19.12.2019
5990 Clouds 6 1010 87 10000 2.1 320 18:21 19.12.2019
5991 Clouds 6 1010 87 10000 0.5 0 17:57 19.12.2019
5992 Clouds 6 1010 87 10000 1 100 17:39 19.12.2019
5993 Clouds 7 1010 87 10000 1 100 17:19 19.12.2019
5994 Clouds 8 1010 93 10000 1 0 16:57 19.12.2019
5995 Clouds 8 1011 76 10000 1 0 16:39 19.12.2019
5996 Clouds 8 1011 76 10000 1 0 16:21 19.12.2019
5997 Clouds 9 1011 71 10000 0.5 0 15:58 19.12.2019
5998 Clouds 9 1011 76 10000 1 0 15:39 19.12.2019
5999 Clouds 9 1011 76 10000 1 0 15:20 19.12.2019
6000 Clouds 9 1011 71 10000 1 0 14:59 19.12.2019
6001 Clouds 10 1011 81 10000 2.1 140 14:40 19.12.2019
6002 Clouds 10 1011 81 10000 2.1 140 14:19 19.12.2019
6003 Clouds 9 1012 87 10000 2.1 90 13:57 19.12.2019
6004 Clouds 9 1012 87 10000 1.5 100 13:37 19.12.2019
6005 Clouds 9 1012 87 10000 1.5 100 13:18 19.12.2019
6006 Clouds 9 1013 93 10000 0.5 0 12:55 19.12.2019
6007 Clouds 8 1013 87 10000 1 0 12:36 19.12.2019
6008 Clouds 8 1013 87 10000 1 0 12:18 19.12.2019
6009 Clouds 8 1014 93 10000 0.5 0 12:18 19.12.2019
6010 Clouds 8 1013 87 10000 1 0 12:18 19.12.2019
6011 Clouds 8 1014 93 10000 0.5 0 12:18 19.12.2019
6012 Clouds 7 1014 93 10000 0.5 0 11:57 19.12.2019
6013 Clouds 7 1014 90 0 1.47 124 11:38 19.12.2019
6014 Clouds 6 1014 100 10000 0.5 0 11:18 19.12.2019
6015 Clouds 5 1015 100 10000 1 0 10:55 19.12.2019
6016 Clouds 4 1015 100 10000 1.5 310 10:36 19.12.2019
6017 Fog 4 1015 100 10000 1 0 10:18 19.12.2019
6018 Fog 4 1015 100 10000 1 0 10:18 19.12.2019
6019 Fog 4 1015 100 10000 1 0 10:18 19.12.2019
6020 Fog 3 1015 87 10000 0.5 0 09:38 19.12.2019
6021 Fog 3 1015 87 10000 0.5 0 09:20 19.12.2019
6022 Fog 3 1015 87 10000 1.5 100 08:58 19.12.2019
6023 Fog 3 1015 100 10000 0.5 90 08:39 19.12.2019
6024 Fog 3 1015 100 10000 0.5 90 08:19 19.12.2019
6025 Clear 3 1015 100 10000 0.5 0 07:56 19.12.2019
6026 Clear 2 1015 100 10000 1.98 143 07:38 19.12.2019
6027 Clear 3 1015 100 10000 1.98 143 07:19 19.12.2019
6028 Clear 3 1015 100 10000 0.5 0 06:49 19.12.2019
6029 Clear 3 1015 100 10000 0.5 0 06:28 19.12.2019
6030 Clear 3 1015 100 10000 1 0 05:55 19.12.2019
6031 Clear 3 1015 100 10000 0.5 0 05:33 19.12.2019
6032 Clear 4 1016 100 10000 1 0 04:48 19.12.2019
6033 Clear 4 1017 93 10000 1 260 02:54 19.12.2019
6034 Clouds 5 1017 93 10000 2.6 300 01:51 19.12.2019
6035 Clouds 6 1018 93 10000 2.1 290 01:22 19.12.2019
6036 Clouds 6 1018 100 10000 3.1 320 00:41 19.12.2019
6037 Clouds 6 1018 100 10000 3.1 320 00:22 19.12.2019
6038 Clouds 6 1018 100 10000 2.1 340 23:57 18.12.2019
6039 Clouds 6 1018 100 10000 1 0 23:38 18.12.2019
6040 Clouds 6 1018 100 10000 1 0 23:18 18.12.2019
6041 Fog 6 1018 100 10000 1 0 22:55 18.12.2019
6042 Fog 6 1018 100 10000 1 0 22:36 18.12.2019
6043 Fog 7 1018 100 10000 1 0 22:18 18.12.2019
6044 Fog 6 1019 100 10000 1 0 21:56 18.12.2019
6045 Fog 6 1019 100 10000 1 0 21:56 18.12.2019
6046 Fog 6 1019 100 10000 1 90 21:37 18.12.2019
6047 Fog 6 1019 100 10000 1 90 21:19 18.12.2019
6048 Clouds 7 1019 100 10000 0.5 0 20:55 18.12.2019
6049 Clouds 7 1019 100 10000 1 250 20:37 18.12.2019
6050 Clouds 7 1019 100 10000 1 250 20:18 18.12.2019
6051 Clouds 8 1019 100 10000 1 0 19:55 18.12.2019
6052 Clouds 8 1019 100 10000 1.5 290 19:37 18.12.2019
6053 Clouds 7 1019 100 10000 1 0 19:18 18.12.2019
6054 Clouds 8 1019 100 10000 1 0 18:44 18.12.2019
6055 Clouds 8 1019 93 10000 1 0 18:25 18.12.2019
6056 Clouds 8 1019 93 10000 1 0 18:25 18.12.2019
6057 Clouds 8 1019 93 10000 1.5 280 17:57 18.12.2019
6058 Clouds 9 1019 93 10000 1.5 0 17:39 18.12.2019
6059 Clouds 9 1019 93 10000 1.5 0 17:19 18.12.2019
6060 Clouds 10 1018 87 10000 1 0 16:56 18.12.2019
6061 Clouds 10 1018 87 10000 1 0 16:38 18.12.2019
6062 Clouds 10 1018 87 10000 1 40 16:20 18.12.2019
6063 Clouds 11 1018 81 10000 1 90 15:55 18.12.2019
6064 Clouds 11 1018 81 10000 1 90 15:37 18.12.2019
6065 Clouds 12 1018 81 10000 1 0 15:18 18.12.2019
6066 Clouds 12 1018 87 10000 1 80 14:42 18.12.2019
6067 Clouds 12 1018 87 10000 1 80 14:42 18.12.2019
6068 Rain 12 1018 87 10000 1 0 14:22 18.12.2019
6069 Rain 12 1018 87 10000 1 0 13:57 18.12.2019
6070 Rain 11 1018 87 10000 1 0 13:38 18.12.2019
6071 Rain 11 1018 87 10000 0.5 0 13:20 18.12.2019
6072 Rain 10 1018 93 10000 0.5 0 12:58 18.12.2019
6073 Rain 10 1018 93 10000 0.5 0 12:38 18.12.2019
6074 Clouds 10 1018 93 10000 1 0 12:20 18.12.2019
6075 Rain 10 1018 87 10000 1.5 0 11:56 18.12.2019
6076 Rain 10 1018 87 10000 1.5 0 11:38 18.12.2019
6077 Rain 9 1018 93 10000 1 0 11:19 18.12.2019
6078 Rain 9 1018 93 10000 1.5 70 10:56 18.12.2019
6079 Rain 9 1018 93 10000 1.5 70 10:38 18.12.2019
6080 Rain 8 1018 100 10000 1 0 10:20 18.12.2019
6081 Rain 8 1018 100 10000 0.5 0 09:50 18.12.2019
6082 Rain 8 1018 100 10000 1.5 90 09:19 18.12.2019
6083 Rain 8 1017 87 10000 1 0 08:42 18.12.2019
6084 Rain 7 1017 93 10000 0.5 0 08:24 18.12.2019
6085 Rain 7 1016 93 10000 0.5 0 07:55 18.12.2019
6086 Rain 7 1016 93 10000 0.5 0 07:37 18.12.2019
6087 Rain 7 1016 93 10000 1 0 07:19 18.12.2019
6088 Rain 7 1015 93 10000 1.5 310 06:50 18.12.2019
6089 Clouds 7 1015 93 10000 0.5 0 06:22 18.12.2019
6090 Clouds 7 1015 93 10000 0.5 0 05:30 18.12.2019
6091 Clouds 7 1014 93 10000 0.5 0 03:45 18.12.2019
6092 Clouds 8 1013 93 10000 1 0 02:43 18.12.2019
6093 Clouds 7 1013 93 10000 1 0 02:25 18.12.2019
6094 Clouds 7 1012 100 10000 1.5 330 01:43 18.12.2019
6095 Clouds 6 1011 100 10000 1 0 01:24 18.12.2019
6096 Clouds 6 1011 100 10000 0.5 0 00:42 18.12.2019
6097 Clouds 6 1011 93 10000 1.5 40 00:24 18.12.2019
6098 Clouds 7 1011 86 10000 1.5 360 23:58 17.12.2019
6099 Clouds 7 1011 86 10000 1.5 360 23:58 17.12.2019
6100 Clouds 7 1011 86 10000 1.5 360 23:39 17.12.2019
6101 Clouds 7 1010 93 10000 1 0 23:21 17.12.2019
6102 Clouds 6 1010 93 10000 1 0 22:57 17.12.2019
6103 Clouds 6 1010 93 10000 1 0 22:57 17.12.2019
6104 Clouds 7 1010 93 10000 1 0 22:39 17.12.2019
6105 Clouds 7 1009 81 10000 1 0 22:19 17.12.2019
6106 Clouds 7 1009 81 10000 1.5 220 21:57 17.12.2019
6107 Clouds 7 1009 81 10000 1.5 220 21:38 17.12.2019
6108 Clouds 7 1009 93 10000 3.1 280 21:20 17.12.2019
6109 Clouds 7 1009 93 10000 3.1 280 20:59 17.12.2019
6110 Clouds 7 1008 87 10000 1.5 280 20:39 17.12.2019
6111 Clouds 8 1008 87 10000 1.5 90 20:19 17.12.2019
6112 Clouds 8 1008 93 10000 2.1 80 19:57 17.12.2019
6113 Clouds 8 1008 93 10000 2.1 80 19:39 17.12.2019
6114 Clouds 8 1009 87 10000 0.5 0 19:19 17.12.2019
6115 Clouds 8 1009 87 10000 0.5 0 18:57 17.12.2019
6116 Clouds 8 1009 87 10000 1 0 18:38 17.12.2019
6117 Clouds 8 1009 93 10000 1.5 250 18:20 17.12.2019
6118 Clouds 8 1009 93 10000 0.5 90 17:55 17.12.2019
6119 Clouds 8 1009 93 10000 0.5 90 17:37 17.12.2019
6120 Clouds 9 1008 93 10000 1 0 17:18 17.12.2019
6121 Clouds 9 1008 87 10000 0.5 0 16:55 17.12.2019
6122 Clouds 10 1008 87 10000 0.5 0 16:36 17.12.2019
6123 Clouds 11 1008 81 10000 0.5 0 16:18 17.12.2019
6124 Clouds 11 1008 81 10000 0.5 0 16:18 17.12.2019
6125 Clouds 10 1008 81 10000 0.5 0 15:38 17.12.2019
6126 Clouds 11 1008 81 10000 1.5 80 15:20 17.12.2019
6127 Clouds 11 1008 81 10000 1.5 80 14:57 17.12.2019
6128 Clouds 11 1008 81 10000 0.5 0 14:38 17.12.2019
6129 Clouds 11 1007 81 10000 1.5 100 14:19 17.12.2019
6130 Clouds 11 1007 81 10000 1.5 100 13:59 17.12.2019
6131 Clouds 11 1007 76 10000 0.5 0 13:40 17.12.2019
6132 Clouds 11 1008 71 10000 1 0 13:19 17.12.2019
6133 Clouds 11 1008 76 10000 0.5 0 12:59 17.12.2019
6134 Clouds 11 1008 76 10000 0.5 0 12:39 17.12.2019
6135 Clouds 11 1008 76 10000 1.5 70 12:18 17.12.2019
6136 Clouds 10 1008 75 10000 0.5 0 11:57 17.12.2019
6137 Clouds 9 1008 81 10000 0.5 0 11:37 17.12.2019
6138 Clouds 9 1008 81 10000 0.5 0 11:18 17.12.2019
6139 Clouds 8 1008 81 10000 0.5 0 10:58 17.12.2019
6140 Clouds 8 1008 81 10000 0.5 0 10:39 17.12.2019
6141 Clouds 8 1008 86 10000 0.5 0 10:20 17.12.2019
6142 Clouds 6 1008 93 10000 0.5 0 09:58 17.12.2019
6143 Clouds 6 1008 93 10000 0.5 0 09:40 17.12.2019
6144 Clouds 5 1008 100 10000 2.1 340 09:19 17.12.2019
6145 Clouds 5 1007 100 10000 1 0 08:55 17.12.2019
6146 Clouds 5 1008 100 10000 2.1 340 08:55 17.12.2019
6147 Clouds 5 1007 100 10000 1 0 08:37 17.12.2019
6148 Clouds 5 1007 93 10000 1.5 70 08:19 17.12.2019
6149 Clouds 5 1007 93 10000 1 0 07:45 17.12.2019
6150 Clouds 5 1006 100 10000 0.5 0 07:24 17.12.2019
6151 Clouds 4 1006 100 10000 0.5 0 06:55 17.12.2019
6152 Clouds 4 1006 93 10000 0.5 0 06:32 17.12.2019
6153 Clouds 4 1005 93 10000 0.5 0 05:52 17.12.2019
6154 Clouds 4 1005 93 10000 0.5 0 05:34 17.12.2019
6155 Clouds 5 1005 100 10000 2.1 300 04:25 17.12.2019
6156 Clouds 6 1005 93 10000 0.5 0 02:33 17.12.2019
6157 Clouds 6 1005 93 10000 0.5 0 02:33 17.12.2019
6158 Clouds 6 1005 86 10000 0.5 0 01:54 17.12.2019
6159 Clouds 6 1005 93 10000 1 0 00:58 17.12.2019
6160 Clouds 6 1005 93 10000 0.5 0 00:37 17.12.2019
6161 Clouds 6 1006 100 10000 1.5 300 00:18 17.12.2019
6162 Clouds 6 1006 100 10000 0.5 0 23:41 16.12.2019
6163 Clouds 5 1006 100 10000 0.5 360 23:19 16.12.2019
6164 Clouds 5 1006 93 10000 0.5 0 22:56 16.12.2019
6165 Clouds 6 1006 93 10000 0.5 0 22:37 16.12.2019
6166 Clouds 5 1007 100 10000 1.5 270 22:19 16.12.2019
6167 Clouds 6 1007 100 10000 1.5 290 21:55 16.12.2019
6168 Clouds 6 1007 100 10000 1.5 290 21:37 16.12.2019
6169 Clouds 5 1007 100 10000 1.5 290 21:37 16.12.2019
6170 Clouds 6 1007 100 10000 0.5 310 21:18 16.12.2019
6171 Clouds 6 1007 100 10000 1.5 90 20:56 16.12.2019
6172 Clouds 6 1007 100 10000 1.5 90 20:56 16.12.2019
6173 Clouds 6 1007 100 10000 1.5 90 20:37 16.12.2019
6174 Clouds 6 1007 100 10000 1 60 20:19 16.12.2019
6175 Clouds 6 1008 100 10000 1 0 19:55 16.12.2019
6176 Clouds 6 1008 100 10000 1 0 19:37 16.12.2019
6177 Clouds 7 1008 100 10000 1 0 19:18 16.12.2019
6178 Clouds 6 1008 87 10000 1 0 18:56 16.12.2019
6179 Clouds 6 1008 87 10000 1 0 18:37 16.12.2019
6180 Clouds 7 1008 93 10000 1 0 18:19 16.12.2019
6181 Clouds 7 1008 93 10000 1 0 17:57 16.12.2019
6182 Clouds 7 1008 93 10000 1 0 17:38 16.12.2019
6183 Clouds 9 1008 87 10000 0.5 210 17:19 16.12.2019
6184 Clouds 9 1008 87 10000 1 180 16:56 16.12.2019
6185 Clouds 9 1008 87 10000 1 180 16:38 16.12.2019
6186 Clouds 10 1008 76 10000 1 100 16:19 16.12.2019
6187 Clouds 10 1008 76 10000 1 100 15:57 16.12.2019
6188 Clouds 9 1008 71 10000 1 80 15:38 16.12.2019
6189 Clouds 11 1008 71 10000 0.5 0 15:20 16.12.2019
6190 Clouds 11 1008 66 10000 0.5 0 14:55 16.12.2019
6191 Clouds 12 1008 66 10000 0.5 0 14:37 16.12.2019
6192 Clouds 11 1008 66 10000 0.5 0 14:37 16.12.2019
6193 Clouds 13 1008 71 10000 0.5 0 14:18 16.12.2019
6194 Clouds 13 1008 71 10000 0.5 0 14:18 16.12.2019
6195 Clouds 12 1009 71 10000 0.5 0 13:56 16.12.2019
6196 Clouds 12 1009 71 10000 0.5 0 13:37 16.12.2019
6197 Clouds 12 1009 66 10000 1 0 13:19 16.12.2019
6198 Clouds 12 1009 71 10000 1 0 12:56 16.12.2019
6199 Clouds 12 1009 71 10000 1 0 12:38 16.12.2019
6200 Clouds 11 1010 71 10000 1 0 12:18 16.12.2019
6201 Clouds 11 1010 81 10000 1.5 90 11:57 16.12.2019
6202 Clouds 10 1010 81 10000 1.5 90 11:39 16.12.2019
6203 Clouds 9 1010 87 10000 1 0 11:19 16.12.2019
6204 Clouds 8 1010 93 10000 1 0 10:54 16.12.2019
6205 Clouds 8 1010 93 10000 1 0 10:36 16.12.2019
6206 Clouds 7 1010 93 10000 0.5 0 10:18 16.12.2019
6207 Fog 6 1010 100 10000 1 90 09:44 16.12.2019
6208 Fog 6 1010 100 10000 1.5 70 09:26 16.12.2019
6209 Fog 6 1010 100 10000 1 0 08:41 16.12.2019
6210 Fog 6 1010 100 10000 1.5 110 08:20 16.12.2019
6211 Clouds 6 1010 93 10000 2.1 270 07:53 16.12.2019
6212 Clouds 6 1010 93 10000 2.1 270 07:31 16.12.2019
6213 Clouds 6 1010 93 10000 1.5 250 06:59 16.12.2019
6214 Clouds 6 1010 87 10000 1.5 280 06:40 16.12.2019
6215 Clouds 7 1010 87 10000 1 0 06:21 16.12.2019
6216 Clouds 7 1010 100 10000 1 0 05:41 16.12.2019
6217 Clouds 7 1010 100 10000 1 0 05:23 16.12.2019
6218 Fog 7 1010 93 10000 0.5 0 03:29 16.12.2019
6219 Clouds 7 1011 100 10000 1 0 01:52 16.12.2019
6220 Clouds 7 1011 100 10000 1 0 01:33 16.12.2019
6221 Rain 7 1011 93 10000 0.5 80 00:41 16.12.2019
6222 Rain 7 1011 100 10000 1 0 00:21 16.12.2019
6223 Clouds 7 1011 100 10000 1 0 23:57 15.12.2019
6224 Clouds 7 1011 100 10000 1 0 23:37 15.12.2019
6225 Clouds 7 1011 93 10000 0.5 0 23:19 15.12.2019
6226 Clouds 7 1011 93 10000 1 0 22:54 15.12.2019
6227 Clouds 7 1011 93 10000 1 0 22:36 15.12.2019
6228 Clouds 7 1011 93 10000 0.5 0 22:18 15.12.2019
6229 Clouds 7 1011 93 10000 1 0 21:55 15.12.2019
6230 Clouds 7 1011 93 10000 1 0 21:37 15.12.2019
6231 Clouds 7 1011 93 10000 1 0 21:18 15.12.2019
6232 Clouds 7 1011 93 10000 2.1 150 20:55 15.12.2019
6233 Clouds 7 1011 93 10000 2.1 150 20:36 15.12.2019
6234 Rain 7 1011 100 10000 1 100 20:18 15.12.2019
6235 Rain 7 1011 100 10000 1 100 20:18 15.12.2019
6236 Rain 7 1011 100 10000 1 0 19:55 15.12.2019
6237 Rain 7 1011 100 10000 1 0 19:37 15.12.2019
6238 Rain 7 1010 100 10000 1 0 19:18 15.12.2019
6239 Rain 7 1010 100 10000 1.5 170 18:55 15.12.2019
6240 Rain 7 1010 100 10000 1.5 170 18:37 15.12.2019
6241 Rain 8 1010 100 10000 1 0 18:18 15.12.2019
6242 Rain 8 1009 100 10000 1 0 17:55 15.12.2019
6243 Rain 8 1009 100 10000 1 0 17:36 15.12.2019
6244 Rain 8 1009 87 10000 1 0 17:18 15.12.2019
6245 Rain 8 1009 87 10000 1.5 250 16:43 15.12.2019
6246 Rain 8 1009 87 10000 2.1 280 16:23 15.12.2019
6247 Rain 8 1008 87 10000 3.1 280 15:57 15.12.2019
6248 Rain 8 1008 87 10000 3.1 280 15:39 15.12.2019
6249 Rain 8 1008 87 10000 6.2 290 15:20 15.12.2019
6250 Rain 9 1007 87 10000 8.7 290 14:56 15.12.2019
6251 Rain 10 1007 87 10000 8.7 290 14:38 15.12.2019
6252 Rain 10 1006 62 10000 7.7 240 14:19 15.12.2019
6253 Rain 10 1006 62 10000 7.7 240 13:59 15.12.2019
6254 Clouds 11 1005 62 10000 8.2 240 13:39 15.12.2019
6255 Clouds 12 1005 62 10000 7.2 240 13:20 15.12.2019
6256 Clouds 12 1005 66 10000 8.2 230 12:57 15.12.2019
6257 Clouds 12 1005 66 10000 8.2 230 12:39 15.12.2019
6258 Clouds 12 1005 66 10000 8.2 230 12:21 15.12.2019
6259 Clouds 12 1005 66 10000 8.2 230 11:59 15.12.2019
6260 Clouds 12 1005 62 10000 8.7 230 11:38 15.12.2019
6261 Clouds 12 1005 62 10000 8.7 230 11:38 15.12.2019
6262 Clouds 12 1005 62 10000 8.7 230 11:38 15.12.2019
6263 Clouds 12 1005 58 10000 8.2 230 11:19 15.12.2019
6264 Clouds 12 1004 58 10000 7.7 230 10:56 15.12.2019
6265 Clouds 11 1004 58 10000 7.7 230 10:38 15.12.2019
6266 Clouds 12 1004 58 10000 7.7 230 10:38 15.12.2019
6267 Clouds 12 1003 62 10000 6.7 230 10:19 15.12.2019
6268 Clouds 11 1003 62 10000 7.2 230 09:58 15.12.2019
6269 Clouds 11 1003 62 10000 7.2 230 09:37 15.12.2019
6270 Clouds 11 1003 66 10000 6.7 220 09:19 15.12.2019
6271 Clouds 11 1003 71 10000 7.2 230 08:55 15.12.2019
6272 Clouds 11 1003 71 10000 7.2 230 08:36 15.12.2019
6273 Clouds 11 1002 66 10000 6.7 220 08:18 15.12.2019
6274 Clouds 11 1002 66 10000 6.2 210 07:47 15.12.2019
6275 Clouds 10 1002 66 10000 6.2 210 07:28 15.12.2019
6276 Clouds 10 1001 76 10000 6.2 210 06:26 15.12.2019
6277 Clouds 9 1001 81 10000 4.6 210 05:42 15.12.2019
6278 Clouds 8 1002 81 10000 4.6 200 05:21 15.12.2019
6279 Rain 7 1002 87 10000 3.6 180 04:21 15.12.2019
6280 Rain 7 1004 87 10000 2.1 180 02:55 15.12.2019
6281 Rain 7 1004 87 10000 2.1 180 02:32 15.12.2019
6282 Rain 7 1004 87 10000 1.5 130 01:41 15.12.2019
6283 Clouds 7 1005 87 10000 2.1 150 01:19 15.12.2019
6284 Clouds 6 1005 93 10000 2.1 90 00:51 15.12.2019
6285 Clouds 6 1005 86 10000 1.5 80 00:32 15.12.2019
6286 Clouds 6 1005 87 10000 1 0 23:55 14.12.2019
6287 Clouds 7 1005 87 10000 1 0 23:37 14.12.2019
6288 Clouds 7 1005 93 10000 3.6 260 23:18 14.12.2019
6289 Clouds 7 1005 93 10000 3.6 260 23:18 14.12.2019
6290 Clouds 7 1005 81 10000 5.7 280 22:56 14.12.2019
6291 Clouds 7 1005 81 10000 5.7 280 22:37 14.12.2019
6292 Rain 7 1006 81 10000 6.7 270 22:18 14.12.2019
6293 Rain 7 1006 81 10000 4.1 250 21:55 14.12.2019
6294 Rain 7 1006 81 10000 4.1 250 21:36 14.12.2019
6295 Rain 7 1005 75 10000 4.6 260 21:18 14.12.2019
6296 Rain 8 1004 65 10000 2.6 220 20:42 14.12.2019
6297 Rain 8 1004 77 10000 3.1 220 20:20 14.12.2019
6298 Clouds 8 1003 77 10000 3.1 210 19:59 14.12.2019
6299 Clouds 7 1003 77 10000 3.1 210 19:39 14.12.2019
6300 Clouds 7 1003 52 10000 4.1 200 19:21 14.12.2019
6301 Clouds 7 1003 52 10000 4.6 210 18:57 14.12.2019
6302 Clouds 7 1003 52 10000 4.6 210 18:39 14.12.2019
6303 Clouds 7 1002 52 10000 5.1 210 18:21 14.12.2019
6304 Clouds 7 1002 56 10000 5.1 200 17:58 14.12.2019
6305 Clouds 7 1002 56 10000 5.1 200 17:40 14.12.2019
6306 Clear 7 1002 56 10000 6.7 190 17:21 14.12.2019
6307 Clear 7 1002 73 10000 5.1 200 16:41 14.12.2019
6308 Clear 7 1002 65 10000 4.6 200 16:19 14.12.2019
6309 Clear 7 1002 61 10000 5.1 210 15:56 14.12.2019
6310 Clear 7 1002 61 10000 5.1 210 15:38 14.12.2019
6311 Clouds 7 1002 61 10000 5.1 220 15:19 14.12.2019
6312 Clouds 7 1001 73 10000 8.7 240 14:56 14.12.2019
6313 Clouds 7 1001 73 10000 8.7 240 14:37 14.12.2019
6314 Clouds 7 1001 61 10000 9.8 240 14:18 14.12.2019
6315 Clouds 7 1000 70 10000 9.8 250 13:44 14.12.2019
6316 Clouds 7 999 75 10000 10.3 250 13:19 14.12.2019
6317 Rain 6 998 81 10000 4.6 220 12:58 14.12.2019
6318 Rain 6 998 81 10000 4.6 220 12:39 14.12.2019
6319 Rain 7 998 81 10000 6.7 240 12:20 14.12.2019
6320 Clouds 7 997 70 10000 8.2 250 11:58 14.12.2019
6321 Clouds 7 997 70 10000 8.2 250 11:39 14.12.2019
6322 Clouds 7 997 75 10000 8.2 250 11:19 14.12.2019
6323 Clouds 7 997 75 10000 8.2 250 10:57 14.12.2019
6324 Clouds 8 996 81 10000 10.8 250 10:39 14.12.2019
6325 Rain 7 995 75 10000 11.3 250 10:20 14.12.2019
6326 Rain 7 993 81 8000 9.8 240 09:55 14.12.2019
6327 Rain 7 995 75 10000 11.3 250 09:55 14.12.2019
6328 Rain 7 993 81 8000 9.8 240 09:36 14.12.2019
6329 Rain 7 992 81 10000 9.8 240 09:18 14.12.2019
6330 Rain 6 991 75 10000 8.2 240 08:41 14.12.2019
6331 Clouds 6 990 75 10000 6.7 240 08:19 14.12.2019
6332 Rain 5 989 81 10000 5.7 240 07:43 14.12.2019
6333 Rain 5 989 86 10000 4.1 210 07:23 14.12.2019
6334 Rain 5 988 86 10000 4.6 210 06:55 14.12.2019
6335 Rain 5 988 86 10000 4.6 210 06:36 14.12.2019
6336 Rain 4 988 80 10000 5.1 210 05:57 14.12.2019
6337 Rain 4 990 81 10000 6.7 190 04:42 14.12.2019
6338 Clouds 4 992 81 10000 3.6 210 02:31 14.12.2019
6339 Clouds 3 991 86 10000 3.1 190 01:49 14.12.2019
6340 Clouds 3 991 86 10000 3.1 190 01:31 14.12.2019
6341 Clouds 4 993 80 10000 4.1 200 00:45 14.12.2019
6342 Clouds 4 993 80 10000 4.1 200 00:27 14.12.2019
6343 Clouds 4 993 86 10000 3.6 200 23:54 13.12.2019
6344 Clouds 4 993 86 10000 3.6 200 23:36 13.12.2019
6345 Rain 4 993 86 10000 4.1 210 23:18 13.12.2019
6346 Rain 4 992 86 10000 4.1 220 22:40 13.12.2019
6347 Rain 4 992 86 10000 4.6 220 22:19 13.12.2019
6348 Rain 4 992 86 10000 4.6 220 21:56 13.12.2019
6349 Rain 4 991 86 10000 4.1 220 21:37 13.12.2019
6350 Rain 4 990 93 10000 4.1 210 21:19 13.12.2019
6351 Rain 4 990 93 10000 6.2 230 20:42 13.12.2019
6352 Rain 3 988 93 10000 5.7 210 20:23 13.12.2019
6353 Rain 3 988 93 10000 5.7 210 19:59 13.12.2019
6354 Rain 3 988 93 10000 6.2 210 19:41 13.12.2019
6355 Rain 4 988 93 10000 6.2 210 19:23 13.12.2019
6356 Rain 3 987 93 10000 5.7 210 18:59 13.12.2019
6357 Rain 4 986 93 10000 5.7 210 18:41 13.12.2019
6358 Rain 4 986 93 10000 5.7 210 18:19 13.12.2019
6359 Rain 4 986 86 10000 5.7 220 17:57 13.12.2019
6360 Rain 4 985 86 10000 5.7 210 17:38 13.12.2019
6361 Rain 4 985 86 10000 5.7 210 17:18 13.12.2019
6362 Rain 4 985 86 10000 4.6 220 16:54 13.12.2019
6363 Rain 4 984 80 10000 5.1 230 16:36 13.12.2019
6364 Rain 4 984 80 10000 5.1 230 16:18 13.12.2019
6365 Clouds 5 983 75 10000 4.6 220 15:40 13.12.2019
6366 Clouds 5 983 75 10000 4.6 220 15:20 13.12.2019
6367 Rain 5 982 75 10000 6.7 230 14:55 13.12.2019
6368 Clouds 5 982 75 10000 5.7 230 14:36 13.12.2019
6369 Clouds 5 982 75 10000 5.7 230 14:18 13.12.2019
6370 Clouds 5 981 81 10000 6.2 230 13:43 13.12.2019
6371 Clouds 5 981 81 10000 6.2 230 13:23 13.12.2019
6372 Clouds 4 981 80 10000 4.6 220 12:54 13.12.2019
6373 Rain 4 981 86 10000 5.1 210 12:36 13.12.2019
6374 Rain 4 980 86 10000 4.6 210 12:18 13.12.2019
6375 Rain 3 979 86 10000 5.1 210 11:42 13.12.2019
6376 Rain 3 979 86 10000 5.1 210 11:24 13.12.2019
6377 Rain 2 979 86 10000 2.1 220 10:56 13.12.2019
6378 Snow 2 978 93 10000 3.1 180 10:38 13.12.2019
6379 Snow 2 978 93 10000 3.1 180 10:19 13.12.2019
6380 Snow 2 978 93 9000 5.7 170 09:41 13.12.2019
6381 Snow 2 978 93 9000 4.6 170 09:20 13.12.2019
6382 Snow 2 979 95 10000 4.1 160 08:44 13.12.2019
6383 Snow 2 979 83 10000 4.1 160 08:26 13.12.2019
6384 Clouds 2 980 74 10000 5.1 170 07:48 13.12.2019
6385 Clouds 2 980 80 10000 5.1 170 07:25 13.12.2019
6386 Clouds 2 981 80 10000 5.1 170 06:55 13.12.2019
6387 Clouds 2 982 80 10000 4.1 180 06:29 13.12.2019
6388 Clouds 1 983 80 10000 2.6 190 05:51 13.12.2019
6389 Clouds 1 984 80 10000 3.6 170 05:30 13.12.2019
6390 Clouds 0 984 86 10000 2.1 130 04:53 13.12.2019
6391 Snow 0 986 83 3800 2.6 140 03:50 13.12.2019
6392 Clouds 1 989 83 10000 1.5 130 02:35 13.12.2019
6393 Clouds 0 990 86 10000 1.5 90 01:50 13.12.2019
6394 Clouds 0 990 86 10000 1.5 90 01:24 13.12.2019
6395 Clouds 0 991 73 10000 2.1 130 00:46 13.12.2019
6396 Clouds 0 992 73 10000 1.5 110 00:24 13.12.2019
6397 Clouds 0 993 86 10000 1.5 0 23:42 12.12.2019
6398 Clear 0 994 86 10000 2.1 100 23:24 12.12.2019
6399 Clear 0 994 92 10000 1 0 22:56 12.12.2019
6400 Clear 0 995 86 10000 1.5 100 22:38 12.12.2019
6401 Clear 0 995 86 10000 1.5 100 22:19 12.12.2019
6402 Clear 0 996 86 10000 1 0 21:55 12.12.2019
6403 Clear 0 997 81 10000 1.5 100 21:37 12.12.2019
6404 Clear 1 997 81 10000 1.5 100 21:19 12.12.2019
6405 Clouds 1 997 81 10000 2.1 130 20:58 12.12.2019
6406 Clouds 1 998 80 10000 3.1 150 20:40 12.12.2019
6407 Clouds 1 998 80 10000 3.1 150 20:21 12.12.2019
6408 Clouds 1 999 80 10000 2.1 150 19:56 12.12.2019
6409 Clouds 1 999 74 10000 2.1 150 19:37 12.12.2019
6410 Clouds 2 999 74 10000 2.1 150 19:18 12.12.2019
6411 Clouds 2 1000 69 10000 2.1 190 18:55 12.12.2019
6412 Clouds 2 1001 74 10000 2.1 200 18:37 12.12.2019
6413 Clouds 2 1001 83 10000 2.1 200 18:19 12.12.2019
6414 Clouds 2 1001 83 10000 2.1 200 17:56 12.12.2019
6415 Clouds 3 1001 83 10000 2.1 200 17:38 12.12.2019
6416 Clouds 3 1001 83 10000 2.1 200 17:38 12.12.2019
6417 Clouds 3 1001 89 10000 2.1 200 17:19 12.12.2019
6418 Clouds 3 1002 89 10000 1.5 190 16:54 12.12.2019
6419 Clouds 3 1002 89 10000 2.1 220 16:36 12.12.2019
6420 Clouds 3 1002 89 10000 2.1 220 16:18 12.12.2019
6421 Rain 4 1003 89 10000 3.6 240 15:42 12.12.2019
6422 Rain 4 1003 89 10000 3.6 240 15:20 12.12.2019
6423 Clouds 4 1003 75 10000 3.6 220 14:57 12.12.2019
6424 Clouds 4 1004 89 10000 4.6 240 14:38 12.12.2019
6425 Clouds 4 1004 92 10000 4.6 240 14:19 12.12.2019
6426 Rain 4 1004 75 10000 5.1 240 13:56 12.12.2019
6427 Rain 4 1004 75 10000 3.6 220 13:38 12.12.2019
6428 Rain 4 1004 75 10000 3.6 220 13:20 12.12.2019
6429 Clouds 4 1004 80 10000 2.6 220 12:56 12.12.2019
6430 Clouds 4 1005 80 10000 3.6 230 12:38 12.12.2019
6431 Clouds 4 1005 80 10000 3.6 230 12:19 12.12.2019
6432 Clouds 4 1005 86 10000 3.6 220 11:54 12.12.2019
6433 Clouds 3 1005 86 10000 3.1 210 11:36 12.12.2019
6434 Rain 3 1005 93 10000 2.6 200 11:18 12.12.2019
6435 Rain 3 1005 86 10000 2.6 200 10:41 12.12.2019
6436 Rain 3 1005 86 10000 2.6 200 10:23 12.12.2019
6437 Rain 3 1005 86 10000 2.6 200 10:23 12.12.2019
6438 Rain 3 1005 86 10000 1.5 200 09:59 12.12.2019
6439 Rain 2 1005 93 10000 2.1 200 09:41 12.12.2019
6440 Rain 2 1005 93 10000 2.1 200 09:23 12.12.2019
6441 Rain 2 1005 93 10000 1 0 08:56 12.12.2019
6442 Rain 2 1005 93 10000 0.5 90 08:38 12.12.2019
6443 Rain 2 1005 93 10000 0.5 90 08:38 12.12.2019
6444 Rain 2 1005 93 10000 1 0 08:19 12.12.2019
6445 Rain 2 1005 93 10000 1 0 07:42 12.12.2019
6446 Rain 2 1005 93 10000 1 0 07:24 12.12.2019
6447 Clouds 2 1005 93 10000 1.5 200 06:48 12.12.2019
6448 Clouds 2 1005 93 10000 0.5 0 06:30 12.12.2019
6449 Clouds 2 1005 88 10000 1.5 120 05:36 12.12.2019
6450 Clouds 2 1005 93 10000 0.5 0 04:51 12.12.2019
6451 Clouds 2 1005 93 10000 0.5 0 04:51 12.12.2019
6452 Clouds 2 1005 93 10000 0.5 0 04:51 12.12.2019
6453 Clouds 2 1006 93 10000 1 0 03:24 12.12.2019
6454 Clouds 2 1007 93 10000 2.1 210 02:38 12.12.2019
6455 Clouds 2 1007 93 10000 2.1 210 02:19 12.12.2019
6456 Clouds 2 1007 86 10000 2.1 210 01:37 12.12.2019
6457 Clouds 2 1007 86 10000 2.1 210 01:19 12.12.2019
6458 Clouds 2 1007 86 10000 3.1 210 00:46 12.12.2019
6459 Clouds 2 1007 86 10000 3.1 210 00:19 12.12.2019
6460 Rain 2 1008 86 10000 3.6 210 23:44 11.12.2019
6461 Snow 2 1008 93 10000 4.1 210 23:21 11.12.2019
6462 Snow 2 1008 86 10000 3.1 210 22:57 11.12.2019
6463 Snow 2 1008 86 10000 3.1 210 22:38 11.12.2019
6464 Snow 2 1008 86 10000 3.1 210 22:20 11.12.2019
6465 Snow 2 1008 93 10000 2.6 210 21:57 11.12.2019
6466 Snow 2 1008 93 10000 2.1 220 21:38 11.12.2019
6467 Snow 2 1008 93 10000 2.1 220 21:19 11.12.2019
6468 Snow 2 1008 93 10000 2.1 220 20:56 11.12.2019
6469 Snow 2 1008 93 10000 3.1 210 20:37 11.12.2019
6470 Snow 2 1008 93 10000 3.1 210 20:19 11.12.2019
6471 Snow 2 1008 93 10000 3.6 200 19:57 11.12.2019
6472 Rain 2 1008 86 9000 3.6 210 19:39 11.12.2019
6473 Rain 2 1008 86 9000 3.6 210 19:19 11.12.2019
6474 Rain 2 1007 86 10000 1.5 240 18:41 11.12.2019
6475 Rain 2 1007 86 10000 1.5 240 18:21 11.12.2019
6476 Rain 2 1008 93 10000 0.5 180 17:57 11.12.2019
6477 Rain 2 1008 93 10000 0.5 180 17:57 11.12.2019
6478 Rain 2 1008 93 9000 1 200 17:39 11.12.2019
6479 Rain 2 1008 81 10000 2.1 130 17:19 11.12.2019
6480 Rain 2 1008 81 10000 2.1 130 16:57 11.12.2019
6481 Rain 2 1008 81 10000 1 0 16:39 11.12.2019
6482 Rain 2 1008 81 10000 1 0 16:21 11.12.2019
6483 Rain 2 1008 74 10000 2.1 200 15:59 11.12.2019
6484 Rain 2 1008 74 10000 2.1 200 15:40 11.12.2019
6485 Rain 2 1008 69 10000 1 0 15:22 11.12.2019
6486 Clouds 2 1009 64 10000 1.5 110 14:56 11.12.2019
6487 Clouds 2 1009 74 10000 1.5 120 14:38 11.12.2019
6488 Clouds 2 1009 74 10000 1.5 120 14:19 11.12.2019
6489 Clouds 2 1010 69 10000 1.5 130 13:55 11.12.2019
6490 Clouds 2 1010 74 10000 1.5 180 13:36 11.12.2019
6491 Clouds 2 1010 74 10000 1.5 180 13:18 11.12.2019
6492 Rain 2 1011 74 10000 2.6 140 12:55 11.12.2019
6493 Clouds 2 1011 74 10000 1.5 170 12:37 11.12.2019
6494 Clouds 2 1012 74 10000 1.5 120 12:18 11.12.2019
6495 Clouds 2 1011 74 10000 1.5 170 12:18 11.12.2019
6496 Clouds 2 1012 74 10000 1.5 120 11:57 11.12.2019
6497 Clouds 2 1013 74 10000 1.5 100 11:38 11.12.2019
6498 Clouds 2 1013 74 10000 1.5 100 11:38 11.12.2019
6499 Clouds 1 1013 80 10000 1 0 11:18 11.12.2019
6500 Clouds 1 1013 80 10000 1 0 11:18 11.12.2019
6501 Clouds 1 1013 80 10000 1 0 10:44 11.12.2019
6502 Clouds 0 1013 80 10000 1 0 10:44 11.12.2019
6503 Clouds 0 1013 61 10000 1 0 10:26 11.12.2019
6504 Clouds 0 1013 86 10000 0.5 80 09:59 11.12.2019
6505 Clouds 0 1014 92 10000 1 0 09:39 11.12.2019
6506 Clouds 0 1014 92 10000 1 0 09:39 11.12.2019
6507 Clouds 0 1014 92 10000 1 0 09:39 11.12.2019
6508 Clouds -1 1014 92 10000 1 0 09:20 11.12.2019
6509 Clouds -1 1014 86 10000 1.5 100 08:57 11.12.2019
6510 Clouds 0 1014 86 10000 1.5 110 08:38 11.12.2019
6511 Clouds -2 1014 86 10000 1.5 110 08:19 11.12.2019
6512 Clouds -2 1015 70 10000 1.5 0 07:55 11.12.2019
6513 Clouds -2 1015 74 10000 1.5 220 07:37 11.12.2019
6514 Clouds -2 1015 86 10000 1 0 07:18 11.12.2019
6515 Clouds -2 1015 86 10000 1 100 06:43 11.12.2019
6516 Clouds -2 1015 86 10000 1 100 06:22 11.12.2019
6517 Clouds -2 1016 86 10000 0.5 0 05:41 11.12.2019
6518 Clouds -2 1016 86 10000 0.5 0 05:19 11.12.2019
6519 Clouds -2 1017 79 10000 1.5 220 04:27 11.12.2019
6520 Clouds -1 1019 86 10000 0.5 0 02:49 11.12.2019
6521 Clouds -1 1020 86 10000 0.5 0 01:25 11.12.2019
6522 Clouds -1 1021 92 10000 0.5 0 00:47 11.12.2019
6523 Clouds -1 1021 92 10000 1 0 00:22 11.12.2019
6524 Clouds -2 1022 100 10000 0.5 0 23:57 10.12.2019
6525 Clouds -2 1022 100 10000 0.5 0 23:39 10.12.2019
6526 Clouds -1 1022 86 10000 0.5 0 23:21 10.12.2019
6527 Clouds -2 1022 92 10000 0.5 0 22:40 10.12.2019
6528 Clouds -2 1023 86 10000 0.5 0 22:40 10.12.2019
6529 Clouds -1 1023 86 10000 0.5 0 22:22 10.12.2019
6530 Clouds -2 1023 92 10000 1 0 21:57 10.12.2019
6531 Clouds -2 1023 92 10000 1 0 21:39 10.12.2019
6532 Clouds -2 1023 86 10000 0.5 70 21:21 10.12.2019
6533 Clouds -2 1023 86 10000 0.5 70 21:21 10.12.2019
6534 Clouds -1 1023 80 10000 1 0 20:57 10.12.2019
6535 Clouds -1 1024 82 10000 0.5 0 20:38 10.12.2019
6536 Clear -1 1024 78 10000 0.5 0 20:19 10.12.2019
6537 Clear -1 1024 78 10000 0.5 0 20:19 10.12.2019
6538 Clear -1 1024 86 10000 0.5 0 19:55 10.12.2019
6539 Clear -1 1024 86 10000 0.5 0 19:37 10.12.2019
6540 Clear -1 1024 86 10000 0.5 0 19:19 10.12.2019
6541 Clear 0 1024 69 10000 1.5 200 18:42 10.12.2019
6542 Clear 0 1024 69 10000 1.5 200 18:21 10.12.2019
6543 Clear 1 1025 69 10000 2.1 200 17:58 10.12.2019
6544 Clouds 1 1025 64 10000 2.1 170 17:40 10.12.2019
6545 Clouds 2 1025 64 10000 2.1 170 17:22 10.12.2019
6546 Clouds 2 1025 64 10000 1.5 180 16:55 10.12.2019
6547 Clouds 3 1025 60 10000 2.6 180 16:36 10.12.2019
6548 Clouds 3 1025 60 10000 2.6 180 16:18 10.12.2019
6549 Clouds 4 1026 60 10000 3.1 220 15:39 10.12.2019
6550 Clouds 4 1026 60 10000 3.1 220 15:18 10.12.2019
6551 Clouds 4 1027 52 10000 1.5 240 14:56 10.12.2019
6552 Clouds 4 1027 60 10000 2.6 300 14:38 10.12.2019
6553 Clouds 5 1027 60 10000 2.6 300 14:20 10.12.2019
6554 Clouds 5 1027 60 10000 2.6 300 14:20 10.12.2019
6555 Clouds 5 1027 52 10000 2.6 200 13:58 10.12.2019
6556 Clouds 4 1027 60 10000 2.6 220 13:40 10.12.2019
6557 Clouds 4 1027 60 10000 2.6 220 13:20 10.12.2019
6558 Clouds 4 1027 65 10000 2.6 160 12:48 10.12.2019
6559 Clouds 4 1028 66 10000 3.1 180 12:28 10.12.2019
6560 Clouds 4 1028 80 10000 2.6 180 11:56 10.12.2019
6561 Clouds 4 1028 66 10000 3.1 180 11:38 10.12.2019
6562 Clouds 3 1028 83 10000 3.1 180 11:19 10.12.2019
6563 Clouds 3 1027 83 10000 2.6 190 10:43 10.12.2019
6564 Clouds 2 1027 83 10000 1 160 10:24 10.12.2019
6565 Clouds 2 1027 83 10000 1 0 09:57 10.12.2019
6566 Clouds 2 1027 83 10000 1 0 09:57 10.12.2019
6567 Clouds 2 1027 86 10000 3.6 270 09:39 10.12.2019
6568 Clouds 1 1027 86 10000 3.6 270 09:20 10.12.2019
6569 Rain 1 1026 83 10000 4.1 280 08:58 10.12.2019
6570 Clouds 1 1026 83 8000 5.1 280 08:39 10.12.2019
6571 Clouds 1 1026 91 8000 5.1 280 08:21 10.12.2019
6572 Clouds 1 1026 86 10000 4.1 270 07:45 10.12.2019
6573 Clouds 1 1025 80 10000 5.1 280 07:27 10.12.2019
6574 Clouds 1 1024 80 10000 4.6 280 06:56 10.12.2019
6575 Clouds 1 1024 86 10000 4.1 270 06:38 10.12.2019
6576 Clouds 1 1024 86 10000 4.1 270 06:19 10.12.2019
6577 Clouds 1 1023 80 10000 4.6 290 05:51 10.12.2019
6578 Clouds 2 1022 85 10000 5.1 290 04:35 10.12.2019
6579 Clouds 3 1021 85 10000 6.2 290 03:31 10.12.2019
6580 Clouds 3 1019 80 10000 8.2 300 02:36 10.12.2019
6581 Clouds 4 1018 86 10000 8.7 310 01:42 10.12.2019
6582 Rain 4 1017 93 10000 10.3 310 01:19 10.12.2019
6583 Rain 4 1016 86 10000 7.2 300 00:38 10.12.2019
6584 Rain 5 1015 86 9000 5.7 300 00:18 10.12.2019
6585 Rain 5 1014 93 9000 5.1 280 23:40 09.12.2019
6586 Rain 5 1014 93 9000 5.1 280 23:22 09.12.2019
6587 Rain 5 1013 86 10000 5.1 280 22:57 09.12.2019
6588 Rain 5 1013 86 10000 3.6 270 22:39 09.12.2019
6589 Rain 5 1013 86 10000 3.6 270 22:19 09.12.2019
6590 Clouds 5 1012 86 10000 4.1 260 21:56 09.12.2019
6591 Rain 5 1011 86 10000 3.1 250 21:38 09.12.2019
6592 Rain 5 1011 86 10000 3.1 250 21:18 09.12.2019
6593 Clouds 5 1010 86 10000 1.5 230 20:56 09.12.2019
6594 Rain 5 1009 86 10000 2.6 240 20:38 09.12.2019
6595 Rain 5 1009 86 10000 2.6 240 20:19 09.12.2019
6596 Clouds 5 1009 86 10000 4.1 260 19:55 09.12.2019
6597 Clouds 5 1009 86 10000 4.1 260 19:55 09.12.2019
6598 Clouds 5 1008 86 10000 4.6 270 19:37 09.12.2019
6599 Clouds 5 1008 86 10000 4.6 270 19:19 09.12.2019
6600 Rain 5 1007 86 10000 5.7 270 18:56 09.12.2019
6601 Rain 5 1006 81 10000 7.2 280 18:37 09.12.2019
6602 Rain 5 1006 81 10000 7.2 280 18:19 09.12.2019
6603 Rain 6 1005 87 10000 4.1 260 17:57 09.12.2019
6604 Rain 6 1005 75 10000 3.1 230 17:38 09.12.2019
6605 Rain 6 1005 75 10000 3.1 230 17:20 09.12.2019
6606 Rain 6 1004 75 10000 4.1 230 16:56 09.12.2019
6607 Rain 6 1004 75 10000 4.1 220 16:37 09.12.2019
6608 Rain 6 1004 75 10000 4.1 220 16:19 09.12.2019
6609 Rain 6 1004 75 10000 4.6 230 15:55 09.12.2019
6610 Rain 6 1004 75 10000 4.6 230 15:55 09.12.2019
6611 Rain 7 1004 75 10000 4.1 230 15:37 09.12.2019
6612 Rain 6 1004 75 10000 4.1 230 15:37 09.12.2019
6613 Rain 7 1004 75 10000 4.1 230 15:19 09.12.2019
6614 Clouds 7 1003 70 10000 3.6 220 14:42 09.12.2019
6615 Clouds 7 1003 70 10000 3.6 220 14:19 09.12.2019
6616 Rain 7 1003 75 10000 3.6 210 13:59 09.12.2019
6617 Rain 7 1003 81 10000 4.1 210 13:39 09.12.2019
6618 Rain 8 1003 81 10000 4.1 210 13:19 09.12.2019
6619 Rain 8 1003 75 10000 4.1 210 12:57 09.12.2019
6620 Rain 8 1004 75 10000 5.1 200 12:38 09.12.2019
6621 Rain 8 1004 75 10000 5.1 200 12:20 09.12.2019
6622 Rain 8 1004 75 10000 4.1 210 11:59 09.12.2019
6623 Rain 8 1004 75 10000 4.1 210 11:39 09.12.2019
6624 Rain 7 1004 75 10000 6.2 200 11:21 09.12.2019
6625 Clouds 7 1004 75 10000 6.7 210 10:56 09.12.2019
6626 Clouds 7 1004 75 10000 6.2 210 10:38 09.12.2019
6627 Rain 7 1004 81 10000 4.6 210 10:18 09.12.2019
6628 Rain 6 1004 81 10000 5.7 220 09:41 09.12.2019
6629 Rain 7 1004 81 10000 5.7 220 09:23 09.12.2019
6630 Rain 6 1004 70 10000 6.2 220 08:55 09.12.2019
6631 Rain 6 1004 70 10000 5.7 210 08:37 09.12.2019
6632 Rain 6 1004 70 10000 5.1 220 08:19 09.12.2019
6633 Rain 6 1004 70 10000 5.1 220 07:44 09.12.2019
6634 Rain 6 1004 75 10000 4.6 210 07:25 09.12.2019
6635 Clouds 6 1005 75 10000 3.6 220 06:55 09.12.2019
6636 Clouds 6 1005 81 10000 3.6 210 06:28 09.12.2019
6637 Rain 6 1005 81 10000 6.2 220 05:30 09.12.2019
6638 Clouds 6 1005 75 10000 5.1 220 04:54 09.12.2019
6639 Rain 6 1005 75 10000 4.6 220 04:25 09.12.2019
6640 Clouds 6 1006 81 10000 3.6 240 02:28 09.12.2019
6641 Clouds 6 1006 75 10000 3.1 230 01:46 09.12.2019
6642 Clouds 7 1006 81 10000 6.2 260 00:57 09.12.2019
6643 Rain 7 1006 87 10000 9.3 270 00:33 09.12.2019
6644 Rain 7 1006 87 10000 8.2 290 23:55 08.12.2019
6645 Rain 8 1005 93 10000 2.6 220 23:37 08.12.2019
6646 Rain 8 1005 93 10000 2.6 220 23:18 08.12.2019
6647 Rain 9 1005 87 10000 5.1 220 22:56 08.12.2019
6648 Rain 10 1005 81 10000 4.1 210 22:38 08.12.2019
6649 Rain 10 1005 81 10000 4.1 210 22:38 08.12.2019
6650 Rain 10 1005 81 10000 4.1 210 22:18 08.12.2019
6651 Clouds 10 1005 81 10000 4.6 210 21:55 08.12.2019
6652 Clouds 10 1006 81 10000 4.1 210 21:37 08.12.2019
6653 Clouds 10 1006 81 10000 4.1 210 21:19 08.12.2019
6654 Clouds 10 1006 87 10000 4.6 210 20:55 08.12.2019
6655 Rain 10 1006 81 10000 4.6 210 20:37 08.12.2019
6656 Rain 10 1006 81 10000 4.6 210 20:19 08.12.2019
6657 Rain 10 1006 76 10000 4.6 210 19:55 08.12.2019
6658 Rain 10 1007 76 10000 5.1 210 19:36 08.12.2019
6659 Clouds 10 1007 66 10000 5.1 220 19:18 08.12.2019
6660 Rain 10 1007 76 10000 5.1 210 19:18 08.12.2019
6661 Clouds 10 1007 66 10000 5.1 220 18:54 08.12.2019
6662 Clouds 10 1007 66 10000 4.6 210 18:36 08.12.2019
6663 Clouds 10 1007 66 10000 4.6 210 18:18 08.12.2019
6664 Clouds 10 1007 66 10000 4.6 210 17:54 08.12.2019
6665 Clouds 10 1007 71 10000 5.7 210 17:36 08.12.2019
6666 Clouds 10 1007 71 10000 5.7 210 17:18 08.12.2019
6667 Clouds 10 1007 71 10000 5.7 210 17:18 08.12.2019
6668 Rain 10 1007 66 10000 6.2 230 16:55 08.12.2019
6669 Rain 10 1007 66 10000 4.6 220 16:37 08.12.2019
6670 Clouds 10 1008 66 10000 4.6 210 16:18 08.12.2019
6671 Clouds 10 1008 66 10000 4.1 220 15:38 08.12.2019
6672 Clouds 10 1008 66 10000 4.1 220 15:19 08.12.2019
6673 Clouds 10 1009 66 10000 4.6 210 14:58 08.12.2019
6674 Clouds 11 1009 66 10000 6.2 220 14:38 08.12.2019
6675 Clouds 11 1009 66 10000 6.2 220 14:20 08.12.2019
6676 Clouds 11 1011 66 10000 6.2 230 13:42 08.12.2019
6677 Clouds 11 1011 66 10000 6.2 230 13:42 08.12.2019
6678 Clouds 10 1011 66 10000 6.2 230 13:23 08.12.2019
6679 Clouds 10 1011 66 10000 5.1 240 12:59 08.12.2019
6680 Clouds 10 1011 66 10000 5.1 240 12:41 08.12.2019
6681 Clouds 10 1012 66 10000 4.1 220 12:23 08.12.2019
6682 Clouds 10 1012 71 10000 4.1 200 11:59 08.12.2019
6683 Clouds 9 1013 66 10000 3.1 190 11:38 08.12.2019
6684 Clouds 9 1013 66 10000 3.1 190 11:19 08.12.2019
6685 Clouds 8 1013 70 10000 2.6 190 10:58 08.12.2019
6686 Clouds 8 1013 70 10000 1.5 180 10:38 08.12.2019
6687 Clouds 8 1013 70 10000 1.5 180 10:19 08.12.2019
6688 Clouds 7 1013 75 10000 1.5 150 09:56 08.12.2019
6689 Clouds 7 1014 75 10000 2.1 160 09:37 08.12.2019
6690 Clouds 7 1014 75 10000 2.1 160 09:19 08.12.2019
6691 Clouds 7 1014 70 10000 3.1 200 08:57 08.12.2019
6692 Clouds 7 1014 70 10000 3.1 200 08:57 08.12.2019
6693 Clouds 7 1014 70 10000 1.5 180 08:37 08.12.2019
6694 Clouds 6 1014 75 10000 3.1 180 08:18 08.12.2019
6695 Clouds 6 1014 75 10000 3.1 180 07:42 08.12.2019
6696 Clouds 6 1014 75 10000 2.1 190 07:19 08.12.2019
6697 Clouds 6 1015 75 10000 2.6 190 06:50 08.12.2019
6698 Clouds 6 1015 75 10000 2.6 190 06:22 08.12.2019
6699 Clouds 6 1015 75 10000 2.6 190 05:43 08.12.2019
6700 Clouds 6 1015 75 10000 2.6 210 05:18 08.12.2019
6701 Clouds 6 1016 75 10000 2.6 220 03:50 08.12.2019
6702 Clouds 6 1017 75 10000 2.1 240 03:22 08.12.2019
6703 Clouds 6 1017 81 10000 2.1 220 02:39 08.12.2019
6704 Clouds 6 1017 81 10000 3.1 210 01:55 08.12.2019
6705 Clouds 6 1018 81 10000 3.1 210 01:23 08.12.2019
6706 Clouds 6 1019 87 10000 1.5 230 00:40 08.12.2019
6707 Clouds 6 1019 87 10000 1.5 230 00:20 08.12.2019
6708 Clouds 6 1019 87 10000 1.5 230 00:20 08.12.2019
6709 Clouds 6 1019 87 10000 2.1 210 23:41 07.12.2019
6710 Clouds 6 1019 87 10000 2.1 210 23:21 07.12.2019
6711 Clouds 6 1019 87 10000 2.1 210 23:21 07.12.2019
6712 Clouds 6 1019 87 10000 3.6 200 22:58 07.12.2019
6713 Clouds 6 1019 93 10000 2.6 200 22:40 07.12.2019
6714 Clouds 6 1019 93 10000 2.6 200 22:21 07.12.2019
6715 Clouds 6 1019 93 10000 2.1 220 21:56 07.12.2019
6716 Rain 6 1019 93 10000 1.5 220 21:38 07.12.2019
6717 Rain 6 1019 93 10000 1.5 220 21:20 07.12.2019
6718 Rain 6 1019 87 10000 2.6 220 20:59 07.12.2019
6719 Rain 6 1019 87 10000 2.6 220 20:37 07.12.2019
6720 Rain 7 1019 87 10000 2.6 220 20:19 07.12.2019
6721 Rain 7 1019 87 10000 3.1 220 19:56 07.12.2019
6722 Rain 7 1019 87 10000 2.1 230 19:38 07.12.2019
6723 Rain 7 1019 87 10000 2.1 230 19:20 07.12.2019
6724 Clouds 6 1019 87 10000 1.5 220 18:55 07.12.2019
6725 Rain 7 1018 87 10000 1.5 210 18:36 07.12.2019
6726 Clouds 7 1018 87 10000 2.6 210 18:18 07.12.2019
6727 Rain 7 1018 87 10000 2.6 200 17:42 07.12.2019
6728 Rain 7 1018 87 10000 2.6 200 17:24 07.12.2019
6729 Rain 7 1018 87 10000 1.5 210 16:58 07.12.2019
6730 Rain 7 1018 87 10000 1.5 210 16:39 07.12.2019
6731 Clouds 7 1018 87 10000 3.1 230 16:21 07.12.2019
6732 Clouds 8 1017 87 10000 2.6 230 15:57 07.12.2019
6733 Clouds 8 1017 87 10000 2.6 230 15:57 07.12.2019
6734 Rain 8 1017 87 10000 2.6 230 15:38 07.12.2019
6735 Rain 8 1017 87 10000 2.6 230 15:20 07.12.2019
6736 Rain 8 1017 87 10000 2.6 230 15:20 07.12.2019